<?xml version="1.0" encoding="UTF-8"?>
<gpx version="1.1" creator="Endomondo.com" xsi:schemaLocation="http://www.topografix.com/GPX/1/1 http://www.topografix.com/GPX/1/1/gpx.xsd http://www.garmin.com/xmlschemas/GpxExtensions/v3 http://www.garmin.com/xmlschemas/GpxExtensionsv3.xsd http://www.garmin.com/xmlschemas/TrackPointExtension/v1 http://www.garmin.com/xmlschemas/TrackPointExtensionv1.xsd" xmlns="http://www.topografix.com/GPX/1/1" xmlns:gpxtpx="http://www.garmin.com/xmlschemas/TrackPointExtension/v1" xmlns:gpxx="http://www.garmin.com/xmlschemas/GpxExtensions/v3" xmlns:xsi="http://www.w3.org/2001/XMLSchema-instance">
  <metadata>
    <author>
      <name>Pablo Pravia Fernadez</name>
      <email id="praporvertesonreir" domain="gmail.com"/>
    </author>
    <link href="http://www.endomondo.com">
      <text>Endomondo</text>
    </link>
    <time>2012-07-06T07:54:31Z</time>
    <bounds minlat="43.392423" minlon="-6.071979" maxlat="43.383607" maxlon="-6.074504"/>
  </metadata>
  <trk>
    <name>115 Km, Cobertoria</name>
    <cmt>Grao, Vuelta Paladin, Peñaflor, Trubia, Proaza, Quiros, Alto de la Cobertoria 1173m ( 9 Km al 7.5% ), Quiros, Proaza, Trubia, Grado. 115 Km.</cmt>
    <src>http://www.endomondo.com/</src>
    <link href="http://www.endomondo.com/workouts/uA8xVTx1Goo">
      <text>115 Km, Cobertoria</text>
    </link>
    <type>CYCLING_SPORT</type>
    <trkseg>
      <trkpt lat="43.392423" lon="-6.071979">
        <time>2012-07-05T12:08:19Z</time>
      </trkpt>
      <trkpt lat="43.392423" lon="-6.071979">
        <time>2012-07-05T12:08:30Z</time>
      </trkpt>
    </trkseg>
    <trkseg>
      <trkpt lat="43.392423" lon="-6.071979">
        <time>2012-07-05T12:08:31Z</time>
      </trkpt>
      <trkpt lat="43.392423" lon="-6.071979">
        <ele>187.0</ele>
        <time>2012-07-05T12:08:36Z</time>
      </trkpt>
      <trkpt lat="43.392135" lon="-6.071777">
        <ele>185.0</ele>
        <time>2012-07-05T12:08:39Z</time>
      </trkpt>
      <trkpt lat="43.391849" lon="-6.07147">
        <ele>183.0</ele>
        <time>2012-07-05T12:08:43Z</time>
      </trkpt>
      <trkpt lat="43.391794" lon="-6.071069">
        <ele>181.0</ele>
        <time>2012-07-05T12:08:48Z</time>
      </trkpt>
      <trkpt lat="43.392151" lon="-6.071046">
        <ele>177.0</ele>
        <time>2012-07-05T12:08:52Z</time>
      </trkpt>
      <trkpt lat="43.392464" lon="-6.070932">
        <ele>172.0</ele>
        <time>2012-07-05T12:08:56Z</time>
      </trkpt>
      <trkpt lat="43.392753" lon="-6.070838">
        <ele>168.0</ele>
        <time>2012-07-05T12:09:00Z</time>
      </trkpt>
      <trkpt lat="43.392966" lon="-6.070606">
        <ele>166.0</ele>
        <time>2012-07-05T12:09:04Z</time>
      </trkpt>
      <trkpt lat="43.393325" lon="-6.070398">
        <ele>164.0</ele>
        <time>2012-07-05T12:09:08Z</time>
      </trkpt>
      <trkpt lat="43.393618" lon="-6.070224">
        <ele>164.0</ele>
        <time>2012-07-05T12:09:12Z</time>
      </trkpt>
      <trkpt lat="43.393619" lon="-6.069857">
        <ele>163.0</ele>
        <time>2012-07-05T12:09:16Z</time>
      </trkpt>
      <trkpt lat="43.393402" lon="-6.069596">
        <ele>163.0</ele>
        <time>2012-07-05T12:09:19Z</time>
      </trkpt>
      <trkpt lat="43.393064" lon="-6.069322">
        <ele>163.0</ele>
        <time>2012-07-05T12:09:24Z</time>
      </trkpt>
      <trkpt lat="43.392895" lon="-6.068996">
        <ele>162.0</ele>
        <time>2012-07-05T12:09:28Z</time>
      </trkpt>
      <trkpt lat="43.392699" lon="-6.06859">
        <ele>160.0</ele>
        <time>2012-07-05T12:09:32Z</time>
      </trkpt>
      <trkpt lat="43.392532" lon="-6.068093">
        <ele>157.0</ele>
        <time>2012-07-05T12:09:36Z</time>
      </trkpt>
      <trkpt lat="43.392394" lon="-6.067647">
        <ele>154.0</ele>
        <time>2012-07-05T12:09:40Z</time>
      </trkpt>
      <trkpt lat="43.392371" lon="-6.067563">
        <ele>153.0</ele>
        <time>2012-07-05T12:09:41Z</time>
      </trkpt>
      <trkpt lat="43.392343" lon="-6.067249">
        <ele>153.0</ele>
        <time>2012-07-05T12:09:52Z</time>
      </trkpt>
      <trkpt lat="43.392433" lon="-6.067021">
        <ele>152.0</ele>
        <time>2012-07-05T12:09:56Z</time>
      </trkpt>
      <trkpt lat="43.392566" lon="-6.066786">
        <ele>153.0</ele>
        <time>2012-07-05T12:10:00Z</time>
      </trkpt>
      <trkpt lat="43.392883" lon="-6.066625">
        <ele>153.0</ele>
        <time>2012-07-05T12:10:04Z</time>
      </trkpt>
      <trkpt lat="43.393302" lon="-6.066489">
        <ele>153.0</ele>
        <time>2012-07-05T12:10:08Z</time>
      </trkpt>
      <trkpt lat="43.393623" lon="-6.066109">
        <ele>151.0</ele>
        <time>2012-07-05T12:10:12Z</time>
      </trkpt>
      <trkpt lat="43.393695" lon="-6.065615">
        <ele>151.0</ele>
        <time>2012-07-05T12:10:16Z</time>
      </trkpt>
      <trkpt lat="43.393602" lon="-6.065143">
        <ele>149.0</ele>
        <time>2012-07-05T12:10:20Z</time>
      </trkpt>
      <trkpt lat="43.393468" lon="-6.064661">
        <ele>148.0</ele>
        <time>2012-07-05T12:10:24Z</time>
      </trkpt>
      <trkpt lat="43.393405" lon="-6.064179">
        <ele>146.0</ele>
        <time>2012-07-05T12:10:28Z</time>
      </trkpt>
      <trkpt lat="43.393389" lon="-6.06369">
        <ele>145.0</ele>
        <time>2012-07-05T12:10:32Z</time>
      </trkpt>
      <trkpt lat="43.39339" lon="-6.063194">
        <ele>144.0</ele>
        <time>2012-07-05T12:10:36Z</time>
      </trkpt>
      <trkpt lat="43.393367" lon="-6.062708">
        <ele>142.0</ele>
        <time>2012-07-05T12:10:40Z</time>
      </trkpt>
      <trkpt lat="43.39335" lon="-6.062237">
        <ele>140.0</ele>
        <time>2012-07-05T12:10:44Z</time>
      </trkpt>
      <trkpt lat="43.39336" lon="-6.061789">
        <ele>139.0</ele>
        <time>2012-07-05T12:10:48Z</time>
      </trkpt>
      <trkpt lat="43.393369" lon="-6.061358">
        <ele>138.0</ele>
        <time>2012-07-05T12:10:52Z</time>
      </trkpt>
      <trkpt lat="43.393382" lon="-6.060939">
        <ele>137.0</ele>
        <time>2012-07-05T12:10:56Z</time>
      </trkpt>
      <trkpt lat="43.393499" lon="-6.06056">
        <ele>136.0</ele>
        <time>2012-07-05T12:11:00Z</time>
      </trkpt>
      <trkpt lat="43.393652" lon="-6.060206">
        <ele>136.0</ele>
        <time>2012-07-05T12:11:04Z</time>
      </trkpt>
      <trkpt lat="43.39385" lon="-6.059849">
        <ele>136.0</ele>
        <time>2012-07-05T12:11:08Z</time>
      </trkpt>
      <trkpt lat="43.394055" lon="-6.059483">
        <ele>136.0</ele>
        <time>2012-07-05T12:11:12Z</time>
      </trkpt>
      <trkpt lat="43.394247" lon="-6.059111">
        <ele>134.0</ele>
        <time>2012-07-05T12:11:16Z</time>
      </trkpt>
      <trkpt lat="43.394442" lon="-6.058742">
        <ele>132.0</ele>
        <time>2012-07-05T12:11:20Z</time>
      </trkpt>
      <trkpt lat="43.394549" lon="-6.058324">
        <ele>132.0</ele>
        <time>2012-07-05T12:11:24Z</time>
      </trkpt>
      <trkpt lat="43.394656" lon="-6.058153">
        <ele>132.0</ele>
        <time>2012-07-05T12:11:26Z</time>
      </trkpt>
      <trkpt lat="43.394981" lon="-6.057689">
        <ele>131.0</ele>
        <time>2012-07-05T12:11:32Z</time>
      </trkpt>
      <trkpt lat="43.395127" lon="-6.0573">
        <ele>131.0</ele>
        <time>2012-07-05T12:11:36Z</time>
      </trkpt>
      <trkpt lat="43.395274" lon="-6.056924">
        <ele>130.0</ele>
        <time>2012-07-05T12:11:40Z</time>
      </trkpt>
      <trkpt lat="43.395415" lon="-6.056624">
        <ele>129.0</ele>
        <time>2012-07-05T12:11:44Z</time>
      </trkpt>
      <trkpt lat="43.395571" lon="-6.056315">
        <ele>129.0</ele>
        <time>2012-07-05T12:11:48Z</time>
      </trkpt>
      <trkpt lat="43.395733" lon="-6.055988">
        <ele>130.0</ele>
        <time>2012-07-05T12:11:52Z</time>
      </trkpt>
      <trkpt lat="43.395912" lon="-6.055641">
        <ele>130.0</ele>
        <time>2012-07-05T12:11:56Z</time>
      </trkpt>
      <trkpt lat="43.396094" lon="-6.055287">
        <ele>130.0</ele>
        <time>2012-07-05T12:12:00Z</time>
      </trkpt>
      <trkpt lat="43.396273" lon="-6.054921">
        <ele>130.0</ele>
        <time>2012-07-05T12:12:04Z</time>
      </trkpt>
      <trkpt lat="43.396454" lon="-6.054541">
        <ele>129.0</ele>
        <time>2012-07-05T12:12:08Z</time>
      </trkpt>
      <trkpt lat="43.396653" lon="-6.054145">
        <ele>129.0</ele>
        <time>2012-07-05T12:12:12Z</time>
      </trkpt>
      <trkpt lat="43.396827" lon="-6.053726">
        <ele>129.0</ele>
        <time>2012-07-05T12:12:16Z</time>
      </trkpt>
      <trkpt lat="43.397001" lon="-6.053324">
        <ele>129.0</ele>
        <time>2012-07-05T12:12:20Z</time>
      </trkpt>
      <trkpt lat="43.397183" lon="-6.05293">
        <ele>129.0</ele>
        <time>2012-07-05T12:12:24Z</time>
      </trkpt>
      <trkpt lat="43.397366" lon="-6.052536">
        <ele>128.0</ele>
        <time>2012-07-05T12:12:28Z</time>
      </trkpt>
      <trkpt lat="43.397577" lon="-6.052138">
        <ele>128.0</ele>
        <time>2012-07-05T12:12:32Z</time>
      </trkpt>
      <trkpt lat="43.397808" lon="-6.051727">
        <ele>128.0</ele>
        <time>2012-07-05T12:12:36Z</time>
      </trkpt>
      <trkpt lat="43.397916" lon="-6.05126">
        <ele>128.0</ele>
        <time>2012-07-05T12:12:40Z</time>
      </trkpt>
      <trkpt lat="43.397856" lon="-6.050931">
        <ele>128.0</ele>
        <time>2012-07-05T12:12:43Z</time>
      </trkpt>
      <trkpt lat="43.397997" lon="-6.050397">
        <ele>128.0</ele>
        <time>2012-07-05T12:12:48Z</time>
      </trkpt>
      <trkpt lat="43.398288" lon="-6.050303">
        <ele>129.0</ele>
        <time>2012-07-05T12:12:52Z</time>
      </trkpt>
      <trkpt lat="43.398546" lon="-6.050026">
        <ele>131.0</ele>
        <time>2012-07-05T12:12:56Z</time>
      </trkpt>
      <trkpt lat="43.398793" lon="-6.049705">
        <ele>133.0</ele>
        <time>2012-07-05T12:13:00Z</time>
      </trkpt>
      <trkpt lat="43.399016" lon="-6.049369">
        <ele>134.0</ele>
        <time>2012-07-05T12:13:04Z</time>
      </trkpt>
      <trkpt lat="43.39921" lon="-6.049022">
        <ele>134.0</ele>
        <time>2012-07-05T12:13:08Z</time>
      </trkpt>
      <trkpt lat="43.399389" lon="-6.048675">
        <ele>134.0</ele>
        <time>2012-07-05T12:13:12Z</time>
      </trkpt>
      <trkpt lat="43.399543" lon="-6.048434">
        <ele>134.0</ele>
        <time>2012-07-05T12:13:15Z</time>
      </trkpt>
      <trkpt lat="43.39981" lon="-6.048044">
        <ele>133.0</ele>
        <time>2012-07-05T12:13:20Z</time>
      </trkpt>
      <trkpt lat="43.400045" lon="-6.047752">
        <ele>132.0</ele>
        <time>2012-07-05T12:13:24Z</time>
      </trkpt>
      <trkpt lat="43.400291" lon="-6.047475">
        <ele>132.0</ele>
        <time>2012-07-05T12:13:28Z</time>
      </trkpt>
      <trkpt lat="43.400537" lon="-6.047223">
        <ele>132.0</ele>
        <time>2012-07-05T12:13:32Z</time>
      </trkpt>
      <trkpt lat="43.400658" lon="-6.047109">
        <ele>132.0</ele>
        <time>2012-07-05T12:13:34Z</time>
      </trkpt>
      <trkpt lat="43.400982" lon="-6.046848">
        <ele>132.0</ele>
        <time>2012-07-05T12:13:39Z</time>
      </trkpt>
      <trkpt lat="43.4013" lon="-6.046578">
        <ele>132.0</ele>
        <time>2012-07-05T12:13:44Z</time>
      </trkpt>
      <trkpt lat="43.401548" lon="-6.046363">
        <ele>131.0</ele>
        <time>2012-07-05T12:13:48Z</time>
      </trkpt>
      <trkpt lat="43.401797" lon="-6.046159">
        <ele>131.0</ele>
        <time>2012-07-05T12:13:52Z</time>
      </trkpt>
      <trkpt lat="43.402043" lon="-6.04595">
        <ele>131.0</ele>
        <time>2012-07-05T12:13:56Z</time>
      </trkpt>
      <trkpt lat="43.402211" lon="-6.04576">
        <ele>131.0</ele>
        <time>2012-07-05T12:13:59Z</time>
      </trkpt>
      <trkpt lat="43.402395" lon="-6.045328">
        <ele>131.0</ele>
        <time>2012-07-05T12:14:04Z</time>
      </trkpt>
      <trkpt lat="43.402492" lon="-6.045037">
        <ele>131.0</ele>
        <time>2012-07-05T12:14:07Z</time>
      </trkpt>
      <trkpt lat="43.402762" lon="-6.044592">
        <ele>131.0</ele>
        <time>2012-07-05T12:14:12Z</time>
      </trkpt>
      <trkpt lat="43.402982" lon="-6.04421">
        <ele>131.0</ele>
        <time>2012-07-05T12:14:16Z</time>
      </trkpt>
      <trkpt lat="43.403125" lon="-6.043727">
        <ele>131.0</ele>
        <time>2012-07-05T12:14:20Z</time>
      </trkpt>
      <trkpt lat="43.403194" lon="-6.043253">
        <ele>130.0</ele>
        <time>2012-07-05T12:14:24Z</time>
      </trkpt>
      <trkpt lat="43.403217" lon="-6.042792">
        <ele>130.0</ele>
        <time>2012-07-05T12:14:28Z</time>
      </trkpt>
      <trkpt lat="43.40321" lon="-6.042355">
        <ele>128.0</ele>
        <time>2012-07-05T12:14:32Z</time>
      </trkpt>
      <trkpt lat="43.403185" lon="-6.041964">
        <ele>127.0</ele>
        <time>2012-07-05T12:14:36Z</time>
      </trkpt>
      <trkpt lat="43.403148" lon="-6.041697">
        <ele>127.0</ele>
        <time>2012-07-05T12:14:39Z</time>
      </trkpt>
      <trkpt lat="43.403132" lon="-6.041534">
        <ele>127.0</ele>
        <time>2012-07-05T12:14:41Z</time>
      </trkpt>
      <trkpt lat="43.40313" lon="-6.04106">
        <ele>127.0</ele>
        <time>2012-07-05T12:14:47Z</time>
      </trkpt>
      <trkpt lat="43.403217" lon="-6.040948">
        <ele>127.0</ele>
        <time>2012-07-05T12:14:49Z</time>
      </trkpt>
      <trkpt lat="43.403438" lon="-6.040654">
        <ele>127.0</ele>
        <time>2012-07-05T12:15:00Z</time>
      </trkpt>
      <trkpt lat="43.403599" lon="-6.04054">
        <ele>128.0</ele>
        <time>2012-07-05T12:15:04Z</time>
      </trkpt>
      <trkpt lat="43.403806" lon="-6.040354">
        <ele>129.0</ele>
        <time>2012-07-05T12:15:08Z</time>
      </trkpt>
      <trkpt lat="43.404015" lon="-6.040062">
        <ele>129.0</ele>
        <time>2012-07-05T12:15:12Z</time>
      </trkpt>
      <trkpt lat="43.404264" lon="-6.039797">
        <ele>129.0</ele>
        <time>2012-07-05T12:15:16Z</time>
      </trkpt>
      <trkpt lat="43.404466" lon="-6.039479">
        <ele>129.0</ele>
        <time>2012-07-05T12:15:20Z</time>
      </trkpt>
      <trkpt lat="43.404502" lon="-6.039118">
        <ele>130.0</ele>
        <time>2012-07-05T12:15:24Z</time>
      </trkpt>
      <trkpt lat="43.40443" lon="-6.03872">
        <ele>130.0</ele>
        <time>2012-07-05T12:15:28Z</time>
      </trkpt>
      <trkpt lat="43.404331" lon="-6.038337">
        <ele>130.0</ele>
        <time>2012-07-05T12:15:32Z</time>
      </trkpt>
      <trkpt lat="43.404318" lon="-6.037976">
        <ele>129.0</ele>
        <time>2012-07-05T12:15:36Z</time>
      </trkpt>
      <trkpt lat="43.404331" lon="-6.037603">
        <ele>129.0</ele>
        <time>2012-07-05T12:15:40Z</time>
      </trkpt>
      <trkpt lat="43.404253" lon="-6.037228">
        <ele>128.0</ele>
        <time>2012-07-05T12:15:44Z</time>
      </trkpt>
      <trkpt lat="43.404076" lon="-6.036902">
        <ele>128.0</ele>
        <time>2012-07-05T12:15:48Z</time>
      </trkpt>
      <trkpt lat="43.403943" lon="-6.03656">
        <ele>128.0</ele>
        <time>2012-07-05T12:15:52Z</time>
      </trkpt>
      <trkpt lat="43.403856" lon="-6.036206">
        <ele>128.0</ele>
        <time>2012-07-05T12:15:56Z</time>
      </trkpt>
      <trkpt lat="43.403861" lon="-6.035833">
        <ele>129.0</ele>
        <time>2012-07-05T12:16:00Z</time>
      </trkpt>
      <trkpt lat="43.403883" lon="-6.035456">
        <ele>128.0</ele>
        <time>2012-07-05T12:16:04Z</time>
      </trkpt>
      <trkpt lat="43.403884" lon="-6.035077">
        <ele>128.0</ele>
        <time>2012-07-05T12:16:08Z</time>
      </trkpt>
      <trkpt lat="43.403897" lon="-6.034703">
        <ele>128.0</ele>
        <time>2012-07-05T12:16:12Z</time>
      </trkpt>
      <trkpt lat="43.40392" lon="-6.034293">
        <ele>128.0</ele>
        <time>2012-07-05T12:16:16Z</time>
      </trkpt>
      <trkpt lat="43.403905" lon="-6.033871">
        <ele>128.0</ele>
        <time>2012-07-05T12:16:20Z</time>
      </trkpt>
      <trkpt lat="43.403801" lon="-6.033521">
        <ele>127.0</ele>
        <time>2012-07-05T12:16:24Z</time>
      </trkpt>
      <trkpt lat="43.40373" lon="-6.033255">
        <ele>127.0</ele>
        <time>2012-07-05T12:16:27Z</time>
      </trkpt>
      <trkpt lat="43.40367" lon="-6.032984">
        <ele>127.0</ele>
        <time>2012-07-05T12:16:30Z</time>
      </trkpt>
      <trkpt lat="43.403591" lon="-6.032619">
        <ele>127.0</ele>
        <time>2012-07-05T12:16:34Z</time>
      </trkpt>
      <trkpt lat="43.403483" lon="-6.03207">
        <ele>128.0</ele>
        <time>2012-07-05T12:16:40Z</time>
      </trkpt>
      <trkpt lat="43.40352" lon="-6.031692">
        <ele>128.0</ele>
        <time>2012-07-05T12:16:44Z</time>
      </trkpt>
      <trkpt lat="43.403629" lon="-6.031317">
        <ele>129.0</ele>
        <time>2012-07-05T12:16:48Z</time>
      </trkpt>
      <trkpt lat="43.403788" lon="-6.030941">
        <ele>130.0</ele>
        <time>2012-07-05T12:16:52Z</time>
      </trkpt>
      <trkpt lat="43.403865" lon="-6.030527">
        <ele>131.0</ele>
        <time>2012-07-05T12:16:56Z</time>
      </trkpt>
      <trkpt lat="43.40379" lon="-6.030122">
        <ele>132.0</ele>
        <time>2012-07-05T12:17:00Z</time>
      </trkpt>
      <trkpt lat="43.403725" lon="-6.029743">
        <ele>131.0</ele>
        <time>2012-07-05T12:17:04Z</time>
      </trkpt>
      <trkpt lat="43.403646" lon="-6.029376">
        <ele>128.0</ele>
        <time>2012-07-05T12:17:08Z</time>
      </trkpt>
      <trkpt lat="43.40353" lon="-6.029017">
        <ele>127.0</ele>
        <time>2012-07-05T12:17:12Z</time>
      </trkpt>
      <trkpt lat="43.403391" lon="-6.028676">
        <ele>125.0</ele>
        <time>2012-07-05T12:17:16Z</time>
      </trkpt>
      <trkpt lat="43.403247" lon="-6.02834">
        <ele>125.0</ele>
        <time>2012-07-05T12:17:20Z</time>
      </trkpt>
      <trkpt lat="43.403115" lon="-6.027983">
        <ele>126.0</ele>
        <time>2012-07-05T12:17:24Z</time>
      </trkpt>
      <trkpt lat="43.403064" lon="-6.02758">
        <ele>126.0</ele>
        <time>2012-07-05T12:17:28Z</time>
      </trkpt>
      <trkpt lat="43.403024" lon="-6.027179">
        <ele>127.0</ele>
        <time>2012-07-05T12:17:32Z</time>
      </trkpt>
      <trkpt lat="43.402898" lon="-6.026817">
        <ele>127.0</ele>
        <time>2012-07-05T12:17:36Z</time>
      </trkpt>
      <trkpt lat="43.40275" lon="-6.026491">
        <ele>127.0</ele>
        <time>2012-07-05T12:17:40Z</time>
      </trkpt>
      <trkpt lat="43.402583" lon="-6.026196">
        <ele>126.0</ele>
        <time>2012-07-05T12:17:44Z</time>
      </trkpt>
      <trkpt lat="43.402405" lon="-6.025925">
        <ele>125.0</ele>
        <time>2012-07-05T12:17:48Z</time>
      </trkpt>
      <trkpt lat="43.40223" lon="-6.025658">
        <ele>125.0</ele>
        <time>2012-07-05T12:17:52Z</time>
      </trkpt>
      <trkpt lat="43.40219" lon="-6.02559">
        <ele>125.0</ele>
        <time>2012-07-05T12:17:53Z</time>
      </trkpt>
      <trkpt lat="43.40187" lon="-6.025203">
        <ele>127.0</ele>
        <time>2012-07-05T12:18:00Z</time>
      </trkpt>
      <trkpt lat="43.401668" lon="-6.025008">
        <ele>128.0</ele>
        <time>2012-07-05T12:18:04Z</time>
      </trkpt>
      <trkpt lat="43.401439" lon="-6.024907">
        <ele>130.0</ele>
        <time>2012-07-05T12:18:08Z</time>
      </trkpt>
      <trkpt lat="43.401187" lon="-6.024857">
        <ele>130.0</ele>
        <time>2012-07-05T12:18:12Z</time>
      </trkpt>
      <trkpt lat="43.400922" lon="-6.024777">
        <ele>130.0</ele>
        <time>2012-07-05T12:18:16Z</time>
      </trkpt>
      <trkpt lat="43.400646" lon="-6.024661">
        <ele>130.0</ele>
        <time>2012-07-05T12:18:20Z</time>
      </trkpt>
      <trkpt lat="43.400336" lon="-6.024597">
        <ele>130.0</ele>
        <time>2012-07-05T12:18:24Z</time>
      </trkpt>
      <trkpt lat="43.400022" lon="-6.024512">
        <ele>131.0</ele>
        <time>2012-07-05T12:18:28Z</time>
      </trkpt>
      <trkpt lat="43.399727" lon="-6.024402">
        <ele>131.0</ele>
        <time>2012-07-05T12:18:32Z</time>
      </trkpt>
      <trkpt lat="43.399443" lon="-6.02433">
        <ele>131.0</ele>
        <time>2012-07-05T12:18:36Z</time>
      </trkpt>
      <trkpt lat="43.399167" lon="-6.02426">
        <ele>132.0</ele>
        <time>2012-07-05T12:18:40Z</time>
      </trkpt>
      <trkpt lat="43.398904" lon="-6.024177">
        <ele>133.0</ele>
        <time>2012-07-05T12:18:44Z</time>
      </trkpt>
      <trkpt lat="43.398726" lon="-6.024113">
        <ele>134.0</ele>
        <time>2012-07-05T12:18:47Z</time>
      </trkpt>
      <trkpt lat="43.398509" lon="-6.023987">
        <ele>134.0</ele>
        <time>2012-07-05T12:18:51Z</time>
      </trkpt>
      <trkpt lat="43.398328" lon="-6.023822">
        <ele>135.0</ele>
        <time>2012-07-05T12:18:55Z</time>
      </trkpt>
      <trkpt lat="43.398166" lon="-6.023628">
        <ele>135.0</ele>
        <time>2012-07-05T12:18:59Z</time>
      </trkpt>
      <trkpt lat="43.398026" lon="-6.02341">
        <ele>136.0</ele>
        <time>2012-07-05T12:19:03Z</time>
      </trkpt>
      <trkpt lat="43.397895" lon="-6.02319">
        <ele>135.0</ele>
        <time>2012-07-05T12:19:07Z</time>
      </trkpt>
      <trkpt lat="43.397928" lon="-6.022795">
        <ele>135.0</ele>
        <time>2012-07-05T12:19:12Z</time>
      </trkpt>
      <trkpt lat="43.397906" lon="-6.022352">
        <ele>134.0</ele>
        <time>2012-07-05T12:19:16Z</time>
      </trkpt>
      <trkpt lat="43.39764" lon="-6.022042">
        <ele>134.0</ele>
        <time>2012-07-05T12:19:20Z</time>
      </trkpt>
      <trkpt lat="43.397335" lon="-6.021685">
        <ele>136.0</ele>
        <time>2012-07-05T12:19:24Z</time>
      </trkpt>
      <trkpt lat="43.397076" lon="-6.021208">
        <ele>137.0</ele>
        <time>2012-07-05T12:19:28Z</time>
      </trkpt>
      <trkpt lat="43.39687" lon="-6.02084">
        <ele>137.0</ele>
        <time>2012-07-05T12:19:32Z</time>
      </trkpt>
      <trkpt lat="43.396731" lon="-6.020628">
        <ele>136.0</ele>
        <time>2012-07-05T12:19:35Z</time>
      </trkpt>
      <trkpt lat="43.39656" lon="-6.020308">
        <ele>135.0</ele>
        <time>2012-07-05T12:19:40Z</time>
      </trkpt>
      <trkpt lat="43.396458" lon="-6.020067">
        <ele>135.0</ele>
        <time>2012-07-05T12:19:44Z</time>
      </trkpt>
      <trkpt lat="43.396363" lon="-6.019822">
        <ele>135.0</ele>
        <time>2012-07-05T12:19:48Z</time>
      </trkpt>
      <trkpt lat="43.396321" lon="-6.019699">
        <ele>135.0</ele>
        <time>2012-07-05T12:19:50Z</time>
      </trkpt>
      <trkpt lat="43.396297" lon="-6.019328">
        <ele>135.0</ele>
        <time>2012-07-05T12:19:56Z</time>
      </trkpt>
      <trkpt lat="43.396516" lon="-6.018884">
        <ele>136.0</ele>
        <time>2012-07-05T12:20:04Z</time>
      </trkpt>
      <trkpt lat="43.396723" lon="-6.018649">
        <ele>137.0</ele>
        <time>2012-07-05T12:20:08Z</time>
      </trkpt>
      <trkpt lat="43.39698" lon="-6.018403">
        <ele>137.0</ele>
        <time>2012-07-05T12:20:12Z</time>
      </trkpt>
      <trkpt lat="43.397242" lon="-6.018101">
        <ele>137.0</ele>
        <time>2012-07-05T12:20:16Z</time>
      </trkpt>
      <trkpt lat="43.397466" lon="-6.017667">
        <ele>137.0</ele>
        <time>2012-07-05T12:20:20Z</time>
      </trkpt>
      <trkpt lat="43.39761" lon="-6.017273">
        <ele>137.0</ele>
        <time>2012-07-05T12:20:23Z</time>
      </trkpt>
      <trkpt lat="43.39755" lon="-6.016546">
        <ele>137.0</ele>
        <time>2012-07-05T12:20:28Z</time>
      </trkpt>
      <trkpt lat="43.397613" lon="-6.01601">
        <ele>138.0</ele>
        <time>2012-07-05T12:20:32Z</time>
      </trkpt>
      <trkpt lat="43.397883" lon="-6.015553">
        <ele>138.0</ele>
        <time>2012-07-05T12:20:36Z</time>
      </trkpt>
      <trkpt lat="43.398222" lon="-6.015271">
        <ele>139.0</ele>
        <time>2012-07-05T12:20:40Z</time>
      </trkpt>
      <trkpt lat="43.398524" lon="-6.015065">
        <ele>139.0</ele>
        <time>2012-07-05T12:20:44Z</time>
      </trkpt>
      <trkpt lat="43.398772" lon="-6.01489">
        <ele>138.0</ele>
        <time>2012-07-05T12:20:48Z</time>
      </trkpt>
      <trkpt lat="43.398943" lon="-6.014774">
        <ele>137.0</ele>
        <time>2012-07-05T12:20:51Z</time>
      </trkpt>
      <trkpt lat="43.399162" lon="-6.014641">
        <ele>137.0</ele>
        <time>2012-07-05T12:20:55Z</time>
      </trkpt>
      <trkpt lat="43.399376" lon="-6.014559">
        <ele>136.0</ele>
        <time>2012-07-05T12:20:59Z</time>
      </trkpt>
      <trkpt lat="43.399585" lon="-6.014555">
        <ele>133.0</ele>
        <time>2012-07-05T12:21:03Z</time>
      </trkpt>
      <trkpt lat="43.399794" lon="-6.014549">
        <ele>131.0</ele>
        <time>2012-07-05T12:21:07Z</time>
      </trkpt>
      <trkpt lat="43.400022" lon="-6.014491">
        <ele>129.0</ele>
        <time>2012-07-05T12:21:11Z</time>
      </trkpt>
      <trkpt lat="43.400326" lon="-6.01439">
        <ele>128.0</ele>
        <time>2012-07-05T12:21:16Z</time>
      </trkpt>
      <trkpt lat="43.400578" lon="-6.014342">
        <ele>128.0</ele>
        <time>2012-07-05T12:21:20Z</time>
      </trkpt>
      <trkpt lat="43.400703" lon="-6.014332">
        <ele>128.0</ele>
        <time>2012-07-05T12:21:22Z</time>
      </trkpt>
      <trkpt lat="43.40107" lon="-6.014292">
        <ele>128.0</ele>
        <time>2012-07-05T12:21:28Z</time>
      </trkpt>
      <trkpt lat="43.401303" lon="-6.014249">
        <ele>129.0</ele>
        <time>2012-07-05T12:21:32Z</time>
      </trkpt>
      <trkpt lat="43.40151" lon="-6.014159">
        <ele>129.0</ele>
        <time>2012-07-05T12:21:36Z</time>
      </trkpt>
      <trkpt lat="43.401676" lon="-6.01404">
        <ele>130.0</ele>
        <time>2012-07-05T12:21:40Z</time>
      </trkpt>
      <trkpt lat="43.401831" lon="-6.013912">
        <ele>130.0</ele>
        <time>2012-07-05T12:21:44Z</time>
      </trkpt>
      <trkpt lat="43.401914" lon="-6.013846">
        <ele>130.0</ele>
        <time>2012-07-05T12:21:46Z</time>
      </trkpt>
      <trkpt lat="43.40221" lon="-6.013836">
        <ele>130.0</ele>
        <time>2012-07-05T12:21:52Z</time>
      </trkpt>
      <trkpt lat="43.402352" lon="-6.013908">
        <ele>131.0</ele>
        <time>2012-07-05T12:21:56Z</time>
      </trkpt>
      <trkpt lat="43.402438" lon="-6.013942">
        <ele>131.0</ele>
        <time>2012-07-05T12:21:59Z</time>
      </trkpt>
      <trkpt lat="43.402512" lon="-6.013981">
        <ele>131.0</ele>
        <time>2012-07-05T12:22:02Z</time>
      </trkpt>
      <trkpt lat="43.40247" lon="-6.014211">
        <ele>132.0</ele>
        <time>2012-07-05T12:22:08Z</time>
      </trkpt>
      <trkpt lat="43.402269" lon="-6.014403">
        <ele>133.0</ele>
        <time>2012-07-05T12:22:12Z</time>
      </trkpt>
      <trkpt lat="43.402087" lon="-6.014595">
        <ele>135.0</ele>
        <time>2012-07-05T12:22:16Z</time>
      </trkpt>
      <trkpt lat="43.40192" lon="-6.014785">
        <ele>135.0</ele>
        <time>2012-07-05T12:22:20Z</time>
      </trkpt>
      <trkpt lat="43.401756" lon="-6.01496">
        <ele>136.0</ele>
        <time>2012-07-05T12:22:24Z</time>
      </trkpt>
      <trkpt lat="43.401586" lon="-6.015125">
        <ele>137.0</ele>
        <time>2012-07-05T12:22:28Z</time>
      </trkpt>
      <trkpt lat="43.401416" lon="-6.015308">
        <ele>138.0</ele>
        <time>2012-07-05T12:22:32Z</time>
      </trkpt>
      <trkpt lat="43.401245" lon="-6.015501">
        <ele>139.0</ele>
        <time>2012-07-05T12:22:36Z</time>
      </trkpt>
      <trkpt lat="43.401075" lon="-6.015702">
        <ele>140.0</ele>
        <time>2012-07-05T12:22:40Z</time>
      </trkpt>
      <trkpt lat="43.400911" lon="-6.015915">
        <ele>141.0</ele>
        <time>2012-07-05T12:22:44Z</time>
      </trkpt>
      <trkpt lat="43.400745" lon="-6.016126">
        <ele>141.0</ele>
        <time>2012-07-05T12:22:48Z</time>
      </trkpt>
      <trkpt lat="43.400586" lon="-6.016349">
        <ele>141.0</ele>
        <time>2012-07-05T12:22:52Z</time>
      </trkpt>
      <trkpt lat="43.400432" lon="-6.016582">
        <ele>141.0</ele>
        <time>2012-07-05T12:22:56Z</time>
      </trkpt>
      <trkpt lat="43.400275" lon="-6.016808">
        <ele>141.0</ele>
        <time>2012-07-05T12:23:00Z</time>
      </trkpt>
      <trkpt lat="43.400132" lon="-6.01705">
        <ele>142.0</ele>
        <time>2012-07-05T12:23:04Z</time>
      </trkpt>
      <trkpt lat="43.399833" lon="-6.017514">
        <ele>143.0</ele>
        <time>2012-07-05T12:23:12Z</time>
      </trkpt>
      <trkpt lat="43.399664" lon="-6.017741">
        <ele>143.0</ele>
        <time>2012-07-05T12:23:16Z</time>
      </trkpt>
      <trkpt lat="43.399494" lon="-6.017969">
        <ele>144.0</ele>
        <time>2012-07-05T12:23:20Z</time>
      </trkpt>
      <trkpt lat="43.399334" lon="-6.0182">
        <ele>144.0</ele>
        <time>2012-07-05T12:23:24Z</time>
      </trkpt>
      <trkpt lat="43.399187" lon="-6.018442">
        <ele>144.0</ele>
        <time>2012-07-05T12:23:28Z</time>
      </trkpt>
      <trkpt lat="43.39906" lon="-6.018707">
        <ele>144.0</ele>
        <time>2012-07-05T12:23:32Z</time>
      </trkpt>
      <trkpt lat="43.398949" lon="-6.019277">
        <ele>144.0</ele>
        <time>2012-07-05T12:23:40Z</time>
      </trkpt>
      <trkpt lat="43.398965" lon="-6.019577">
        <ele>145.0</ele>
        <time>2012-07-05T12:23:44Z</time>
      </trkpt>
      <trkpt lat="43.399029" lon="-6.019892">
        <ele>145.0</ele>
        <time>2012-07-05T12:23:48Z</time>
      </trkpt>
      <trkpt lat="43.399111" lon="-6.020148">
        <ele>146.0</ele>
        <time>2012-07-05T12:23:51Z</time>
      </trkpt>
      <trkpt lat="43.399228" lon="-6.020636">
        <ele>147.0</ele>
        <time>2012-07-05T12:23:56Z</time>
      </trkpt>
      <trkpt lat="43.399186" lon="-6.021102">
        <ele>147.0</ele>
        <time>2012-07-05T12:24:00Z</time>
      </trkpt>
      <trkpt lat="43.398983" lon="-6.021524">
        <ele>147.0</ele>
        <time>2012-07-05T12:24:04Z</time>
      </trkpt>
      <trkpt lat="43.398708" lon="-6.021931">
        <ele>147.0</ele>
        <time>2012-07-05T12:24:08Z</time>
      </trkpt>
      <trkpt lat="43.39843" lon="-6.022307">
        <ele>148.0</ele>
        <time>2012-07-05T12:24:12Z</time>
      </trkpt>
      <trkpt lat="43.398132" lon="-6.022689">
        <ele>148.0</ele>
        <time>2012-07-05T12:24:16Z</time>
      </trkpt>
      <trkpt lat="43.397869" lon="-6.023101">
        <ele>148.0</ele>
        <time>2012-07-05T12:24:20Z</time>
      </trkpt>
      <trkpt lat="43.397825" lon="-6.023604">
        <ele>148.0</ele>
        <time>2012-07-05T12:24:24Z</time>
      </trkpt>
      <trkpt lat="43.398111" lon="-6.024006">
        <ele>148.0</ele>
        <time>2012-07-05T12:24:28Z</time>
      </trkpt>
      <trkpt lat="43.398461" lon="-6.024263">
        <ele>148.0</ele>
        <time>2012-07-05T12:24:32Z</time>
      </trkpt>
      <trkpt lat="43.398812" lon="-6.024422">
        <ele>147.0</ele>
        <time>2012-07-05T12:24:36Z</time>
      </trkpt>
      <trkpt lat="43.399147" lon="-6.024551">
        <ele>147.0</ele>
        <time>2012-07-05T12:24:40Z</time>
      </trkpt>
      <trkpt lat="43.399448" lon="-6.024663">
        <ele>146.0</ele>
        <time>2012-07-05T12:24:44Z</time>
      </trkpt>
      <trkpt lat="43.399756" lon="-6.02479">
        <ele>146.0</ele>
        <time>2012-07-05T12:24:48Z</time>
      </trkpt>
      <trkpt lat="43.399915" lon="-6.02486">
        <ele>146.0</ele>
        <time>2012-07-05T12:24:50Z</time>
      </trkpt>
      <trkpt lat="43.40039" lon="-6.025061">
        <ele>146.0</ele>
        <time>2012-07-05T12:24:56Z</time>
      </trkpt>
      <trkpt lat="43.40055" lon="-6.025127">
        <ele>146.0</ele>
        <time>2012-07-05T12:24:58Z</time>
      </trkpt>
      <trkpt lat="43.401033" lon="-6.025308">
        <ele>146.0</ele>
        <time>2012-07-05T12:25:04Z</time>
      </trkpt>
      <trkpt lat="43.40136" lon="-6.025436">
        <ele>147.0</ele>
        <time>2012-07-05T12:25:08Z</time>
      </trkpt>
      <trkpt lat="43.401675" lon="-6.025581">
        <ele>147.0</ele>
        <time>2012-07-05T12:25:12Z</time>
      </trkpt>
      <trkpt lat="43.401964" lon="-6.025758">
        <ele>147.0</ele>
        <time>2012-07-05T12:25:16Z</time>
      </trkpt>
      <trkpt lat="43.402104" lon="-6.025858">
        <ele>147.0</ele>
        <time>2012-07-05T12:25:18Z</time>
      </trkpt>
      <trkpt lat="43.4025" lon="-6.02626">
        <ele>147.0</ele>
        <time>2012-07-05T12:25:24Z</time>
      </trkpt>
      <trkpt lat="43.402704" lon="-6.026623">
        <ele>147.0</ele>
        <time>2012-07-05T12:25:28Z</time>
      </trkpt>
      <trkpt lat="43.402869" lon="-6.027007">
        <ele>147.0</ele>
        <time>2012-07-05T12:25:32Z</time>
      </trkpt>
      <trkpt lat="43.40298" lon="-6.02741">
        <ele>148.0</ele>
        <time>2012-07-05T12:25:36Z</time>
      </trkpt>
      <trkpt lat="43.403018" lon="-6.027617">
        <ele>148.0</ele>
        <time>2012-07-05T12:25:38Z</time>
      </trkpt>
      <trkpt lat="43.403071" lon="-6.028262">
        <ele>149.0</ele>
        <time>2012-07-05T12:25:44Z</time>
      </trkpt>
      <trkpt lat="43.403123" lon="-6.028683">
        <ele>149.0</ele>
        <time>2012-07-05T12:25:48Z</time>
      </trkpt>
      <trkpt lat="43.40319" lon="-6.029098">
        <ele>149.0</ele>
        <time>2012-07-05T12:25:52Z</time>
      </trkpt>
      <trkpt lat="43.403284" lon="-6.029492">
        <ele>150.0</ele>
        <time>2012-07-05T12:25:56Z</time>
      </trkpt>
      <trkpt lat="43.403421" lon="-6.029841">
        <ele>151.0</ele>
        <time>2012-07-05T12:26:00Z</time>
      </trkpt>
      <trkpt lat="43.403569" lon="-6.030174">
        <ele>153.0</ele>
        <time>2012-07-05T12:26:04Z</time>
      </trkpt>
      <trkpt lat="43.403712" lon="-6.03052">
        <ele>153.0</ele>
        <time>2012-07-05T12:26:08Z</time>
      </trkpt>
      <trkpt lat="43.403845" lon="-6.030882">
        <ele>153.0</ele>
        <time>2012-07-05T12:26:12Z</time>
      </trkpt>
      <trkpt lat="43.403836" lon="-6.031276">
        <ele>153.0</ele>
        <time>2012-07-05T12:26:16Z</time>
      </trkpt>
      <trkpt lat="43.403832" lon="-6.0316">
        <ele>155.0</ele>
        <time>2012-07-05T12:26:20Z</time>
      </trkpt>
      <trkpt lat="43.403731" lon="-6.031899">
        <ele>157.0</ele>
        <time>2012-07-05T12:26:24Z</time>
      </trkpt>
      <trkpt lat="43.40365" lon="-6.032125">
        <ele>157.0</ele>
        <time>2012-07-05T12:26:27Z</time>
      </trkpt>
      <trkpt lat="43.403554" lon="-6.03253">
        <ele>157.0</ele>
        <time>2012-07-05T12:26:32Z</time>
      </trkpt>
      <trkpt lat="43.403506" lon="-6.032888">
        <ele>157.0</ele>
        <time>2012-07-05T12:26:36Z</time>
      </trkpt>
      <trkpt lat="43.403526" lon="-6.033072">
        <ele>157.0</ele>
        <time>2012-07-05T12:26:38Z</time>
      </trkpt>
      <trkpt lat="43.403634" lon="-6.033632">
        <ele>157.0</ele>
        <time>2012-07-05T12:26:44Z</time>
      </trkpt>
      <trkpt lat="43.403657" lon="-6.033815">
        <ele>158.0</ele>
        <time>2012-07-05T12:26:46Z</time>
      </trkpt>
      <trkpt lat="43.403691" lon="-6.034371">
        <ele>158.0</ele>
        <time>2012-07-05T12:26:52Z</time>
      </trkpt>
      <trkpt lat="43.403679" lon="-6.034559">
        <ele>159.0</ele>
        <time>2012-07-05T12:26:54Z</time>
      </trkpt>
      <trkpt lat="43.40364" lon="-6.035141">
        <ele>159.0</ele>
        <time>2012-07-05T12:27:00Z</time>
      </trkpt>
      <trkpt lat="43.403646" lon="-6.035544">
        <ele>159.0</ele>
        <time>2012-07-05T12:27:04Z</time>
      </trkpt>
      <trkpt lat="43.403669" lon="-6.035932">
        <ele>160.0</ele>
        <time>2012-07-05T12:27:08Z</time>
      </trkpt>
      <trkpt lat="43.403689" lon="-6.036317">
        <ele>161.0</ele>
        <time>2012-07-05T12:27:12Z</time>
      </trkpt>
      <trkpt lat="43.403743" lon="-6.036698">
        <ele>162.0</ele>
        <time>2012-07-05T12:27:16Z</time>
      </trkpt>
      <trkpt lat="43.403861" lon="-6.037081">
        <ele>162.0</ele>
        <time>2012-07-05T12:27:20Z</time>
      </trkpt>
      <trkpt lat="43.403956" lon="-6.03747">
        <ele>163.0</ele>
        <time>2012-07-05T12:27:24Z</time>
      </trkpt>
      <trkpt lat="43.403932" lon="-6.037876">
        <ele>163.0</ele>
        <time>2012-07-05T12:27:28Z</time>
      </trkpt>
      <trkpt lat="43.403879" lon="-6.038269">
        <ele>164.0</ele>
        <time>2012-07-05T12:27:32Z</time>
      </trkpt>
      <trkpt lat="43.403854" lon="-6.038656">
        <ele>164.0</ele>
        <time>2012-07-05T12:27:36Z</time>
      </trkpt>
      <trkpt lat="43.403843" lon="-6.039045">
        <ele>165.0</ele>
        <time>2012-07-05T12:27:40Z</time>
      </trkpt>
      <trkpt lat="43.403835" lon="-6.039241">
        <ele>165.0</ele>
        <time>2012-07-05T12:27:42Z</time>
      </trkpt>
      <trkpt lat="43.403822" lon="-6.039834">
        <ele>164.0</ele>
        <time>2012-07-05T12:27:48Z</time>
      </trkpt>
      <trkpt lat="43.40382" lon="-6.040226">
        <ele>163.0</ele>
        <time>2012-07-05T12:27:52Z</time>
      </trkpt>
      <trkpt lat="43.403825" lon="-6.040625">
        <ele>162.0</ele>
        <time>2012-07-05T12:27:56Z</time>
      </trkpt>
      <trkpt lat="43.403825" lon="-6.041024">
        <ele>162.0</ele>
        <time>2012-07-05T12:28:00Z</time>
      </trkpt>
      <trkpt lat="43.403834" lon="-6.041419">
        <ele>160.0</ele>
        <time>2012-07-05T12:28:04Z</time>
      </trkpt>
      <trkpt lat="43.403738" lon="-6.041512">
        <ele>155.0</ele>
        <time>2012-07-05T12:28:08Z</time>
      </trkpt>
      <trkpt lat="43.40355" lon="-6.041177">
        <ele>150.0</ele>
        <time>2012-07-05T12:28:12Z</time>
      </trkpt>
      <trkpt lat="43.403407" lon="-6.041042">
        <ele>147.0</ele>
        <time>2012-07-05T12:28:15Z</time>
      </trkpt>
      <trkpt lat="43.40323" lon="-6.041123">
        <ele>145.0</ele>
        <time>2012-07-05T12:28:19Z</time>
      </trkpt>
      <trkpt lat="43.40309" lon="-6.041541">
        <ele>147.0</ele>
        <time>2012-07-05T12:28:24Z</time>
      </trkpt>
      <trkpt lat="43.403023" lon="-6.042041">
        <ele>150.0</ele>
        <time>2012-07-05T12:28:28Z</time>
      </trkpt>
      <trkpt lat="43.402968" lon="-6.042501">
        <ele>152.0</ele>
        <time>2012-07-05T12:28:32Z</time>
      </trkpt>
      <trkpt lat="43.402913" lon="-6.042902">
        <ele>153.0</ele>
        <time>2012-07-05T12:28:36Z</time>
      </trkpt>
      <trkpt lat="43.402869" lon="-6.043274">
        <ele>153.0</ele>
        <time>2012-07-05T12:28:40Z</time>
      </trkpt>
      <trkpt lat="43.402813" lon="-6.04363">
        <ele>152.0</ele>
        <time>2012-07-05T12:28:44Z</time>
      </trkpt>
      <trkpt lat="43.402705" lon="-6.043867">
        <ele>152.0</ele>
        <time>2012-07-05T12:28:47Z</time>
      </trkpt>
      <trkpt lat="43.402622" lon="-6.044117">
        <ele>151.0</ele>
        <time>2012-07-05T12:28:51Z</time>
      </trkpt>
      <trkpt lat="43.402537" lon="-6.044296">
        <ele>151.0</ele>
        <time>2012-07-05T12:28:55Z</time>
      </trkpt>
      <trkpt lat="43.402442" lon="-6.044486">
        <ele>152.0</ele>
        <time>2012-07-05T12:28:59Z</time>
      </trkpt>
      <trkpt lat="43.402389" lon="-6.0446">
        <ele>154.0</ele>
        <time>2012-07-05T12:29:01Z</time>
      </trkpt>
      <trkpt lat="43.402198" lon="-6.045014">
        <ele>156.0</ele>
        <time>2012-07-05T12:29:07Z</time>
      </trkpt>
      <trkpt lat="43.402024" lon="-6.045379">
        <ele>157.0</ele>
        <time>2012-07-05T12:29:12Z</time>
      </trkpt>
      <trkpt lat="43.401857" lon="-6.045646">
        <ele>156.0</ele>
        <time>2012-07-05T12:29:16Z</time>
      </trkpt>
      <trkpt lat="43.401626" lon="-6.045841">
        <ele>155.0</ele>
        <time>2012-07-05T12:29:20Z</time>
      </trkpt>
      <trkpt lat="43.401366" lon="-6.045996">
        <ele>155.0</ele>
        <time>2012-07-05T12:29:24Z</time>
      </trkpt>
      <trkpt lat="43.401185" lon="-6.046217">
        <ele>155.0</ele>
        <time>2012-07-05T12:29:28Z</time>
      </trkpt>
      <trkpt lat="43.401181" lon="-6.046346">
        <ele>154.0</ele>
        <time>2012-07-05T12:29:30Z</time>
      </trkpt>
      <trkpt lat="43.401176" lon="-6.046481">
        <ele>154.0</ele>
        <time>2012-07-05T12:29:35Z</time>
      </trkpt>
      <trkpt lat="43.401054" lon="-6.046637">
        <ele>153.0</ele>
        <time>2012-07-05T12:29:40Z</time>
      </trkpt>
      <trkpt lat="43.400984" lon="-6.046711">
        <ele>153.0</ele>
        <time>2012-07-05T12:29:42Z</time>
      </trkpt>
      <trkpt lat="43.400725" lon="-6.047005">
        <ele>152.0</ele>
        <time>2012-07-05T12:29:48Z</time>
      </trkpt>
      <trkpt lat="43.400574" lon="-6.047204">
        <ele>153.0</ele>
        <time>2012-07-05T12:29:52Z</time>
      </trkpt>
      <trkpt lat="43.400605" lon="-6.047314">
        <ele>153.0</ele>
        <time>2012-07-05T12:29:56Z</time>
      </trkpt>
      <trkpt lat="43.400605" lon="-6.047314">
        <time>2012-07-05T12:30:08Z</time>
      </trkpt>
    </trkseg>
    <trkseg>
      <trkpt lat="43.400605" lon="-6.047314">
        <time>2012-07-05T12:30:23Z</time>
      </trkpt>
      <trkpt lat="43.400605" lon="-6.047314">
        <time>2012-07-05T12:30:41Z</time>
      </trkpt>
    </trkseg>
    <trkseg>
      <trkpt lat="43.400605" lon="-6.047314">
        <time>2012-07-05T12:30:49Z</time>
      </trkpt>
      <trkpt lat="43.400605" lon="-6.047314">
        <time>2012-07-05T12:31:01Z</time>
      </trkpt>
    </trkseg>
    <trkseg>
      <trkpt lat="43.400605" lon="-6.047314">
        <time>2012-07-05T12:31:09Z</time>
      </trkpt>
      <trkpt lat="43.400605" lon="-6.047314">
        <time>2012-07-05T12:31:35Z</time>
      </trkpt>
    </trkseg>
    <trkseg>
      <trkpt lat="43.400605" lon="-6.047314">
        <time>2012-07-05T12:32:24Z</time>
      </trkpt>
      <trkpt lat="43.400605" lon="-6.047314">
        <time>2012-07-05T12:32:35Z</time>
      </trkpt>
    </trkseg>
    <trkseg>
      <trkpt lat="43.400605" lon="-6.047314">
        <time>2012-07-05T12:34:16Z</time>
      </trkpt>
      <trkpt lat="43.400499" lon="-6.047368">
        <ele>152.0</ele>
        <time>2012-07-05T12:34:19Z</time>
      </trkpt>
      <trkpt lat="43.400499" lon="-6.047368">
        <time>2012-07-05T12:34:30Z</time>
      </trkpt>
    </trkseg>
    <trkseg>
      <trkpt lat="43.400499" lon="-6.047368">
        <time>2012-07-05T12:34:38Z</time>
      </trkpt>
      <trkpt lat="43.400605" lon="-6.047253">
        <ele>148.0</ele>
        <time>2012-07-05T12:34:43Z</time>
      </trkpt>
      <trkpt lat="43.400667" lon="-6.047188">
        <ele>148.0</ele>
        <time>2012-07-05T12:34:48Z</time>
      </trkpt>
      <trkpt lat="43.400725" lon="-6.047137">
        <ele>147.0</ele>
        <time>2012-07-05T12:34:52Z</time>
      </trkpt>
      <trkpt lat="43.400725" lon="-6.047137">
        <time>2012-07-05T12:35:03Z</time>
      </trkpt>
    </trkseg>
    <trkseg>
      <trkpt lat="43.400725" lon="-6.047137">
        <time>2012-07-05T12:35:06Z</time>
      </trkpt>
      <trkpt lat="43.40103" lon="-6.04682">
        <ele>144.0</ele>
        <time>2012-07-05T12:35:10Z</time>
      </trkpt>
      <trkpt lat="43.401097" lon="-6.046767">
        <ele>144.0</ele>
        <time>2012-07-05T12:35:14Z</time>
      </trkpt>
      <trkpt lat="43.401173" lon="-6.046722">
        <ele>144.0</ele>
        <time>2012-07-05T12:35:18Z</time>
      </trkpt>
      <trkpt lat="43.401241" lon="-6.046664">
        <ele>143.0</ele>
        <time>2012-07-05T12:35:22Z</time>
      </trkpt>
      <trkpt lat="43.401293" lon="-6.046592">
        <ele>142.0</ele>
        <time>2012-07-05T12:35:26Z</time>
      </trkpt>
      <trkpt lat="43.401334" lon="-6.046503">
        <ele>141.0</ele>
        <time>2012-07-05T12:35:30Z</time>
      </trkpt>
      <trkpt lat="43.401446" lon="-6.046386">
        <ele>138.0</ele>
        <time>2012-07-05T12:35:36Z</time>
      </trkpt>
      <trkpt lat="43.401614" lon="-6.046236">
        <ele>132.0</ele>
        <time>2012-07-05T12:35:40Z</time>
      </trkpt>
      <trkpt lat="43.401799" lon="-6.046065">
        <ele>130.0</ele>
        <time>2012-07-05T12:35:44Z</time>
      </trkpt>
      <trkpt lat="43.401984" lon="-6.045878">
        <ele>129.0</ele>
        <time>2012-07-05T12:35:48Z</time>
      </trkpt>
      <trkpt lat="43.40215" lon="-6.045678">
        <ele>129.0</ele>
        <time>2012-07-05T12:35:52Z</time>
      </trkpt>
      <trkpt lat="43.402282" lon="-6.045448">
        <ele>128.0</ele>
        <time>2012-07-05T12:35:56Z</time>
      </trkpt>
      <trkpt lat="43.402388" lon="-6.045196">
        <ele>128.0</ele>
        <time>2012-07-05T12:36:00Z</time>
      </trkpt>
      <trkpt lat="43.40252" lon="-6.044943">
        <ele>127.0</ele>
        <time>2012-07-05T12:36:04Z</time>
      </trkpt>
      <trkpt lat="43.402741" lon="-6.044622">
        <ele>129.0</ele>
        <time>2012-07-05T12:36:09Z</time>
      </trkpt>
      <trkpt lat="43.402901" lon="-6.04425">
        <ele>132.0</ele>
        <time>2012-07-05T12:36:13Z</time>
      </trkpt>
      <trkpt lat="43.402988" lon="-6.043847">
        <ele>134.0</ele>
        <time>2012-07-05T12:36:17Z</time>
      </trkpt>
      <trkpt lat="43.403066" lon="-6.043491">
        <ele>136.0</ele>
        <time>2012-07-05T12:36:21Z</time>
      </trkpt>
      <trkpt lat="43.403132" lon="-6.043161">
        <ele>136.0</ele>
        <time>2012-07-05T12:36:25Z</time>
      </trkpt>
      <trkpt lat="43.403135" lon="-6.042988">
        <ele>136.0</ele>
        <time>2012-07-05T12:36:27Z</time>
      </trkpt>
      <trkpt lat="43.403099" lon="-6.042525">
        <ele>136.0</ele>
        <time>2012-07-05T12:36:33Z</time>
      </trkpt>
      <trkpt lat="43.403043" lon="-6.04194">
        <ele>137.0</ele>
        <time>2012-07-05T12:36:41Z</time>
      </trkpt>
      <trkpt lat="43.403016" lon="-6.041633">
        <ele>137.0</ele>
        <time>2012-07-05T12:36:45Z</time>
      </trkpt>
      <trkpt lat="43.402987" lon="-6.041329">
        <ele>137.0</ele>
        <time>2012-07-05T12:36:49Z</time>
      </trkpt>
      <trkpt lat="43.402975" lon="-6.04102">
        <ele>137.0</ele>
        <time>2012-07-05T12:36:53Z</time>
      </trkpt>
      <trkpt lat="43.40297" lon="-6.040699">
        <ele>137.0</ele>
        <time>2012-07-05T12:36:57Z</time>
      </trkpt>
      <trkpt lat="43.402949" lon="-6.04036">
        <ele>137.0</ele>
        <time>2012-07-05T12:37:01Z</time>
      </trkpt>
      <trkpt lat="43.402904" lon="-6.04001">
        <ele>137.0</ele>
        <time>2012-07-05T12:37:05Z</time>
      </trkpt>
      <trkpt lat="43.402802" lon="-6.039662">
        <ele>137.0</ele>
        <time>2012-07-05T12:37:09Z</time>
      </trkpt>
      <trkpt lat="43.402702" lon="-6.039289">
        <ele>137.0</ele>
        <time>2012-07-05T12:37:13Z</time>
      </trkpt>
      <trkpt lat="43.402652" lon="-6.038894">
        <ele>137.0</ele>
        <time>2012-07-05T12:37:17Z</time>
      </trkpt>
      <trkpt lat="43.402604" lon="-6.038505">
        <ele>137.0</ele>
        <time>2012-07-05T12:37:21Z</time>
      </trkpt>
      <trkpt lat="43.402547" lon="-6.038127">
        <ele>138.0</ele>
        <time>2012-07-05T12:37:25Z</time>
      </trkpt>
      <trkpt lat="43.40249" lon="-6.037749">
        <ele>139.0</ele>
        <time>2012-07-05T12:37:29Z</time>
      </trkpt>
      <trkpt lat="43.402455" lon="-6.037376">
        <ele>139.0</ele>
        <time>2012-07-05T12:37:33Z</time>
      </trkpt>
      <trkpt lat="43.40241" lon="-6.037008">
        <ele>139.0</ele>
        <time>2012-07-05T12:37:37Z</time>
      </trkpt>
      <trkpt lat="43.402354" lon="-6.036648">
        <ele>139.0</ele>
        <time>2012-07-05T12:37:41Z</time>
      </trkpt>
      <trkpt lat="43.40229" lon="-6.036305">
        <ele>139.0</ele>
        <time>2012-07-05T12:37:45Z</time>
      </trkpt>
      <trkpt lat="43.402209" lon="-6.035974">
        <ele>139.0</ele>
        <time>2012-07-05T12:37:49Z</time>
      </trkpt>
      <trkpt lat="43.402115" lon="-6.035653">
        <ele>140.0</ele>
        <time>2012-07-05T12:37:53Z</time>
      </trkpt>
      <trkpt lat="43.401999" lon="-6.035344">
        <ele>140.0</ele>
        <time>2012-07-05T12:37:57Z</time>
      </trkpt>
      <trkpt lat="43.401868" lon="-6.035045">
        <ele>141.0</ele>
        <time>2012-07-05T12:38:01Z</time>
      </trkpt>
      <trkpt lat="43.401697" lon="-6.034776">
        <ele>141.0</ele>
        <time>2012-07-05T12:38:05Z</time>
      </trkpt>
      <trkpt lat="43.401459" lon="-6.034553">
        <ele>141.0</ele>
        <time>2012-07-05T12:38:09Z</time>
      </trkpt>
      <trkpt lat="43.40118" lon="-6.034361">
        <ele>141.0</ele>
        <time>2012-07-05T12:38:13Z</time>
      </trkpt>
      <trkpt lat="43.400849" lon="-6.034181">
        <ele>141.0</ele>
        <time>2012-07-05T12:38:17Z</time>
      </trkpt>
      <trkpt lat="43.400542" lon="-6.03394">
        <ele>141.0</ele>
        <time>2012-07-05T12:38:21Z</time>
      </trkpt>
      <trkpt lat="43.40026" lon="-6.033678">
        <ele>140.0</ele>
        <time>2012-07-05T12:38:25Z</time>
      </trkpt>
      <trkpt lat="43.400004" lon="-6.033426">
        <ele>140.0</ele>
        <time>2012-07-05T12:38:29Z</time>
      </trkpt>
      <trkpt lat="43.399774" lon="-6.033184">
        <ele>140.0</ele>
        <time>2012-07-05T12:38:33Z</time>
      </trkpt>
      <trkpt lat="43.399562" lon="-6.03295">
        <ele>141.0</ele>
        <time>2012-07-05T12:38:37Z</time>
      </trkpt>
      <trkpt lat="43.399358" lon="-6.032714">
        <ele>141.0</ele>
        <time>2012-07-05T12:38:41Z</time>
      </trkpt>
      <trkpt lat="43.399162" lon="-6.032482">
        <ele>141.0</ele>
        <time>2012-07-05T12:38:45Z</time>
      </trkpt>
      <trkpt lat="43.399065" lon="-6.032369">
        <ele>142.0</ele>
        <time>2012-07-05T12:38:47Z</time>
      </trkpt>
      <trkpt lat="43.398796" lon="-6.032012">
        <ele>142.0</ele>
        <time>2012-07-05T12:38:53Z</time>
      </trkpt>
      <trkpt lat="43.398623" lon="-6.031754">
        <ele>142.0</ele>
        <time>2012-07-05T12:38:57Z</time>
      </trkpt>
      <trkpt lat="43.398494" lon="-6.031561">
        <ele>142.0</ele>
        <time>2012-07-05T12:39:00Z</time>
      </trkpt>
      <trkpt lat="43.398494" lon="-6.031561">
        <time>2012-07-05T12:39:11Z</time>
      </trkpt>
    </trkseg>
    <trkseg>
      <trkpt lat="43.398494" lon="-6.031561">
        <time>2012-07-05T12:39:49Z</time>
      </trkpt>
      <trkpt lat="43.396294" lon="-6.028344">
        <ele>139.0</ele>
        <time>2012-07-05T12:39:51Z</time>
      </trkpt>
      <trkpt lat="43.396159" lon="-6.028005">
        <ele>137.0</ele>
        <time>2012-07-05T12:39:55Z</time>
      </trkpt>
      <trkpt lat="43.396021" lon="-6.027667">
        <ele>136.0</ele>
        <time>2012-07-05T12:39:59Z</time>
      </trkpt>
      <trkpt lat="43.395873" lon="-6.027345">
        <ele>136.0</ele>
        <time>2012-07-05T12:40:03Z</time>
      </trkpt>
      <trkpt lat="43.395799" lon="-6.027185">
        <ele>136.0</ele>
        <time>2012-07-05T12:40:05Z</time>
      </trkpt>
      <trkpt lat="43.395667" lon="-6.026597">
        <ele>135.0</ele>
        <time>2012-07-05T12:40:11Z</time>
      </trkpt>
      <trkpt lat="43.395654" lon="-6.02616">
        <ele>131.0</ele>
        <time>2012-07-05T12:40:15Z</time>
      </trkpt>
      <trkpt lat="43.395639" lon="-6.02578">
        <ele>130.0</ele>
        <time>2012-07-05T12:40:19Z</time>
      </trkpt>
      <trkpt lat="43.39565" lon="-6.025523">
        <ele>129.0</ele>
        <time>2012-07-05T12:40:22Z</time>
      </trkpt>
      <trkpt lat="43.395701" lon="-6.025281">
        <ele>129.0</ele>
        <time>2012-07-05T12:40:26Z</time>
      </trkpt>
      <trkpt lat="43.395568" lon="-6.025132">
        <ele>131.0</ele>
        <time>2012-07-05T12:40:31Z</time>
      </trkpt>
      <trkpt lat="43.395407" lon="-6.025007">
        <ele>131.0</ele>
        <time>2012-07-05T12:40:35Z</time>
      </trkpt>
      <trkpt lat="43.395238" lon="-6.024832">
        <ele>131.0</ele>
        <time>2012-07-05T12:40:39Z</time>
      </trkpt>
      <trkpt lat="43.395056" lon="-6.02459">
        <ele>130.0</ele>
        <time>2012-07-05T12:40:43Z</time>
      </trkpt>
      <trkpt lat="43.394916" lon="-6.024374">
        <ele>130.0</ele>
        <time>2012-07-05T12:40:46Z</time>
      </trkpt>
      <trkpt lat="43.394698" lon="-6.024015">
        <ele>130.0</ele>
        <time>2012-07-05T12:40:51Z</time>
      </trkpt>
      <trkpt lat="43.394538" lon="-6.02374">
        <ele>130.0</ele>
        <time>2012-07-05T12:40:55Z</time>
      </trkpt>
      <trkpt lat="43.394299" lon="-6.023464">
        <ele>131.0</ele>
        <time>2012-07-05T12:40:59Z</time>
      </trkpt>
      <trkpt lat="43.394052" lon="-6.023151">
        <ele>133.0</ele>
        <time>2012-07-05T12:41:03Z</time>
      </trkpt>
      <trkpt lat="43.393779" lon="-6.022852">
        <ele>133.0</ele>
        <time>2012-07-05T12:41:07Z</time>
      </trkpt>
      <trkpt lat="43.393506" lon="-6.022547">
        <ele>132.0</ele>
        <time>2012-07-05T12:41:11Z</time>
      </trkpt>
      <trkpt lat="43.393283" lon="-6.022212">
        <ele>131.0</ele>
        <time>2012-07-05T12:41:15Z</time>
      </trkpt>
      <trkpt lat="43.393101" lon="-6.021866">
        <ele>131.0</ele>
        <time>2012-07-05T12:41:19Z</time>
      </trkpt>
      <trkpt lat="43.392928" lon="-6.021539">
        <ele>131.0</ele>
        <time>2012-07-05T12:41:23Z</time>
      </trkpt>
      <trkpt lat="43.392905" lon="-6.021235">
        <ele>131.0</ele>
        <time>2012-07-05T12:41:27Z</time>
      </trkpt>
      <trkpt lat="43.393126" lon="-6.02099">
        <ele>132.0</ele>
        <time>2012-07-05T12:41:31Z</time>
      </trkpt>
      <trkpt lat="43.393402" lon="-6.020853">
        <ele>133.0</ele>
        <time>2012-07-05T12:41:35Z</time>
      </trkpt>
      <trkpt lat="43.393613" lon="-6.020593">
        <ele>133.0</ele>
        <time>2012-07-05T12:41:39Z</time>
      </trkpt>
      <trkpt lat="43.393684" lon="-6.020306">
        <ele>133.0</ele>
        <time>2012-07-05T12:41:42Z</time>
      </trkpt>
      <trkpt lat="43.393774" lon="-6.019902">
        <ele>132.0</ele>
        <time>2012-07-05T12:41:46Z</time>
      </trkpt>
      <trkpt lat="43.393847" lon="-6.019348">
        <ele>131.0</ele>
        <time>2012-07-05T12:41:51Z</time>
      </trkpt>
      <trkpt lat="43.393888" lon="-6.018892">
        <ele>131.0</ele>
        <time>2012-07-05T12:41:55Z</time>
      </trkpt>
      <trkpt lat="43.39393" lon="-6.01843">
        <ele>130.0</ele>
        <time>2012-07-05T12:41:59Z</time>
      </trkpt>
      <trkpt lat="43.393984" lon="-6.017981">
        <ele>129.0</ele>
        <time>2012-07-05T12:42:03Z</time>
      </trkpt>
      <trkpt lat="43.394034" lon="-6.017654">
        <ele>129.0</ele>
        <time>2012-07-05T12:42:06Z</time>
      </trkpt>
      <trkpt lat="43.394106" lon="-6.017159">
        <ele>128.0</ele>
        <time>2012-07-05T12:42:11Z</time>
      </trkpt>
      <trkpt lat="43.394117" lon="-6.016996">
        <ele>128.0</ele>
        <time>2012-07-05T12:42:13Z</time>
      </trkpt>
      <trkpt lat="43.393837" lon="-6.016601">
        <ele>127.0</ele>
        <time>2012-07-05T12:42:19Z</time>
      </trkpt>
      <trkpt lat="43.393552" lon="-6.016386">
        <ele>126.0</ele>
        <time>2012-07-05T12:42:23Z</time>
      </trkpt>
      <trkpt lat="43.393299" lon="-6.016138">
        <ele>126.0</ele>
        <time>2012-07-05T12:42:27Z</time>
      </trkpt>
      <trkpt lat="43.393115" lon="-6.015856">
        <ele>127.0</ele>
        <time>2012-07-05T12:42:31Z</time>
      </trkpt>
      <trkpt lat="43.392969" lon="-6.015552">
        <ele>128.0</ele>
        <time>2012-07-05T12:42:35Z</time>
      </trkpt>
      <trkpt lat="43.392855" lon="-6.015235">
        <ele>128.0</ele>
        <time>2012-07-05T12:42:39Z</time>
      </trkpt>
      <trkpt lat="43.392782" lon="-6.014908">
        <ele>128.0</ele>
        <time>2012-07-05T12:42:43Z</time>
      </trkpt>
      <trkpt lat="43.392728" lon="-6.014574">
        <ele>129.0</ele>
        <time>2012-07-05T12:42:47Z</time>
      </trkpt>
      <trkpt lat="43.39269" lon="-6.014225">
        <ele>129.0</ele>
        <time>2012-07-05T12:42:51Z</time>
      </trkpt>
      <trkpt lat="43.392659" lon="-6.013864">
        <ele>130.0</ele>
        <time>2012-07-05T12:42:55Z</time>
      </trkpt>
      <trkpt lat="43.392626" lon="-6.013502">
        <ele>130.0</ele>
        <time>2012-07-05T12:42:59Z</time>
      </trkpt>
      <trkpt lat="43.392586" lon="-6.013134">
        <ele>132.0</ele>
        <time>2012-07-05T12:43:03Z</time>
      </trkpt>
      <trkpt lat="43.392559" lon="-6.01277">
        <ele>134.0</ele>
        <time>2012-07-05T12:43:07Z</time>
      </trkpt>
      <trkpt lat="43.392518" lon="-6.012415">
        <ele>134.0</ele>
        <time>2012-07-05T12:43:11Z</time>
      </trkpt>
      <trkpt lat="43.392461" lon="-6.012171">
        <ele>134.0</ele>
        <time>2012-07-05T12:43:14Z</time>
      </trkpt>
      <trkpt lat="43.392356" lon="-6.011878">
        <ele>133.0</ele>
        <time>2012-07-05T12:43:18Z</time>
      </trkpt>
      <trkpt lat="43.392263" lon="-6.011604">
        <ele>133.0</ele>
        <time>2012-07-05T12:43:22Z</time>
      </trkpt>
      <trkpt lat="43.392219" lon="-6.011471">
        <ele>133.0</ele>
        <time>2012-07-05T12:43:24Z</time>
      </trkpt>
      <trkpt lat="43.392081" lon="-6.011073">
        <ele>133.0</ele>
        <time>2012-07-05T12:43:30Z</time>
      </trkpt>
      <trkpt lat="43.391936" lon="-6.010705">
        <ele>134.0</ele>
        <time>2012-07-05T12:43:35Z</time>
      </trkpt>
      <trkpt lat="43.391795" lon="-6.010405">
        <ele>134.0</ele>
        <time>2012-07-05T12:43:39Z</time>
      </trkpt>
      <trkpt lat="43.391654" lon="-6.010107">
        <ele>134.0</ele>
        <time>2012-07-05T12:43:43Z</time>
      </trkpt>
      <trkpt lat="43.391488" lon="-6.009824">
        <ele>134.0</ele>
        <time>2012-07-05T12:43:47Z</time>
      </trkpt>
      <trkpt lat="43.391266" lon="-6.009582">
        <ele>134.0</ele>
        <time>2012-07-05T12:43:51Z</time>
      </trkpt>
      <trkpt lat="43.390907" lon="-6.009416">
        <ele>135.0</ele>
        <time>2012-07-05T12:43:55Z</time>
      </trkpt>
      <trkpt lat="43.390455" lon="-6.009295">
        <ele>136.0</ele>
        <time>2012-07-05T12:43:59Z</time>
      </trkpt>
      <trkpt lat="43.390108" lon="-6.009119">
        <ele>137.0</ele>
        <time>2012-07-05T12:44:03Z</time>
      </trkpt>
      <trkpt lat="43.389843" lon="-6.008897">
        <ele>137.0</ele>
        <time>2012-07-05T12:44:07Z</time>
      </trkpt>
      <trkpt lat="43.389648" lon="-6.008681">
        <ele>137.0</ele>
        <time>2012-07-05T12:44:11Z</time>
      </trkpt>
      <trkpt lat="43.389471" lon="-6.008468">
        <ele>137.0</ele>
        <time>2012-07-05T12:44:15Z</time>
      </trkpt>
      <trkpt lat="43.389314" lon="-6.008238">
        <ele>137.0</ele>
        <time>2012-07-05T12:44:19Z</time>
      </trkpt>
      <trkpt lat="43.38918" lon="-6.008003">
        <ele>137.0</ele>
        <time>2012-07-05T12:44:23Z</time>
      </trkpt>
      <trkpt lat="43.389053" lon="-6.007767">
        <ele>138.0</ele>
        <time>2012-07-05T12:44:27Z</time>
      </trkpt>
      <trkpt lat="43.388935" lon="-6.007526">
        <ele>138.0</ele>
        <time>2012-07-05T12:44:31Z</time>
      </trkpt>
      <trkpt lat="43.388821" lon="-6.007286">
        <ele>137.0</ele>
        <time>2012-07-05T12:44:35Z</time>
      </trkpt>
      <trkpt lat="43.388709" lon="-6.007042">
        <ele>138.0</ele>
        <time>2012-07-05T12:44:39Z</time>
      </trkpt>
      <trkpt lat="43.388605" lon="-6.006789">
        <ele>139.0</ele>
        <time>2012-07-05T12:44:43Z</time>
      </trkpt>
      <trkpt lat="43.388518" lon="-6.006526">
        <ele>140.0</ele>
        <time>2012-07-05T12:44:47Z</time>
      </trkpt>
      <trkpt lat="43.388447" lon="-6.006254">
        <ele>140.0</ele>
        <time>2012-07-05T12:44:51Z</time>
      </trkpt>
      <trkpt lat="43.388384" lon="-6.005979">
        <ele>141.0</ele>
        <time>2012-07-05T12:44:55Z</time>
      </trkpt>
      <trkpt lat="43.388321" lon="-6.005713">
        <ele>141.0</ele>
        <time>2012-07-05T12:44:59Z</time>
      </trkpt>
      <trkpt lat="43.388301" lon="-6.00544">
        <ele>141.0</ele>
        <time>2012-07-05T12:45:03Z</time>
      </trkpt>
      <trkpt lat="43.388436" lon="-6.005146">
        <ele>141.0</ele>
        <time>2012-07-05T12:45:07Z</time>
      </trkpt>
      <trkpt lat="43.388553" lon="-6.004912">
        <ele>143.0</ele>
        <time>2012-07-05T12:45:11Z</time>
      </trkpt>
      <trkpt lat="43.388605" lon="-6.004572">
        <ele>145.0</ele>
        <time>2012-07-05T12:45:15Z</time>
      </trkpt>
      <trkpt lat="43.388578" lon="-6.004107">
        <ele>145.0</ele>
        <time>2012-07-05T12:45:19Z</time>
      </trkpt>
      <trkpt lat="43.388509" lon="-6.003611">
        <ele>145.0</ele>
        <time>2012-07-05T12:45:23Z</time>
      </trkpt>
      <trkpt lat="43.38829" lon="-6.003122">
        <ele>145.0</ele>
        <time>2012-07-05T12:45:27Z</time>
      </trkpt>
      <trkpt lat="43.388089" lon="-6.002597">
        <ele>144.0</ele>
        <time>2012-07-05T12:45:31Z</time>
      </trkpt>
      <trkpt lat="43.387917" lon="-6.002063">
        <ele>144.0</ele>
        <time>2012-07-05T12:45:35Z</time>
      </trkpt>
      <trkpt lat="43.387794" lon="-6.001544">
        <ele>144.0</ele>
        <time>2012-07-05T12:45:39Z</time>
      </trkpt>
      <trkpt lat="43.387678" lon="-6.001056">
        <ele>143.0</ele>
        <time>2012-07-05T12:45:43Z</time>
      </trkpt>
      <trkpt lat="43.387546" lon="-6.00064">
        <ele>143.0</ele>
        <time>2012-07-05T12:45:47Z</time>
      </trkpt>
      <trkpt lat="43.387406" lon="-6.000256">
        <ele>144.0</ele>
        <time>2012-07-05T12:45:51Z</time>
      </trkpt>
      <trkpt lat="43.387292" lon="-5.999931">
        <ele>144.0</ele>
        <time>2012-07-05T12:45:55Z</time>
      </trkpt>
      <trkpt lat="43.38716" lon="-5.999862">
        <ele>144.0</ele>
        <time>2012-07-05T12:45:59Z</time>
      </trkpt>
      <trkpt lat="43.386992" lon="-6.000003">
        <ele>144.0</ele>
        <time>2012-07-05T12:46:03Z</time>
      </trkpt>
      <trkpt lat="43.386818" lon="-6.000185">
        <ele>144.0</ele>
        <time>2012-07-05T12:46:07Z</time>
      </trkpt>
      <trkpt lat="43.386559" lon="-6.000427">
        <ele>143.0</ele>
        <time>2012-07-05T12:46:11Z</time>
      </trkpt>
      <trkpt lat="43.38642" lon="-6.000557">
        <ele>143.0</ele>
        <time>2012-07-05T12:46:13Z</time>
      </trkpt>
      <trkpt lat="43.386341" lon="-6.00057">
        <ele>143.0</ele>
        <time>2012-07-05T12:46:16Z</time>
      </trkpt>
      <trkpt lat="43.3863" lon="-6.000384">
        <ele>144.0</ele>
        <time>2012-07-05T12:46:23Z</time>
      </trkpt>
      <trkpt lat="43.386301" lon="-6.000262">
        <ele>144.0</ele>
        <time>2012-07-05T12:46:26Z</time>
      </trkpt>
      <trkpt lat="43.386298" lon="-6.000048">
        <ele>144.0</ele>
        <time>2012-07-05T12:46:30Z</time>
      </trkpt>
      <trkpt lat="43.386288" lon="-5.999801">
        <ele>145.0</ele>
        <time>2012-07-05T12:46:34Z</time>
      </trkpt>
      <trkpt lat="43.386268" lon="-5.999542">
        <ele>146.0</ele>
        <time>2012-07-05T12:46:38Z</time>
      </trkpt>
      <trkpt lat="43.386189" lon="-5.999333">
        <ele>146.0</ele>
        <time>2012-07-05T12:46:42Z</time>
      </trkpt>
      <trkpt lat="43.386074" lon="-5.999132">
        <ele>146.0</ele>
        <time>2012-07-05T12:46:46Z</time>
      </trkpt>
      <trkpt lat="43.385949" lon="-5.998914">
        <ele>145.0</ele>
        <time>2012-07-05T12:46:50Z</time>
      </trkpt>
      <trkpt lat="43.385816" lon="-5.998701">
        <ele>145.0</ele>
        <time>2012-07-05T12:46:54Z</time>
      </trkpt>
      <trkpt lat="43.385673" lon="-5.998511">
        <ele>145.0</ele>
        <time>2012-07-05T12:46:58Z</time>
      </trkpt>
      <trkpt lat="43.38526" lon="-5.998284">
        <ele>146.0</ele>
        <time>2012-07-05T12:47:06Z</time>
      </trkpt>
      <trkpt lat="43.385032" lon="-5.998185">
        <ele>147.0</ele>
        <time>2012-07-05T12:47:10Z</time>
      </trkpt>
      <trkpt lat="43.384793" lon="-5.998091">
        <ele>147.0</ele>
        <time>2012-07-05T12:47:14Z</time>
      </trkpt>
      <trkpt lat="43.384556" lon="-5.997999">
        <ele>148.0</ele>
        <time>2012-07-05T12:47:18Z</time>
      </trkpt>
      <trkpt lat="43.384322" lon="-5.997906">
        <ele>148.0</ele>
        <time>2012-07-05T12:47:22Z</time>
      </trkpt>
      <trkpt lat="43.383993" lon="-5.997836">
        <ele>148.0</ele>
        <time>2012-07-05T12:47:27Z</time>
      </trkpt>
      <trkpt lat="43.383705" lon="-5.997801">
        <ele>148.0</ele>
        <time>2012-07-05T12:47:31Z</time>
      </trkpt>
      <trkpt lat="43.383368" lon="-5.997782">
        <ele>149.0</ele>
        <time>2012-07-05T12:47:35Z</time>
      </trkpt>
      <trkpt lat="43.383055" lon="-5.997723">
        <ele>149.0</ele>
        <time>2012-07-05T12:47:39Z</time>
      </trkpt>
      <trkpt lat="43.382756" lon="-5.997627">
        <ele>149.0</ele>
        <time>2012-07-05T12:47:43Z</time>
      </trkpt>
      <trkpt lat="43.382533" lon="-5.997547">
        <ele>150.0</ele>
        <time>2012-07-05T12:47:46Z</time>
      </trkpt>
      <trkpt lat="43.382435" lon="-5.997483">
        <ele>150.0</ele>
        <time>2012-07-05T12:47:48Z</time>
      </trkpt>
      <trkpt lat="43.382329" lon="-5.997443">
        <ele>150.0</ele>
        <time>2012-07-05T12:47:53Z</time>
      </trkpt>
      <trkpt lat="43.382329" lon="-5.997443">
        <time>2012-07-05T12:48:04Z</time>
      </trkpt>
    </trkseg>
    <trkseg>
      <trkpt lat="43.382329" lon="-5.997443">
        <time>2012-07-05T12:48:06Z</time>
      </trkpt>
      <trkpt lat="43.382012" lon="-5.997381">
        <ele>150.0</ele>
        <time>2012-07-05T12:48:08Z</time>
      </trkpt>
      <trkpt lat="43.381777" lon="-5.997451">
        <ele>151.0</ele>
        <time>2012-07-05T12:48:12Z</time>
      </trkpt>
      <trkpt lat="43.38145" lon="-5.997532">
        <ele>153.0</ele>
        <time>2012-07-05T12:48:17Z</time>
      </trkpt>
      <trkpt lat="43.38125" lon="-5.997563">
        <ele>154.0</ele>
        <time>2012-07-05T12:48:20Z</time>
      </trkpt>
      <trkpt lat="43.38099" lon="-5.997563">
        <ele>155.0</ele>
        <time>2012-07-05T12:48:24Z</time>
      </trkpt>
      <trkpt lat="43.380742" lon="-5.997507">
        <ele>156.0</ele>
        <time>2012-07-05T12:48:28Z</time>
      </trkpt>
      <trkpt lat="43.380434" lon="-5.997419">
        <ele>156.0</ele>
        <time>2012-07-05T12:48:33Z</time>
      </trkpt>
      <trkpt lat="43.380188" lon="-5.997316">
        <ele>156.0</ele>
        <time>2012-07-05T12:48:37Z</time>
      </trkpt>
      <trkpt lat="43.379935" lon="-5.997229">
        <ele>156.0</ele>
        <time>2012-07-05T12:48:41Z</time>
      </trkpt>
      <trkpt lat="43.379707" lon="-5.997138">
        <ele>156.0</ele>
        <time>2012-07-05T12:48:45Z</time>
      </trkpt>
      <trkpt lat="43.379521" lon="-5.997051">
        <ele>156.0</ele>
        <time>2012-07-05T12:48:49Z</time>
      </trkpt>
      <trkpt lat="43.37945" lon="-5.997021">
        <ele>156.0</ele>
        <time>2012-07-05T12:48:53Z</time>
      </trkpt>
      <trkpt lat="43.379393" lon="-5.99708">
        <ele>156.0</ele>
        <time>2012-07-05T12:48:57Z</time>
      </trkpt>
      <trkpt lat="43.379141" lon="-5.997483">
        <ele>157.0</ele>
        <time>2012-07-05T12:49:05Z</time>
      </trkpt>
      <trkpt lat="43.378985" lon="-5.997721">
        <ele>158.0</ele>
        <time>2012-07-05T12:49:09Z</time>
      </trkpt>
      <trkpt lat="43.378816" lon="-5.997961">
        <ele>160.0</ele>
        <time>2012-07-05T12:49:13Z</time>
      </trkpt>
      <trkpt lat="43.378644" lon="-5.998192">
        <ele>161.0</ele>
        <time>2012-07-05T12:49:17Z</time>
      </trkpt>
      <trkpt lat="43.378468" lon="-5.998388">
        <ele>162.0</ele>
        <time>2012-07-05T12:49:21Z</time>
      </trkpt>
      <trkpt lat="43.378304" lon="-5.998572">
        <ele>163.0</ele>
        <time>2012-07-05T12:49:25Z</time>
      </trkpt>
      <trkpt lat="43.378099" lon="-5.998721">
        <ele>163.0</ele>
        <time>2012-07-05T12:49:29Z</time>
      </trkpt>
      <trkpt lat="43.377889" lon="-5.998846">
        <ele>165.0</ele>
        <time>2012-07-05T12:49:33Z</time>
      </trkpt>
      <trkpt lat="43.377726" lon="-5.998948">
        <ele>165.0</ele>
        <time>2012-07-05T12:49:37Z</time>
      </trkpt>
      <trkpt lat="43.377603" lon="-5.999021">
        <ele>165.0</ele>
        <time>2012-07-05T12:49:41Z</time>
      </trkpt>
      <trkpt lat="43.377518" lon="-5.999067">
        <ele>165.0</ele>
        <time>2012-07-05T12:49:44Z</time>
      </trkpt>
      <trkpt lat="43.377355" lon="-5.999064">
        <ele>166.0</ele>
        <time>2012-07-05T12:49:49Z</time>
      </trkpt>
      <trkpt lat="43.3772" lon="-5.99893">
        <ele>166.0</ele>
        <time>2012-07-05T12:49:53Z</time>
      </trkpt>
      <trkpt lat="43.377042" lon="-5.998757">
        <ele>166.0</ele>
        <time>2012-07-05T12:49:57Z</time>
      </trkpt>
      <trkpt lat="43.376871" lon="-5.998569">
        <ele>166.0</ele>
        <time>2012-07-05T12:50:01Z</time>
      </trkpt>
      <trkpt lat="43.376693" lon="-5.998347">
        <ele>166.0</ele>
        <time>2012-07-05T12:50:05Z</time>
      </trkpt>
      <trkpt lat="43.376529" lon="-5.998119">
        <ele>166.0</ele>
        <time>2012-07-05T12:50:09Z</time>
      </trkpt>
      <trkpt lat="43.376379" lon="-5.997893">
        <ele>166.0</ele>
        <time>2012-07-05T12:50:13Z</time>
      </trkpt>
      <trkpt lat="43.376231" lon="-5.997632">
        <ele>166.0</ele>
        <time>2012-07-05T12:50:17Z</time>
      </trkpt>
      <trkpt lat="43.376067" lon="-5.997331">
        <ele>166.0</ele>
        <time>2012-07-05T12:50:21Z</time>
      </trkpt>
      <trkpt lat="43.375866" lon="-5.996993">
        <ele>167.0</ele>
        <time>2012-07-05T12:50:25Z</time>
      </trkpt>
      <trkpt lat="43.375715" lon="-5.996855">
        <ele>168.0</ele>
        <time>2012-07-05T12:50:29Z</time>
      </trkpt>
      <trkpt lat="43.375634" lon="-5.996862">
        <ele>168.0</ele>
        <time>2012-07-05T12:50:31Z</time>
      </trkpt>
      <trkpt lat="43.375394" lon="-5.997046">
        <ele>168.0</ele>
        <time>2012-07-05T12:50:37Z</time>
      </trkpt>
      <trkpt lat="43.375165" lon="-5.997275">
        <ele>168.0</ele>
        <time>2012-07-05T12:50:41Z</time>
      </trkpt>
      <trkpt lat="43.374992" lon="-5.997441">
        <ele>168.0</ele>
        <time>2012-07-05T12:50:44Z</time>
      </trkpt>
      <trkpt lat="43.3748" lon="-5.997512">
        <ele>169.0</ele>
        <time>2012-07-05T12:50:48Z</time>
      </trkpt>
      <trkpt lat="43.3746" lon="-5.997559">
        <ele>171.0</ele>
        <time>2012-07-05T12:50:52Z</time>
      </trkpt>
      <trkpt lat="43.374373" lon="-5.997554">
        <ele>172.0</ele>
        <time>2012-07-05T12:50:56Z</time>
      </trkpt>
      <trkpt lat="43.374069" lon="-5.997459">
        <ele>172.0</ele>
        <time>2012-07-05T12:51:01Z</time>
      </trkpt>
      <trkpt lat="43.373842" lon="-5.997372">
        <ele>172.0</ele>
        <time>2012-07-05T12:51:05Z</time>
      </trkpt>
      <trkpt lat="43.373607" lon="-5.997292">
        <ele>171.0</ele>
        <time>2012-07-05T12:51:09Z</time>
      </trkpt>
      <trkpt lat="43.373403" lon="-5.997121">
        <ele>172.0</ele>
        <time>2012-07-05T12:51:13Z</time>
      </trkpt>
      <trkpt lat="43.373245" lon="-5.99686">
        <ele>172.0</ele>
        <time>2012-07-05T12:51:17Z</time>
      </trkpt>
      <trkpt lat="43.373137" lon="-5.996647">
        <ele>172.0</ele>
        <time>2012-07-05T12:51:20Z</time>
      </trkpt>
      <trkpt lat="43.373005" lon="-5.996408">
        <ele>173.0</ele>
        <time>2012-07-05T12:51:24Z</time>
      </trkpt>
      <trkpt lat="43.372891" lon="-5.996235">
        <ele>172.0</ele>
        <time>2012-07-05T12:51:28Z</time>
      </trkpt>
      <trkpt lat="43.372768" lon="-5.996093">
        <ele>173.0</ele>
        <time>2012-07-05T12:51:33Z</time>
      </trkpt>
      <trkpt lat="43.372654" lon="-5.996008">
        <ele>173.0</ele>
        <time>2012-07-05T12:51:37Z</time>
      </trkpt>
      <trkpt lat="43.372507" lon="-5.995969">
        <ele>173.0</ele>
        <time>2012-07-05T12:51:41Z</time>
      </trkpt>
      <trkpt lat="43.372317" lon="-5.99602">
        <ele>172.0</ele>
        <time>2012-07-05T12:51:45Z</time>
      </trkpt>
      <trkpt lat="43.372178" lon="-5.99639">
        <ele>172.0</ele>
        <time>2012-07-05T12:51:49Z</time>
      </trkpt>
      <trkpt lat="43.37211" lon="-5.996842">
        <ele>172.0</ele>
        <time>2012-07-05T12:51:53Z</time>
      </trkpt>
      <trkpt lat="43.372022" lon="-5.997067">
        <ele>172.0</ele>
        <time>2012-07-05T12:51:56Z</time>
      </trkpt>
      <trkpt lat="43.371883" lon="-5.997309">
        <ele>174.0</ele>
        <time>2012-07-05T12:52:00Z</time>
      </trkpt>
      <trkpt lat="43.371711" lon="-5.997468">
        <ele>175.0</ele>
        <time>2012-07-05T12:52:04Z</time>
      </trkpt>
      <trkpt lat="43.371526" lon="-5.997604">
        <ele>176.0</ele>
        <time>2012-07-05T12:52:08Z</time>
      </trkpt>
      <trkpt lat="43.37133" lon="-5.997681">
        <ele>176.0</ele>
        <time>2012-07-05T12:52:12Z</time>
      </trkpt>
      <trkpt lat="43.371107" lon="-5.997684">
        <ele>176.0</ele>
        <time>2012-07-05T12:52:16Z</time>
      </trkpt>
      <trkpt lat="43.370887" lon="-5.997664">
        <ele>177.0</ele>
        <time>2012-07-05T12:52:20Z</time>
      </trkpt>
      <trkpt lat="43.37068" lon="-5.997636">
        <ele>177.0</ele>
        <time>2012-07-05T12:52:24Z</time>
      </trkpt>
      <trkpt lat="43.370473" lon="-5.997603">
        <ele>178.0</ele>
        <time>2012-07-05T12:52:28Z</time>
      </trkpt>
      <trkpt lat="43.370252" lon="-5.997553">
        <ele>179.0</ele>
        <time>2012-07-05T12:52:32Z</time>
      </trkpt>
      <trkpt lat="43.369957" lon="-5.997454">
        <ele>180.0</ele>
        <time>2012-07-05T12:52:37Z</time>
      </trkpt>
      <trkpt lat="43.369695" lon="-5.99735">
        <ele>181.0</ele>
        <time>2012-07-05T12:52:41Z</time>
      </trkpt>
      <trkpt lat="43.369434" lon="-5.997232">
        <ele>182.0</ele>
        <time>2012-07-05T12:52:45Z</time>
      </trkpt>
      <trkpt lat="43.369181" lon="-5.997113">
        <ele>182.0</ele>
        <time>2012-07-05T12:52:49Z</time>
      </trkpt>
      <trkpt lat="43.368936" lon="-5.99699">
        <ele>182.0</ele>
        <time>2012-07-05T12:52:53Z</time>
      </trkpt>
      <trkpt lat="43.3687" lon="-5.996862">
        <ele>181.0</ele>
        <time>2012-07-05T12:52:57Z</time>
      </trkpt>
      <trkpt lat="43.368466" lon="-5.996746">
        <ele>181.0</ele>
        <time>2012-07-05T12:53:01Z</time>
      </trkpt>
      <trkpt lat="43.368242" lon="-5.99662">
        <ele>182.0</ele>
        <time>2012-07-05T12:53:05Z</time>
      </trkpt>
      <trkpt lat="43.36809" lon="-5.99633">
        <ele>183.0</ele>
        <time>2012-07-05T12:53:09Z</time>
      </trkpt>
      <trkpt lat="43.368037" lon="-5.995914">
        <ele>183.0</ele>
        <time>2012-07-05T12:53:13Z</time>
      </trkpt>
      <trkpt lat="43.368009" lon="-5.995538">
        <ele>183.0</ele>
        <time>2012-07-05T12:53:17Z</time>
      </trkpt>
      <trkpt lat="43.368163" lon="-5.995235">
        <ele>183.0</ele>
        <time>2012-07-05T12:53:20Z</time>
      </trkpt>
      <trkpt lat="43.368346" lon="-5.994837">
        <ele>186.0</ele>
        <time>2012-07-05T12:53:25Z</time>
      </trkpt>
      <trkpt lat="43.368472" lon="-5.994539">
        <ele>186.0</ele>
        <time>2012-07-05T12:53:29Z</time>
      </trkpt>
      <trkpt lat="43.368528" lon="-5.994259">
        <ele>187.0</ele>
        <time>2012-07-05T12:53:33Z</time>
      </trkpt>
      <trkpt lat="43.368495" lon="-5.993985">
        <ele>187.0</ele>
        <time>2012-07-05T12:53:37Z</time>
      </trkpt>
      <trkpt lat="43.368496" lon="-5.99388">
        <ele>188.0</ele>
        <time>2012-07-05T12:53:39Z</time>
      </trkpt>
      <trkpt lat="43.368496" lon="-5.99388">
        <time>2012-07-05T12:53:50Z</time>
      </trkpt>
    </trkseg>
    <trkseg>
      <trkpt lat="43.368496" lon="-5.99388">
        <time>2012-07-05T12:53:55Z</time>
      </trkpt>
      <trkpt lat="43.368286" lon="-5.994126">
        <ele>189.0</ele>
        <time>2012-07-05T12:53:57Z</time>
      </trkpt>
      <trkpt lat="43.368008" lon="-5.994408">
        <ele>191.0</ele>
        <time>2012-07-05T12:54:02Z</time>
      </trkpt>
      <trkpt lat="43.367781" lon="-5.99457">
        <ele>192.0</ele>
        <time>2012-07-05T12:54:06Z</time>
      </trkpt>
      <trkpt lat="43.367672" lon="-5.994575">
        <ele>193.0</ele>
        <time>2012-07-05T12:54:08Z</time>
      </trkpt>
      <trkpt lat="43.367458" lon="-5.994325">
        <ele>195.0</ele>
        <time>2012-07-05T12:54:14Z</time>
      </trkpt>
      <trkpt lat="43.367466" lon="-5.994104">
        <ele>195.0</ele>
        <time>2012-07-05T12:54:18Z</time>
      </trkpt>
      <trkpt lat="43.367444" lon="-5.993998">
        <ele>198.0</ele>
        <time>2012-07-05T12:54:21Z</time>
      </trkpt>
      <trkpt lat="43.367427" lon="-5.9938">
        <ele>201.0</ele>
        <time>2012-07-05T12:54:25Z</time>
      </trkpt>
      <trkpt lat="43.367395" lon="-5.993595">
        <ele>203.0</ele>
        <time>2012-07-05T12:54:29Z</time>
      </trkpt>
      <trkpt lat="43.367389" lon="-5.993374">
        <ele>204.0</ele>
        <time>2012-07-05T12:54:33Z</time>
      </trkpt>
      <trkpt lat="43.367413" lon="-5.993146">
        <ele>205.0</ele>
        <time>2012-07-05T12:54:37Z</time>
      </trkpt>
      <trkpt lat="43.367444" lon="-5.992907">
        <ele>205.0</ele>
        <time>2012-07-05T12:54:41Z</time>
      </trkpt>
      <trkpt lat="43.367455" lon="-5.992664">
        <ele>205.0</ele>
        <time>2012-07-05T12:54:45Z</time>
      </trkpt>
      <trkpt lat="43.36745" lon="-5.992418">
        <ele>206.0</ele>
        <time>2012-07-05T12:54:49Z</time>
      </trkpt>
      <trkpt lat="43.367365" lon="-5.992176">
        <ele>206.0</ele>
        <time>2012-07-05T12:54:53Z</time>
      </trkpt>
      <trkpt lat="43.367291" lon="-5.991959">
        <ele>206.0</ele>
        <time>2012-07-05T12:54:57Z</time>
      </trkpt>
      <trkpt lat="43.3672" lon="-5.991783">
        <ele>206.0</ele>
        <time>2012-07-05T12:55:01Z</time>
      </trkpt>
      <trkpt lat="43.367117" lon="-5.991621">
        <ele>206.0</ele>
        <time>2012-07-05T12:55:05Z</time>
      </trkpt>
      <trkpt lat="43.367025" lon="-5.991468">
        <ele>207.0</ele>
        <time>2012-07-05T12:55:09Z</time>
      </trkpt>
      <trkpt lat="43.366978" lon="-5.991395">
        <ele>207.0</ele>
        <time>2012-07-05T12:55:11Z</time>
      </trkpt>
      <trkpt lat="43.366874" lon="-5.991108">
        <ele>207.0</ele>
        <time>2012-07-05T12:55:17Z</time>
      </trkpt>
      <trkpt lat="43.366805" lon="-5.990892">
        <ele>207.0</ele>
        <time>2012-07-05T12:55:21Z</time>
      </trkpt>
      <trkpt lat="43.366726" lon="-5.990679">
        <ele>207.0</ele>
        <time>2012-07-05T12:55:25Z</time>
      </trkpt>
      <trkpt lat="43.366524" lon="-5.990436">
        <ele>207.0</ele>
        <time>2012-07-05T12:55:30Z</time>
      </trkpt>
      <trkpt lat="43.366259" lon="-5.990244">
        <ele>209.0</ele>
        <time>2012-07-05T12:55:34Z</time>
      </trkpt>
      <trkpt lat="43.366" lon="-5.990045">
        <ele>209.0</ele>
        <time>2012-07-05T12:55:38Z</time>
      </trkpt>
      <trkpt lat="43.3658" lon="-5.989808">
        <ele>209.0</ele>
        <time>2012-07-05T12:55:42Z</time>
      </trkpt>
      <trkpt lat="43.365634" lon="-5.989528">
        <ele>210.0</ele>
        <time>2012-07-05T12:55:46Z</time>
      </trkpt>
      <trkpt lat="43.365473" lon="-5.989218">
        <ele>210.0</ele>
        <time>2012-07-05T12:55:50Z</time>
      </trkpt>
      <trkpt lat="43.36535" lon="-5.98889">
        <ele>210.0</ele>
        <time>2012-07-05T12:55:54Z</time>
      </trkpt>
      <trkpt lat="43.365241" lon="-5.988548">
        <ele>210.0</ele>
        <time>2012-07-05T12:55:58Z</time>
      </trkpt>
      <trkpt lat="43.365126" lon="-5.988192">
        <ele>210.0</ele>
        <time>2012-07-05T12:56:02Z</time>
      </trkpt>
      <trkpt lat="43.365035" lon="-5.987822">
        <ele>211.0</ele>
        <time>2012-07-05T12:56:06Z</time>
      </trkpt>
      <trkpt lat="43.365149" lon="-5.987432">
        <ele>212.0</ele>
        <time>2012-07-05T12:56:10Z</time>
      </trkpt>
      <trkpt lat="43.365357" lon="-5.987164">
        <ele>213.0</ele>
        <time>2012-07-05T12:56:14Z</time>
      </trkpt>
      <trkpt lat="43.36556" lon="-5.986941">
        <ele>214.0</ele>
        <time>2012-07-05T12:56:18Z</time>
      </trkpt>
      <trkpt lat="43.365611" lon="-5.986887">
        <ele>214.0</ele>
        <time>2012-07-05T12:56:19Z</time>
      </trkpt>
      <trkpt lat="43.365992" lon="-5.986482">
        <ele>215.0</ele>
        <time>2012-07-05T12:56:26Z</time>
      </trkpt>
      <trkpt lat="43.3662" lon="-5.986247">
        <ele>214.0</ele>
        <time>2012-07-05T12:56:30Z</time>
      </trkpt>
      <trkpt lat="43.366366" lon="-5.985921">
        <ele>214.0</ele>
        <time>2012-07-05T12:56:34Z</time>
      </trkpt>
      <trkpt lat="43.36643" lon="-5.985501">
        <ele>213.0</ele>
        <time>2012-07-05T12:56:38Z</time>
      </trkpt>
      <trkpt lat="43.366452" lon="-5.985064">
        <ele>212.0</ele>
        <time>2012-07-05T12:56:42Z</time>
      </trkpt>
      <trkpt lat="43.366488" lon="-5.984631">
        <ele>213.0</ele>
        <time>2012-07-05T12:56:46Z</time>
      </trkpt>
      <trkpt lat="43.366549" lon="-5.984205">
        <ele>214.0</ele>
        <time>2012-07-05T12:56:50Z</time>
      </trkpt>
      <trkpt lat="43.366603" lon="-5.983883">
        <ele>214.0</ele>
        <time>2012-07-05T12:56:53Z</time>
      </trkpt>
      <trkpt lat="43.366656" lon="-5.983342">
        <ele>214.0</ele>
        <time>2012-07-05T12:56:58Z</time>
      </trkpt>
      <trkpt lat="43.366636" lon="-5.982923">
        <ele>213.0</ele>
        <time>2012-07-05T12:57:02Z</time>
      </trkpt>
      <trkpt lat="43.366549" lon="-5.982511">
        <ele>213.0</ele>
        <time>2012-07-05T12:57:06Z</time>
      </trkpt>
      <trkpt lat="43.366427" lon="-5.982109">
        <ele>213.0</ele>
        <time>2012-07-05T12:57:10Z</time>
      </trkpt>
      <trkpt lat="43.366261" lon="-5.981721">
        <ele>213.0</ele>
        <time>2012-07-05T12:57:14Z</time>
      </trkpt>
      <trkpt lat="43.366086" lon="-5.981336">
        <ele>213.0</ele>
        <time>2012-07-05T12:57:18Z</time>
      </trkpt>
      <trkpt lat="43.365925" lon="-5.98095">
        <ele>214.0</ele>
        <time>2012-07-05T12:57:22Z</time>
      </trkpt>
      <trkpt lat="43.365723" lon="-5.980531">
        <ele>214.0</ele>
        <time>2012-07-05T12:57:26Z</time>
      </trkpt>
      <trkpt lat="43.365471" lon="-5.980221">
        <ele>214.0</ele>
        <time>2012-07-05T12:57:29Z</time>
      </trkpt>
      <trkpt lat="43.365097" lon="-5.979728">
        <ele>215.0</ele>
        <time>2012-07-05T12:57:34Z</time>
      </trkpt>
      <trkpt lat="43.364795" lon="-5.979385">
        <ele>215.0</ele>
        <time>2012-07-05T12:57:38Z</time>
      </trkpt>
      <trkpt lat="43.364511" lon="-5.979035">
        <ele>216.0</ele>
        <time>2012-07-05T12:57:42Z</time>
      </trkpt>
      <trkpt lat="43.364156" lon="-5.9786">
        <ele>216.0</ele>
        <time>2012-07-05T12:57:46Z</time>
      </trkpt>
      <trkpt lat="43.363727" lon="-5.978199">
        <ele>216.0</ele>
        <time>2012-07-05T12:57:50Z</time>
      </trkpt>
      <trkpt lat="43.363158" lon="-5.977979">
        <ele>217.0</ele>
        <time>2012-07-05T12:57:54Z</time>
      </trkpt>
      <trkpt lat="43.362622" lon="-5.977754">
        <ele>217.0</ele>
        <time>2012-07-05T12:57:58Z</time>
      </trkpt>
      <trkpt lat="43.36212" lon="-5.977488">
        <ele>217.0</ele>
        <time>2012-07-05T12:58:02Z</time>
      </trkpt>
      <trkpt lat="43.361665" lon="-5.977196">
        <ele>217.0</ele>
        <time>2012-07-05T12:58:06Z</time>
      </trkpt>
      <trkpt lat="43.361301" lon="-5.976845">
        <ele>217.0</ele>
        <time>2012-07-05T12:58:10Z</time>
      </trkpt>
      <trkpt lat="43.361088" lon="-5.976392">
        <ele>217.0</ele>
        <time>2012-07-05T12:58:14Z</time>
      </trkpt>
      <trkpt lat="43.360819" lon="-5.975983">
        <ele>218.0</ele>
        <time>2012-07-05T12:58:18Z</time>
      </trkpt>
      <trkpt lat="43.360468" lon="-5.975655">
        <ele>218.0</ele>
        <time>2012-07-05T12:58:22Z</time>
      </trkpt>
      <trkpt lat="43.360174" lon="-5.97529">
        <ele>218.0</ele>
        <time>2012-07-05T12:58:26Z</time>
      </trkpt>
      <trkpt lat="43.359917" lon="-5.974906">
        <ele>219.0</ele>
        <time>2012-07-05T12:58:30Z</time>
      </trkpt>
      <trkpt lat="43.359722" lon="-5.974458">
        <ele>220.0</ele>
        <time>2012-07-05T12:58:34Z</time>
      </trkpt>
      <trkpt lat="43.359542" lon="-5.973995">
        <ele>221.0</ele>
        <time>2012-07-05T12:58:38Z</time>
      </trkpt>
      <trkpt lat="43.359479" lon="-5.973563">
        <ele>223.0</ele>
        <time>2012-07-05T12:58:42Z</time>
      </trkpt>
      <trkpt lat="43.359468" lon="-5.97313">
        <ele>223.0</ele>
        <time>2012-07-05T12:58:46Z</time>
      </trkpt>
      <trkpt lat="43.359473" lon="-5.97265">
        <ele>222.0</ele>
        <time>2012-07-05T12:58:50Z</time>
      </trkpt>
      <trkpt lat="43.359489" lon="-5.972153">
        <ele>221.0</ele>
        <time>2012-07-05T12:58:54Z</time>
      </trkpt>
      <trkpt lat="43.359512" lon="-5.971656">
        <ele>220.0</ele>
        <time>2012-07-05T12:58:58Z</time>
      </trkpt>
      <trkpt lat="43.35955" lon="-5.971164">
        <ele>220.0</ele>
        <time>2012-07-05T12:59:02Z</time>
      </trkpt>
      <trkpt lat="43.35958" lon="-5.970679">
        <ele>221.0</ele>
        <time>2012-07-05T12:59:06Z</time>
      </trkpt>
      <trkpt lat="43.35958" lon="-5.970179">
        <ele>222.0</ele>
        <time>2012-07-05T12:59:10Z</time>
      </trkpt>
      <trkpt lat="43.359552" lon="-5.969661">
        <ele>223.0</ele>
        <time>2012-07-05T12:59:14Z</time>
      </trkpt>
      <trkpt lat="43.359461" lon="-5.969164">
        <ele>223.0</ele>
        <time>2012-07-05T12:59:18Z</time>
      </trkpt>
      <trkpt lat="43.359348" lon="-5.96869">
        <ele>223.0</ele>
        <time>2012-07-05T12:59:22Z</time>
      </trkpt>
      <trkpt lat="43.359328" lon="-5.968209">
        <ele>223.0</ele>
        <time>2012-07-05T12:59:26Z</time>
      </trkpt>
      <trkpt lat="43.359363" lon="-5.967781">
        <ele>223.0</ele>
        <time>2012-07-05T12:59:30Z</time>
      </trkpt>
      <trkpt lat="43.359408" lon="-5.967358">
        <ele>223.0</ele>
        <time>2012-07-05T12:59:34Z</time>
      </trkpt>
      <trkpt lat="43.35943" lon="-5.966805">
        <ele>223.0</ele>
        <time>2012-07-05T12:59:38Z</time>
      </trkpt>
      <trkpt lat="43.359397" lon="-5.966209">
        <ele>222.0</ele>
        <time>2012-07-05T12:59:42Z</time>
      </trkpt>
      <trkpt lat="43.359074" lon="-5.965647">
        <ele>221.0</ele>
        <time>2012-07-05T12:59:46Z</time>
      </trkpt>
      <trkpt lat="43.358565" lon="-5.965281">
        <ele>220.0</ele>
        <time>2012-07-05T12:59:50Z</time>
      </trkpt>
      <trkpt lat="43.358096" lon="-5.965096">
        <ele>220.0</ele>
        <time>2012-07-05T12:59:54Z</time>
      </trkpt>
      <trkpt lat="43.357559" lon="-5.965086">
        <ele>220.0</ele>
        <time>2012-07-05T12:59:58Z</time>
      </trkpt>
      <trkpt lat="43.357198" lon="-5.965142">
        <ele>220.0</ele>
        <time>2012-07-05T13:00:01Z</time>
      </trkpt>
      <trkpt lat="43.356461" lon="-5.965585">
        <ele>220.0</ele>
        <time>2012-07-05T13:00:06Z</time>
      </trkpt>
      <trkpt lat="43.35592" lon="-5.965854">
        <ele>221.0</ele>
        <time>2012-07-05T13:00:10Z</time>
      </trkpt>
      <trkpt lat="43.355426" lon="-5.965993">
        <ele>221.0</ele>
        <time>2012-07-05T13:00:14Z</time>
      </trkpt>
      <trkpt lat="43.354958" lon="-5.966051">
        <ele>220.0</ele>
        <time>2012-07-05T13:00:18Z</time>
      </trkpt>
      <trkpt lat="43.354504" lon="-5.966103">
        <ele>219.0</ele>
        <time>2012-07-05T13:00:22Z</time>
      </trkpt>
      <trkpt lat="43.354081" lon="-5.96616">
        <ele>219.0</ele>
        <time>2012-07-05T13:00:26Z</time>
      </trkpt>
      <trkpt lat="43.35374" lon="-5.966306">
        <ele>218.0</ele>
        <time>2012-07-05T13:00:30Z</time>
      </trkpt>
      <trkpt lat="43.353455" lon="-5.966523">
        <ele>218.0</ele>
        <time>2012-07-05T13:00:34Z</time>
      </trkpt>
      <trkpt lat="43.353184" lon="-5.966715">
        <ele>219.0</ele>
        <time>2012-07-05T13:00:38Z</time>
      </trkpt>
      <trkpt lat="43.35292" lon="-5.966864">
        <ele>219.0</ele>
        <time>2012-07-05T13:00:42Z</time>
      </trkpt>
      <trkpt lat="43.352667" lon="-5.966997">
        <ele>219.0</ele>
        <time>2012-07-05T13:00:46Z</time>
      </trkpt>
      <trkpt lat="43.352492" lon="-5.967094">
        <ele>219.0</ele>
        <time>2012-07-05T13:00:49Z</time>
      </trkpt>
      <trkpt lat="43.352391" lon="-5.967184">
        <ele>219.0</ele>
        <time>2012-07-05T13:00:51Z</time>
      </trkpt>
      <trkpt lat="43.35212" lon="-5.967533">
        <ele>218.0</ele>
        <time>2012-07-05T13:00:57Z</time>
      </trkpt>
      <trkpt lat="43.351866" lon="-5.96779">
        <ele>219.0</ele>
        <time>2012-07-05T13:01:02Z</time>
      </trkpt>
      <trkpt lat="43.351604" lon="-5.967908">
        <ele>219.0</ele>
        <time>2012-07-05T13:01:06Z</time>
      </trkpt>
      <trkpt lat="43.35132" lon="-5.968033">
        <ele>218.0</ele>
        <time>2012-07-05T13:01:10Z</time>
      </trkpt>
      <trkpt lat="43.351006" lon="-5.968171">
        <ele>217.0</ele>
        <time>2012-07-05T13:01:14Z</time>
      </trkpt>
      <trkpt lat="43.350712" lon="-5.96845">
        <ele>217.0</ele>
        <time>2012-07-05T13:01:18Z</time>
      </trkpt>
      <trkpt lat="43.35041" lon="-5.968697">
        <ele>216.0</ele>
        <time>2012-07-05T13:01:22Z</time>
      </trkpt>
      <trkpt lat="43.350106" lon="-5.968882">
        <ele>217.0</ele>
        <time>2012-07-05T13:01:26Z</time>
      </trkpt>
      <trkpt lat="43.349808" lon="-5.969026">
        <ele>217.0</ele>
        <time>2012-07-05T13:01:30Z</time>
      </trkpt>
      <trkpt lat="43.349508" lon="-5.969156">
        <ele>218.0</ele>
        <time>2012-07-05T13:01:34Z</time>
      </trkpt>
      <trkpt lat="43.349286" lon="-5.969237">
        <ele>218.0</ele>
        <time>2012-07-05T13:01:37Z</time>
      </trkpt>
      <trkpt lat="43.348931" lon="-5.969381">
        <ele>217.0</ele>
        <time>2012-07-05T13:01:42Z</time>
      </trkpt>
      <trkpt lat="43.348728" lon="-5.969466">
        <ele>217.0</ele>
        <time>2012-07-05T13:01:45Z</time>
      </trkpt>
      <trkpt lat="43.348392" lon="-5.969629">
        <ele>217.0</ele>
        <time>2012-07-05T13:01:50Z</time>
      </trkpt>
      <trkpt lat="43.348123" lon="-5.969758">
        <ele>217.0</ele>
        <time>2012-07-05T13:01:54Z</time>
      </trkpt>
      <trkpt lat="43.347854" lon="-5.969888">
        <ele>217.0</ele>
        <time>2012-07-05T13:01:58Z</time>
      </trkpt>
      <trkpt lat="43.347584" lon="-5.970025">
        <ele>217.0</ele>
        <time>2012-07-05T13:02:02Z</time>
      </trkpt>
      <trkpt lat="43.347327" lon="-5.970209">
        <ele>217.0</ele>
        <time>2012-07-05T13:02:06Z</time>
      </trkpt>
      <trkpt lat="43.347149" lon="-5.970369">
        <ele>217.0</ele>
        <time>2012-07-05T13:02:09Z</time>
      </trkpt>
      <trkpt lat="43.346865" lon="-5.970614">
        <ele>216.0</ele>
        <time>2012-07-05T13:02:14Z</time>
      </trkpt>
      <trkpt lat="43.34664" lon="-5.970795">
        <ele>216.0</ele>
        <time>2012-07-05T13:02:18Z</time>
      </trkpt>
      <trkpt lat="43.346401" lon="-5.970968">
        <ele>216.0</ele>
        <time>2012-07-05T13:02:22Z</time>
      </trkpt>
      <trkpt lat="43.346166" lon="-5.971142">
        <ele>216.0</ele>
        <time>2012-07-05T13:02:26Z</time>
      </trkpt>
      <trkpt lat="43.345949" lon="-5.971361">
        <ele>217.0</ele>
        <time>2012-07-05T13:02:30Z</time>
      </trkpt>
      <trkpt lat="43.345799" lon="-5.971549">
        <ele>216.0</ele>
        <time>2012-07-05T13:02:33Z</time>
      </trkpt>
      <trkpt lat="43.34554" lon="-5.971833">
        <ele>216.0</ele>
        <time>2012-07-05T13:02:38Z</time>
      </trkpt>
      <trkpt lat="43.345343" lon="-5.972056">
        <ele>217.0</ele>
        <time>2012-07-05T13:02:42Z</time>
      </trkpt>
      <trkpt lat="43.345295" lon="-5.972112">
        <ele>217.0</ele>
        <time>2012-07-05T13:02:43Z</time>
      </trkpt>
      <trkpt lat="43.344984" lon="-5.97254">
        <ele>217.0</ele>
        <time>2012-07-05T13:02:50Z</time>
      </trkpt>
      <trkpt lat="43.344809" lon="-5.972792">
        <ele>218.0</ele>
        <time>2012-07-05T13:02:54Z</time>
      </trkpt>
      <trkpt lat="43.344631" lon="-5.973039">
        <ele>218.0</ele>
        <time>2012-07-05T13:02:58Z</time>
      </trkpt>
      <trkpt lat="43.344497" lon="-5.973227">
        <ele>218.0</ele>
        <time>2012-07-05T13:03:01Z</time>
      </trkpt>
      <trkpt lat="43.34429" lon="-5.973596">
        <ele>219.0</ele>
        <time>2012-07-05T13:03:06Z</time>
      </trkpt>
      <trkpt lat="43.344127" lon="-5.973916">
        <ele>219.0</ele>
        <time>2012-07-05T13:03:10Z</time>
      </trkpt>
      <trkpt lat="43.343956" lon="-5.974226">
        <ele>218.0</ele>
        <time>2012-07-05T13:03:14Z</time>
      </trkpt>
      <trkpt lat="43.343797" lon="-5.974561">
        <ele>218.0</ele>
        <time>2012-07-05T13:03:18Z</time>
      </trkpt>
      <trkpt lat="43.343646" lon="-5.97493">
        <ele>218.0</ele>
        <time>2012-07-05T13:03:22Z</time>
      </trkpt>
      <trkpt lat="43.3435" lon="-5.97534">
        <ele>218.0</ele>
        <time>2012-07-05T13:03:26Z</time>
      </trkpt>
      <trkpt lat="43.343394" lon="-5.975658">
        <ele>219.0</ele>
        <time>2012-07-05T13:03:29Z</time>
      </trkpt>
      <trkpt lat="43.34325" lon="-5.976182">
        <ele>219.0</ele>
        <time>2012-07-05T13:03:34Z</time>
      </trkpt>
      <trkpt lat="43.343148" lon="-5.976595">
        <ele>219.0</ele>
        <time>2012-07-05T13:03:38Z</time>
      </trkpt>
      <trkpt lat="43.343034" lon="-5.977012">
        <ele>219.0</ele>
        <time>2012-07-05T13:03:42Z</time>
      </trkpt>
      <trkpt lat="43.342933" lon="-5.977423">
        <ele>219.0</ele>
        <time>2012-07-05T13:03:46Z</time>
      </trkpt>
      <trkpt lat="43.342887" lon="-5.977832">
        <ele>220.0</ele>
        <time>2012-07-05T13:03:50Z</time>
      </trkpt>
      <trkpt lat="43.34284" lon="-5.978231">
        <ele>220.0</ele>
        <time>2012-07-05T13:03:54Z</time>
      </trkpt>
      <trkpt lat="43.342785" lon="-5.978619">
        <ele>221.0</ele>
        <time>2012-07-05T13:03:58Z</time>
      </trkpt>
      <trkpt lat="43.342856" lon="-5.978962">
        <ele>221.0</ele>
        <time>2012-07-05T13:04:02Z</time>
      </trkpt>
      <trkpt lat="43.342927" lon="-5.979293">
        <ele>221.0</ele>
        <time>2012-07-05T13:04:06Z</time>
      </trkpt>
      <trkpt lat="43.342872" lon="-5.979625">
        <ele>221.0</ele>
        <time>2012-07-05T13:04:10Z</time>
      </trkpt>
      <trkpt lat="43.342809" lon="-5.980017">
        <ele>221.0</ele>
        <time>2012-07-05T13:04:14Z</time>
      </trkpt>
      <trkpt lat="43.342748" lon="-5.980426">
        <ele>220.0</ele>
        <time>2012-07-05T13:04:18Z</time>
      </trkpt>
      <trkpt lat="43.342611" lon="-5.980788">
        <ele>220.0</ele>
        <time>2012-07-05T13:04:22Z</time>
      </trkpt>
      <trkpt lat="43.342441" lon="-5.981122">
        <ele>220.0</ele>
        <time>2012-07-05T13:04:26Z</time>
      </trkpt>
      <trkpt lat="43.342307" lon="-5.981375">
        <ele>219.0</ele>
        <time>2012-07-05T13:04:29Z</time>
      </trkpt>
      <trkpt lat="43.342061" lon="-5.981769">
        <ele>219.0</ele>
        <time>2012-07-05T13:04:34Z</time>
      </trkpt>
      <trkpt lat="43.341863" lon="-5.982074">
        <ele>218.0</ele>
        <time>2012-07-05T13:04:38Z</time>
      </trkpt>
      <trkpt lat="43.341649" lon="-5.982353">
        <ele>218.0</ele>
        <time>2012-07-05T13:04:42Z</time>
      </trkpt>
      <trkpt lat="43.341417" lon="-5.982597">
        <ele>219.0</ele>
        <time>2012-07-05T13:04:46Z</time>
      </trkpt>
      <trkpt lat="43.341167" lon="-5.982808">
        <ele>219.0</ele>
        <time>2012-07-05T13:04:50Z</time>
      </trkpt>
      <trkpt lat="43.340935" lon="-5.983041">
        <ele>219.0</ele>
        <time>2012-07-05T13:04:54Z</time>
      </trkpt>
      <trkpt lat="43.340721" lon="-5.983293">
        <ele>219.0</ele>
        <time>2012-07-05T13:04:58Z</time>
      </trkpt>
      <trkpt lat="43.340517" lon="-5.983551">
        <ele>219.0</ele>
        <time>2012-07-05T13:05:02Z</time>
      </trkpt>
      <trkpt lat="43.340309" lon="-5.983805">
        <ele>219.0</ele>
        <time>2012-07-05T13:05:06Z</time>
      </trkpt>
      <trkpt lat="43.340085" lon="-5.984046">
        <ele>219.0</ele>
        <time>2012-07-05T13:05:10Z</time>
      </trkpt>
      <trkpt lat="43.339832" lon="-5.984244">
        <ele>218.0</ele>
        <time>2012-07-05T13:05:14Z</time>
      </trkpt>
      <trkpt lat="43.339632" lon="-5.984364">
        <ele>218.0</ele>
        <time>2012-07-05T13:05:17Z</time>
      </trkpt>
      <trkpt lat="43.3393" lon="-5.984578">
        <ele>218.0</ele>
        <time>2012-07-05T13:05:22Z</time>
      </trkpt>
      <trkpt lat="43.339036" lon="-5.984748">
        <ele>218.0</ele>
        <time>2012-07-05T13:05:26Z</time>
      </trkpt>
      <trkpt lat="43.338797" lon="-5.984961">
        <ele>218.0</ele>
        <time>2012-07-05T13:05:30Z</time>
      </trkpt>
      <trkpt lat="43.338562" lon="-5.985189">
        <ele>218.0</ele>
        <time>2012-07-05T13:05:34Z</time>
      </trkpt>
      <trkpt lat="43.338306" lon="-5.985396">
        <ele>218.0</ele>
        <time>2012-07-05T13:05:38Z</time>
      </trkpt>
      <trkpt lat="43.33802" lon="-5.985497">
        <ele>218.0</ele>
        <time>2012-07-05T13:05:42Z</time>
      </trkpt>
      <trkpt lat="43.337725" lon="-5.985512">
        <ele>218.0</ele>
        <time>2012-07-05T13:05:46Z</time>
      </trkpt>
      <trkpt lat="43.337383" lon="-5.985508">
        <ele>218.0</ele>
        <time>2012-07-05T13:05:50Z</time>
      </trkpt>
      <trkpt lat="43.337117" lon="-5.985495">
        <ele>218.0</ele>
        <time>2012-07-05T13:05:53Z</time>
      </trkpt>
      <trkpt lat="43.336699" lon="-5.985499">
        <ele>219.0</ele>
        <time>2012-07-05T13:05:58Z</time>
      </trkpt>
      <trkpt lat="43.336461" lon="-5.985692">
        <ele>220.0</ele>
        <time>2012-07-05T13:06:02Z</time>
      </trkpt>
      <trkpt lat="43.336251" lon="-5.986009">
        <ele>220.0</ele>
        <time>2012-07-05T13:06:06Z</time>
      </trkpt>
      <trkpt lat="43.335997" lon="-5.986259">
        <ele>221.0</ele>
        <time>2012-07-05T13:06:10Z</time>
      </trkpt>
      <trkpt lat="43.335691" lon="-5.986387">
        <ele>221.0</ele>
        <time>2012-07-05T13:06:14Z</time>
      </trkpt>
      <trkpt lat="43.335447" lon="-5.986394">
        <ele>221.0</ele>
        <time>2012-07-05T13:06:17Z</time>
      </trkpt>
      <trkpt lat="43.335079" lon="-5.986435">
        <ele>220.0</ele>
        <time>2012-07-05T13:06:22Z</time>
      </trkpt>
      <trkpt lat="43.334808" lon="-5.986615">
        <ele>220.0</ele>
        <time>2012-07-05T13:06:26Z</time>
      </trkpt>
      <trkpt lat="43.33453" lon="-5.986795">
        <ele>220.0</ele>
        <time>2012-07-05T13:06:30Z</time>
      </trkpt>
      <trkpt lat="43.334243" lon="-5.986946">
        <ele>220.0</ele>
        <time>2012-07-05T13:06:34Z</time>
      </trkpt>
      <trkpt lat="43.333945" lon="-5.987076">
        <ele>221.0</ele>
        <time>2012-07-05T13:06:38Z</time>
      </trkpt>
      <trkpt lat="43.333642" lon="-5.987201">
        <ele>221.0</ele>
        <time>2012-07-05T13:06:42Z</time>
      </trkpt>
      <trkpt lat="43.333342" lon="-5.987335">
        <ele>221.0</ele>
        <time>2012-07-05T13:06:46Z</time>
      </trkpt>
      <trkpt lat="43.333061" lon="-5.98748">
        <ele>221.0</ele>
        <time>2012-07-05T13:06:50Z</time>
      </trkpt>
      <trkpt lat="43.332791" lon="-5.987602">
        <ele>222.0</ele>
        <time>2012-07-05T13:06:54Z</time>
      </trkpt>
      <trkpt lat="43.332521" lon="-5.98772">
        <ele>220.0</ele>
        <time>2012-07-05T13:06:58Z</time>
      </trkpt>
      <trkpt lat="43.332256" lon="-5.987843">
        <ele>217.0</ele>
        <time>2012-07-05T13:07:02Z</time>
      </trkpt>
      <trkpt lat="43.331984" lon="-5.987949">
        <ele>215.0</ele>
        <time>2012-07-05T13:07:06Z</time>
      </trkpt>
      <trkpt lat="43.33171" lon="-5.988032">
        <ele>214.0</ele>
        <time>2012-07-05T13:07:10Z</time>
      </trkpt>
      <trkpt lat="43.331421" lon="-5.988091">
        <ele>214.0</ele>
        <time>2012-07-05T13:07:14Z</time>
      </trkpt>
      <trkpt lat="43.331121" lon="-5.98813">
        <ele>214.0</ele>
        <time>2012-07-05T13:07:18Z</time>
      </trkpt>
      <trkpt lat="43.330807" lon="-5.988143">
        <ele>214.0</ele>
        <time>2012-07-05T13:07:22Z</time>
      </trkpt>
      <trkpt lat="43.33057" lon="-5.988143">
        <ele>215.0</ele>
        <time>2012-07-05T13:07:25Z</time>
      </trkpt>
      <trkpt lat="43.330152" lon="-5.988103">
        <ele>215.0</ele>
        <time>2012-07-05T13:07:30Z</time>
      </trkpt>
      <trkpt lat="43.329819" lon="-5.988058">
        <ele>216.0</ele>
        <time>2012-07-05T13:07:34Z</time>
      </trkpt>
      <trkpt lat="43.329502" lon="-5.988016">
        <ele>216.0</ele>
        <time>2012-07-05T13:07:38Z</time>
      </trkpt>
      <trkpt lat="43.329176" lon="-5.987953">
        <ele>217.0</ele>
        <time>2012-07-05T13:07:42Z</time>
      </trkpt>
      <trkpt lat="43.328849" lon="-5.987902">
        <ele>218.0</ele>
        <time>2012-07-05T13:07:46Z</time>
      </trkpt>
      <trkpt lat="43.328547" lon="-5.988">
        <ele>217.0</ele>
        <time>2012-07-05T13:07:50Z</time>
      </trkpt>
      <trkpt lat="43.328275" lon="-5.988297">
        <ele>217.0</ele>
        <time>2012-07-05T13:07:54Z</time>
      </trkpt>
      <trkpt lat="43.327997" lon="-5.98866">
        <ele>216.0</ele>
        <time>2012-07-05T13:07:58Z</time>
      </trkpt>
      <trkpt lat="43.32773" lon="-5.988978">
        <ele>217.0</ele>
        <time>2012-07-05T13:08:02Z</time>
      </trkpt>
      <trkpt lat="43.327469" lon="-5.989279">
        <ele>217.0</ele>
        <time>2012-07-05T13:08:06Z</time>
      </trkpt>
      <trkpt lat="43.327212" lon="-5.98959">
        <ele>217.0</ele>
        <time>2012-07-05T13:08:10Z</time>
      </trkpt>
      <trkpt lat="43.326952" lon="-5.989898">
        <ele>217.0</ele>
        <time>2012-07-05T13:08:14Z</time>
      </trkpt>
      <trkpt lat="43.326694" lon="-5.990209">
        <ele>218.0</ele>
        <time>2012-07-05T13:08:18Z</time>
      </trkpt>
      <trkpt lat="43.326432" lon="-5.990518">
        <ele>219.0</ele>
        <time>2012-07-05T13:08:22Z</time>
      </trkpt>
      <trkpt lat="43.326169" lon="-5.990824">
        <ele>220.0</ele>
        <time>2012-07-05T13:08:26Z</time>
      </trkpt>
      <trkpt lat="43.325889" lon="-5.991114">
        <ele>221.0</ele>
        <time>2012-07-05T13:08:30Z</time>
      </trkpt>
      <trkpt lat="43.325584" lon="-5.991361">
        <ele>222.0</ele>
        <time>2012-07-05T13:08:34Z</time>
      </trkpt>
      <trkpt lat="43.325348" lon="-5.99153">
        <ele>222.0</ele>
        <time>2012-07-05T13:08:37Z</time>
      </trkpt>
      <trkpt lat="43.324963" lon="-5.99179">
        <ele>222.0</ele>
        <time>2012-07-05T13:08:42Z</time>
      </trkpt>
      <trkpt lat="43.324649" lon="-5.992009">
        <ele>221.0</ele>
        <time>2012-07-05T13:08:46Z</time>
      </trkpt>
      <trkpt lat="43.324345" lon="-5.992222">
        <ele>221.0</ele>
        <time>2012-07-05T13:08:50Z</time>
      </trkpt>
      <trkpt lat="43.324004" lon="-5.992434">
        <ele>221.0</ele>
        <time>2012-07-05T13:08:54Z</time>
      </trkpt>
      <trkpt lat="43.323652" lon="-5.9926">
        <ele>221.0</ele>
        <time>2012-07-05T13:08:58Z</time>
      </trkpt>
      <trkpt lat="43.323279" lon="-5.99268">
        <ele>222.0</ele>
        <time>2012-07-05T13:09:02Z</time>
      </trkpt>
      <trkpt lat="43.322884" lon="-5.992676">
        <ele>224.0</ele>
        <time>2012-07-05T13:09:06Z</time>
      </trkpt>
      <trkpt lat="43.32251" lon="-5.992653">
        <ele>225.0</ele>
        <time>2012-07-05T13:09:10Z</time>
      </trkpt>
      <trkpt lat="43.322172" lon="-5.992632">
        <ele>226.0</ele>
        <time>2012-07-05T13:09:14Z</time>
      </trkpt>
      <trkpt lat="43.321865" lon="-5.992594">
        <ele>226.0</ele>
        <time>2012-07-05T13:09:18Z</time>
      </trkpt>
      <trkpt lat="43.321533" lon="-5.992654">
        <ele>226.0</ele>
        <time>2012-07-05T13:09:22Z</time>
      </trkpt>
      <trkpt lat="43.32118" lon="-5.992756">
        <ele>226.0</ele>
        <time>2012-07-05T13:09:26Z</time>
      </trkpt>
      <trkpt lat="43.320837" lon="-5.992817">
        <ele>226.0</ele>
        <time>2012-07-05T13:09:30Z</time>
      </trkpt>
      <trkpt lat="43.320495" lon="-5.992844">
        <ele>226.0</ele>
        <time>2012-07-05T13:09:34Z</time>
      </trkpt>
      <trkpt lat="43.320148" lon="-5.992835">
        <ele>226.0</ele>
        <time>2012-07-05T13:09:38Z</time>
      </trkpt>
      <trkpt lat="43.319779" lon="-5.992796">
        <ele>226.0</ele>
        <time>2012-07-05T13:09:42Z</time>
      </trkpt>
      <trkpt lat="43.319428" lon="-5.992679">
        <ele>226.0</ele>
        <time>2012-07-05T13:09:46Z</time>
      </trkpt>
      <trkpt lat="43.319102" lon="-5.992503">
        <ele>227.0</ele>
        <time>2012-07-05T13:09:50Z</time>
      </trkpt>
      <trkpt lat="43.318811" lon="-5.992309">
        <ele>227.0</ele>
        <time>2012-07-05T13:09:54Z</time>
      </trkpt>
      <trkpt lat="43.318538" lon="-5.992142">
        <ele>227.0</ele>
        <time>2012-07-05T13:09:58Z</time>
      </trkpt>
      <trkpt lat="43.318241" lon="-5.991989">
        <ele>227.0</ele>
        <time>2012-07-05T13:10:02Z</time>
      </trkpt>
      <trkpt lat="43.317931" lon="-5.991846">
        <ele>227.0</ele>
        <time>2012-07-05T13:10:06Z</time>
      </trkpt>
      <trkpt lat="43.317629" lon="-5.991759">
        <ele>227.0</ele>
        <time>2012-07-05T13:10:10Z</time>
      </trkpt>
      <trkpt lat="43.317332" lon="-5.991724">
        <ele>227.0</ele>
        <time>2012-07-05T13:10:14Z</time>
      </trkpt>
      <trkpt lat="43.317034" lon="-5.991694">
        <ele>227.0</ele>
        <time>2012-07-05T13:10:18Z</time>
      </trkpt>
      <trkpt lat="43.316736" lon="-5.991633">
        <ele>228.0</ele>
        <time>2012-07-05T13:10:22Z</time>
      </trkpt>
      <trkpt lat="43.316417" lon="-5.991562">
        <ele>229.0</ele>
        <time>2012-07-05T13:10:26Z</time>
      </trkpt>
      <trkpt lat="43.316078" lon="-5.991495">
        <ele>229.0</ele>
        <time>2012-07-05T13:10:30Z</time>
      </trkpt>
      <trkpt lat="43.315727" lon="-5.991413">
        <ele>228.0</ele>
        <time>2012-07-05T13:10:34Z</time>
      </trkpt>
      <trkpt lat="43.31536" lon="-5.991314">
        <ele>228.0</ele>
        <time>2012-07-05T13:10:38Z</time>
      </trkpt>
      <trkpt lat="43.314959" lon="-5.991184">
        <ele>228.0</ele>
        <time>2012-07-05T13:10:42Z</time>
      </trkpt>
      <trkpt lat="43.314649" lon="-5.99107">
        <ele>228.0</ele>
        <time>2012-07-05T13:10:45Z</time>
      </trkpt>
      <trkpt lat="43.31415" lon="-5.990875">
        <ele>228.0</ele>
        <time>2012-07-05T13:10:50Z</time>
      </trkpt>
      <trkpt lat="43.313781" lon="-5.990657">
        <ele>229.0</ele>
        <time>2012-07-05T13:10:54Z</time>
      </trkpt>
      <trkpt lat="43.313501" lon="-5.990307">
        <ele>229.0</ele>
        <time>2012-07-05T13:10:58Z</time>
      </trkpt>
      <trkpt lat="43.313295" lon="-5.989843">
        <ele>230.0</ele>
        <time>2012-07-05T13:11:02Z</time>
      </trkpt>
      <trkpt lat="43.313178" lon="-5.989274">
        <ele>231.0</ele>
        <time>2012-07-05T13:11:06Z</time>
      </trkpt>
      <trkpt lat="43.313064" lon="-5.988764">
        <ele>231.0</ele>
        <time>2012-07-05T13:11:10Z</time>
      </trkpt>
      <trkpt lat="43.312885" lon="-5.988345">
        <ele>232.0</ele>
        <time>2012-07-05T13:11:14Z</time>
      </trkpt>
      <trkpt lat="43.312654" lon="-5.987999">
        <ele>232.0</ele>
        <time>2012-07-05T13:11:18Z</time>
      </trkpt>
      <trkpt lat="43.312387" lon="-5.98772">
        <ele>232.0</ele>
        <time>2012-07-05T13:11:22Z</time>
      </trkpt>
      <trkpt lat="43.312085" lon="-5.987532">
        <ele>232.0</ele>
        <time>2012-07-05T13:11:26Z</time>
      </trkpt>
      <trkpt lat="43.311802" lon="-5.987323">
        <ele>232.0</ele>
        <time>2012-07-05T13:11:30Z</time>
      </trkpt>
      <trkpt lat="43.31153" lon="-5.987137">
        <ele>232.0</ele>
        <time>2012-07-05T13:11:34Z</time>
      </trkpt>
      <trkpt lat="43.311204" lon="-5.987029">
        <ele>231.0</ele>
        <time>2012-07-05T13:11:38Z</time>
      </trkpt>
      <trkpt lat="43.310848" lon="-5.986998">
        <ele>231.0</ele>
        <time>2012-07-05T13:11:42Z</time>
      </trkpt>
      <trkpt lat="43.310513" lon="-5.986938">
        <ele>231.0</ele>
        <time>2012-07-05T13:11:46Z</time>
      </trkpt>
      <trkpt lat="43.310183" lon="-5.986869">
        <ele>231.0</ele>
        <time>2012-07-05T13:11:50Z</time>
      </trkpt>
      <trkpt lat="43.30986" lon="-5.986786">
        <ele>231.0</ele>
        <time>2012-07-05T13:11:54Z</time>
      </trkpt>
      <trkpt lat="43.309537" lon="-5.986703">
        <ele>231.0</ele>
        <time>2012-07-05T13:11:58Z</time>
      </trkpt>
      <trkpt lat="43.309218" lon="-5.986601">
        <ele>232.0</ele>
        <time>2012-07-05T13:12:02Z</time>
      </trkpt>
      <trkpt lat="43.308892" lon="-5.986462">
        <ele>232.0</ele>
        <time>2012-07-05T13:12:06Z</time>
      </trkpt>
      <trkpt lat="43.308567" lon="-5.98631">
        <ele>232.0</ele>
        <time>2012-07-05T13:12:10Z</time>
      </trkpt>
      <trkpt lat="43.308254" lon="-5.986131">
        <ele>233.0</ele>
        <time>2012-07-05T13:12:14Z</time>
      </trkpt>
      <trkpt lat="43.307962" lon="-5.985928">
        <ele>233.0</ele>
        <time>2012-07-05T13:12:18Z</time>
      </trkpt>
      <trkpt lat="43.307666" lon="-5.985738">
        <ele>233.0</ele>
        <time>2012-07-05T13:12:22Z</time>
      </trkpt>
      <trkpt lat="43.307357" lon="-5.985552">
        <ele>234.0</ele>
        <time>2012-07-05T13:12:26Z</time>
      </trkpt>
      <trkpt lat="43.307026" lon="-5.985384">
        <ele>234.0</ele>
        <time>2012-07-05T13:12:30Z</time>
      </trkpt>
      <trkpt lat="43.306694" lon="-5.985243">
        <ele>234.0</ele>
        <time>2012-07-05T13:12:34Z</time>
      </trkpt>
      <trkpt lat="43.306362" lon="-5.985101">
        <ele>234.0</ele>
        <time>2012-07-05T13:12:38Z</time>
      </trkpt>
      <trkpt lat="43.306031" lon="-5.984984">
        <ele>234.0</ele>
        <time>2012-07-05T13:12:42Z</time>
      </trkpt>
      <trkpt lat="43.3058" lon="-5.984631">
        <ele>234.0</ele>
        <time>2012-07-05T13:12:46Z</time>
      </trkpt>
      <trkpt lat="43.305647" lon="-5.984146">
        <ele>235.0</ele>
        <time>2012-07-05T13:12:50Z</time>
      </trkpt>
      <trkpt lat="43.305441" lon="-5.983746">
        <ele>236.0</ele>
        <time>2012-07-05T13:12:54Z</time>
      </trkpt>
      <trkpt lat="43.305213" lon="-5.983383">
        <ele>237.0</ele>
        <time>2012-07-05T13:12:58Z</time>
      </trkpt>
      <trkpt lat="43.304983" lon="-5.983045">
        <ele>237.0</ele>
        <time>2012-07-05T13:13:02Z</time>
      </trkpt>
      <trkpt lat="43.304741" lon="-5.982741">
        <ele>238.0</ele>
        <time>2012-07-05T13:13:06Z</time>
      </trkpt>
      <trkpt lat="43.304487" lon="-5.98247">
        <ele>238.0</ele>
        <time>2012-07-05T13:13:10Z</time>
      </trkpt>
      <trkpt lat="43.304353" lon="-5.982352">
        <ele>239.0</ele>
        <time>2012-07-05T13:13:12Z</time>
      </trkpt>
      <trkpt lat="43.303958" lon="-5.98199">
        <ele>239.0</ele>
        <time>2012-07-05T13:13:18Z</time>
      </trkpt>
      <trkpt lat="43.303707" lon="-5.981719">
        <ele>239.0</ele>
        <time>2012-07-05T13:13:22Z</time>
      </trkpt>
      <trkpt lat="43.303707" lon="-5.981719">
        <time>2012-07-05T13:13:34Z</time>
      </trkpt>
    </trkseg>
    <trkseg>
      <trkpt lat="43.303707" lon="-5.981719">
        <time>2012-07-05T13:14:19Z</time>
      </trkpt>
      <trkpt lat="43.299479" lon="-5.987496">
        <ele>237.0</ele>
        <time>2012-07-05T13:14:20Z</time>
      </trkpt>
      <trkpt lat="43.299851" lon="-5.987992">
        <ele>234.0</ele>
        <time>2012-07-05T13:14:24Z</time>
      </trkpt>
      <trkpt lat="43.299982" lon="-5.988259">
        <ele>233.0</ele>
        <time>2012-07-05T13:14:27Z</time>
      </trkpt>
      <trkpt lat="43.299994" lon="-5.988502">
        <ele>233.0</ele>
        <time>2012-07-05T13:14:31Z</time>
      </trkpt>
      <trkpt lat="43.2999" lon="-5.988683">
        <ele>232.0</ele>
        <time>2012-07-05T13:14:35Z</time>
      </trkpt>
      <trkpt lat="43.299744" lon="-5.988823">
        <ele>233.0</ele>
        <time>2012-07-05T13:14:39Z</time>
      </trkpt>
      <trkpt lat="43.299563" lon="-5.988936">
        <ele>233.0</ele>
        <time>2012-07-05T13:14:43Z</time>
      </trkpt>
      <trkpt lat="43.299375" lon="-5.989064">
        <ele>234.0</ele>
        <time>2012-07-05T13:14:47Z</time>
      </trkpt>
      <trkpt lat="43.299187" lon="-5.989203">
        <ele>234.0</ele>
        <time>2012-07-05T13:14:51Z</time>
      </trkpt>
      <trkpt lat="43.299187" lon="-5.989203">
        <time>2012-07-05T13:15:02Z</time>
      </trkpt>
    </trkseg>
    <trkseg>
      <trkpt lat="43.299187" lon="-5.989203">
        <time>2012-07-05T13:15:17Z</time>
      </trkpt>
      <trkpt lat="43.297488" lon="-5.985662">
        <ele>230.0</ele>
        <time>2012-07-05T13:15:18Z</time>
      </trkpt>
      <trkpt lat="43.297229" lon="-5.985204">
        <ele>228.0</ele>
        <time>2012-07-05T13:15:23Z</time>
      </trkpt>
      <trkpt lat="43.296979" lon="-5.984854">
        <ele>227.0</ele>
        <time>2012-07-05T13:15:27Z</time>
      </trkpt>
      <trkpt lat="43.296524" lon="-5.984533">
        <ele>226.0</ele>
        <time>2012-07-05T13:15:31Z</time>
      </trkpt>
      <trkpt lat="43.296121" lon="-5.984251">
        <ele>226.0</ele>
        <time>2012-07-05T13:15:35Z</time>
      </trkpt>
      <trkpt lat="43.295725" lon="-5.983992">
        <ele>227.0</ele>
        <time>2012-07-05T13:15:39Z</time>
      </trkpt>
      <trkpt lat="43.295439" lon="-5.983805">
        <ele>227.0</ele>
        <time>2012-07-05T13:15:42Z</time>
      </trkpt>
      <trkpt lat="43.294966" lon="-5.983507">
        <ele>228.0</ele>
        <time>2012-07-05T13:15:47Z</time>
      </trkpt>
      <trkpt lat="43.294698" lon="-5.983299">
        <ele>229.0</ele>
        <time>2012-07-05T13:15:50Z</time>
      </trkpt>
      <trkpt lat="43.294268" lon="-5.982892">
        <ele>231.0</ele>
        <time>2012-07-05T13:15:55Z</time>
      </trkpt>
      <trkpt lat="43.293922" lon="-5.9826">
        <ele>231.0</ele>
        <time>2012-07-05T13:15:59Z</time>
      </trkpt>
      <trkpt lat="43.293598" lon="-5.982311">
        <ele>230.0</ele>
        <time>2012-07-05T13:16:03Z</time>
      </trkpt>
      <trkpt lat="43.293301" lon="-5.982016">
        <ele>230.0</ele>
        <time>2012-07-05T13:16:07Z</time>
      </trkpt>
      <trkpt lat="43.293017" lon="-5.981727">
        <ele>230.0</ele>
        <time>2012-07-05T13:16:11Z</time>
      </trkpt>
      <trkpt lat="43.292711" lon="-5.981522">
        <ele>231.0</ele>
        <time>2012-07-05T13:16:15Z</time>
      </trkpt>
      <trkpt lat="43.292539" lon="-5.981499">
        <ele>231.0</ele>
        <time>2012-07-05T13:16:18Z</time>
      </trkpt>
      <trkpt lat="43.292371" lon="-5.981553">
        <ele>231.0</ele>
        <time>2012-07-05T13:16:22Z</time>
      </trkpt>
      <trkpt lat="43.292087" lon="-5.981766">
        <ele>231.0</ele>
        <time>2012-07-05T13:16:27Z</time>
      </trkpt>
      <trkpt lat="43.291816" lon="-5.981973">
        <ele>231.0</ele>
        <time>2012-07-05T13:16:31Z</time>
      </trkpt>
      <trkpt lat="43.29151" lon="-5.982121">
        <ele>232.0</ele>
        <time>2012-07-05T13:16:35Z</time>
      </trkpt>
      <trkpt lat="43.291193" lon="-5.9822">
        <ele>232.0</ele>
        <time>2012-07-05T13:16:39Z</time>
      </trkpt>
      <trkpt lat="43.290859" lon="-5.982249">
        <ele>232.0</ele>
        <time>2012-07-05T13:16:43Z</time>
      </trkpt>
      <trkpt lat="43.290526" lon="-5.982295">
        <ele>233.0</ele>
        <time>2012-07-05T13:16:47Z</time>
      </trkpt>
      <trkpt lat="43.290201" lon="-5.982368">
        <ele>233.0</ele>
        <time>2012-07-05T13:16:51Z</time>
      </trkpt>
      <trkpt lat="43.289891" lon="-5.982473">
        <ele>233.0</ele>
        <time>2012-07-05T13:16:55Z</time>
      </trkpt>
      <trkpt lat="43.289587" lon="-5.982594">
        <ele>234.0</ele>
        <time>2012-07-05T13:16:59Z</time>
      </trkpt>
      <trkpt lat="43.289274" lon="-5.982708">
        <ele>234.0</ele>
        <time>2012-07-05T13:17:03Z</time>
      </trkpt>
      <trkpt lat="43.28896" lon="-5.982819">
        <ele>234.0</ele>
        <time>2012-07-05T13:17:07Z</time>
      </trkpt>
      <trkpt lat="43.288661" lon="-5.982924">
        <ele>234.0</ele>
        <time>2012-07-05T13:17:11Z</time>
      </trkpt>
      <trkpt lat="43.288371" lon="-5.983029">
        <ele>234.0</ele>
        <time>2012-07-05T13:17:15Z</time>
      </trkpt>
      <trkpt lat="43.288081" lon="-5.983141">
        <ele>233.0</ele>
        <time>2012-07-05T13:17:19Z</time>
      </trkpt>
      <trkpt lat="43.287786" lon="-5.983251">
        <ele>233.0</ele>
        <time>2012-07-05T13:17:23Z</time>
      </trkpt>
      <trkpt lat="43.287491" lon="-5.983361">
        <ele>233.0</ele>
        <time>2012-07-05T13:17:27Z</time>
      </trkpt>
      <trkpt lat="43.287194" lon="-5.98348">
        <ele>233.0</ele>
        <time>2012-07-05T13:17:31Z</time>
      </trkpt>
      <trkpt lat="43.286897" lon="-5.983592">
        <ele>233.0</ele>
        <time>2012-07-05T13:17:35Z</time>
      </trkpt>
      <trkpt lat="43.286601" lon="-5.983674">
        <ele>234.0</ele>
        <time>2012-07-05T13:17:39Z</time>
      </trkpt>
      <trkpt lat="43.286304" lon="-5.983738">
        <ele>234.0</ele>
        <time>2012-07-05T13:17:43Z</time>
      </trkpt>
      <trkpt lat="43.286008" lon="-5.983804">
        <ele>234.0</ele>
        <time>2012-07-05T13:17:47Z</time>
      </trkpt>
      <trkpt lat="43.285712" lon="-5.983895">
        <ele>235.0</ele>
        <time>2012-07-05T13:17:51Z</time>
      </trkpt>
      <trkpt lat="43.285417" lon="-5.984013">
        <ele>235.0</ele>
        <time>2012-07-05T13:17:55Z</time>
      </trkpt>
      <trkpt lat="43.285123" lon="-5.984154">
        <ele>235.0</ele>
        <time>2012-07-05T13:17:59Z</time>
      </trkpt>
      <trkpt lat="43.284829" lon="-5.984328">
        <ele>235.0</ele>
        <time>2012-07-05T13:18:03Z</time>
      </trkpt>
      <trkpt lat="43.284538" lon="-5.984539">
        <ele>236.0</ele>
        <time>2012-07-05T13:18:07Z</time>
      </trkpt>
      <trkpt lat="43.284248" lon="-5.984795">
        <ele>236.0</ele>
        <time>2012-07-05T13:18:11Z</time>
      </trkpt>
      <trkpt lat="43.283962" lon="-5.985122">
        <ele>237.0</ele>
        <time>2012-07-05T13:18:15Z</time>
      </trkpt>
      <trkpt lat="43.283661" lon="-5.985477">
        <ele>237.0</ele>
        <time>2012-07-05T13:18:19Z</time>
      </trkpt>
      <trkpt lat="43.283346" lon="-5.985831">
        <ele>237.0</ele>
        <time>2012-07-05T13:18:23Z</time>
      </trkpt>
      <trkpt lat="43.283026" lon="-5.986137">
        <ele>237.0</ele>
        <time>2012-07-05T13:18:27Z</time>
      </trkpt>
      <trkpt lat="43.282712" lon="-5.986385">
        <ele>237.0</ele>
        <time>2012-07-05T13:18:31Z</time>
      </trkpt>
      <trkpt lat="43.282381" lon="-5.987294">
        <ele>239.0</ele>
        <time>2012-07-05T13:18:39Z</time>
      </trkpt>
      <trkpt lat="43.282392" lon="-5.987587">
        <ele>240.0</ele>
        <time>2012-07-05T13:18:42Z</time>
      </trkpt>
      <trkpt lat="43.282342" lon="-5.987897">
        <ele>241.0</ele>
        <time>2012-07-05T13:18:46Z</time>
      </trkpt>
      <trkpt lat="43.282078" lon="-5.98838">
        <ele>241.0</ele>
        <time>2012-07-05T13:18:54Z</time>
      </trkpt>
      <trkpt lat="43.282004" lon="-5.988495">
        <ele>241.0</ele>
        <time>2012-07-05T13:18:56Z</time>
      </trkpt>
      <trkpt lat="43.282004" lon="-5.988495">
        <time>2012-07-05T13:19:07Z</time>
      </trkpt>
    </trkseg>
    <trkseg>
      <trkpt lat="43.282004" lon="-5.988495">
        <time>2012-07-05T13:19:24Z</time>
      </trkpt>
      <trkpt lat="43.280828" lon="-5.990021">
        <ele>245.0</ele>
        <time>2012-07-05T13:19:28Z</time>
      </trkpt>
      <trkpt lat="43.280646" lon="-5.990199">
        <ele>250.0</ele>
        <time>2012-07-05T13:19:32Z</time>
      </trkpt>
      <trkpt lat="43.280475" lon="-5.990382">
        <ele>252.0</ele>
        <time>2012-07-05T13:19:36Z</time>
      </trkpt>
      <trkpt lat="43.280297" lon="-5.99054">
        <ele>253.0</ele>
        <time>2012-07-05T13:19:40Z</time>
      </trkpt>
      <trkpt lat="43.280116" lon="-5.990678">
        <ele>254.0</ele>
        <time>2012-07-05T13:19:44Z</time>
      </trkpt>
      <trkpt lat="43.279937" lon="-5.990802">
        <ele>254.0</ele>
        <time>2012-07-05T13:19:48Z</time>
      </trkpt>
      <trkpt lat="43.279758" lon="-5.990908">
        <ele>253.0</ele>
        <time>2012-07-05T13:19:52Z</time>
      </trkpt>
      <trkpt lat="43.279584" lon="-5.990996">
        <ele>253.0</ele>
        <time>2012-07-05T13:19:56Z</time>
      </trkpt>
      <trkpt lat="43.279499" lon="-5.991028">
        <ele>253.0</ele>
        <time>2012-07-05T13:19:58Z</time>
      </trkpt>
      <trkpt lat="43.279242" lon="-5.991039">
        <ele>253.0</ele>
        <time>2012-07-05T13:20:04Z</time>
      </trkpt>
      <trkpt lat="43.279081" lon="-5.990998">
        <ele>253.0</ele>
        <time>2012-07-05T13:20:08Z</time>
      </trkpt>
      <trkpt lat="43.278924" lon="-5.990943">
        <ele>253.0</ele>
        <time>2012-07-05T13:20:12Z</time>
      </trkpt>
      <trkpt lat="43.278761" lon="-5.990899">
        <ele>253.0</ele>
        <time>2012-07-05T13:20:16Z</time>
      </trkpt>
      <trkpt lat="43.278595" lon="-5.990881">
        <ele>252.0</ele>
        <time>2012-07-05T13:20:20Z</time>
      </trkpt>
      <trkpt lat="43.278425" lon="-5.990907">
        <ele>251.0</ele>
        <time>2012-07-05T13:20:24Z</time>
      </trkpt>
      <trkpt lat="43.278253" lon="-5.990977">
        <ele>251.0</ele>
        <time>2012-07-05T13:20:28Z</time>
      </trkpt>
      <trkpt lat="43.27806" lon="-5.991104">
        <ele>250.0</ele>
        <time>2012-07-05T13:20:32Z</time>
      </trkpt>
      <trkpt lat="43.277784" lon="-5.991304">
        <ele>250.0</ele>
        <time>2012-07-05T13:20:36Z</time>
      </trkpt>
      <trkpt lat="43.277498" lon="-5.991585">
        <ele>250.0</ele>
        <time>2012-07-05T13:20:40Z</time>
      </trkpt>
      <trkpt lat="43.27722" lon="-5.9919">
        <ele>250.0</ele>
        <time>2012-07-05T13:20:44Z</time>
      </trkpt>
      <trkpt lat="43.27695" lon="-5.992212">
        <ele>250.0</ele>
        <time>2012-07-05T13:20:48Z</time>
      </trkpt>
      <trkpt lat="43.276816" lon="-5.992366">
        <ele>250.0</ele>
        <time>2012-07-05T13:20:50Z</time>
      </trkpt>
      <trkpt lat="43.276349" lon="-5.992828">
        <ele>250.0</ele>
        <time>2012-07-05T13:20:56Z</time>
      </trkpt>
      <trkpt lat="43.276013" lon="-5.993125">
        <ele>250.0</ele>
        <time>2012-07-05T13:21:00Z</time>
      </trkpt>
      <trkpt lat="43.275683" lon="-5.993421">
        <ele>249.0</ele>
        <time>2012-07-05T13:21:04Z</time>
      </trkpt>
      <trkpt lat="43.27528" lon="-5.993711">
        <ele>249.0</ele>
        <time>2012-07-05T13:21:08Z</time>
      </trkpt>
      <trkpt lat="43.274837" lon="-5.994056">
        <ele>249.0</ele>
        <time>2012-07-05T13:21:12Z</time>
      </trkpt>
      <trkpt lat="43.274565" lon="-5.994646">
        <ele>249.0</ele>
        <time>2012-07-05T13:21:16Z</time>
      </trkpt>
      <trkpt lat="43.274426" lon="-5.995302">
        <ele>248.0</ele>
        <time>2012-07-05T13:21:20Z</time>
      </trkpt>
      <trkpt lat="43.274379" lon="-5.995957">
        <ele>248.0</ele>
        <time>2012-07-05T13:21:24Z</time>
      </trkpt>
      <trkpt lat="43.274423" lon="-5.996556">
        <ele>248.0</ele>
        <time>2012-07-05T13:21:28Z</time>
      </trkpt>
      <trkpt lat="43.274381" lon="-5.997116">
        <ele>248.0</ele>
        <time>2012-07-05T13:21:32Z</time>
      </trkpt>
      <trkpt lat="43.274236" lon="-5.997626">
        <ele>248.0</ele>
        <time>2012-07-05T13:21:36Z</time>
      </trkpt>
      <trkpt lat="43.27391" lon="-5.997936">
        <ele>250.0</ele>
        <time>2012-07-05T13:21:40Z</time>
      </trkpt>
      <trkpt lat="43.273619" lon="-5.998235">
        <ele>251.0</ele>
        <time>2012-07-05T13:21:44Z</time>
      </trkpt>
      <trkpt lat="43.273355" lon="-5.998545">
        <ele>252.0</ele>
        <time>2012-07-05T13:21:48Z</time>
      </trkpt>
      <trkpt lat="43.273067" lon="-5.998824">
        <ele>253.0</ele>
        <time>2012-07-05T13:21:52Z</time>
      </trkpt>
      <trkpt lat="43.27278" lon="-5.999114">
        <ele>253.0</ele>
        <time>2012-07-05T13:21:56Z</time>
      </trkpt>
      <trkpt lat="43.272513" lon="-5.999447">
        <ele>253.0</ele>
        <time>2012-07-05T13:22:00Z</time>
      </trkpt>
      <trkpt lat="43.272304" lon="-5.999879">
        <ele>253.0</ele>
        <time>2012-07-05T13:22:04Z</time>
      </trkpt>
      <trkpt lat="43.272114" lon="-6.000308">
        <ele>253.0</ele>
        <time>2012-07-05T13:22:08Z</time>
      </trkpt>
      <trkpt lat="43.271942" lon="-6.000723">
        <ele>252.0</ele>
        <time>2012-07-05T13:22:12Z</time>
      </trkpt>
      <trkpt lat="43.271696" lon="-6.001085">
        <ele>252.0</ele>
        <time>2012-07-05T13:22:16Z</time>
      </trkpt>
      <trkpt lat="43.271362" lon="-6.001384">
        <ele>252.0</ele>
        <time>2012-07-05T13:22:20Z</time>
      </trkpt>
      <trkpt lat="43.271036" lon="-6.00164">
        <ele>253.0</ele>
        <time>2012-07-05T13:22:24Z</time>
      </trkpt>
      <trkpt lat="43.27079" lon="-6.001799">
        <ele>254.0</ele>
        <time>2012-07-05T13:22:27Z</time>
      </trkpt>
      <trkpt lat="43.27037" lon="-6.002003">
        <ele>255.0</ele>
        <time>2012-07-05T13:22:32Z</time>
      </trkpt>
      <trkpt lat="43.269997" lon="-6.002048">
        <ele>256.0</ele>
        <time>2012-07-05T13:22:36Z</time>
      </trkpt>
      <trkpt lat="43.269618" lon="-6.002076">
        <ele>256.0</ele>
        <time>2012-07-05T13:22:40Z</time>
      </trkpt>
      <trkpt lat="43.269238" lon="-6.002098">
        <ele>257.0</ele>
        <time>2012-07-05T13:22:44Z</time>
      </trkpt>
      <trkpt lat="43.26888" lon="-6.002176">
        <ele>256.0</ele>
        <time>2012-07-05T13:22:48Z</time>
      </trkpt>
      <trkpt lat="43.268555" lon="-6.002311">
        <ele>256.0</ele>
        <time>2012-07-05T13:22:52Z</time>
      </trkpt>
      <trkpt lat="43.268316" lon="-6.00268">
        <ele>257.0</ele>
        <time>2012-07-05T13:22:56Z</time>
      </trkpt>
      <trkpt lat="43.268087" lon="-6.003051">
        <ele>257.0</ele>
        <time>2012-07-05T13:23:00Z</time>
      </trkpt>
      <trkpt lat="43.267842" lon="-6.003333">
        <ele>257.0</ele>
        <time>2012-07-05T13:23:04Z</time>
      </trkpt>
      <trkpt lat="43.267549" lon="-6.003495">
        <ele>258.0</ele>
        <time>2012-07-05T13:23:08Z</time>
      </trkpt>
      <trkpt lat="43.26725" lon="-6.003628">
        <ele>258.0</ele>
        <time>2012-07-05T13:23:12Z</time>
      </trkpt>
      <trkpt lat="43.266956" lon="-6.003759">
        <ele>258.0</ele>
        <time>2012-07-05T13:23:16Z</time>
      </trkpt>
      <trkpt lat="43.266656" lon="-6.003876">
        <ele>257.0</ele>
        <time>2012-07-05T13:23:20Z</time>
      </trkpt>
      <trkpt lat="43.26636" lon="-6.00399">
        <ele>257.0</ele>
        <time>2012-07-05T13:23:24Z</time>
      </trkpt>
      <trkpt lat="43.266062" lon="-6.004097">
        <ele>257.0</ele>
        <time>2012-07-05T13:23:28Z</time>
      </trkpt>
      <trkpt lat="43.265754" lon="-6.004198">
        <ele>256.0</ele>
        <time>2012-07-05T13:23:32Z</time>
      </trkpt>
      <trkpt lat="43.265443" lon="-6.004299">
        <ele>256.0</ele>
        <time>2012-07-05T13:23:36Z</time>
      </trkpt>
      <trkpt lat="43.265132" lon="-6.004365">
        <ele>256.0</ele>
        <time>2012-07-05T13:23:40Z</time>
      </trkpt>
      <trkpt lat="43.264825" lon="-6.004441">
        <ele>256.0</ele>
        <time>2012-07-05T13:23:44Z</time>
      </trkpt>
      <trkpt lat="43.264516" lon="-6.004518">
        <ele>257.0</ele>
        <time>2012-07-05T13:23:48Z</time>
      </trkpt>
      <trkpt lat="43.264204" lon="-6.004599">
        <ele>257.0</ele>
        <time>2012-07-05T13:23:52Z</time>
      </trkpt>
      <trkpt lat="43.263889" lon="-6.004682">
        <ele>257.0</ele>
        <time>2012-07-05T13:23:56Z</time>
      </trkpt>
      <trkpt lat="43.263572" lon="-6.004767">
        <ele>258.0</ele>
        <time>2012-07-05T13:24:00Z</time>
      </trkpt>
      <trkpt lat="43.263256" lon="-6.00485">
        <ele>258.0</ele>
        <time>2012-07-05T13:24:04Z</time>
      </trkpt>
      <trkpt lat="43.262942" lon="-6.004929">
        <ele>258.0</ele>
        <time>2012-07-05T13:24:08Z</time>
      </trkpt>
      <trkpt lat="43.26263" lon="-6.005007">
        <ele>258.0</ele>
        <time>2012-07-05T13:24:12Z</time>
      </trkpt>
      <trkpt lat="43.262363" lon="-6.00519">
        <ele>258.0</ele>
        <time>2012-07-05T13:24:16Z</time>
      </trkpt>
      <trkpt lat="43.262171" lon="-6.005488">
        <ele>258.0</ele>
        <time>2012-07-05T13:24:20Z</time>
      </trkpt>
      <trkpt lat="43.26207" lon="-6.005861">
        <ele>258.0</ele>
        <time>2012-07-05T13:24:24Z</time>
      </trkpt>
      <trkpt lat="43.262054" lon="-6.006274">
        <ele>259.0</ele>
        <time>2012-07-05T13:24:28Z</time>
      </trkpt>
      <trkpt lat="43.262017" lon="-6.006728">
        <ele>259.0</ele>
        <time>2012-07-05T13:24:32Z</time>
      </trkpt>
      <trkpt lat="43.261871" lon="-6.007158">
        <ele>258.0</ele>
        <time>2012-07-05T13:24:36Z</time>
      </trkpt>
      <trkpt lat="43.261538" lon="-6.007351">
        <ele>258.0</ele>
        <time>2012-07-05T13:24:40Z</time>
      </trkpt>
      <trkpt lat="43.261212" lon="-6.007446">
        <ele>260.0</ele>
        <time>2012-07-05T13:24:44Z</time>
      </trkpt>
      <trkpt lat="43.260919" lon="-6.007602">
        <ele>261.0</ele>
        <time>2012-07-05T13:24:48Z</time>
      </trkpt>
      <trkpt lat="43.260661" lon="-6.007798">
        <ele>261.0</ele>
        <time>2012-07-05T13:24:52Z</time>
      </trkpt>
      <trkpt lat="43.260426" lon="-6.008013">
        <ele>260.0</ele>
        <time>2012-07-05T13:24:56Z</time>
      </trkpt>
      <trkpt lat="43.260214" lon="-6.008257">
        <ele>261.0</ele>
        <time>2012-07-05T13:25:00Z</time>
      </trkpt>
      <trkpt lat="43.260023" lon="-6.008498">
        <ele>261.0</ele>
        <time>2012-07-05T13:25:04Z</time>
      </trkpt>
      <trkpt lat="43.25993" lon="-6.008629">
        <ele>261.0</ele>
        <time>2012-07-05T13:25:06Z</time>
      </trkpt>
      <trkpt lat="43.259683" lon="-6.009057">
        <ele>262.0</ele>
        <time>2012-07-05T13:25:12Z</time>
      </trkpt>
      <trkpt lat="43.259529" lon="-6.009364">
        <ele>262.0</ele>
        <time>2012-07-05T13:25:16Z</time>
      </trkpt>
      <trkpt lat="43.259346" lon="-6.009646">
        <ele>262.0</ele>
        <time>2012-07-05T13:25:20Z</time>
      </trkpt>
      <trkpt lat="43.25913" lon="-6.009898">
        <ele>263.0</ele>
        <time>2012-07-05T13:25:24Z</time>
      </trkpt>
      <trkpt lat="43.258887" lon="-6.010104">
        <ele>264.0</ele>
        <time>2012-07-05T13:25:28Z</time>
      </trkpt>
      <trkpt lat="43.258643" lon="-6.010303">
        <ele>265.0</ele>
        <time>2012-07-05T13:25:32Z</time>
      </trkpt>
      <trkpt lat="43.258397" lon="-6.010503">
        <ele>265.0</ele>
        <time>2012-07-05T13:25:36Z</time>
      </trkpt>
      <trkpt lat="43.258155" lon="-6.010734">
        <ele>264.0</ele>
        <time>2012-07-05T13:25:40Z</time>
      </trkpt>
      <trkpt lat="43.257902" lon="-6.011019">
        <ele>264.0</ele>
        <time>2012-07-05T13:25:44Z</time>
      </trkpt>
      <trkpt lat="43.257653" lon="-6.011346">
        <ele>263.0</ele>
        <time>2012-07-05T13:25:48Z</time>
      </trkpt>
      <trkpt lat="43.257404" lon="-6.011659">
        <ele>264.0</ele>
        <time>2012-07-05T13:25:52Z</time>
      </trkpt>
      <trkpt lat="43.257116" lon="-6.0119">
        <ele>263.0</ele>
        <time>2012-07-05T13:25:56Z</time>
      </trkpt>
      <trkpt lat="43.256964" lon="-6.011999">
        <ele>263.0</ele>
        <time>2012-07-05T13:25:58Z</time>
      </trkpt>
      <trkpt lat="43.256512" lon="-6.012271">
        <ele>263.0</ele>
        <time>2012-07-05T13:26:04Z</time>
      </trkpt>
      <trkpt lat="43.256251" lon="-6.012469">
        <ele>264.0</ele>
        <time>2012-07-05T13:26:08Z</time>
      </trkpt>
      <trkpt lat="43.256149" lon="-6.012661">
        <ele>263.0</ele>
        <time>2012-07-05T13:26:11Z</time>
      </trkpt>
      <trkpt lat="43.256037" lon="-6.012898">
        <ele>263.0</ele>
        <time>2012-07-05T13:26:15Z</time>
      </trkpt>
      <trkpt lat="43.255888" lon="-6.013142">
        <ele>262.0</ele>
        <time>2012-07-05T13:26:19Z</time>
      </trkpt>
      <trkpt lat="43.255804" lon="-6.013264">
        <ele>262.0</ele>
        <time>2012-07-05T13:26:21Z</time>
      </trkpt>
      <trkpt lat="43.255544" lon="-6.013611">
        <ele>262.0</ele>
        <time>2012-07-05T13:26:27Z</time>
      </trkpt>
      <trkpt lat="43.255365" lon="-6.013819">
        <ele>262.0</ele>
        <time>2012-07-05T13:26:31Z</time>
      </trkpt>
      <trkpt lat="43.255194" lon="-6.01392">
        <ele>263.0</ele>
        <time>2012-07-05T13:26:34Z</time>
      </trkpt>
      <trkpt lat="43.254805" lon="-6.014092">
        <ele>264.0</ele>
        <time>2012-07-05T13:26:40Z</time>
      </trkpt>
      <trkpt lat="43.254536" lon="-6.014214">
        <ele>265.0</ele>
        <time>2012-07-05T13:26:44Z</time>
      </trkpt>
      <trkpt lat="43.254255" lon="-6.014312">
        <ele>266.0</ele>
        <time>2012-07-05T13:26:48Z</time>
      </trkpt>
      <trkpt lat="43.254041" lon="-6.014381">
        <ele>267.0</ele>
        <time>2012-07-05T13:26:51Z</time>
      </trkpt>
      <trkpt lat="43.253695" lon="-6.014555">
        <ele>267.0</ele>
        <time>2012-07-05T13:26:56Z</time>
      </trkpt>
      <trkpt lat="43.253424" lon="-6.01474">
        <ele>267.0</ele>
        <time>2012-07-05T13:27:00Z</time>
      </trkpt>
      <trkpt lat="43.253148" lon="-6.014989">
        <ele>267.0</ele>
        <time>2012-07-05T13:27:04Z</time>
      </trkpt>
      <trkpt lat="43.252933" lon="-6.015181">
        <ele>267.0</ele>
        <time>2012-07-05T13:27:07Z</time>
      </trkpt>
      <trkpt lat="43.25258" lon="-6.015506">
        <ele>267.0</ele>
        <time>2012-07-05T13:27:12Z</time>
      </trkpt>
      <trkpt lat="43.252296" lon="-6.015756">
        <ele>267.0</ele>
        <time>2012-07-05T13:27:16Z</time>
      </trkpt>
      <trkpt lat="43.252001" lon="-6.01599">
        <ele>268.0</ele>
        <time>2012-07-05T13:27:20Z</time>
      </trkpt>
      <trkpt lat="43.251711" lon="-6.016219">
        <ele>268.0</ele>
        <time>2012-07-05T13:27:24Z</time>
      </trkpt>
      <trkpt lat="43.251414" lon="-6.016432">
        <ele>268.0</ele>
        <time>2012-07-05T13:27:28Z</time>
      </trkpt>
      <trkpt lat="43.251112" lon="-6.016641">
        <ele>268.0</ele>
        <time>2012-07-05T13:27:32Z</time>
      </trkpt>
      <trkpt lat="43.250825" lon="-6.016873">
        <ele>268.0</ele>
        <time>2012-07-05T13:27:36Z</time>
      </trkpt>
      <trkpt lat="43.250567" lon="-6.017169">
        <ele>268.0</ele>
        <time>2012-07-05T13:27:40Z</time>
      </trkpt>
      <trkpt lat="43.250327" lon="-6.017462">
        <ele>269.0</ele>
        <time>2012-07-05T13:27:44Z</time>
      </trkpt>
      <trkpt lat="43.250092" lon="-6.017757">
        <ele>269.0</ele>
        <time>2012-07-05T13:27:48Z</time>
      </trkpt>
      <trkpt lat="43.249838" lon="-6.018067">
        <ele>269.0</ele>
        <time>2012-07-05T13:27:52Z</time>
      </trkpt>
      <trkpt lat="43.249609" lon="-6.018426">
        <ele>269.0</ele>
        <time>2012-07-05T13:27:56Z</time>
      </trkpt>
      <trkpt lat="43.24948" lon="-6.018959">
        <ele>269.0</ele>
        <time>2012-07-05T13:28:00Z</time>
      </trkpt>
      <trkpt lat="43.249572" lon="-6.019525">
        <ele>268.0</ele>
        <time>2012-07-05T13:28:04Z</time>
      </trkpt>
      <trkpt lat="43.249652" lon="-6.020048">
        <ele>267.0</ele>
        <time>2012-07-05T13:28:08Z</time>
      </trkpt>
      <trkpt lat="43.249772" lon="-6.020456">
        <ele>265.0</ele>
        <time>2012-07-05T13:28:12Z</time>
      </trkpt>
      <trkpt lat="43.249879" lon="-6.020873">
        <ele>264.0</ele>
        <time>2012-07-05T13:28:16Z</time>
      </trkpt>
      <trkpt lat="43.24991" lon="-6.021313">
        <ele>265.0</ele>
        <time>2012-07-05T13:28:20Z</time>
      </trkpt>
      <trkpt lat="43.249899" lon="-6.02175">
        <ele>265.0</ele>
        <time>2012-07-05T13:28:24Z</time>
      </trkpt>
      <trkpt lat="43.249976" lon="-6.022181">
        <ele>265.0</ele>
        <time>2012-07-05T13:28:28Z</time>
      </trkpt>
      <trkpt lat="43.250103" lon="-6.022591">
        <ele>265.0</ele>
        <time>2012-07-05T13:28:32Z</time>
      </trkpt>
      <trkpt lat="43.250164" lon="-6.022799">
        <ele>265.0</ele>
        <time>2012-07-05T13:28:34Z</time>
      </trkpt>
      <trkpt lat="43.250249" lon="-6.023116">
        <ele>264.0</ele>
        <time>2012-07-05T13:28:37Z</time>
      </trkpt>
      <trkpt lat="43.250288" lon="-6.023947">
        <ele>265.0</ele>
        <time>2012-07-05T13:28:44Z</time>
      </trkpt>
      <trkpt lat="43.249935" lon="-6.024287">
        <ele>265.0</ele>
        <time>2012-07-05T13:28:48Z</time>
      </trkpt>
      <trkpt lat="43.249431" lon="-6.024414">
        <ele>264.0</ele>
        <time>2012-07-05T13:28:52Z</time>
      </trkpt>
      <trkpt lat="43.249072" lon="-6.02459">
        <ele>262.0</ele>
        <time>2012-07-05T13:28:56Z</time>
      </trkpt>
      <trkpt lat="43.248729" lon="-6.024683">
        <ele>262.0</ele>
        <time>2012-07-05T13:29:00Z</time>
      </trkpt>
      <trkpt lat="43.248399" lon="-6.024725">
        <ele>262.0</ele>
        <time>2012-07-05T13:29:04Z</time>
      </trkpt>
      <trkpt lat="43.248089" lon="-6.024813">
        <ele>263.0</ele>
        <time>2012-07-05T13:29:08Z</time>
      </trkpt>
      <trkpt lat="43.247934" lon="-6.024857">
        <ele>263.0</ele>
        <time>2012-07-05T13:29:10Z</time>
      </trkpt>
      <trkpt lat="43.247466" lon="-6.024937">
        <ele>264.0</ele>
        <time>2012-07-05T13:29:16Z</time>
      </trkpt>
      <trkpt lat="43.247149" lon="-6.024976">
        <ele>264.0</ele>
        <time>2012-07-05T13:29:20Z</time>
      </trkpt>
      <trkpt lat="43.24683" lon="-6.025022">
        <ele>265.0</ele>
        <time>2012-07-05T13:29:24Z</time>
      </trkpt>
      <trkpt lat="43.246505" lon="-6.025064">
        <ele>265.0</ele>
        <time>2012-07-05T13:29:28Z</time>
      </trkpt>
      <trkpt lat="43.246178" lon="-6.025109">
        <ele>265.0</ele>
        <time>2012-07-05T13:29:32Z</time>
      </trkpt>
      <trkpt lat="43.245851" lon="-6.025149">
        <ele>266.0</ele>
        <time>2012-07-05T13:29:36Z</time>
      </trkpt>
      <trkpt lat="43.245527" lon="-6.02518">
        <ele>266.0</ele>
        <time>2012-07-05T13:29:40Z</time>
      </trkpt>
      <trkpt lat="43.245208" lon="-6.025213">
        <ele>266.0</ele>
        <time>2012-07-05T13:29:44Z</time>
      </trkpt>
      <trkpt lat="43.244889" lon="-6.025237">
        <ele>266.0</ele>
        <time>2012-07-05T13:29:48Z</time>
      </trkpt>
      <trkpt lat="43.244566" lon="-6.025241">
        <ele>266.0</ele>
        <time>2012-07-05T13:29:52Z</time>
      </trkpt>
      <trkpt lat="43.244246" lon="-6.025279">
        <ele>266.0</ele>
        <time>2012-07-05T13:29:56Z</time>
      </trkpt>
      <trkpt lat="43.243928" lon="-6.025333">
        <ele>266.0</ele>
        <time>2012-07-05T13:30:00Z</time>
      </trkpt>
      <trkpt lat="43.243601" lon="-6.025322">
        <ele>266.0</ele>
        <time>2012-07-05T13:30:04Z</time>
      </trkpt>
      <trkpt lat="43.243275" lon="-6.025337">
        <ele>267.0</ele>
        <time>2012-07-05T13:30:08Z</time>
      </trkpt>
      <trkpt lat="43.242963" lon="-6.025445">
        <ele>267.0</ele>
        <time>2012-07-05T13:30:12Z</time>
      </trkpt>
      <trkpt lat="43.242707" lon="-6.025738">
        <ele>267.0</ele>
        <time>2012-07-05T13:30:16Z</time>
      </trkpt>
      <trkpt lat="43.242512" lon="-6.025922">
        <ele>267.0</ele>
        <time>2012-07-05T13:30:19Z</time>
      </trkpt>
      <trkpt lat="43.242172" lon="-6.026176">
        <ele>267.0</ele>
        <time>2012-07-05T13:30:24Z</time>
      </trkpt>
      <trkpt lat="43.241904" lon="-6.026385">
        <ele>268.0</ele>
        <time>2012-07-05T13:30:28Z</time>
      </trkpt>
      <trkpt lat="43.241639" lon="-6.026608">
        <ele>268.0</ele>
        <time>2012-07-05T13:30:32Z</time>
      </trkpt>
      <trkpt lat="43.241385" lon="-6.0269">
        <ele>269.0</ele>
        <time>2012-07-05T13:30:36Z</time>
      </trkpt>
      <trkpt lat="43.241147" lon="-6.027252">
        <ele>270.0</ele>
        <time>2012-07-05T13:30:40Z</time>
      </trkpt>
      <trkpt lat="43.240954" lon="-6.027694">
        <ele>270.0</ele>
        <time>2012-07-05T13:30:44Z</time>
      </trkpt>
      <trkpt lat="43.240845" lon="-6.028223">
        <ele>271.0</ele>
        <time>2012-07-05T13:30:48Z</time>
      </trkpt>
      <trkpt lat="43.240728" lon="-6.028707">
        <ele>271.0</ele>
        <time>2012-07-05T13:30:52Z</time>
      </trkpt>
      <trkpt lat="43.2406" lon="-6.029155">
        <ele>271.0</ele>
        <time>2012-07-05T13:30:56Z</time>
      </trkpt>
      <trkpt lat="43.240455" lon="-6.02957">
        <ele>272.0</ele>
        <time>2012-07-05T13:31:00Z</time>
      </trkpt>
      <trkpt lat="43.240311" lon="-6.029975">
        <ele>272.0</ele>
        <time>2012-07-05T13:31:04Z</time>
      </trkpt>
      <trkpt lat="43.24014" lon="-6.030387">
        <ele>273.0</ele>
        <time>2012-07-05T13:31:08Z</time>
      </trkpt>
      <trkpt lat="43.239951" lon="-6.030771">
        <ele>275.0</ele>
        <time>2012-07-05T13:31:12Z</time>
      </trkpt>
      <trkpt lat="43.239734" lon="-6.031098">
        <ele>276.0</ele>
        <time>2012-07-05T13:31:16Z</time>
      </trkpt>
      <trkpt lat="43.239496" lon="-6.031378">
        <ele>277.0</ele>
        <time>2012-07-05T13:31:20Z</time>
      </trkpt>
      <trkpt lat="43.239249" lon="-6.031611">
        <ele>277.0</ele>
        <time>2012-07-05T13:31:24Z</time>
      </trkpt>
      <trkpt lat="43.238995" lon="-6.031806">
        <ele>277.0</ele>
        <time>2012-07-05T13:31:28Z</time>
      </trkpt>
      <trkpt lat="43.238734" lon="-6.03196">
        <ele>277.0</ele>
        <time>2012-07-05T13:31:32Z</time>
      </trkpt>
      <trkpt lat="43.238608" lon="-6.032069">
        <ele>277.0</ele>
        <time>2012-07-05T13:31:34Z</time>
      </trkpt>
      <trkpt lat="43.238226" lon="-6.032118">
        <ele>277.0</ele>
        <time>2012-07-05T13:31:40Z</time>
      </trkpt>
      <trkpt lat="43.237959" lon="-6.031957">
        <ele>278.0</ele>
        <time>2012-07-05T13:31:44Z</time>
      </trkpt>
      <trkpt lat="43.237669" lon="-6.031797">
        <ele>277.0</ele>
        <time>2012-07-05T13:31:48Z</time>
      </trkpt>
      <trkpt lat="43.237374" lon="-6.031761">
        <ele>277.0</ele>
        <time>2012-07-05T13:31:52Z</time>
      </trkpt>
      <trkpt lat="43.237068" lon="-6.031776">
        <ele>278.0</ele>
        <time>2012-07-05T13:31:56Z</time>
      </trkpt>
      <trkpt lat="43.236751" lon="-6.031811">
        <ele>278.0</ele>
        <time>2012-07-05T13:32:00Z</time>
      </trkpt>
      <trkpt lat="43.236436" lon="-6.031856">
        <ele>278.0</ele>
        <time>2012-07-05T13:32:04Z</time>
      </trkpt>
      <trkpt lat="43.236124" lon="-6.031891">
        <ele>278.0</ele>
        <time>2012-07-05T13:32:08Z</time>
      </trkpt>
      <trkpt lat="43.235795" lon="-6.031922">
        <ele>278.0</ele>
        <time>2012-07-05T13:32:12Z</time>
      </trkpt>
      <trkpt lat="43.235461" lon="-6.031993">
        <ele>278.0</ele>
        <time>2012-07-05T13:32:16Z</time>
      </trkpt>
      <trkpt lat="43.235145" lon="-6.032157">
        <ele>278.0</ele>
        <time>2012-07-05T13:32:20Z</time>
      </trkpt>
      <trkpt lat="43.23482" lon="-6.032309">
        <ele>277.0</ele>
        <time>2012-07-05T13:32:24Z</time>
      </trkpt>
      <trkpt lat="43.23451" lon="-6.032476">
        <ele>277.0</ele>
        <time>2012-07-05T13:32:28Z</time>
      </trkpt>
      <trkpt lat="43.234208" lon="-6.032633">
        <ele>277.0</ele>
        <time>2012-07-05T13:32:32Z</time>
      </trkpt>
      <trkpt lat="43.233908" lon="-6.032789">
        <ele>277.0</ele>
        <time>2012-07-05T13:32:36Z</time>
      </trkpt>
      <trkpt lat="43.233621" lon="-6.032945">
        <ele>277.0</ele>
        <time>2012-07-05T13:32:40Z</time>
      </trkpt>
      <trkpt lat="43.233346" lon="-6.033095">
        <ele>278.0</ele>
        <time>2012-07-05T13:32:44Z</time>
      </trkpt>
      <trkpt lat="43.233069" lon="-6.033236">
        <ele>279.0</ele>
        <time>2012-07-05T13:32:48Z</time>
      </trkpt>
      <trkpt lat="43.232793" lon="-6.033391">
        <ele>279.0</ele>
        <time>2012-07-05T13:32:52Z</time>
      </trkpt>
      <trkpt lat="43.232517" lon="-6.033563">
        <ele>279.0</ele>
        <time>2012-07-05T13:32:56Z</time>
      </trkpt>
      <trkpt lat="43.232379" lon="-6.033648">
        <ele>279.0</ele>
        <time>2012-07-05T13:32:58Z</time>
      </trkpt>
      <trkpt lat="43.232379" lon="-6.033648">
        <time>2012-07-05T13:33:09Z</time>
      </trkpt>
    </trkseg>
    <trkseg>
      <trkpt lat="43.232379" lon="-6.033648">
        <time>2012-07-05T13:33:30Z</time>
      </trkpt>
      <trkpt lat="43.232379" lon="-6.033648">
        <time>2012-07-05T13:33:42Z</time>
      </trkpt>
    </trkseg>
    <trkseg>
      <trkpt lat="43.232379" lon="-6.033648">
        <time>2012-07-05T13:33:45Z</time>
      </trkpt>
      <trkpt lat="43.229714" lon="-6.036605">
        <ele>283.0</ele>
        <time>2012-07-05T13:33:48Z</time>
      </trkpt>
      <trkpt lat="43.22946" lon="-6.03694">
        <ele>285.0</ele>
        <time>2012-07-05T13:33:52Z</time>
      </trkpt>
      <trkpt lat="43.2292" lon="-6.037239">
        <ele>285.0</ele>
        <time>2012-07-05T13:33:56Z</time>
      </trkpt>
      <trkpt lat="43.228896" lon="-6.037501">
        <ele>285.0</ele>
        <time>2012-07-05T13:34:00Z</time>
      </trkpt>
      <trkpt lat="43.228601" lon="-6.037787">
        <ele>285.0</ele>
        <time>2012-07-05T13:34:04Z</time>
      </trkpt>
      <trkpt lat="43.228337" lon="-6.038063">
        <ele>285.0</ele>
        <time>2012-07-05T13:34:08Z</time>
      </trkpt>
      <trkpt lat="43.22806" lon="-6.038234">
        <ele>284.0</ele>
        <time>2012-07-05T13:34:12Z</time>
      </trkpt>
      <trkpt lat="43.227789" lon="-6.038377">
        <ele>285.0</ele>
        <time>2012-07-05T13:34:16Z</time>
      </trkpt>
      <trkpt lat="43.227523" lon="-6.038521">
        <ele>285.0</ele>
        <time>2012-07-05T13:34:20Z</time>
      </trkpt>
      <trkpt lat="43.227254" lon="-6.038661">
        <ele>286.0</ele>
        <time>2012-07-05T13:34:24Z</time>
      </trkpt>
      <trkpt lat="43.226981" lon="-6.038795">
        <ele>286.0</ele>
        <time>2012-07-05T13:34:28Z</time>
      </trkpt>
      <trkpt lat="43.226704" lon="-6.038918">
        <ele>286.0</ele>
        <time>2012-07-05T13:34:32Z</time>
      </trkpt>
      <trkpt lat="43.226421" lon="-6.039021">
        <ele>285.0</ele>
        <time>2012-07-05T13:34:36Z</time>
      </trkpt>
      <trkpt lat="43.226122" lon="-6.039025">
        <ele>285.0</ele>
        <time>2012-07-05T13:34:40Z</time>
      </trkpt>
      <trkpt lat="43.225815" lon="-6.038985">
        <ele>286.0</ele>
        <time>2012-07-05T13:34:44Z</time>
      </trkpt>
      <trkpt lat="43.225507" lon="-6.038911">
        <ele>286.0</ele>
        <time>2012-07-05T13:34:48Z</time>
      </trkpt>
      <trkpt lat="43.225205" lon="-6.038853">
        <ele>286.0</ele>
        <time>2012-07-05T13:34:52Z</time>
      </trkpt>
      <trkpt lat="43.224911" lon="-6.038801">
        <ele>286.0</ele>
        <time>2012-07-05T13:34:56Z</time>
      </trkpt>
      <trkpt lat="43.224621" lon="-6.038738">
        <ele>286.0</ele>
        <time>2012-07-05T13:35:00Z</time>
      </trkpt>
      <trkpt lat="43.224334" lon="-6.038672">
        <ele>285.0</ele>
        <time>2012-07-05T13:35:04Z</time>
      </trkpt>
      <trkpt lat="43.224048" lon="-6.038597">
        <ele>285.0</ele>
        <time>2012-07-05T13:35:08Z</time>
      </trkpt>
      <trkpt lat="43.22376" lon="-6.038505">
        <ele>285.0</ele>
        <time>2012-07-05T13:35:12Z</time>
      </trkpt>
      <trkpt lat="43.22347" lon="-6.038477">
        <ele>285.0</ele>
        <time>2012-07-05T13:35:16Z</time>
      </trkpt>
      <trkpt lat="43.223176" lon="-6.038489">
        <ele>286.0</ele>
        <time>2012-07-05T13:35:20Z</time>
      </trkpt>
      <trkpt lat="43.222876" lon="-6.038512">
        <ele>286.0</ele>
        <time>2012-07-05T13:35:24Z</time>
      </trkpt>
      <trkpt lat="43.222576" lon="-6.038519">
        <ele>286.0</ele>
        <time>2012-07-05T13:35:28Z</time>
      </trkpt>
      <trkpt lat="43.222277" lon="-6.038503">
        <ele>285.0</ele>
        <time>2012-07-05T13:35:32Z</time>
      </trkpt>
      <trkpt lat="43.22198" lon="-6.038493">
        <ele>285.0</ele>
        <time>2012-07-05T13:35:36Z</time>
      </trkpt>
      <trkpt lat="43.221684" lon="-6.038485">
        <ele>285.0</ele>
        <time>2012-07-05T13:35:40Z</time>
      </trkpt>
      <trkpt lat="43.221389" lon="-6.038474">
        <ele>284.0</ele>
        <time>2012-07-05T13:35:44Z</time>
      </trkpt>
      <trkpt lat="43.221092" lon="-6.038449">
        <ele>284.0</ele>
        <time>2012-07-05T13:35:48Z</time>
      </trkpt>
      <trkpt lat="43.220792" lon="-6.038428">
        <ele>284.0</ele>
        <time>2012-07-05T13:35:52Z</time>
      </trkpt>
      <trkpt lat="43.220489" lon="-6.038412">
        <ele>283.0</ele>
        <time>2012-07-05T13:35:56Z</time>
      </trkpt>
      <trkpt lat="43.220178" lon="-6.038402">
        <ele>283.0</ele>
        <time>2012-07-05T13:36:00Z</time>
      </trkpt>
      <trkpt lat="43.21986" lon="-6.038404">
        <ele>282.0</ele>
        <time>2012-07-05T13:36:04Z</time>
      </trkpt>
      <trkpt lat="43.21953" lon="-6.038423">
        <ele>282.0</ele>
        <time>2012-07-05T13:36:08Z</time>
      </trkpt>
      <trkpt lat="43.219193" lon="-6.038444">
        <ele>282.0</ele>
        <time>2012-07-05T13:36:12Z</time>
      </trkpt>
      <trkpt lat="43.218855" lon="-6.038461">
        <ele>282.0</ele>
        <time>2012-07-05T13:36:16Z</time>
      </trkpt>
      <trkpt lat="43.218521" lon="-6.038436">
        <ele>282.0</ele>
        <time>2012-07-05T13:36:20Z</time>
      </trkpt>
      <trkpt lat="43.218204" lon="-6.038208">
        <ele>282.0</ele>
        <time>2012-07-05T13:36:24Z</time>
      </trkpt>
      <trkpt lat="43.217889" lon="-6.037977">
        <ele>283.0</ele>
        <time>2012-07-05T13:36:28Z</time>
      </trkpt>
      <trkpt lat="43.217579" lon="-6.037765">
        <ele>283.0</ele>
        <time>2012-07-05T13:36:32Z</time>
      </trkpt>
      <trkpt lat="43.217273" lon="-6.037577">
        <ele>283.0</ele>
        <time>2012-07-05T13:36:36Z</time>
      </trkpt>
      <trkpt lat="43.216969" lon="-6.037402">
        <ele>283.0</ele>
        <time>2012-07-05T13:36:40Z</time>
      </trkpt>
      <trkpt lat="43.216667" lon="-6.037246">
        <ele>283.0</ele>
        <time>2012-07-05T13:36:44Z</time>
      </trkpt>
      <trkpt lat="43.21637" lon="-6.037103">
        <ele>284.0</ele>
        <time>2012-07-05T13:36:48Z</time>
      </trkpt>
      <trkpt lat="43.216077" lon="-6.036972">
        <ele>284.0</ele>
        <time>2012-07-05T13:36:52Z</time>
      </trkpt>
      <trkpt lat="43.215789" lon="-6.036856">
        <ele>284.0</ele>
        <time>2012-07-05T13:36:56Z</time>
      </trkpt>
      <trkpt lat="43.215503" lon="-6.03676">
        <ele>284.0</ele>
        <time>2012-07-05T13:37:00Z</time>
      </trkpt>
      <trkpt lat="43.215214" lon="-6.036714">
        <ele>284.0</ele>
        <time>2012-07-05T13:37:04Z</time>
      </trkpt>
      <trkpt lat="43.214927" lon="-6.036666">
        <ele>285.0</ele>
        <time>2012-07-05T13:37:08Z</time>
      </trkpt>
      <trkpt lat="43.214634" lon="-6.036713">
        <ele>285.0</ele>
        <time>2012-07-05T13:37:12Z</time>
      </trkpt>
      <trkpt lat="43.214344" lon="-6.036772">
        <ele>285.0</ele>
        <time>2012-07-05T13:37:16Z</time>
      </trkpt>
      <trkpt lat="43.214057" lon="-6.036802">
        <ele>286.0</ele>
        <time>2012-07-05T13:37:20Z</time>
      </trkpt>
      <trkpt lat="43.213766" lon="-6.036819">
        <ele>286.0</ele>
        <time>2012-07-05T13:37:24Z</time>
      </trkpt>
      <trkpt lat="43.213477" lon="-6.036825">
        <ele>286.0</ele>
        <time>2012-07-05T13:37:28Z</time>
      </trkpt>
      <trkpt lat="43.213201" lon="-6.036653">
        <ele>287.0</ele>
        <time>2012-07-05T13:37:32Z</time>
      </trkpt>
      <trkpt lat="43.212978" lon="-6.036292">
        <ele>289.0</ele>
        <time>2012-07-05T13:37:36Z</time>
      </trkpt>
      <trkpt lat="43.212762" lon="-6.036026">
        <ele>292.0</ele>
        <time>2012-07-05T13:37:40Z</time>
      </trkpt>
      <trkpt lat="43.212562" lon="-6.035813">
        <ele>293.0</ele>
        <time>2012-07-05T13:37:44Z</time>
      </trkpt>
      <trkpt lat="43.212336" lon="-6.035693">
        <ele>295.0</ele>
        <time>2012-07-05T13:37:48Z</time>
      </trkpt>
      <trkpt lat="43.212103" lon="-6.035583">
        <ele>296.0</ele>
        <time>2012-07-05T13:37:52Z</time>
      </trkpt>
      <trkpt lat="43.211861" lon="-6.035494">
        <ele>297.0</ele>
        <time>2012-07-05T13:37:56Z</time>
      </trkpt>
      <trkpt lat="43.211612" lon="-6.035409">
        <ele>297.0</ele>
        <time>2012-07-05T13:38:00Z</time>
      </trkpt>
      <trkpt lat="43.211357" lon="-6.035303">
        <ele>297.0</ele>
        <time>2012-07-05T13:38:04Z</time>
      </trkpt>
      <trkpt lat="43.211102" lon="-6.035157">
        <ele>296.0</ele>
        <time>2012-07-05T13:38:08Z</time>
      </trkpt>
      <trkpt lat="43.210846" lon="-6.034988">
        <ele>296.0</ele>
        <time>2012-07-05T13:38:12Z</time>
      </trkpt>
      <trkpt lat="43.210598" lon="-6.034791">
        <ele>296.0</ele>
        <time>2012-07-05T13:38:16Z</time>
      </trkpt>
      <trkpt lat="43.210363" lon="-6.034567">
        <ele>297.0</ele>
        <time>2012-07-05T13:38:20Z</time>
      </trkpt>
      <trkpt lat="43.210129" lon="-6.03435">
        <ele>298.0</ele>
        <time>2012-07-05T13:38:24Z</time>
      </trkpt>
      <trkpt lat="43.209885" lon="-6.034149">
        <ele>299.0</ele>
        <time>2012-07-05T13:38:28Z</time>
      </trkpt>
      <trkpt lat="43.209622" lon="-6.033984">
        <ele>299.0</ele>
        <time>2012-07-05T13:38:32Z</time>
      </trkpt>
      <trkpt lat="43.209341" lon="-6.033852">
        <ele>299.0</ele>
        <time>2012-07-05T13:38:36Z</time>
      </trkpt>
      <trkpt lat="43.209038" lon="-6.033822">
        <ele>299.0</ele>
        <time>2012-07-05T13:38:40Z</time>
      </trkpt>
      <trkpt lat="43.208736" lon="-6.033837">
        <ele>299.0</ele>
        <time>2012-07-05T13:38:44Z</time>
      </trkpt>
      <trkpt lat="43.20851" lon="-6.033833">
        <ele>300.0</ele>
        <time>2012-07-05T13:38:47Z</time>
      </trkpt>
      <trkpt lat="43.208123" lon="-6.033789">
        <ele>300.0</ele>
        <time>2012-07-05T13:38:52Z</time>
      </trkpt>
      <trkpt lat="43.207804" lon="-6.03374">
        <ele>300.0</ele>
        <time>2012-07-05T13:38:56Z</time>
      </trkpt>
      <trkpt lat="43.20748" lon="-6.033719">
        <ele>300.0</ele>
        <time>2012-07-05T13:39:00Z</time>
      </trkpt>
      <trkpt lat="43.207148" lon="-6.033719">
        <ele>300.0</ele>
        <time>2012-07-05T13:39:04Z</time>
      </trkpt>
      <trkpt lat="43.206825" lon="-6.033783">
        <ele>301.0</ele>
        <time>2012-07-05T13:39:08Z</time>
      </trkpt>
      <trkpt lat="43.206521" lon="-6.033859">
        <ele>302.0</ele>
        <time>2012-07-05T13:39:12Z</time>
      </trkpt>
      <trkpt lat="43.206228" lon="-6.033898">
        <ele>302.0</ele>
        <time>2012-07-05T13:39:16Z</time>
      </trkpt>
      <trkpt lat="43.205958" lon="-6.033815">
        <ele>303.0</ele>
        <time>2012-07-05T13:39:20Z</time>
      </trkpt>
      <trkpt lat="43.205704" lon="-6.033656">
        <ele>303.0</ele>
        <time>2012-07-05T13:39:24Z</time>
      </trkpt>
      <trkpt lat="43.205455" lon="-6.033511">
        <ele>303.0</ele>
        <time>2012-07-05T13:39:28Z</time>
      </trkpt>
      <trkpt lat="43.205165" lon="-6.03317">
        <ele>307.0</ele>
        <time>2012-07-05T13:39:32Z</time>
      </trkpt>
      <trkpt lat="43.204887" lon="-6.032889">
        <ele>311.0</ele>
        <time>2012-07-05T13:39:36Z</time>
      </trkpt>
      <trkpt lat="43.204618" lon="-6.032664">
        <ele>313.0</ele>
        <time>2012-07-05T13:39:40Z</time>
      </trkpt>
      <trkpt lat="43.204332" lon="-6.032464">
        <ele>316.0</ele>
        <time>2012-07-05T13:39:44Z</time>
      </trkpt>
      <trkpt lat="43.204054" lon="-6.032276">
        <ele>317.0</ele>
        <time>2012-07-05T13:39:48Z</time>
      </trkpt>
      <trkpt lat="43.203782" lon="-6.0321">
        <ele>318.0</ele>
        <time>2012-07-05T13:39:52Z</time>
      </trkpt>
      <trkpt lat="43.203517" lon="-6.031929">
        <ele>319.0</ele>
        <time>2012-07-05T13:39:56Z</time>
      </trkpt>
      <trkpt lat="43.203268" lon="-6.031727">
        <ele>320.0</ele>
        <time>2012-07-05T13:40:00Z</time>
      </trkpt>
      <trkpt lat="43.203042" lon="-6.03148">
        <ele>321.0</ele>
        <time>2012-07-05T13:40:04Z</time>
      </trkpt>
      <trkpt lat="43.202849" lon="-6.031193">
        <ele>321.0</ele>
        <time>2012-07-05T13:40:08Z</time>
      </trkpt>
      <trkpt lat="43.202693" lon="-6.030874">
        <ele>322.0</ele>
        <time>2012-07-05T13:40:12Z</time>
      </trkpt>
      <trkpt lat="43.202565" lon="-6.030537">
        <ele>323.0</ele>
        <time>2012-07-05T13:40:16Z</time>
      </trkpt>
      <trkpt lat="43.202465" lon="-6.030186">
        <ele>326.0</ele>
        <time>2012-07-05T13:40:20Z</time>
      </trkpt>
      <trkpt lat="43.202369" lon="-6.029833">
        <ele>329.0</ele>
        <time>2012-07-05T13:40:24Z</time>
      </trkpt>
      <trkpt lat="43.202288" lon="-6.02949">
        <ele>330.0</ele>
        <time>2012-07-05T13:40:28Z</time>
      </trkpt>
      <trkpt lat="43.202229" lon="-6.029146">
        <ele>331.0</ele>
        <time>2012-07-05T13:40:32Z</time>
      </trkpt>
      <trkpt lat="43.20216" lon="-6.028843">
        <ele>332.0</ele>
        <time>2012-07-05T13:40:36Z</time>
      </trkpt>
      <trkpt lat="43.20202" lon="-6.028583">
        <ele>333.0</ele>
        <time>2012-07-05T13:40:40Z</time>
      </trkpt>
      <trkpt lat="43.201937" lon="-6.028457">
        <ele>333.0</ele>
        <time>2012-07-05T13:40:42Z</time>
      </trkpt>
      <trkpt lat="43.201687" lon="-6.028035">
        <ele>335.0</ele>
        <time>2012-07-05T13:40:48Z</time>
      </trkpt>
      <trkpt lat="43.201544" lon="-6.027707">
        <ele>336.0</ele>
        <time>2012-07-05T13:40:52Z</time>
      </trkpt>
      <trkpt lat="43.201423" lon="-6.027368">
        <ele>337.0</ele>
        <time>2012-07-05T13:40:56Z</time>
      </trkpt>
      <trkpt lat="43.2013" lon="-6.02703">
        <ele>338.0</ele>
        <time>2012-07-05T13:41:00Z</time>
      </trkpt>
      <trkpt lat="43.201174" lon="-6.026693">
        <ele>338.0</ele>
        <time>2012-07-05T13:41:04Z</time>
      </trkpt>
      <trkpt lat="43.201077" lon="-6.026442">
        <ele>338.0</ele>
        <time>2012-07-05T13:41:07Z</time>
      </trkpt>
      <trkpt lat="43.201013" lon="-6.026274">
        <ele>338.0</ele>
        <time>2012-07-05T13:41:09Z</time>
      </trkpt>
      <trkpt lat="43.201013" lon="-6.026274">
        <time>2012-07-05T13:41:20Z</time>
      </trkpt>
    </trkseg>
    <trkseg>
      <trkpt lat="43.201013" lon="-6.026274">
        <time>2012-07-05T13:41:38Z</time>
      </trkpt>
      <trkpt lat="43.201912" lon="-6.024417">
        <ele>314.0</ele>
        <time>2012-07-05T13:41:41Z</time>
      </trkpt>
      <trkpt lat="43.201972" lon="-6.024171">
        <ele>310.0</ele>
        <time>2012-07-05T13:41:45Z</time>
      </trkpt>
      <trkpt lat="43.20204" lon="-6.02392">
        <ele>308.0</ele>
        <time>2012-07-05T13:41:49Z</time>
      </trkpt>
      <trkpt lat="43.202121" lon="-6.023666">
        <ele>308.0</ele>
        <time>2012-07-05T13:41:53Z</time>
      </trkpt>
      <trkpt lat="43.202302" lon="-6.023224">
        <ele>308.0</ele>
        <time>2012-07-05T13:42:01Z</time>
      </trkpt>
      <trkpt lat="43.202388" lon="-6.023">
        <ele>308.0</ele>
        <time>2012-07-05T13:42:05Z</time>
      </trkpt>
      <trkpt lat="43.202405" lon="-6.02277">
        <ele>309.0</ele>
        <time>2012-07-05T13:42:09Z</time>
      </trkpt>
      <trkpt lat="43.202333" lon="-6.022496">
        <ele>310.0</ele>
        <time>2012-07-05T13:42:13Z</time>
      </trkpt>
      <trkpt lat="43.202106" lon="-6.022075">
        <ele>320.0</ele>
        <time>2012-07-05T13:42:18Z</time>
      </trkpt>
      <trkpt lat="43.201692" lon="-6.021732">
        <ele>329.0</ele>
        <time>2012-07-05T13:42:22Z</time>
      </trkpt>
      <trkpt lat="43.201315" lon="-6.021461">
        <ele>335.0</ele>
        <time>2012-07-05T13:42:26Z</time>
      </trkpt>
      <trkpt lat="43.201066" lon="-6.021231">
        <ele>340.0</ele>
        <time>2012-07-05T13:42:30Z</time>
      </trkpt>
      <trkpt lat="43.200841" lon="-6.021065">
        <ele>342.0</ele>
        <time>2012-07-05T13:42:34Z</time>
      </trkpt>
      <trkpt lat="43.200649" lon="-6.020925">
        <ele>343.0</ele>
        <time>2012-07-05T13:42:38Z</time>
      </trkpt>
      <trkpt lat="43.200583" lon="-6.020755">
        <ele>343.0</ele>
        <time>2012-07-05T13:42:42Z</time>
      </trkpt>
      <trkpt lat="43.200511" lon="-6.020587">
        <ele>343.0</ele>
        <time>2012-07-05T13:42:46Z</time>
      </trkpt>
      <trkpt lat="43.200448" lon="-6.020409">
        <ele>343.0</ele>
        <time>2012-07-05T13:42:50Z</time>
      </trkpt>
      <trkpt lat="43.200396" lon="-6.020218">
        <ele>344.0</ele>
        <time>2012-07-05T13:42:54Z</time>
      </trkpt>
      <trkpt lat="43.20034" lon="-6.020031">
        <ele>344.0</ele>
        <time>2012-07-05T13:42:58Z</time>
      </trkpt>
      <trkpt lat="43.20029" lon="-6.019847">
        <ele>344.0</ele>
        <time>2012-07-05T13:43:02Z</time>
      </trkpt>
      <trkpt lat="43.200278" lon="-6.019641">
        <ele>344.0</ele>
        <time>2012-07-05T13:43:06Z</time>
      </trkpt>
      <trkpt lat="43.200279" lon="-6.019413">
        <ele>344.0</ele>
        <time>2012-07-05T13:43:10Z</time>
      </trkpt>
      <trkpt lat="43.200303" lon="-6.019168">
        <ele>344.0</ele>
        <time>2012-07-05T13:43:14Z</time>
      </trkpt>
      <trkpt lat="43.200332" lon="-6.018911">
        <ele>345.0</ele>
        <time>2012-07-05T13:43:18Z</time>
      </trkpt>
      <trkpt lat="43.200367" lon="-6.018648">
        <ele>345.0</ele>
        <time>2012-07-05T13:43:22Z</time>
      </trkpt>
      <trkpt lat="43.200419" lon="-6.018357">
        <ele>345.0</ele>
        <time>2012-07-05T13:43:26Z</time>
      </trkpt>
      <trkpt lat="43.200486" lon="-6.018042">
        <ele>345.0</ele>
        <time>2012-07-05T13:43:30Z</time>
      </trkpt>
      <trkpt lat="43.200537" lon="-6.017788">
        <ele>345.0</ele>
        <time>2012-07-05T13:43:33Z</time>
      </trkpt>
      <trkpt lat="43.200596" lon="-6.017459">
        <ele>345.0</ele>
        <time>2012-07-05T13:43:37Z</time>
      </trkpt>
      <trkpt lat="43.200652" lon="-6.01714">
        <ele>345.0</ele>
        <time>2012-07-05T13:43:41Z</time>
      </trkpt>
      <trkpt lat="43.200729" lon="-6.01684">
        <ele>345.0</ele>
        <time>2012-07-05T13:43:45Z</time>
      </trkpt>
      <trkpt lat="43.200806" lon="-6.016549">
        <ele>345.0</ele>
        <time>2012-07-05T13:43:49Z</time>
      </trkpt>
      <trkpt lat="43.200887" lon="-6.016251">
        <ele>345.0</ele>
        <time>2012-07-05T13:43:53Z</time>
      </trkpt>
      <trkpt lat="43.201031" lon="-6.015864">
        <ele>347.0</ele>
        <time>2012-07-05T13:43:58Z</time>
      </trkpt>
      <trkpt lat="43.201112" lon="-6.01553">
        <ele>347.0</ele>
        <time>2012-07-05T13:44:02Z</time>
      </trkpt>
      <trkpt lat="43.201197" lon="-6.015136">
        <ele>348.0</ele>
        <time>2012-07-05T13:44:06Z</time>
      </trkpt>
      <trkpt lat="43.201313" lon="-6.014655">
        <ele>348.0</ele>
        <time>2012-07-05T13:44:10Z</time>
      </trkpt>
      <trkpt lat="43.20144" lon="-6.014129">
        <ele>348.0</ele>
        <time>2012-07-05T13:44:14Z</time>
      </trkpt>
      <trkpt lat="43.201541" lon="-6.013617">
        <ele>348.0</ele>
        <time>2012-07-05T13:44:18Z</time>
      </trkpt>
      <trkpt lat="43.201647" lon="-6.013144">
        <ele>347.0</ele>
        <time>2012-07-05T13:44:22Z</time>
      </trkpt>
      <trkpt lat="43.201756" lon="-6.012691">
        <ele>347.0</ele>
        <time>2012-07-05T13:44:26Z</time>
      </trkpt>
      <trkpt lat="43.201789" lon="-6.012217">
        <ele>347.0</ele>
        <time>2012-07-05T13:44:30Z</time>
      </trkpt>
      <trkpt lat="43.201825" lon="-6.011749">
        <ele>348.0</ele>
        <time>2012-07-05T13:44:34Z</time>
      </trkpt>
      <trkpt lat="43.201863" lon="-6.011282">
        <ele>348.0</ele>
        <time>2012-07-05T13:44:38Z</time>
      </trkpt>
      <trkpt lat="43.201721" lon="-6.010796">
        <ele>348.0</ele>
        <time>2012-07-05T13:44:42Z</time>
      </trkpt>
      <trkpt lat="43.20136" lon="-6.010568">
        <ele>348.0</ele>
        <time>2012-07-05T13:44:46Z</time>
      </trkpt>
      <trkpt lat="43.200977" lon="-6.010374">
        <ele>348.0</ele>
        <time>2012-07-05T13:44:50Z</time>
      </trkpt>
      <trkpt lat="43.200633" lon="-6.010078">
        <ele>347.0</ele>
        <time>2012-07-05T13:44:54Z</time>
      </trkpt>
      <trkpt lat="43.20018" lon="-6.009367">
        <ele>350.0</ele>
        <time>2012-07-05T13:44:58Z</time>
      </trkpt>
      <trkpt lat="43.199909" lon="-6.008773">
        <ele>354.0</ele>
        <time>2012-07-05T13:45:02Z</time>
      </trkpt>
      <trkpt lat="43.199766" lon="-6.008281">
        <ele>357.0</ele>
        <time>2012-07-05T13:45:06Z</time>
      </trkpt>
      <trkpt lat="43.199665" lon="-6.007806">
        <ele>359.0</ele>
        <time>2012-07-05T13:45:10Z</time>
      </trkpt>
      <trkpt lat="43.199585" lon="-6.007336">
        <ele>359.0</ele>
        <time>2012-07-05T13:45:14Z</time>
      </trkpt>
      <trkpt lat="43.199483" lon="-6.006862">
        <ele>361.0</ele>
        <time>2012-07-05T13:45:18Z</time>
      </trkpt>
      <trkpt lat="43.199295" lon="-6.006397">
        <ele>362.0</ele>
        <time>2012-07-05T13:45:22Z</time>
      </trkpt>
      <trkpt lat="43.199019" lon="-6.006069">
        <ele>363.0</ele>
        <time>2012-07-05T13:45:26Z</time>
      </trkpt>
      <trkpt lat="43.198743" lon="-6.005841">
        <ele>364.0</ele>
        <time>2012-07-05T13:45:30Z</time>
      </trkpt>
      <trkpt lat="43.198481" lon="-6.005602">
        <ele>365.0</ele>
        <time>2012-07-05T13:45:34Z</time>
      </trkpt>
      <trkpt lat="43.198164" lon="-6.005344">
        <ele>367.0</ele>
        <time>2012-07-05T13:45:38Z</time>
      </trkpt>
      <trkpt lat="43.197847" lon="-6.005014">
        <ele>367.0</ele>
        <time>2012-07-05T13:45:42Z</time>
      </trkpt>
      <trkpt lat="43.197567" lon="-6.004565">
        <ele>369.0</ele>
        <time>2012-07-05T13:45:46Z</time>
      </trkpt>
      <trkpt lat="43.19732" lon="-6.004101">
        <ele>370.0</ele>
        <time>2012-07-05T13:45:50Z</time>
      </trkpt>
      <trkpt lat="43.197034" lon="-6.003755">
        <ele>370.0</ele>
        <time>2012-07-05T13:45:54Z</time>
      </trkpt>
      <trkpt lat="43.196704" lon="-6.003519">
        <ele>370.0</ele>
        <time>2012-07-05T13:45:58Z</time>
      </trkpt>
      <trkpt lat="43.196357" lon="-6.003283">
        <ele>370.0</ele>
        <time>2012-07-05T13:46:02Z</time>
      </trkpt>
      <trkpt lat="43.196058" lon="-6.003023">
        <ele>370.0</ele>
        <time>2012-07-05T13:46:06Z</time>
      </trkpt>
      <trkpt lat="43.195821" lon="-6.002659">
        <ele>372.0</ele>
        <time>2012-07-05T13:46:10Z</time>
      </trkpt>
      <trkpt lat="43.195681" lon="-6.002198">
        <ele>374.0</ele>
        <time>2012-07-05T13:46:14Z</time>
      </trkpt>
      <trkpt lat="43.195552" lon="-6.001742">
        <ele>375.0</ele>
        <time>2012-07-05T13:46:18Z</time>
      </trkpt>
      <trkpt lat="43.195405" lon="-6.001317">
        <ele>377.0</ele>
        <time>2012-07-05T13:46:22Z</time>
      </trkpt>
      <trkpt lat="43.195251" lon="-6.000932">
        <ele>379.0</ele>
        <time>2012-07-05T13:46:26Z</time>
      </trkpt>
      <trkpt lat="43.195059" lon="-6.000589">
        <ele>381.0</ele>
        <time>2012-07-05T13:46:30Z</time>
      </trkpt>
      <trkpt lat="43.194856" lon="-6.000251">
        <ele>382.0</ele>
        <time>2012-07-05T13:46:34Z</time>
      </trkpt>
      <trkpt lat="43.194646" lon="-5.999906">
        <ele>383.0</ele>
        <time>2012-07-05T13:46:38Z</time>
      </trkpt>
      <trkpt lat="43.194414" lon="-5.999586">
        <ele>384.0</ele>
        <time>2012-07-05T13:46:42Z</time>
      </trkpt>
      <trkpt lat="43.194169" lon="-5.999281">
        <ele>385.0</ele>
        <time>2012-07-05T13:46:46Z</time>
      </trkpt>
      <trkpt lat="43.193965" lon="-5.998945">
        <ele>386.0</ele>
        <time>2012-07-05T13:46:50Z</time>
      </trkpt>
      <trkpt lat="43.193804" lon="-5.998568">
        <ele>386.0</ele>
        <time>2012-07-05T13:46:54Z</time>
      </trkpt>
      <trkpt lat="43.193666" lon="-5.998188">
        <ele>387.0</ele>
        <time>2012-07-05T13:46:58Z</time>
      </trkpt>
      <trkpt lat="43.19352" lon="-5.997802">
        <ele>387.0</ele>
        <time>2012-07-05T13:47:02Z</time>
      </trkpt>
      <trkpt lat="43.193391" lon="-5.997397">
        <ele>388.0</ele>
        <time>2012-07-05T13:47:06Z</time>
      </trkpt>
      <trkpt lat="43.193264" lon="-5.996973">
        <ele>390.0</ele>
        <time>2012-07-05T13:47:10Z</time>
      </trkpt>
      <trkpt lat="43.193139" lon="-5.996558">
        <ele>391.0</ele>
        <time>2012-07-05T13:47:14Z</time>
      </trkpt>
      <trkpt lat="43.193004" lon="-5.996159">
        <ele>393.0</ele>
        <time>2012-07-05T13:47:18Z</time>
      </trkpt>
      <trkpt lat="43.19278" lon="-5.99589">
        <ele>393.0</ele>
        <time>2012-07-05T13:47:22Z</time>
      </trkpt>
      <trkpt lat="43.192516" lon="-5.995701">
        <ele>394.0</ele>
        <time>2012-07-05T13:47:26Z</time>
      </trkpt>
      <trkpt lat="43.192257" lon="-5.995498">
        <ele>395.0</ele>
        <time>2012-07-05T13:47:30Z</time>
      </trkpt>
      <trkpt lat="43.192015" lon="-5.995232">
        <ele>396.0</ele>
        <time>2012-07-05T13:47:34Z</time>
      </trkpt>
      <trkpt lat="43.1918" lon="-5.994915">
        <ele>396.0</ele>
        <time>2012-07-05T13:47:38Z</time>
      </trkpt>
      <trkpt lat="43.191566" lon="-5.994664">
        <ele>397.0</ele>
        <time>2012-07-05T13:47:42Z</time>
      </trkpt>
      <trkpt lat="43.191283" lon="-5.994583">
        <ele>397.0</ele>
        <time>2012-07-05T13:47:46Z</time>
      </trkpt>
      <trkpt lat="43.191007" lon="-5.994519">
        <ele>397.0</ele>
        <time>2012-07-05T13:47:50Z</time>
      </trkpt>
      <trkpt lat="43.190726" lon="-5.994468">
        <ele>397.0</ele>
        <time>2012-07-05T13:47:54Z</time>
      </trkpt>
      <trkpt lat="43.190443" lon="-5.994403">
        <ele>397.0</ele>
        <time>2012-07-05T13:47:58Z</time>
      </trkpt>
      <trkpt lat="43.19016" lon="-5.994326">
        <ele>399.0</ele>
        <time>2012-07-05T13:48:02Z</time>
      </trkpt>
      <trkpt lat="43.189874" lon="-5.994245">
        <ele>400.0</ele>
        <time>2012-07-05T13:48:06Z</time>
      </trkpt>
      <trkpt lat="43.189574" lon="-5.9942">
        <ele>400.0</ele>
        <time>2012-07-05T13:48:10Z</time>
      </trkpt>
      <trkpt lat="43.189245" lon="-5.994196">
        <ele>400.0</ele>
        <time>2012-07-05T13:48:14Z</time>
      </trkpt>
      <trkpt lat="43.188901" lon="-5.994249">
        <ele>400.0</ele>
        <time>2012-07-05T13:48:18Z</time>
      </trkpt>
      <trkpt lat="43.188563" lon="-5.994297">
        <ele>400.0</ele>
        <time>2012-07-05T13:48:22Z</time>
      </trkpt>
      <trkpt lat="43.188226" lon="-5.994307">
        <ele>399.0</ele>
        <time>2012-07-05T13:48:26Z</time>
      </trkpt>
      <trkpt lat="43.187899" lon="-5.994318">
        <ele>399.0</ele>
        <time>2012-07-05T13:48:30Z</time>
      </trkpt>
      <trkpt lat="43.187557" lon="-5.994148">
        <ele>399.0</ele>
        <time>2012-07-05T13:48:34Z</time>
      </trkpt>
      <trkpt lat="43.187256" lon="-5.993978">
        <ele>400.0</ele>
        <time>2012-07-05T13:48:38Z</time>
      </trkpt>
      <trkpt lat="43.186968" lon="-5.993811">
        <ele>400.0</ele>
        <time>2012-07-05T13:48:42Z</time>
      </trkpt>
      <trkpt lat="43.186714" lon="-5.993606">
        <ele>400.0</ele>
        <time>2012-07-05T13:48:46Z</time>
      </trkpt>
      <trkpt lat="43.186466" lon="-5.993418">
        <ele>400.0</ele>
        <time>2012-07-05T13:48:50Z</time>
      </trkpt>
      <trkpt lat="43.186206" lon="-5.99329">
        <ele>401.0</ele>
        <time>2012-07-05T13:48:54Z</time>
      </trkpt>
      <trkpt lat="43.185933" lon="-5.993197">
        <ele>401.0</ele>
        <time>2012-07-05T13:48:58Z</time>
      </trkpt>
      <trkpt lat="43.18565" lon="-5.993184">
        <ele>401.0</ele>
        <time>2012-07-05T13:49:02Z</time>
      </trkpt>
      <trkpt lat="43.185376" lon="-5.993281">
        <ele>400.0</ele>
        <time>2012-07-05T13:49:06Z</time>
      </trkpt>
      <trkpt lat="43.185114" lon="-5.993321">
        <ele>400.0</ele>
        <time>2012-07-05T13:49:10Z</time>
      </trkpt>
      <trkpt lat="43.184928" lon="-5.993331">
        <ele>400.0</ele>
        <time>2012-07-05T13:49:13Z</time>
      </trkpt>
      <trkpt lat="43.184692" lon="-5.993353">
        <ele>400.0</ele>
        <time>2012-07-05T13:49:17Z</time>
      </trkpt>
      <trkpt lat="43.184462" lon="-5.993371">
        <ele>400.0</ele>
        <time>2012-07-05T13:49:21Z</time>
      </trkpt>
      <trkpt lat="43.184238" lon="-5.993386">
        <ele>401.0</ele>
        <time>2012-07-05T13:49:25Z</time>
      </trkpt>
      <trkpt lat="43.18402" lon="-5.993395">
        <ele>401.0</ele>
        <time>2012-07-05T13:49:29Z</time>
      </trkpt>
      <trkpt lat="43.183832" lon="-5.993368">
        <ele>401.0</ele>
        <time>2012-07-05T13:49:33Z</time>
      </trkpt>
      <trkpt lat="43.183691" lon="-5.993325">
        <ele>403.0</ele>
        <time>2012-07-05T13:49:38Z</time>
      </trkpt>
      <trkpt lat="43.183637" lon="-5.993234">
        <ele>405.0</ele>
        <time>2012-07-05T13:49:41Z</time>
      </trkpt>
      <trkpt lat="43.183583" lon="-5.993138">
        <ele>408.0</ele>
        <time>2012-07-05T13:49:44Z</time>
      </trkpt>
      <trkpt lat="43.18346" lon="-5.992999">
        <ele>410.0</ele>
        <time>2012-07-05T13:49:49Z</time>
      </trkpt>
      <trkpt lat="43.183372" lon="-5.992868">
        <ele>412.0</ele>
        <time>2012-07-05T13:49:53Z</time>
      </trkpt>
      <trkpt lat="43.183279" lon="-5.992748">
        <ele>412.0</ele>
        <time>2012-07-05T13:49:57Z</time>
      </trkpt>
      <trkpt lat="43.183178" lon="-5.992638">
        <ele>413.0</ele>
        <time>2012-07-05T13:50:01Z</time>
      </trkpt>
      <trkpt lat="43.183082" lon="-5.99252">
        <ele>413.0</ele>
        <time>2012-07-05T13:50:05Z</time>
      </trkpt>
      <trkpt lat="43.182923" lon="-5.992476">
        <ele>414.0</ele>
        <time>2012-07-05T13:50:10Z</time>
      </trkpt>
      <trkpt lat="43.182836" lon="-5.992442">
        <ele>414.0</ele>
        <time>2012-07-05T13:50:13Z</time>
      </trkpt>
      <trkpt lat="43.182709" lon="-5.992429">
        <ele>414.0</ele>
        <time>2012-07-05T13:50:17Z</time>
      </trkpt>
      <trkpt lat="43.182574" lon="-5.992422">
        <ele>414.0</ele>
        <time>2012-07-05T13:50:21Z</time>
      </trkpt>
      <trkpt lat="43.182431" lon="-5.992463">
        <ele>414.0</ele>
        <time>2012-07-05T13:50:25Z</time>
      </trkpt>
      <trkpt lat="43.182279" lon="-5.992519">
        <ele>414.0</ele>
        <time>2012-07-05T13:50:29Z</time>
      </trkpt>
      <trkpt lat="43.182108" lon="-5.992553">
        <ele>414.0</ele>
        <time>2012-07-05T13:50:33Z</time>
      </trkpt>
      <trkpt lat="43.181949" lon="-5.992621">
        <ele>414.0</ele>
        <time>2012-07-05T13:50:37Z</time>
      </trkpt>
      <trkpt lat="43.181807" lon="-5.992709">
        <ele>414.0</ele>
        <time>2012-07-05T13:50:41Z</time>
      </trkpt>
      <trkpt lat="43.181669" lon="-5.992776">
        <ele>414.0</ele>
        <time>2012-07-05T13:50:45Z</time>
      </trkpt>
      <trkpt lat="43.181538" lon="-5.992863">
        <ele>415.0</ele>
        <time>2012-07-05T13:50:49Z</time>
      </trkpt>
      <trkpt lat="43.181415" lon="-5.992962">
        <ele>415.0</ele>
        <time>2012-07-05T13:50:53Z</time>
      </trkpt>
      <trkpt lat="43.181304" lon="-5.993073">
        <ele>415.0</ele>
        <time>2012-07-05T13:50:57Z</time>
      </trkpt>
      <trkpt lat="43.181191" lon="-5.993174">
        <ele>415.0</ele>
        <time>2012-07-05T13:51:01Z</time>
      </trkpt>
      <trkpt lat="43.181085" lon="-5.993297">
        <ele>415.0</ele>
        <time>2012-07-05T13:51:05Z</time>
      </trkpt>
      <trkpt lat="43.180969" lon="-5.99341">
        <ele>416.0</ele>
        <time>2012-07-05T13:51:09Z</time>
      </trkpt>
      <trkpt lat="43.180866" lon="-5.99357">
        <ele>417.0</ele>
        <time>2012-07-05T13:51:13Z</time>
      </trkpt>
      <trkpt lat="43.18077" lon="-5.993745">
        <ele>418.0</ele>
        <time>2012-07-05T13:51:17Z</time>
      </trkpt>
      <trkpt lat="43.180665" lon="-5.99389">
        <ele>418.0</ele>
        <time>2012-07-05T13:51:21Z</time>
      </trkpt>
      <trkpt lat="43.180539" lon="-5.993951">
        <ele>418.0</ele>
        <time>2012-07-05T13:51:25Z</time>
      </trkpt>
      <trkpt lat="43.180408" lon="-5.993987">
        <ele>418.0</ele>
        <time>2012-07-05T13:51:29Z</time>
      </trkpt>
      <trkpt lat="43.180278" lon="-5.994008">
        <ele>418.0</ele>
        <time>2012-07-05T13:51:33Z</time>
      </trkpt>
      <trkpt lat="43.180146" lon="-5.994012">
        <ele>419.0</ele>
        <time>2012-07-05T13:51:37Z</time>
      </trkpt>
      <trkpt lat="43.180012" lon="-5.993999">
        <ele>419.0</ele>
        <time>2012-07-05T13:51:41Z</time>
      </trkpt>
      <trkpt lat="43.179877" lon="-5.993984">
        <ele>419.0</ele>
        <time>2012-07-05T13:51:45Z</time>
      </trkpt>
      <trkpt lat="43.179735" lon="-5.993965">
        <ele>419.0</ele>
        <time>2012-07-05T13:51:49Z</time>
      </trkpt>
      <trkpt lat="43.179589" lon="-5.993946">
        <ele>420.0</ele>
        <time>2012-07-05T13:51:53Z</time>
      </trkpt>
      <trkpt lat="43.179434" lon="-5.993932">
        <ele>421.0</ele>
        <time>2012-07-05T13:51:57Z</time>
      </trkpt>
      <trkpt lat="43.179272" lon="-5.993942">
        <ele>423.0</ele>
        <time>2012-07-05T13:52:01Z</time>
      </trkpt>
      <trkpt lat="43.179114" lon="-5.993963">
        <ele>424.0</ele>
        <time>2012-07-05T13:52:05Z</time>
      </trkpt>
      <trkpt lat="43.178934" lon="-5.993941">
        <ele>425.0</ele>
        <time>2012-07-05T13:52:09Z</time>
      </trkpt>
      <trkpt lat="43.178664" lon="-5.993779">
        <ele>426.0</ele>
        <time>2012-07-05T13:52:14Z</time>
      </trkpt>
      <trkpt lat="43.178439" lon="-5.993626">
        <ele>428.0</ele>
        <time>2012-07-05T13:52:18Z</time>
      </trkpt>
      <trkpt lat="43.178273" lon="-5.993503">
        <ele>430.0</ele>
        <time>2012-07-05T13:52:21Z</time>
      </trkpt>
      <trkpt lat="43.178068" lon="-5.993393">
        <ele>433.0</ele>
        <time>2012-07-05T13:52:25Z</time>
      </trkpt>
      <trkpt lat="43.177848" lon="-5.993355">
        <ele>435.0</ele>
        <time>2012-07-05T13:52:29Z</time>
      </trkpt>
      <trkpt lat="43.177625" lon="-5.993372">
        <ele>435.0</ele>
        <time>2012-07-05T13:52:33Z</time>
      </trkpt>
      <trkpt lat="43.177407" lon="-5.993419">
        <ele>435.0</ele>
        <time>2012-07-05T13:52:37Z</time>
      </trkpt>
      <trkpt lat="43.1772" lon="-5.993482">
        <ele>435.0</ele>
        <time>2012-07-05T13:52:41Z</time>
      </trkpt>
      <trkpt lat="43.177014" lon="-5.993563">
        <ele>436.0</ele>
        <time>2012-07-05T13:52:45Z</time>
      </trkpt>
      <trkpt lat="43.176918" lon="-5.993591">
        <ele>436.0</ele>
        <time>2012-07-05T13:52:47Z</time>
      </trkpt>
      <trkpt lat="43.176617" lon="-5.993567">
        <ele>436.0</ele>
        <time>2012-07-05T13:52:53Z</time>
      </trkpt>
      <trkpt lat="43.176416" lon="-5.99353">
        <ele>439.0</ele>
        <time>2012-07-05T13:52:57Z</time>
      </trkpt>
      <trkpt lat="43.176208" lon="-5.993499">
        <ele>440.0</ele>
        <time>2012-07-05T13:53:01Z</time>
      </trkpt>
      <trkpt lat="43.175862" lon="-5.993133">
        <ele>443.0</ele>
        <time>2012-07-05T13:53:06Z</time>
      </trkpt>
      <trkpt lat="43.175641" lon="-5.992814">
        <ele>446.0</ele>
        <time>2012-07-05T13:53:09Z</time>
      </trkpt>
      <trkpt lat="43.175343" lon="-5.99229">
        <ele>450.0</ele>
        <time>2012-07-05T13:53:14Z</time>
      </trkpt>
      <trkpt lat="43.175106" lon="-5.99193">
        <ele>453.0</ele>
        <time>2012-07-05T13:53:18Z</time>
      </trkpt>
      <trkpt lat="43.174821" lon="-5.99166">
        <ele>454.0</ele>
        <time>2012-07-05T13:53:22Z</time>
      </trkpt>
      <trkpt lat="43.174512" lon="-5.991484">
        <ele>456.0</ele>
        <time>2012-07-05T13:53:26Z</time>
      </trkpt>
      <trkpt lat="43.174271" lon="-5.99141">
        <ele>457.0</ele>
        <time>2012-07-05T13:53:29Z</time>
      </trkpt>
      <trkpt lat="43.173882" lon="-5.99134">
        <ele>457.0</ele>
        <time>2012-07-05T13:53:34Z</time>
      </trkpt>
      <trkpt lat="43.173578" lon="-5.991352">
        <ele>457.0</ele>
        <time>2012-07-05T13:53:38Z</time>
      </trkpt>
      <trkpt lat="43.173307" lon="-5.991388">
        <ele>458.0</ele>
        <time>2012-07-05T13:53:42Z</time>
      </trkpt>
      <trkpt lat="43.173057" lon="-5.991427">
        <ele>458.0</ele>
        <time>2012-07-05T13:53:46Z</time>
      </trkpt>
      <trkpt lat="43.172818" lon="-5.991452">
        <ele>458.0</ele>
        <time>2012-07-05T13:53:50Z</time>
      </trkpt>
      <trkpt lat="43.172605" lon="-5.991462">
        <ele>459.0</ele>
        <time>2012-07-05T13:53:54Z</time>
      </trkpt>
      <trkpt lat="43.172407" lon="-5.991319">
        <ele>459.0</ele>
        <time>2012-07-05T13:53:58Z</time>
      </trkpt>
      <trkpt lat="43.172241" lon="-5.991104">
        <ele>460.0</ele>
        <time>2012-07-05T13:54:02Z</time>
      </trkpt>
      <trkpt lat="43.172099" lon="-5.990887">
        <ele>461.0</ele>
        <time>2012-07-05T13:54:06Z</time>
      </trkpt>
      <trkpt lat="43.171955" lon="-5.990691">
        <ele>462.0</ele>
        <time>2012-07-05T13:54:10Z</time>
      </trkpt>
      <trkpt lat="43.171799" lon="-5.990528">
        <ele>463.0</ele>
        <time>2012-07-05T13:54:14Z</time>
      </trkpt>
      <trkpt lat="43.171627" lon="-5.990402">
        <ele>464.0</ele>
        <time>2012-07-05T13:54:18Z</time>
      </trkpt>
      <trkpt lat="43.171535" lon="-5.990354">
        <ele>464.0</ele>
        <time>2012-07-05T13:54:20Z</time>
      </trkpt>
      <trkpt lat="43.171256" lon="-5.990228">
        <ele>464.0</ele>
        <time>2012-07-05T13:54:26Z</time>
      </trkpt>
      <trkpt lat="43.171085" lon="-5.990109">
        <ele>464.0</ele>
        <time>2012-07-05T13:54:30Z</time>
      </trkpt>
      <trkpt lat="43.17092" lon="-5.989965">
        <ele>464.0</ele>
        <time>2012-07-05T13:54:34Z</time>
      </trkpt>
      <trkpt lat="43.170762" lon="-5.989803">
        <ele>464.0</ele>
        <time>2012-07-05T13:54:38Z</time>
      </trkpt>
      <trkpt lat="43.17061" lon="-5.98959">
        <ele>465.0</ele>
        <time>2012-07-05T13:54:42Z</time>
      </trkpt>
      <trkpt lat="43.170457" lon="-5.989377">
        <ele>466.0</ele>
        <time>2012-07-05T13:54:46Z</time>
      </trkpt>
      <trkpt lat="43.170306" lon="-5.989177">
        <ele>468.0</ele>
        <time>2012-07-05T13:54:50Z</time>
      </trkpt>
      <trkpt lat="43.17015" lon="-5.989004">
        <ele>469.0</ele>
        <time>2012-07-05T13:54:54Z</time>
      </trkpt>
      <trkpt lat="43.169989" lon="-5.988846">
        <ele>469.0</ele>
        <time>2012-07-05T13:54:58Z</time>
      </trkpt>
      <trkpt lat="43.169808" lon="-5.988662">
        <ele>470.0</ele>
        <time>2012-07-05T13:55:02Z</time>
      </trkpt>
      <trkpt lat="43.169581" lon="-5.988417">
        <ele>470.0</ele>
        <time>2012-07-05T13:55:06Z</time>
      </trkpt>
      <trkpt lat="43.169372" lon="-5.988118">
        <ele>470.0</ele>
        <time>2012-07-05T13:55:10Z</time>
      </trkpt>
      <trkpt lat="43.169158" lon="-5.987792">
        <ele>471.0</ele>
        <time>2012-07-05T13:55:14Z</time>
      </trkpt>
      <trkpt lat="43.168921" lon="-5.9874">
        <ele>473.0</ele>
        <time>2012-07-05T13:55:18Z</time>
      </trkpt>
      <trkpt lat="43.168718" lon="-5.986897">
        <ele>475.0</ele>
        <time>2012-07-05T13:55:22Z</time>
      </trkpt>
      <trkpt lat="43.16855" lon="-5.986304">
        <ele>476.0</ele>
        <time>2012-07-05T13:55:26Z</time>
      </trkpt>
      <trkpt lat="43.168242" lon="-5.985809">
        <ele>477.0</ele>
        <time>2012-07-05T13:55:30Z</time>
      </trkpt>
      <trkpt lat="43.167667" lon="-5.985577">
        <ele>476.0</ele>
        <time>2012-07-05T13:55:34Z</time>
      </trkpt>
      <trkpt lat="43.167137" lon="-5.985215">
        <ele>475.0</ele>
        <time>2012-07-05T13:55:38Z</time>
      </trkpt>
      <trkpt lat="43.166706" lon="-5.984759">
        <ele>475.0</ele>
        <time>2012-07-05T13:55:42Z</time>
      </trkpt>
      <trkpt lat="43.1663" lon="-5.984337">
        <ele>475.0</ele>
        <time>2012-07-05T13:55:46Z</time>
      </trkpt>
      <trkpt lat="43.165952" lon="-5.983963">
        <ele>475.0</ele>
        <time>2012-07-05T13:55:50Z</time>
      </trkpt>
      <trkpt lat="43.165631" lon="-5.983625">
        <ele>475.0</ele>
        <time>2012-07-05T13:55:54Z</time>
      </trkpt>
      <trkpt lat="43.165343" lon="-5.983297">
        <ele>475.0</ele>
        <time>2012-07-05T13:55:58Z</time>
      </trkpt>
      <trkpt lat="43.165058" lon="-5.982959">
        <ele>475.0</ele>
        <time>2012-07-05T13:56:02Z</time>
      </trkpt>
      <trkpt lat="43.164804" lon="-5.982573">
        <ele>475.0</ele>
        <time>2012-07-05T13:56:06Z</time>
      </trkpt>
      <trkpt lat="43.164608" lon="-5.982148">
        <ele>475.0</ele>
        <time>2012-07-05T13:56:10Z</time>
      </trkpt>
      <trkpt lat="43.164477" lon="-5.981668">
        <ele>475.0</ele>
        <time>2012-07-05T13:56:14Z</time>
      </trkpt>
      <trkpt lat="43.164366" lon="-5.981175">
        <ele>476.0</ele>
        <time>2012-07-05T13:56:18Z</time>
      </trkpt>
      <trkpt lat="43.164211" lon="-5.980727">
        <ele>475.0</ele>
        <time>2012-07-05T13:56:22Z</time>
      </trkpt>
      <trkpt lat="43.164044" lon="-5.980307">
        <ele>475.0</ele>
        <time>2012-07-05T13:56:26Z</time>
      </trkpt>
      <trkpt lat="43.1639" lon="-5.979909">
        <ele>475.0</ele>
        <time>2012-07-05T13:56:30Z</time>
      </trkpt>
      <trkpt lat="43.163832" lon="-5.979529">
        <ele>476.0</ele>
        <time>2012-07-05T13:56:34Z</time>
      </trkpt>
      <trkpt lat="43.163927" lon="-5.97913">
        <ele>478.0</ele>
        <time>2012-07-05T13:56:38Z</time>
      </trkpt>
      <trkpt lat="43.163947" lon="-5.978856">
        <ele>479.0</ele>
        <time>2012-07-05T13:56:41Z</time>
      </trkpt>
      <trkpt lat="43.163932" lon="-5.97854">
        <ele>480.0</ele>
        <time>2012-07-05T13:56:45Z</time>
      </trkpt>
      <trkpt lat="43.163901" lon="-5.978265">
        <ele>481.0</ele>
        <time>2012-07-05T13:56:49Z</time>
      </trkpt>
      <trkpt lat="43.16385" lon="-5.978049">
        <ele>482.0</ele>
        <time>2012-07-05T13:56:53Z</time>
      </trkpt>
      <trkpt lat="43.163793" lon="-5.977822">
        <ele>482.0</ele>
        <time>2012-07-05T13:56:57Z</time>
      </trkpt>
      <trkpt lat="43.163745" lon="-5.977585">
        <ele>483.0</ele>
        <time>2012-07-05T13:57:01Z</time>
      </trkpt>
      <trkpt lat="43.163709" lon="-5.977339">
        <ele>483.0</ele>
        <time>2012-07-05T13:57:05Z</time>
      </trkpt>
      <trkpt lat="43.163672" lon="-5.977094">
        <ele>484.0</ele>
        <time>2012-07-05T13:57:09Z</time>
      </trkpt>
      <trkpt lat="43.163601" lon="-5.976884">
        <ele>484.0</ele>
        <time>2012-07-05T13:57:13Z</time>
      </trkpt>
      <trkpt lat="43.163444" lon="-5.976712">
        <ele>485.0</ele>
        <time>2012-07-05T13:57:17Z</time>
      </trkpt>
      <trkpt lat="43.163271" lon="-5.976587">
        <ele>485.0</ele>
        <time>2012-07-05T13:57:21Z</time>
      </trkpt>
      <trkpt lat="43.163096" lon="-5.976491">
        <ele>486.0</ele>
        <time>2012-07-05T13:57:25Z</time>
      </trkpt>
      <trkpt lat="43.162913" lon="-5.976405">
        <ele>486.0</ele>
        <time>2012-07-05T13:57:29Z</time>
      </trkpt>
      <trkpt lat="43.162738" lon="-5.976313">
        <ele>486.0</ele>
        <time>2012-07-05T13:57:33Z</time>
      </trkpt>
      <trkpt lat="43.162562" lon="-5.976237">
        <ele>486.0</ele>
        <time>2012-07-05T13:57:37Z</time>
      </trkpt>
      <trkpt lat="43.162391" lon="-5.976183">
        <ele>486.0</ele>
        <time>2012-07-05T13:57:41Z</time>
      </trkpt>
      <trkpt lat="43.162214" lon="-5.976156">
        <ele>486.0</ele>
        <time>2012-07-05T13:57:45Z</time>
      </trkpt>
      <trkpt lat="43.162031" lon="-5.976152">
        <ele>486.0</ele>
        <time>2012-07-05T13:57:49Z</time>
      </trkpt>
      <trkpt lat="43.161852" lon="-5.976147">
        <ele>486.0</ele>
        <time>2012-07-05T13:57:53Z</time>
      </trkpt>
      <trkpt lat="43.161682" lon="-5.976116">
        <ele>486.0</ele>
        <time>2012-07-05T13:57:57Z</time>
      </trkpt>
      <trkpt lat="43.161523" lon="-5.975976">
        <ele>487.0</ele>
        <time>2012-07-05T13:58:01Z</time>
      </trkpt>
      <trkpt lat="43.161418" lon="-5.975764">
        <ele>490.0</ele>
        <time>2012-07-05T13:58:05Z</time>
      </trkpt>
      <trkpt lat="43.161371" lon="-5.975527">
        <ele>492.0</ele>
        <time>2012-07-05T13:58:09Z</time>
      </trkpt>
      <trkpt lat="43.161327" lon="-5.975297">
        <ele>494.0</ele>
        <time>2012-07-05T13:58:13Z</time>
      </trkpt>
      <trkpt lat="43.161275" lon="-5.975069">
        <ele>495.0</ele>
        <time>2012-07-05T13:58:17Z</time>
      </trkpt>
      <trkpt lat="43.161199" lon="-5.974843">
        <ele>496.0</ele>
        <time>2012-07-05T13:58:21Z</time>
      </trkpt>
      <trkpt lat="43.161076" lon="-5.974646">
        <ele>497.0</ele>
        <time>2012-07-05T13:58:25Z</time>
      </trkpt>
      <trkpt lat="43.160922" lon="-5.974485">
        <ele>498.0</ele>
        <time>2012-07-05T13:58:29Z</time>
      </trkpt>
      <trkpt lat="43.160755" lon="-5.974338">
        <ele>499.0</ele>
        <time>2012-07-05T13:58:33Z</time>
      </trkpt>
      <trkpt lat="43.160582" lon="-5.974196">
        <ele>499.0</ele>
        <time>2012-07-05T13:58:37Z</time>
      </trkpt>
      <trkpt lat="43.160496" lon="-5.974122">
        <ele>500.0</ele>
        <time>2012-07-05T13:58:39Z</time>
      </trkpt>
      <trkpt lat="43.160244" lon="-5.973892">
        <ele>502.0</ele>
        <time>2012-07-05T13:58:45Z</time>
      </trkpt>
      <trkpt lat="43.160075" lon="-5.973741">
        <ele>502.0</ele>
        <time>2012-07-05T13:58:49Z</time>
      </trkpt>
      <trkpt lat="43.159899" lon="-5.973584">
        <ele>502.0</ele>
        <time>2012-07-05T13:58:53Z</time>
      </trkpt>
      <trkpt lat="43.159695" lon="-5.973464">
        <ele>502.0</ele>
        <time>2012-07-05T13:58:57Z</time>
      </trkpt>
      <trkpt lat="43.159478" lon="-5.973355">
        <ele>502.0</ele>
        <time>2012-07-05T13:59:01Z</time>
      </trkpt>
      <trkpt lat="43.159166" lon="-5.973241">
        <ele>502.0</ele>
        <time>2012-07-05T13:59:06Z</time>
      </trkpt>
      <trkpt lat="43.158844" lon="-5.973254">
        <ele>502.0</ele>
        <time>2012-07-05T13:59:10Z</time>
      </trkpt>
      <trkpt lat="43.158524" lon="-5.973301">
        <ele>501.0</ele>
        <time>2012-07-05T13:59:14Z</time>
      </trkpt>
      <trkpt lat="43.15822" lon="-5.973329">
        <ele>501.0</ele>
        <time>2012-07-05T13:59:18Z</time>
      </trkpt>
      <trkpt lat="43.157928" lon="-5.973335">
        <ele>502.0</ele>
        <time>2012-07-05T13:59:22Z</time>
      </trkpt>
      <trkpt lat="43.157631" lon="-5.973314">
        <ele>505.0</ele>
        <time>2012-07-05T13:59:26Z</time>
      </trkpt>
      <trkpt lat="43.157316" lon="-5.973108">
        <ele>508.0</ele>
        <time>2012-07-05T13:59:30Z</time>
      </trkpt>
      <trkpt lat="43.15712" lon="-5.972925">
        <ele>511.0</ele>
        <time>2012-07-05T13:59:33Z</time>
      </trkpt>
      <trkpt lat="43.156958" lon="-5.972721">
        <ele>513.0</ele>
        <time>2012-07-05T13:59:37Z</time>
      </trkpt>
      <trkpt lat="43.156831" lon="-5.97255">
        <ele>515.0</ele>
        <time>2012-07-05T13:59:41Z</time>
      </trkpt>
      <trkpt lat="43.156718" lon="-5.97239">
        <ele>516.0</ele>
        <time>2012-07-05T13:59:45Z</time>
      </trkpt>
      <trkpt lat="43.156591" lon="-5.972219">
        <ele>516.0</ele>
        <time>2012-07-05T13:59:49Z</time>
      </trkpt>
      <trkpt lat="43.156458" lon="-5.972068">
        <ele>517.0</ele>
        <time>2012-07-05T13:59:53Z</time>
      </trkpt>
      <trkpt lat="43.156312" lon="-5.971933">
        <ele>517.0</ele>
        <time>2012-07-05T13:59:57Z</time>
      </trkpt>
      <trkpt lat="43.156176" lon="-5.971786">
        <ele>517.0</ele>
        <time>2012-07-05T14:00:01Z</time>
      </trkpt>
      <trkpt lat="43.156075" lon="-5.971593">
        <ele>518.0</ele>
        <time>2012-07-05T14:00:05Z</time>
      </trkpt>
      <trkpt lat="43.15603" lon="-5.971341">
        <ele>519.0</ele>
        <time>2012-07-05T14:00:09Z</time>
      </trkpt>
      <trkpt lat="43.156079" lon="-5.971071">
        <ele>520.0</ele>
        <time>2012-07-05T14:00:13Z</time>
      </trkpt>
      <trkpt lat="43.156135" lon="-5.970772">
        <ele>520.0</ele>
        <time>2012-07-05T14:00:17Z</time>
      </trkpt>
      <trkpt lat="43.156146" lon="-5.97047">
        <ele>521.0</ele>
        <time>2012-07-05T14:00:21Z</time>
      </trkpt>
      <trkpt lat="43.156088" lon="-5.970183">
        <ele>521.0</ele>
        <time>2012-07-05T14:00:25Z</time>
      </trkpt>
      <trkpt lat="43.15598" lon="-5.969914">
        <ele>522.0</ele>
        <time>2012-07-05T14:00:29Z</time>
      </trkpt>
      <trkpt lat="43.15586" lon="-5.969649">
        <ele>522.0</ele>
        <time>2012-07-05T14:00:33Z</time>
      </trkpt>
      <trkpt lat="43.155722" lon="-5.969385">
        <ele>523.0</ele>
        <time>2012-07-05T14:00:37Z</time>
      </trkpt>
      <trkpt lat="43.155582" lon="-5.969118">
        <ele>523.0</ele>
        <time>2012-07-05T14:00:41Z</time>
      </trkpt>
      <trkpt lat="43.155439" lon="-5.968847">
        <ele>524.0</ele>
        <time>2012-07-05T14:00:45Z</time>
      </trkpt>
      <trkpt lat="43.155253" lon="-5.968499">
        <ele>524.0</ele>
        <time>2012-07-05T14:00:50Z</time>
      </trkpt>
      <trkpt lat="43.155129" lon="-5.968303">
        <ele>524.0</ele>
        <time>2012-07-05T14:00:53Z</time>
      </trkpt>
      <trkpt lat="43.154868" lon="-5.968064">
        <ele>524.0</ele>
        <time>2012-07-05T14:00:58Z</time>
      </trkpt>
      <trkpt lat="43.15482" lon="-5.968008">
        <ele>524.0</ele>
        <time>2012-07-05T14:00:59Z</time>
      </trkpt>
      <trkpt lat="43.154435" lon="-5.96784">
        <ele>524.0</ele>
        <time>2012-07-05T14:01:06Z</time>
      </trkpt>
      <trkpt lat="43.154171" lon="-5.967825">
        <ele>523.0</ele>
        <time>2012-07-05T14:01:10Z</time>
      </trkpt>
      <trkpt lat="43.153895" lon="-5.967646">
        <ele>525.0</ele>
        <time>2012-07-05T14:01:14Z</time>
      </trkpt>
      <trkpt lat="43.153645" lon="-5.9674">
        <ele>525.0</ele>
        <time>2012-07-05T14:01:18Z</time>
      </trkpt>
      <trkpt lat="43.153513" lon="-5.967036">
        <ele>526.0</ele>
        <time>2012-07-05T14:01:22Z</time>
      </trkpt>
      <trkpt lat="43.153426" lon="-5.966695">
        <ele>527.0</ele>
        <time>2012-07-05T14:01:26Z</time>
      </trkpt>
      <trkpt lat="43.153375" lon="-5.96637">
        <ele>529.0</ele>
        <time>2012-07-05T14:01:30Z</time>
      </trkpt>
      <trkpt lat="43.153334" lon="-5.966074">
        <ele>530.0</ele>
        <time>2012-07-05T14:01:34Z</time>
      </trkpt>
      <trkpt lat="43.153337" lon="-5.965786">
        <ele>531.0</ele>
        <time>2012-07-05T14:01:38Z</time>
      </trkpt>
      <trkpt lat="43.153343" lon="-5.965484">
        <ele>531.0</ele>
        <time>2012-07-05T14:01:42Z</time>
      </trkpt>
      <trkpt lat="43.153336" lon="-5.965151">
        <ele>531.0</ele>
        <time>2012-07-05T14:01:46Z</time>
      </trkpt>
      <trkpt lat="43.15332" lon="-5.964781">
        <ele>531.0</ele>
        <time>2012-07-05T14:01:50Z</time>
      </trkpt>
      <trkpt lat="43.153285" lon="-5.9644">
        <ele>531.0</ele>
        <time>2012-07-05T14:01:54Z</time>
      </trkpt>
      <trkpt lat="43.153208" lon="-5.964007">
        <ele>532.0</ele>
        <time>2012-07-05T14:01:58Z</time>
      </trkpt>
      <trkpt lat="43.153121" lon="-5.963637">
        <ele>532.0</ele>
        <time>2012-07-05T14:02:02Z</time>
      </trkpt>
      <trkpt lat="43.153014" lon="-5.963287">
        <ele>531.0</ele>
        <time>2012-07-05T14:02:06Z</time>
      </trkpt>
      <trkpt lat="43.152838" lon="-5.963026">
        <ele>531.0</ele>
        <time>2012-07-05T14:02:10Z</time>
      </trkpt>
      <trkpt lat="43.152498" lon="-5.962916">
        <ele>532.0</ele>
        <time>2012-07-05T14:02:14Z</time>
      </trkpt>
      <trkpt lat="43.152177" lon="-5.962718">
        <ele>532.0</ele>
        <time>2012-07-05T14:02:18Z</time>
      </trkpt>
      <trkpt lat="43.151875" lon="-5.962475">
        <ele>532.0</ele>
        <time>2012-07-05T14:02:22Z</time>
      </trkpt>
      <trkpt lat="43.151628" lon="-5.96227">
        <ele>532.0</ele>
        <time>2012-07-05T14:02:25Z</time>
      </trkpt>
      <trkpt lat="43.151142" lon="-5.961911">
        <ele>532.0</ele>
        <time>2012-07-05T14:02:30Z</time>
      </trkpt>
      <trkpt lat="43.150799" lon="-5.961537">
        <ele>532.0</ele>
        <time>2012-07-05T14:02:34Z</time>
      </trkpt>
      <trkpt lat="43.150526" lon="-5.961108">
        <ele>532.0</ele>
        <time>2012-07-05T14:02:38Z</time>
      </trkpt>
      <trkpt lat="43.15027" lon="-5.960701">
        <ele>532.0</ele>
        <time>2012-07-05T14:02:42Z</time>
      </trkpt>
      <trkpt lat="43.150033" lon="-5.960318">
        <ele>533.0</ele>
        <time>2012-07-05T14:02:46Z</time>
      </trkpt>
      <trkpt lat="43.149647" lon="-5.960244">
        <ele>533.0</ele>
        <time>2012-07-05T14:02:50Z</time>
      </trkpt>
      <trkpt lat="43.149265" lon="-5.960191">
        <ele>534.0</ele>
        <time>2012-07-05T14:02:54Z</time>
      </trkpt>
      <trkpt lat="43.148907" lon="-5.959981">
        <ele>535.0</ele>
        <time>2012-07-05T14:02:58Z</time>
      </trkpt>
      <trkpt lat="43.148536" lon="-5.95971">
        <ele>536.0</ele>
        <time>2012-07-05T14:03:02Z</time>
      </trkpt>
      <trkpt lat="43.14846" lon="-5.959401">
        <ele>538.0</ele>
        <time>2012-07-05T14:03:06Z</time>
      </trkpt>
      <trkpt lat="43.148794" lon="-5.959076">
        <ele>539.0</ele>
        <time>2012-07-05T14:03:10Z</time>
      </trkpt>
      <trkpt lat="43.149094" lon="-5.958886">
        <ele>540.0</ele>
        <time>2012-07-05T14:03:14Z</time>
      </trkpt>
      <trkpt lat="43.149279" lon="-5.958775">
        <ele>541.0</ele>
        <time>2012-07-05T14:03:17Z</time>
      </trkpt>
      <trkpt lat="43.14947" lon="-5.958605">
        <ele>542.0</ele>
        <time>2012-07-05T14:03:21Z</time>
      </trkpt>
      <trkpt lat="43.149494" lon="-5.958293">
        <ele>543.0</ele>
        <time>2012-07-05T14:03:25Z</time>
      </trkpt>
      <trkpt lat="43.14949" lon="-5.958025">
        <ele>544.0</ele>
        <time>2012-07-05T14:03:29Z</time>
      </trkpt>
      <trkpt lat="43.149443" lon="-5.957795">
        <ele>545.0</ele>
        <time>2012-07-05T14:03:33Z</time>
      </trkpt>
      <trkpt lat="43.149382" lon="-5.957604">
        <ele>545.0</ele>
        <time>2012-07-05T14:03:37Z</time>
      </trkpt>
      <trkpt lat="43.149304" lon="-5.957427">
        <ele>546.0</ele>
        <time>2012-07-05T14:03:41Z</time>
      </trkpt>
      <trkpt lat="43.149211" lon="-5.957236">
        <ele>547.0</ele>
        <time>2012-07-05T14:03:45Z</time>
      </trkpt>
      <trkpt lat="43.14909" lon="-5.957043">
        <ele>548.0</ele>
        <time>2012-07-05T14:03:49Z</time>
      </trkpt>
      <trkpt lat="43.14898" lon="-5.956848">
        <ele>549.0</ele>
        <time>2012-07-05T14:03:53Z</time>
      </trkpt>
      <trkpt lat="43.148881" lon="-5.956649">
        <ele>550.0</ele>
        <time>2012-07-05T14:03:57Z</time>
      </trkpt>
      <trkpt lat="43.148796" lon="-5.956432">
        <ele>551.0</ele>
        <time>2012-07-05T14:04:01Z</time>
      </trkpt>
      <trkpt lat="43.148723" lon="-5.956187">
        <ele>551.0</ele>
        <time>2012-07-05T14:04:05Z</time>
      </trkpt>
      <trkpt lat="43.148663" lon="-5.95593">
        <ele>552.0</ele>
        <time>2012-07-05T14:04:09Z</time>
      </trkpt>
      <trkpt lat="43.148608" lon="-5.955669">
        <ele>552.0</ele>
        <time>2012-07-05T14:04:13Z</time>
      </trkpt>
      <trkpt lat="43.148575" lon="-5.955411">
        <ele>552.0</ele>
        <time>2012-07-05T14:04:17Z</time>
      </trkpt>
      <trkpt lat="43.148567" lon="-5.955147">
        <ele>553.0</ele>
        <time>2012-07-05T14:04:21Z</time>
      </trkpt>
      <trkpt lat="43.148522" lon="-5.9549">
        <ele>553.0</ele>
        <time>2012-07-05T14:04:25Z</time>
      </trkpt>
      <trkpt lat="43.1485" lon="-5.954656">
        <ele>554.0</ele>
        <time>2012-07-05T14:04:29Z</time>
      </trkpt>
      <trkpt lat="43.148487" lon="-5.954414">
        <ele>554.0</ele>
        <time>2012-07-05T14:04:33Z</time>
      </trkpt>
      <trkpt lat="43.14848" lon="-5.954173">
        <ele>554.0</ele>
        <time>2012-07-05T14:04:37Z</time>
      </trkpt>
      <trkpt lat="43.148465" lon="-5.953938">
        <ele>554.0</ele>
        <time>2012-07-05T14:04:41Z</time>
      </trkpt>
      <trkpt lat="43.148478" lon="-5.953704">
        <ele>555.0</ele>
        <time>2012-07-05T14:04:45Z</time>
      </trkpt>
      <trkpt lat="43.148545" lon="-5.953472">
        <ele>555.0</ele>
        <time>2012-07-05T14:04:49Z</time>
      </trkpt>
      <trkpt lat="43.148623" lon="-5.953251">
        <ele>556.0</ele>
        <time>2012-07-05T14:04:53Z</time>
      </trkpt>
      <trkpt lat="43.148704" lon="-5.953043">
        <ele>557.0</ele>
        <time>2012-07-05T14:04:57Z</time>
      </trkpt>
      <trkpt lat="43.148792" lon="-5.952855">
        <ele>558.0</ele>
        <time>2012-07-05T14:05:01Z</time>
      </trkpt>
      <trkpt lat="43.148887" lon="-5.952689">
        <ele>558.0</ele>
        <time>2012-07-05T14:05:05Z</time>
      </trkpt>
      <trkpt lat="43.148973" lon="-5.952524">
        <ele>559.0</ele>
        <time>2012-07-05T14:05:09Z</time>
      </trkpt>
      <trkpt lat="43.149045" lon="-5.952353">
        <ele>559.0</ele>
        <time>2012-07-05T14:05:13Z</time>
      </trkpt>
      <trkpt lat="43.149097" lon="-5.952147">
        <ele>559.0</ele>
        <time>2012-07-05T14:05:18Z</time>
      </trkpt>
      <trkpt lat="43.149141" lon="-5.95198">
        <ele>559.0</ele>
        <time>2012-07-05T14:05:22Z</time>
      </trkpt>
      <trkpt lat="43.149185" lon="-5.951809">
        <ele>559.0</ele>
        <time>2012-07-05T14:05:26Z</time>
      </trkpt>
      <trkpt lat="43.149231" lon="-5.951634">
        <ele>559.0</ele>
        <time>2012-07-05T14:05:30Z</time>
      </trkpt>
      <trkpt lat="43.149265" lon="-5.95145">
        <ele>559.0</ele>
        <time>2012-07-05T14:05:34Z</time>
      </trkpt>
      <trkpt lat="43.14929" lon="-5.951261">
        <ele>559.0</ele>
        <time>2012-07-05T14:05:38Z</time>
      </trkpt>
      <trkpt lat="43.149324" lon="-5.951077">
        <ele>559.0</ele>
        <time>2012-07-05T14:05:42Z</time>
      </trkpt>
      <trkpt lat="43.149364" lon="-5.950898">
        <ele>559.0</ele>
        <time>2012-07-05T14:05:46Z</time>
      </trkpt>
      <trkpt lat="43.149431" lon="-5.950738">
        <ele>559.0</ele>
        <time>2012-07-05T14:05:50Z</time>
      </trkpt>
      <trkpt lat="43.149514" lon="-5.950582">
        <ele>559.0</ele>
        <time>2012-07-05T14:05:54Z</time>
      </trkpt>
      <trkpt lat="43.149585" lon="-5.950414">
        <ele>559.0</ele>
        <time>2012-07-05T14:05:58Z</time>
      </trkpt>
      <trkpt lat="43.14967" lon="-5.95025">
        <ele>559.0</ele>
        <time>2012-07-05T14:06:02Z</time>
      </trkpt>
      <trkpt lat="43.149733" lon="-5.950045">
        <ele>559.0</ele>
        <time>2012-07-05T14:06:06Z</time>
      </trkpt>
      <trkpt lat="43.149782" lon="-5.949823">
        <ele>560.0</ele>
        <time>2012-07-05T14:06:10Z</time>
      </trkpt>
      <trkpt lat="43.149823" lon="-5.949607">
        <ele>560.0</ele>
        <time>2012-07-05T14:06:14Z</time>
      </trkpt>
      <trkpt lat="43.14986" lon="-5.94952">
        <ele>560.0</ele>
        <time>2012-07-05T14:06:16Z</time>
      </trkpt>
      <trkpt lat="43.14996" lon="-5.949277">
        <ele>560.0</ele>
        <time>2012-07-05T14:06:22Z</time>
      </trkpt>
      <trkpt lat="43.150041" lon="-5.949101">
        <ele>560.0</ele>
        <time>2012-07-05T14:06:26Z</time>
      </trkpt>
      <trkpt lat="43.150124" lon="-5.94892">
        <ele>561.0</ele>
        <time>2012-07-05T14:06:30Z</time>
      </trkpt>
      <trkpt lat="43.150264" lon="-5.948831">
        <ele>563.0</ele>
        <time>2012-07-05T14:06:34Z</time>
      </trkpt>
      <trkpt lat="43.150417" lon="-5.948758">
        <ele>564.0</ele>
        <time>2012-07-05T14:06:38Z</time>
      </trkpt>
      <trkpt lat="43.150526" lon="-5.948627">
        <ele>567.0</ele>
        <time>2012-07-05T14:06:42Z</time>
      </trkpt>
      <trkpt lat="43.150581" lon="-5.948583">
        <ele>570.0</ele>
        <time>2012-07-05T14:06:45Z</time>
      </trkpt>
      <trkpt lat="43.150631" lon="-5.948677">
        <ele>571.0</ele>
        <time>2012-07-05T14:06:50Z</time>
      </trkpt>
      <trkpt lat="43.150721" lon="-5.948827">
        <ele>572.0</ele>
        <time>2012-07-05T14:06:54Z</time>
      </trkpt>
      <trkpt lat="43.150845" lon="-5.948989">
        <ele>579.0</ele>
        <time>2012-07-05T14:06:58Z</time>
      </trkpt>
      <trkpt lat="43.150958" lon="-5.949175">
        <ele>587.0</ele>
        <time>2012-07-05T14:07:02Z</time>
      </trkpt>
      <trkpt lat="43.151079" lon="-5.949324">
        <ele>589.0</ele>
        <time>2012-07-05T14:07:06Z</time>
      </trkpt>
      <trkpt lat="43.151203" lon="-5.949452">
        <ele>591.0</ele>
        <time>2012-07-05T14:07:10Z</time>
      </trkpt>
      <trkpt lat="43.151316" lon="-5.949594">
        <ele>593.0</ele>
        <time>2012-07-05T14:07:14Z</time>
      </trkpt>
      <trkpt lat="43.151432" lon="-5.94973">
        <ele>593.0</ele>
        <time>2012-07-05T14:07:18Z</time>
      </trkpt>
      <trkpt lat="43.151574" lon="-5.949765">
        <ele>593.0</ele>
        <time>2012-07-05T14:07:22Z</time>
      </trkpt>
      <trkpt lat="43.15175" lon="-5.94976">
        <ele>593.0</ele>
        <time>2012-07-05T14:07:26Z</time>
      </trkpt>
      <trkpt lat="43.15194" lon="-5.949689">
        <ele>593.0</ele>
        <time>2012-07-05T14:07:30Z</time>
      </trkpt>
      <trkpt lat="43.152114" lon="-5.94958">
        <ele>593.0</ele>
        <time>2012-07-05T14:07:34Z</time>
      </trkpt>
      <trkpt lat="43.152258" lon="-5.949499">
        <ele>593.0</ele>
        <time>2012-07-05T14:07:38Z</time>
      </trkpt>
      <trkpt lat="43.152385" lon="-5.949416">
        <ele>594.0</ele>
        <time>2012-07-05T14:07:42Z</time>
      </trkpt>
      <trkpt lat="43.152517" lon="-5.949348">
        <ele>595.0</ele>
        <time>2012-07-05T14:07:46Z</time>
      </trkpt>
      <trkpt lat="43.152651" lon="-5.949384">
        <ele>594.0</ele>
        <time>2012-07-05T14:07:50Z</time>
      </trkpt>
      <trkpt lat="43.152771" lon="-5.949485">
        <ele>594.0</ele>
        <time>2012-07-05T14:07:54Z</time>
      </trkpt>
      <trkpt lat="43.152885" lon="-5.949583">
        <ele>595.0</ele>
        <time>2012-07-05T14:07:58Z</time>
      </trkpt>
      <trkpt lat="43.153025" lon="-5.949632">
        <ele>595.0</ele>
        <time>2012-07-05T14:08:02Z</time>
      </trkpt>
      <trkpt lat="43.153194" lon="-5.949621">
        <ele>595.0</ele>
        <time>2012-07-05T14:08:06Z</time>
      </trkpt>
      <trkpt lat="43.153376" lon="-5.949603">
        <ele>595.0</ele>
        <time>2012-07-05T14:08:10Z</time>
      </trkpt>
      <trkpt lat="43.153541" lon="-5.94957">
        <ele>595.0</ele>
        <time>2012-07-05T14:08:14Z</time>
      </trkpt>
      <trkpt lat="43.153604" lon="-5.94952">
        <ele>595.0</ele>
        <time>2012-07-05T14:08:16Z</time>
      </trkpt>
      <trkpt lat="43.153695" lon="-5.949323">
        <ele>595.0</ele>
        <time>2012-07-05T14:08:21Z</time>
      </trkpt>
      <trkpt lat="43.153784" lon="-5.949168">
        <ele>596.0</ele>
        <time>2012-07-05T14:08:25Z</time>
      </trkpt>
      <trkpt lat="43.153783" lon="-5.948936">
        <ele>596.0</ele>
        <time>2012-07-05T14:08:29Z</time>
      </trkpt>
      <trkpt lat="43.153653" lon="-5.948651">
        <ele>596.0</ele>
        <time>2012-07-05T14:08:33Z</time>
      </trkpt>
      <trkpt lat="43.153524" lon="-5.948413">
        <ele>597.0</ele>
        <time>2012-07-05T14:08:37Z</time>
      </trkpt>
      <trkpt lat="43.153415" lon="-5.948256">
        <ele>598.0</ele>
        <time>2012-07-05T14:08:41Z</time>
      </trkpt>
      <trkpt lat="43.153303" lon="-5.948161">
        <ele>599.0</ele>
        <time>2012-07-05T14:08:45Z</time>
      </trkpt>
      <trkpt lat="43.153164" lon="-5.948092">
        <ele>600.0</ele>
        <time>2012-07-05T14:08:49Z</time>
      </trkpt>
      <trkpt lat="43.153002" lon="-5.948021">
        <ele>601.0</ele>
        <time>2012-07-05T14:08:53Z</time>
      </trkpt>
      <trkpt lat="43.1528" lon="-5.947951">
        <ele>602.0</ele>
        <time>2012-07-05T14:08:57Z</time>
      </trkpt>
      <trkpt lat="43.152594" lon="-5.947853">
        <ele>602.0</ele>
        <time>2012-07-05T14:09:01Z</time>
      </trkpt>
      <trkpt lat="43.152391" lon="-5.947743">
        <ele>603.0</ele>
        <time>2012-07-05T14:09:05Z</time>
      </trkpt>
      <trkpt lat="43.152196" lon="-5.9476">
        <ele>604.0</ele>
        <time>2012-07-05T14:09:09Z</time>
      </trkpt>
      <trkpt lat="43.152031" lon="-5.947431">
        <ele>605.0</ele>
        <time>2012-07-05T14:09:13Z</time>
      </trkpt>
      <trkpt lat="43.151876" lon="-5.947288">
        <ele>605.0</ele>
        <time>2012-07-05T14:09:17Z</time>
      </trkpt>
      <trkpt lat="43.151738" lon="-5.947156">
        <ele>606.0</ele>
        <time>2012-07-05T14:09:21Z</time>
      </trkpt>
      <trkpt lat="43.151607" lon="-5.947011">
        <ele>607.0</ele>
        <time>2012-07-05T14:09:25Z</time>
      </trkpt>
      <trkpt lat="43.151484" lon="-5.946838">
        <ele>607.0</ele>
        <time>2012-07-05T14:09:29Z</time>
      </trkpt>
      <trkpt lat="43.151387" lon="-5.946636">
        <ele>608.0</ele>
        <time>2012-07-05T14:09:33Z</time>
      </trkpt>
      <trkpt lat="43.151341" lon="-5.946541">
        <ele>608.0</ele>
        <time>2012-07-05T14:09:35Z</time>
      </trkpt>
      <trkpt lat="43.151215" lon="-5.946285">
        <ele>608.0</ele>
        <time>2012-07-05T14:09:41Z</time>
      </trkpt>
      <trkpt lat="43.151136" lon="-5.94612">
        <ele>609.0</ele>
        <time>2012-07-05T14:09:45Z</time>
      </trkpt>
      <trkpt lat="43.151072" lon="-5.945942">
        <ele>609.0</ele>
        <time>2012-07-05T14:09:49Z</time>
      </trkpt>
      <trkpt lat="43.151037" lon="-5.945748">
        <ele>610.0</ele>
        <time>2012-07-05T14:09:53Z</time>
      </trkpt>
      <trkpt lat="43.150999" lon="-5.945548">
        <ele>610.0</ele>
        <time>2012-07-05T14:09:58Z</time>
      </trkpt>
      <trkpt lat="43.150966" lon="-5.945466">
        <ele>611.0</ele>
        <time>2012-07-05T14:10:01Z</time>
      </trkpt>
      <trkpt lat="43.150915" lon="-5.945374">
        <ele>611.0</ele>
        <time>2012-07-05T14:10:04Z</time>
      </trkpt>
      <trkpt lat="43.150794" lon="-5.945224">
        <ele>613.0</ele>
        <time>2012-07-05T14:10:10Z</time>
      </trkpt>
      <trkpt lat="43.150724" lon="-5.945182">
        <ele>614.0</ele>
        <time>2012-07-05T14:10:13Z</time>
      </trkpt>
      <trkpt lat="43.150599" lon="-5.945087">
        <ele>615.0</ele>
        <time>2012-07-05T14:10:18Z</time>
      </trkpt>
      <trkpt lat="43.15049" lon="-5.944975">
        <ele>617.0</ele>
        <time>2012-07-05T14:10:22Z</time>
      </trkpt>
      <trkpt lat="43.15039" lon="-5.944839">
        <ele>619.0</ele>
        <time>2012-07-05T14:10:26Z</time>
      </trkpt>
      <trkpt lat="43.150349" lon="-5.944769">
        <ele>620.0</ele>
        <time>2012-07-05T14:10:28Z</time>
      </trkpt>
      <trkpt lat="43.15038" lon="-5.944527">
        <ele>622.0</ele>
        <time>2012-07-05T14:10:33Z</time>
      </trkpt>
      <trkpt lat="43.150465" lon="-5.944312">
        <ele>624.0</ele>
        <time>2012-07-05T14:10:37Z</time>
      </trkpt>
      <trkpt lat="43.150616" lon="-5.94407">
        <ele>626.0</ele>
        <time>2012-07-05T14:10:41Z</time>
      </trkpt>
      <trkpt lat="43.150777" lon="-5.943887">
        <ele>627.0</ele>
        <time>2012-07-05T14:10:45Z</time>
      </trkpt>
      <trkpt lat="43.150957" lon="-5.943802">
        <ele>629.0</ele>
        <time>2012-07-05T14:10:49Z</time>
      </trkpt>
      <trkpt lat="43.151095" lon="-5.943728">
        <ele>630.0</ele>
        <time>2012-07-05T14:10:53Z</time>
      </trkpt>
      <trkpt lat="43.151214" lon="-5.943636">
        <ele>631.0</ele>
        <time>2012-07-05T14:10:57Z</time>
      </trkpt>
      <trkpt lat="43.151333" lon="-5.943539">
        <ele>631.0</ele>
        <time>2012-07-05T14:11:01Z</time>
      </trkpt>
      <trkpt lat="43.151449" lon="-5.943447">
        <ele>632.0</ele>
        <time>2012-07-05T14:11:05Z</time>
      </trkpt>
      <trkpt lat="43.151565" lon="-5.943357">
        <ele>632.0</ele>
        <time>2012-07-05T14:11:09Z</time>
      </trkpt>
      <trkpt lat="43.15168" lon="-5.943274">
        <ele>633.0</ele>
        <time>2012-07-05T14:11:13Z</time>
      </trkpt>
      <trkpt lat="43.151799" lon="-5.943196">
        <ele>633.0</ele>
        <time>2012-07-05T14:11:17Z</time>
      </trkpt>
      <trkpt lat="43.15192" lon="-5.943112">
        <ele>633.0</ele>
        <time>2012-07-05T14:11:21Z</time>
      </trkpt>
      <trkpt lat="43.152045" lon="-5.943032">
        <ele>634.0</ele>
        <time>2012-07-05T14:11:25Z</time>
      </trkpt>
      <trkpt lat="43.152166" lon="-5.942953">
        <ele>634.0</ele>
        <time>2012-07-05T14:11:29Z</time>
      </trkpt>
      <trkpt lat="43.152279" lon="-5.942866">
        <ele>634.0</ele>
        <time>2012-07-05T14:11:33Z</time>
      </trkpt>
      <trkpt lat="43.15236" lon="-5.942799">
        <ele>635.0</ele>
        <time>2012-07-05T14:11:36Z</time>
      </trkpt>
      <trkpt lat="43.152428" lon="-5.942591">
        <ele>635.0</ele>
        <time>2012-07-05T14:11:41Z</time>
      </trkpt>
      <trkpt lat="43.152456" lon="-5.942488">
        <ele>637.0</ele>
        <time>2012-07-05T14:11:44Z</time>
      </trkpt>
      <trkpt lat="43.152502" lon="-5.942429">
        <ele>638.0</ele>
        <time>2012-07-05T14:11:48Z</time>
      </trkpt>
      <trkpt lat="43.152537" lon="-5.942343">
        <ele>640.0</ele>
        <time>2012-07-05T14:11:53Z</time>
      </trkpt>
      <trkpt lat="43.152515" lon="-5.942259">
        <ele>641.0</ele>
        <time>2012-07-05T14:11:57Z</time>
      </trkpt>
      <trkpt lat="43.1524" lon="-5.942118">
        <ele>642.0</ele>
        <time>2012-07-05T14:12:02Z</time>
      </trkpt>
      <trkpt lat="43.152255" lon="-5.941994">
        <ele>642.0</ele>
        <time>2012-07-05T14:12:06Z</time>
      </trkpt>
      <trkpt lat="43.152176" lon="-5.941933">
        <ele>642.0</ele>
        <time>2012-07-05T14:12:08Z</time>
      </trkpt>
      <trkpt lat="43.151931" lon="-5.941761">
        <ele>642.0</ele>
        <time>2012-07-05T14:12:14Z</time>
      </trkpt>
      <trkpt lat="43.151773" lon="-5.94165">
        <ele>642.0</ele>
        <time>2012-07-05T14:12:18Z</time>
      </trkpt>
      <trkpt lat="43.151614" lon="-5.941536">
        <ele>642.0</ele>
        <time>2012-07-05T14:12:22Z</time>
      </trkpt>
      <trkpt lat="43.151531" lon="-5.941477">
        <ele>642.0</ele>
        <time>2012-07-05T14:12:24Z</time>
      </trkpt>
      <trkpt lat="43.151286" lon="-5.94129">
        <ele>641.0</ele>
        <time>2012-07-05T14:12:30Z</time>
      </trkpt>
      <trkpt lat="43.151134" lon="-5.941143">
        <ele>641.0</ele>
        <time>2012-07-05T14:12:34Z</time>
      </trkpt>
      <trkpt lat="43.15106" lon="-5.941066">
        <ele>641.0</ele>
        <time>2012-07-05T14:12:36Z</time>
      </trkpt>
      <trkpt lat="43.150806" lon="-5.940778">
        <ele>640.0</ele>
        <time>2012-07-05T14:12:42Z</time>
      </trkpt>
      <trkpt lat="43.150646" lon="-5.94062">
        <ele>640.0</ele>
        <time>2012-07-05T14:12:46Z</time>
      </trkpt>
      <trkpt lat="43.150511" lon="-5.940477">
        <ele>640.0</ele>
        <time>2012-07-05T14:12:50Z</time>
      </trkpt>
      <trkpt lat="43.150407" lon="-5.940337">
        <ele>639.0</ele>
        <time>2012-07-05T14:12:54Z</time>
      </trkpt>
      <trkpt lat="43.150341" lon="-5.94018">
        <ele>639.0</ele>
        <time>2012-07-05T14:12:58Z</time>
      </trkpt>
      <trkpt lat="43.150317" lon="-5.9401">
        <ele>639.0</ele>
        <time>2012-07-05T14:13:00Z</time>
      </trkpt>
      <trkpt lat="43.15031" lon="-5.939869">
        <ele>639.0</ele>
        <time>2012-07-05T14:13:05Z</time>
      </trkpt>
      <trkpt lat="43.150341" lon="-5.939673">
        <ele>639.0</ele>
        <time>2012-07-05T14:13:09Z</time>
      </trkpt>
      <trkpt lat="43.150378" lon="-5.939484">
        <ele>640.0</ele>
        <time>2012-07-05T14:13:13Z</time>
      </trkpt>
      <trkpt lat="43.150409" lon="-5.939307">
        <ele>640.0</ele>
        <time>2012-07-05T14:13:17Z</time>
      </trkpt>
      <trkpt lat="43.150434" lon="-5.939134">
        <ele>640.0</ele>
        <time>2012-07-05T14:13:21Z</time>
      </trkpt>
      <trkpt lat="43.150445" lon="-5.938957">
        <ele>640.0</ele>
        <time>2012-07-05T14:13:25Z</time>
      </trkpt>
      <trkpt lat="43.150441" lon="-5.938768">
        <ele>640.0</ele>
        <time>2012-07-05T14:13:29Z</time>
      </trkpt>
      <trkpt lat="43.150424" lon="-5.938563">
        <ele>640.0</ele>
        <time>2012-07-05T14:13:33Z</time>
      </trkpt>
      <trkpt lat="43.150395" lon="-5.938345">
        <ele>640.0</ele>
        <time>2012-07-05T14:13:37Z</time>
      </trkpt>
      <trkpt lat="43.150346" lon="-5.938124">
        <ele>640.0</ele>
        <time>2012-07-05T14:13:41Z</time>
      </trkpt>
      <trkpt lat="43.150273" lon="-5.937895">
        <ele>640.0</ele>
        <time>2012-07-05T14:13:45Z</time>
      </trkpt>
      <trkpt lat="43.150239" lon="-5.937802">
        <ele>640.0</ele>
        <time>2012-07-05T14:13:47Z</time>
      </trkpt>
      <trkpt lat="43.15009" lon="-5.937552">
        <ele>640.0</ele>
        <time>2012-07-05T14:13:53Z</time>
      </trkpt>
      <trkpt lat="43.149976" lon="-5.937417">
        <ele>641.0</ele>
        <time>2012-07-05T14:13:57Z</time>
      </trkpt>
      <trkpt lat="43.14987" lon="-5.937297">
        <ele>641.0</ele>
        <time>2012-07-05T14:14:01Z</time>
      </trkpt>
      <trkpt lat="43.149772" lon="-5.93718">
        <ele>642.0</ele>
        <time>2012-07-05T14:14:05Z</time>
      </trkpt>
      <trkpt lat="43.149683" lon="-5.937035">
        <ele>644.0</ele>
        <time>2012-07-05T14:14:10Z</time>
      </trkpt>
      <trkpt lat="43.149687" lon="-5.936924">
        <ele>645.0</ele>
        <time>2012-07-05T14:14:13Z</time>
      </trkpt>
      <trkpt lat="43.149714" lon="-5.936814">
        <ele>646.0</ele>
        <time>2012-07-05T14:14:16Z</time>
      </trkpt>
      <trkpt lat="43.14983" lon="-5.93669">
        <ele>648.0</ele>
        <time>2012-07-05T14:14:21Z</time>
      </trkpt>
      <trkpt lat="43.150024" lon="-5.936758">
        <ele>649.0</ele>
        <time>2012-07-05T14:14:25Z</time>
      </trkpt>
      <trkpt lat="43.150234" lon="-5.936883">
        <ele>650.0</ele>
        <time>2012-07-05T14:14:29Z</time>
      </trkpt>
      <trkpt lat="43.150445" lon="-5.937032">
        <ele>651.0</ele>
        <time>2012-07-05T14:14:33Z</time>
      </trkpt>
      <trkpt lat="43.150652" lon="-5.937143">
        <ele>651.0</ele>
        <time>2012-07-05T14:14:37Z</time>
      </trkpt>
      <trkpt lat="43.15084" lon="-5.937166">
        <ele>652.0</ele>
        <time>2012-07-05T14:14:41Z</time>
      </trkpt>
      <trkpt lat="43.151002" lon="-5.937141">
        <ele>653.0</ele>
        <time>2012-07-05T14:14:45Z</time>
      </trkpt>
      <trkpt lat="43.151136" lon="-5.93707">
        <ele>654.0</ele>
        <time>2012-07-05T14:14:49Z</time>
      </trkpt>
      <trkpt lat="43.151258" lon="-5.936976">
        <ele>655.0</ele>
        <time>2012-07-05T14:14:53Z</time>
      </trkpt>
      <trkpt lat="43.151344" lon="-5.936815">
        <ele>656.0</ele>
        <time>2012-07-05T14:14:57Z</time>
      </trkpt>
      <trkpt lat="43.151408" lon="-5.936624">
        <ele>658.0</ele>
        <time>2012-07-05T14:15:01Z</time>
      </trkpt>
      <trkpt lat="43.151464" lon="-5.936425">
        <ele>659.0</ele>
        <time>2012-07-05T14:15:05Z</time>
      </trkpt>
      <trkpt lat="43.151523" lon="-5.936229">
        <ele>660.0</ele>
        <time>2012-07-05T14:15:09Z</time>
      </trkpt>
      <trkpt lat="43.151584" lon="-5.936046">
        <ele>662.0</ele>
        <time>2012-07-05T14:15:13Z</time>
      </trkpt>
      <trkpt lat="43.151636" lon="-5.935878">
        <ele>663.0</ele>
        <time>2012-07-05T14:15:17Z</time>
      </trkpt>
      <trkpt lat="43.151675" lon="-5.935711">
        <ele>665.0</ele>
        <time>2012-07-05T14:15:21Z</time>
      </trkpt>
      <trkpt lat="43.15171" lon="-5.935594">
        <ele>667.0</ele>
        <time>2012-07-05T14:15:24Z</time>
      </trkpt>
      <trkpt lat="43.151782" lon="-5.935367">
        <ele>669.0</ele>
        <time>2012-07-05T14:15:30Z</time>
      </trkpt>
      <trkpt lat="43.151811" lon="-5.935251">
        <ele>671.0</ele>
        <time>2012-07-05T14:15:33Z</time>
      </trkpt>
      <trkpt lat="43.151813" lon="-5.93505">
        <ele>673.0</ele>
        <time>2012-07-05T14:15:37Z</time>
      </trkpt>
      <trkpt lat="43.151806" lon="-5.934825">
        <ele>679.0</ele>
        <time>2012-07-05T14:15:41Z</time>
      </trkpt>
      <trkpt lat="43.151781" lon="-5.934575">
        <ele>690.0</ele>
        <time>2012-07-05T14:15:45Z</time>
      </trkpt>
      <trkpt lat="43.151756" lon="-5.934326">
        <ele>695.0</ele>
        <time>2012-07-05T14:15:49Z</time>
      </trkpt>
      <trkpt lat="43.151735" lon="-5.934089">
        <ele>698.0</ele>
        <time>2012-07-05T14:15:53Z</time>
      </trkpt>
      <trkpt lat="43.151716" lon="-5.93386">
        <ele>699.0</ele>
        <time>2012-07-05T14:15:57Z</time>
      </trkpt>
      <trkpt lat="43.151685" lon="-5.933643">
        <ele>699.0</ele>
        <time>2012-07-05T14:16:01Z</time>
      </trkpt>
      <trkpt lat="43.151627" lon="-5.933415">
        <ele>699.0</ele>
        <time>2012-07-05T14:16:05Z</time>
      </trkpt>
      <trkpt lat="43.15155" lon="-5.933192">
        <ele>699.0</ele>
        <time>2012-07-05T14:16:09Z</time>
      </trkpt>
      <trkpt lat="43.151463" lon="-5.932982">
        <ele>699.0</ele>
        <time>2012-07-05T14:16:13Z</time>
      </trkpt>
      <trkpt lat="43.151359" lon="-5.932751">
        <ele>704.0</ele>
        <time>2012-07-05T14:16:17Z</time>
      </trkpt>
      <trkpt lat="43.151259" lon="-5.932519">
        <ele>708.0</ele>
        <time>2012-07-05T14:16:21Z</time>
      </trkpt>
      <trkpt lat="43.151186" lon="-5.932286">
        <ele>712.0</ele>
        <time>2012-07-05T14:16:25Z</time>
      </trkpt>
      <trkpt lat="43.15115" lon="-5.932063">
        <ele>714.0</ele>
        <time>2012-07-05T14:16:29Z</time>
      </trkpt>
      <trkpt lat="43.151164" lon="-5.931861">
        <ele>715.0</ele>
        <time>2012-07-05T14:16:33Z</time>
      </trkpt>
      <trkpt lat="43.151254" lon="-5.931675">
        <ele>716.0</ele>
        <time>2012-07-05T14:16:37Z</time>
      </trkpt>
      <trkpt lat="43.151344" lon="-5.931499">
        <ele>716.0</ele>
        <time>2012-07-05T14:16:41Z</time>
      </trkpt>
      <trkpt lat="43.151452" lon="-5.931341">
        <ele>716.0</ele>
        <time>2012-07-05T14:16:45Z</time>
      </trkpt>
      <trkpt lat="43.15151" lon="-5.931282">
        <ele>716.0</ele>
        <time>2012-07-05T14:16:47Z</time>
      </trkpt>
      <trkpt lat="43.151656" lon="-5.9311">
        <ele>717.0</ele>
        <time>2012-07-05T14:16:53Z</time>
      </trkpt>
      <trkpt lat="43.151726" lon="-5.931026">
        <ele>717.0</ele>
        <time>2012-07-05T14:16:56Z</time>
      </trkpt>
      <trkpt lat="43.151795" lon="-5.930965">
        <ele>717.0</ele>
        <time>2012-07-05T14:16:59Z</time>
      </trkpt>
      <trkpt lat="43.152017" lon="-5.930859">
        <ele>717.0</ele>
        <time>2012-07-05T14:17:06Z</time>
      </trkpt>
      <trkpt lat="43.152166" lon="-5.93088">
        <ele>718.0</ele>
        <time>2012-07-05T14:17:10Z</time>
      </trkpt>
      <trkpt lat="43.152314" lon="-5.930926">
        <ele>718.0</ele>
        <time>2012-07-05T14:17:14Z</time>
      </trkpt>
      <trkpt lat="43.152464" lon="-5.930955">
        <ele>718.0</ele>
        <time>2012-07-05T14:17:18Z</time>
      </trkpt>
      <trkpt lat="43.152611" lon="-5.931008">
        <ele>718.0</ele>
        <time>2012-07-05T14:17:22Z</time>
      </trkpt>
      <trkpt lat="43.152751" lon="-5.931037">
        <ele>718.0</ele>
        <time>2012-07-05T14:17:26Z</time>
      </trkpt>
      <trkpt lat="43.152814" lon="-5.931046">
        <ele>718.0</ele>
        <time>2012-07-05T14:17:28Z</time>
      </trkpt>
      <trkpt lat="43.152901" lon="-5.931066">
        <ele>718.0</ele>
        <time>2012-07-05T14:17:31Z</time>
      </trkpt>
      <trkpt lat="43.153053" lon="-5.931182">
        <ele>719.0</ele>
        <time>2012-07-05T14:17:37Z</time>
      </trkpt>
      <trkpt lat="43.153091" lon="-5.931262">
        <ele>719.0</ele>
        <time>2012-07-05T14:17:39Z</time>
      </trkpt>
      <trkpt lat="43.153224" lon="-5.931482">
        <ele>719.0</ele>
        <time>2012-07-05T14:17:45Z</time>
      </trkpt>
      <trkpt lat="43.153318" lon="-5.93161">
        <ele>719.0</ele>
        <time>2012-07-05T14:17:49Z</time>
      </trkpt>
      <trkpt lat="43.153417" lon="-5.931738">
        <ele>719.0</ele>
        <time>2012-07-05T14:17:53Z</time>
      </trkpt>
      <trkpt lat="43.153528" lon="-5.931892">
        <ele>719.0</ele>
        <time>2012-07-05T14:17:57Z</time>
      </trkpt>
      <trkpt lat="43.15366" lon="-5.932042">
        <ele>720.0</ele>
        <time>2012-07-05T14:18:01Z</time>
      </trkpt>
      <trkpt lat="43.153778" lon="-5.932185">
        <ele>720.0</ele>
        <time>2012-07-05T14:18:05Z</time>
      </trkpt>
      <trkpt lat="43.153916" lon="-5.932244">
        <ele>721.0</ele>
        <time>2012-07-05T14:18:10Z</time>
      </trkpt>
      <trkpt lat="43.15396" lon="-5.932129">
        <ele>721.0</ele>
        <time>2012-07-05T14:18:13Z</time>
      </trkpt>
      <trkpt lat="43.154051" lon="-5.93197">
        <ele>723.0</ele>
        <time>2012-07-05T14:18:17Z</time>
      </trkpt>
      <trkpt lat="43.154163" lon="-5.931813">
        <ele>724.0</ele>
        <time>2012-07-05T14:18:21Z</time>
      </trkpt>
      <trkpt lat="43.154211" lon="-5.931718">
        <ele>725.0</ele>
        <time>2012-07-05T14:18:23Z</time>
      </trkpt>
      <trkpt lat="43.154297" lon="-5.931392">
        <ele>726.0</ele>
        <time>2012-07-05T14:18:29Z</time>
      </trkpt>
      <trkpt lat="43.154331" lon="-5.931169">
        <ele>727.0</ele>
        <time>2012-07-05T14:18:33Z</time>
      </trkpt>
      <trkpt lat="43.154388" lon="-5.930994">
        <ele>728.0</ele>
        <time>2012-07-05T14:18:37Z</time>
      </trkpt>
      <trkpt lat="43.154446" lon="-5.930904">
        <ele>729.0</ele>
        <time>2012-07-05T14:18:40Z</time>
      </trkpt>
      <trkpt lat="43.154524" lon="-5.930702">
        <ele>730.0</ele>
        <time>2012-07-05T14:18:46Z</time>
      </trkpt>
      <trkpt lat="43.154563" lon="-5.930598">
        <ele>730.0</ele>
        <time>2012-07-05T14:18:49Z</time>
      </trkpt>
      <trkpt lat="43.154602" lon="-5.930497">
        <ele>731.0</ele>
        <time>2012-07-05T14:18:52Z</time>
      </trkpt>
      <trkpt lat="43.154732" lon="-5.930344">
        <ele>731.0</ele>
        <time>2012-07-05T14:18:58Z</time>
      </trkpt>
      <trkpt lat="43.154793" lon="-5.930259">
        <ele>732.0</ele>
        <time>2012-07-05T14:19:01Z</time>
      </trkpt>
      <trkpt lat="43.15488" lon="-5.930219">
        <ele>732.0</ele>
        <time>2012-07-05T14:19:04Z</time>
      </trkpt>
      <trkpt lat="43.155057" lon="-5.93016">
        <ele>733.0</ele>
        <time>2012-07-05T14:19:10Z</time>
      </trkpt>
      <trkpt lat="43.155141" lon="-5.930137">
        <ele>733.0</ele>
        <time>2012-07-05T14:19:13Z</time>
      </trkpt>
      <trkpt lat="43.155224" lon="-5.930113">
        <ele>734.0</ele>
        <time>2012-07-05T14:19:16Z</time>
      </trkpt>
      <trkpt lat="43.155379" lon="-5.930055">
        <ele>734.0</ele>
        <time>2012-07-05T14:19:22Z</time>
      </trkpt>
      <trkpt lat="43.155454" lon="-5.930022">
        <ele>734.0</ele>
        <time>2012-07-05T14:19:25Z</time>
      </trkpt>
      <trkpt lat="43.155535" lon="-5.929999">
        <ele>734.0</ele>
        <time>2012-07-05T14:19:28Z</time>
      </trkpt>
      <trkpt lat="43.155617" lon="-5.929977">
        <ele>735.0</ele>
        <time>2012-07-05T14:19:31Z</time>
      </trkpt>
      <trkpt lat="43.155785" lon="-5.929898">
        <ele>735.0</ele>
        <time>2012-07-05T14:19:37Z</time>
      </trkpt>
      <trkpt lat="43.155868" lon="-5.929856">
        <ele>735.0</ele>
        <time>2012-07-05T14:19:40Z</time>
      </trkpt>
      <trkpt lat="43.15599" lon="-5.929698">
        <ele>737.0</ele>
        <time>2012-07-05T14:19:46Z</time>
      </trkpt>
      <trkpt lat="43.156022" lon="-5.929575">
        <ele>738.0</ele>
        <time>2012-07-05T14:19:49Z</time>
      </trkpt>
      <trkpt lat="43.156066" lon="-5.929409">
        <ele>740.0</ele>
        <time>2012-07-05T14:19:53Z</time>
      </trkpt>
      <trkpt lat="43.156126" lon="-5.929257">
        <ele>741.0</ele>
        <time>2012-07-05T14:19:57Z</time>
      </trkpt>
      <trkpt lat="43.15621" lon="-5.929077">
        <ele>742.0</ele>
        <time>2012-07-05T14:20:02Z</time>
      </trkpt>
      <trkpt lat="43.15621" lon="-5.929077">
        <time>2012-07-05T14:20:13Z</time>
      </trkpt>
    </trkseg>
    <trkseg>
      <trkpt lat="43.15621" lon="-5.929077">
        <time>2012-07-05T14:20:14Z</time>
      </trkpt>
      <trkpt lat="43.156476" lon="-5.928617">
        <ele>747.0</ele>
        <time>2012-07-05T14:20:17Z</time>
      </trkpt>
      <trkpt lat="43.156528" lon="-5.928535">
        <ele>748.0</ele>
        <time>2012-07-05T14:20:20Z</time>
      </trkpt>
      <trkpt lat="43.15664" lon="-5.92838">
        <ele>750.0</ele>
        <time>2012-07-05T14:20:26Z</time>
      </trkpt>
      <trkpt lat="43.156691" lon="-5.928295">
        <ele>751.0</ele>
        <time>2012-07-05T14:20:29Z</time>
      </trkpt>
      <trkpt lat="43.156784" lon="-5.928118">
        <ele>752.0</ele>
        <time>2012-07-05T14:20:35Z</time>
      </trkpt>
      <trkpt lat="43.156833" lon="-5.928031">
        <ele>753.0</ele>
        <time>2012-07-05T14:20:38Z</time>
      </trkpt>
      <trkpt lat="43.156989" lon="-5.927667">
        <ele>756.0</ele>
        <time>2012-07-05T14:20:50Z</time>
      </trkpt>
      <trkpt lat="43.157011" lon="-5.927566">
        <ele>757.0</ele>
        <time>2012-07-05T14:20:53Z</time>
      </trkpt>
      <trkpt lat="43.157061" lon="-5.927365">
        <ele>759.0</ele>
        <time>2012-07-05T14:20:59Z</time>
      </trkpt>
      <trkpt lat="43.157094" lon="-5.927267">
        <ele>760.0</ele>
        <time>2012-07-05T14:21:02Z</time>
      </trkpt>
      <trkpt lat="43.157128" lon="-5.927171">
        <ele>761.0</ele>
        <time>2012-07-05T14:21:05Z</time>
      </trkpt>
      <trkpt lat="43.157159" lon="-5.927077">
        <ele>762.0</ele>
        <time>2012-07-05T14:21:08Z</time>
      </trkpt>
      <trkpt lat="43.157176" lon="-5.926892">
        <ele>765.0</ele>
        <time>2012-07-05T14:21:14Z</time>
      </trkpt>
      <trkpt lat="43.157163" lon="-5.926803">
        <ele>766.0</ele>
        <time>2012-07-05T14:21:17Z</time>
      </trkpt>
      <trkpt lat="43.157214" lon="-5.926639">
        <ele>770.0</ele>
        <time>2012-07-05T14:21:24Z</time>
      </trkpt>
      <trkpt lat="43.157255" lon="-5.926705">
        <ele>777.0</ele>
        <time>2012-07-05T14:21:31Z</time>
      </trkpt>
      <trkpt lat="43.157251" lon="-5.926792">
        <ele>782.0</ele>
        <time>2012-07-05T14:21:35Z</time>
      </trkpt>
      <trkpt lat="43.157164" lon="-5.92683">
        <ele>786.0</ele>
        <time>2012-07-05T14:21:39Z</time>
      </trkpt>
      <trkpt lat="43.156967" lon="-5.926872">
        <ele>790.0</ele>
        <time>2012-07-05T14:21:43Z</time>
      </trkpt>
      <trkpt lat="43.156772" lon="-5.926904">
        <ele>794.0</ele>
        <time>2012-07-05T14:21:47Z</time>
      </trkpt>
      <trkpt lat="43.15656" lon="-5.926912">
        <ele>798.0</ele>
        <time>2012-07-05T14:21:51Z</time>
      </trkpt>
      <trkpt lat="43.156353" lon="-5.926915">
        <ele>801.0</ele>
        <time>2012-07-05T14:21:55Z</time>
      </trkpt>
      <trkpt lat="43.156148" lon="-5.926928">
        <ele>803.0</ele>
        <time>2012-07-05T14:21:59Z</time>
      </trkpt>
      <trkpt lat="43.155956" lon="-5.926932">
        <ele>806.0</ele>
        <time>2012-07-05T14:22:03Z</time>
      </trkpt>
      <trkpt lat="43.155777" lon="-5.926905">
        <ele>808.0</ele>
        <time>2012-07-05T14:22:07Z</time>
      </trkpt>
      <trkpt lat="43.155598" lon="-5.92684">
        <ele>811.0</ele>
        <time>2012-07-05T14:22:11Z</time>
      </trkpt>
      <trkpt lat="43.155433" lon="-5.926753">
        <ele>812.0</ele>
        <time>2012-07-05T14:22:15Z</time>
      </trkpt>
      <trkpt lat="43.155303" lon="-5.926599">
        <ele>814.0</ele>
        <time>2012-07-05T14:22:18Z</time>
      </trkpt>
      <trkpt lat="43.155114" lon="-5.92631">
        <ele>823.0</ele>
        <time>2012-07-05T14:22:22Z</time>
      </trkpt>
      <trkpt lat="43.154906" lon="-5.925979">
        <ele>841.0</ele>
        <time>2012-07-05T14:22:27Z</time>
      </trkpt>
      <trkpt lat="43.154783" lon="-5.925732">
        <ele>847.0</ele>
        <time>2012-07-05T14:22:31Z</time>
      </trkpt>
      <trkpt lat="43.154694" lon="-5.925499">
        <ele>850.0</ele>
        <time>2012-07-05T14:22:35Z</time>
      </trkpt>
      <trkpt lat="43.154637" lon="-5.925269">
        <ele>851.0</ele>
        <time>2012-07-05T14:22:39Z</time>
      </trkpt>
      <trkpt lat="43.154618" lon="-5.925028">
        <ele>851.0</ele>
        <time>2012-07-05T14:22:43Z</time>
      </trkpt>
      <trkpt lat="43.154636" lon="-5.924774">
        <ele>851.0</ele>
        <time>2012-07-05T14:22:47Z</time>
      </trkpt>
      <trkpt lat="43.154685" lon="-5.924509">
        <ele>850.0</ele>
        <time>2012-07-05T14:22:51Z</time>
      </trkpt>
      <trkpt lat="43.154739" lon="-5.924249">
        <ele>849.0</ele>
        <time>2012-07-05T14:22:55Z</time>
      </trkpt>
      <trkpt lat="43.154765" lon="-5.924006">
        <ele>849.0</ele>
        <time>2012-07-05T14:22:59Z</time>
      </trkpt>
      <trkpt lat="43.154746" lon="-5.923775">
        <ele>849.0</ele>
        <time>2012-07-05T14:23:03Z</time>
      </trkpt>
      <trkpt lat="43.154716" lon="-5.923553">
        <ele>850.0</ele>
        <time>2012-07-05T14:23:07Z</time>
      </trkpt>
      <trkpt lat="43.154707" lon="-5.923337">
        <ele>850.0</ele>
        <time>2012-07-05T14:23:11Z</time>
      </trkpt>
      <trkpt lat="43.154784" lon="-5.923125">
        <ele>849.0</ele>
        <time>2012-07-05T14:23:15Z</time>
      </trkpt>
      <trkpt lat="43.154911" lon="-5.922951">
        <ele>848.0</ele>
        <time>2012-07-05T14:23:19Z</time>
      </trkpt>
      <trkpt lat="43.154959" lon="-5.92286">
        <ele>848.0</ele>
        <time>2012-07-05T14:23:22Z</time>
      </trkpt>
      <trkpt lat="43.155075" lon="-5.922716">
        <ele>848.0</ele>
        <time>2012-07-05T14:23:27Z</time>
      </trkpt>
      <trkpt lat="43.155206" lon="-5.922597">
        <ele>848.0</ele>
        <time>2012-07-05T14:23:31Z</time>
      </trkpt>
      <trkpt lat="43.15536" lon="-5.922475">
        <ele>848.0</ele>
        <time>2012-07-05T14:23:35Z</time>
      </trkpt>
      <trkpt lat="43.155598" lon="-5.922255">
        <ele>847.0</ele>
        <time>2012-07-05T14:23:43Z</time>
      </trkpt>
      <trkpt lat="43.155683" lon="-5.922205">
        <ele>847.0</ele>
        <time>2012-07-05T14:23:46Z</time>
      </trkpt>
      <trkpt lat="43.155769" lon="-5.922156">
        <ele>847.0</ele>
        <time>2012-07-05T14:23:49Z</time>
      </trkpt>
      <trkpt lat="43.155769" lon="-5.922156">
        <time>2012-07-05T14:24:00Z</time>
      </trkpt>
    </trkseg>
    <trkseg>
      <trkpt lat="43.155769" lon="-5.922156">
        <time>2012-07-05T14:24:01Z</time>
      </trkpt>
      <trkpt lat="43.156164" lon="-5.921984">
        <ele>846.0</ele>
        <time>2012-07-05T14:24:04Z</time>
      </trkpt>
      <trkpt lat="43.156249" lon="-5.921959">
        <ele>845.0</ele>
        <time>2012-07-05T14:24:07Z</time>
      </trkpt>
      <trkpt lat="43.156395" lon="-5.921884">
        <ele>844.0</ele>
        <time>2012-07-05T14:24:12Z</time>
      </trkpt>
      <trkpt lat="43.156517" lon="-5.921812">
        <ele>844.0</ele>
        <time>2012-07-05T14:24:16Z</time>
      </trkpt>
      <trkpt lat="43.156602" lon="-5.921764">
        <ele>843.0</ele>
        <time>2012-07-05T14:24:19Z</time>
      </trkpt>
      <trkpt lat="43.156679" lon="-5.921716">
        <ele>843.0</ele>
        <time>2012-07-05T14:24:22Z</time>
      </trkpt>
      <trkpt lat="43.156751" lon="-5.92166">
        <ele>843.0</ele>
        <time>2012-07-05T14:24:25Z</time>
      </trkpt>
      <trkpt lat="43.156823" lon="-5.921598">
        <ele>843.0</ele>
        <time>2012-07-05T14:24:28Z</time>
      </trkpt>
      <trkpt lat="43.156958" lon="-5.921465">
        <ele>843.0</ele>
        <time>2012-07-05T14:24:34Z</time>
      </trkpt>
      <trkpt lat="43.15714" lon="-5.921228">
        <ele>844.0</ele>
        <time>2012-07-05T14:24:43Z</time>
      </trkpt>
      <trkpt lat="43.157182" lon="-5.92115">
        <ele>844.0</ele>
        <time>2012-07-05T14:24:45Z</time>
      </trkpt>
      <trkpt lat="43.15731" lon="-5.920902">
        <ele>845.0</ele>
        <time>2012-07-05T14:24:51Z</time>
      </trkpt>
      <trkpt lat="43.157414" lon="-5.920643">
        <ele>845.0</ele>
        <time>2012-07-05T14:24:57Z</time>
      </trkpt>
      <trkpt lat="43.157488" lon="-5.920362">
        <ele>845.0</ele>
        <time>2012-07-05T14:25:03Z</time>
      </trkpt>
      <trkpt lat="43.157519" lon="-5.92017">
        <ele>846.0</ele>
        <time>2012-07-05T14:25:07Z</time>
      </trkpt>
      <trkpt lat="43.157526" lon="-5.92008">
        <ele>846.0</ele>
        <time>2012-07-05T14:25:09Z</time>
      </trkpt>
      <trkpt lat="43.157526" lon="-5.92008">
        <time>2012-07-05T14:25:20Z</time>
      </trkpt>
    </trkseg>
    <trkseg>
      <trkpt lat="43.157526" lon="-5.92008">
        <time>2012-07-05T14:25:25Z</time>
      </trkpt>
      <trkpt lat="43.157477" lon="-5.919935">
        <ele>853.0</ele>
        <time>2012-07-05T14:25:29Z</time>
      </trkpt>
      <trkpt lat="43.157336" lon="-5.920063">
        <ele>854.0</ele>
        <time>2012-07-05T14:25:33Z</time>
      </trkpt>
      <trkpt lat="43.157246" lon="-5.920119">
        <ele>855.0</ele>
        <time>2012-07-05T14:25:35Z</time>
      </trkpt>
      <trkpt lat="43.15701" lon="-5.920178">
        <ele>856.0</ele>
        <time>2012-07-05T14:25:41Z</time>
      </trkpt>
      <trkpt lat="43.156821" lon="-5.920211">
        <ele>857.0</ele>
        <time>2012-07-05T14:25:45Z</time>
      </trkpt>
      <trkpt lat="43.156637" lon="-5.920236">
        <ele>857.0</ele>
        <time>2012-07-05T14:25:49Z</time>
      </trkpt>
      <trkpt lat="43.156482" lon="-5.920244">
        <ele>857.0</ele>
        <time>2012-07-05T14:25:53Z</time>
      </trkpt>
      <trkpt lat="43.156333" lon="-5.92022">
        <ele>857.0</ele>
        <time>2012-07-05T14:25:57Z</time>
      </trkpt>
      <trkpt lat="43.156181" lon="-5.920157">
        <ele>857.0</ele>
        <time>2012-07-05T14:26:01Z</time>
      </trkpt>
      <trkpt lat="43.156039" lon="-5.920056">
        <ele>856.0</ele>
        <time>2012-07-05T14:26:05Z</time>
      </trkpt>
      <trkpt lat="43.155905" lon="-5.919941">
        <ele>856.0</ele>
        <time>2012-07-05T14:26:09Z</time>
      </trkpt>
      <trkpt lat="43.155775" lon="-5.919812">
        <ele>856.0</ele>
        <time>2012-07-05T14:26:13Z</time>
      </trkpt>
      <trkpt lat="43.155643" lon="-5.919676">
        <ele>855.0</ele>
        <time>2012-07-05T14:26:17Z</time>
      </trkpt>
      <trkpt lat="43.155488" lon="-5.919562">
        <ele>855.0</ele>
        <time>2012-07-05T14:26:21Z</time>
      </trkpt>
      <trkpt lat="43.155405" lon="-5.919506">
        <ele>855.0</ele>
        <time>2012-07-05T14:26:23Z</time>
      </trkpt>
      <trkpt lat="43.15513" lon="-5.919418">
        <ele>854.0</ele>
        <time>2012-07-05T14:26:29Z</time>
      </trkpt>
      <trkpt lat="43.154958" lon="-5.919429">
        <ele>854.0</ele>
        <time>2012-07-05T14:26:33Z</time>
      </trkpt>
      <trkpt lat="43.154808" lon="-5.919434">
        <ele>854.0</ele>
        <time>2012-07-05T14:26:37Z</time>
      </trkpt>
      <trkpt lat="43.154669" lon="-5.919427">
        <ele>854.0</ele>
        <time>2012-07-05T14:26:41Z</time>
      </trkpt>
      <trkpt lat="43.154533" lon="-5.919399">
        <ele>853.0</ele>
        <time>2012-07-05T14:26:45Z</time>
      </trkpt>
      <trkpt lat="43.154401" lon="-5.919365">
        <ele>853.0</ele>
        <time>2012-07-05T14:26:49Z</time>
      </trkpt>
      <trkpt lat="43.154279" lon="-5.919315">
        <ele>853.0</ele>
        <time>2012-07-05T14:26:53Z</time>
      </trkpt>
      <trkpt lat="43.154167" lon="-5.919219">
        <ele>853.0</ele>
        <time>2012-07-05T14:26:57Z</time>
      </trkpt>
      <trkpt lat="43.154064" lon="-5.91909">
        <ele>853.0</ele>
        <time>2012-07-05T14:27:01Z</time>
      </trkpt>
      <trkpt lat="43.153954" lon="-5.918978">
        <ele>852.0</ele>
        <time>2012-07-05T14:27:05Z</time>
      </trkpt>
      <trkpt lat="43.153833" lon="-5.918915">
        <ele>852.0</ele>
        <time>2012-07-05T14:27:09Z</time>
      </trkpt>
      <trkpt lat="43.153771" lon="-5.918893">
        <ele>852.0</ele>
        <time>2012-07-05T14:27:11Z</time>
      </trkpt>
      <trkpt lat="43.153594" lon="-5.918839">
        <ele>852.0</ele>
        <time>2012-07-05T14:27:17Z</time>
      </trkpt>
      <trkpt lat="43.153512" lon="-5.918816">
        <ele>852.0</ele>
        <time>2012-07-05T14:27:20Z</time>
      </trkpt>
      <trkpt lat="43.15343" lon="-5.918794">
        <ele>852.0</ele>
        <time>2012-07-05T14:27:23Z</time>
      </trkpt>
      <trkpt lat="43.153273" lon="-5.918751">
        <ele>851.0</ele>
        <time>2012-07-05T14:27:29Z</time>
      </trkpt>
      <trkpt lat="43.153197" lon="-5.918732">
        <ele>851.0</ele>
        <time>2012-07-05T14:27:32Z</time>
      </trkpt>
      <trkpt lat="43.153122" lon="-5.918717">
        <ele>851.0</ele>
        <time>2012-07-05T14:27:35Z</time>
      </trkpt>
      <trkpt lat="43.152968" lon="-5.918696">
        <ele>851.0</ele>
        <time>2012-07-05T14:27:41Z</time>
      </trkpt>
      <trkpt lat="43.152892" lon="-5.918683">
        <ele>851.0</ele>
        <time>2012-07-05T14:27:44Z</time>
      </trkpt>
      <trkpt lat="43.152814" lon="-5.918681">
        <ele>851.0</ele>
        <time>2012-07-05T14:27:47Z</time>
      </trkpt>
      <trkpt lat="43.152659" lon="-5.918706">
        <ele>850.0</ele>
        <time>2012-07-05T14:27:53Z</time>
      </trkpt>
      <trkpt lat="43.152581" lon="-5.918725">
        <ele>850.0</ele>
        <time>2012-07-05T14:27:56Z</time>
      </trkpt>
      <trkpt lat="43.152504" lon="-5.918748">
        <ele>850.0</ele>
        <time>2012-07-05T14:27:59Z</time>
      </trkpt>
      <trkpt lat="43.15235" lon="-5.918826">
        <ele>850.0</ele>
        <time>2012-07-05T14:28:05Z</time>
      </trkpt>
      <trkpt lat="43.152275" lon="-5.918884">
        <ele>850.0</ele>
        <time>2012-07-05T14:28:08Z</time>
      </trkpt>
      <trkpt lat="43.152201" lon="-5.91894">
        <ele>850.0</ele>
        <time>2012-07-05T14:28:11Z</time>
      </trkpt>
      <trkpt lat="43.152055" lon="-5.919064">
        <ele>850.0</ele>
        <time>2012-07-05T14:28:17Z</time>
      </trkpt>
      <trkpt lat="43.151984" lon="-5.919114">
        <ele>849.0</ele>
        <time>2012-07-05T14:28:20Z</time>
      </trkpt>
      <trkpt lat="43.151913" lon="-5.919166">
        <ele>849.0</ele>
        <time>2012-07-05T14:28:23Z</time>
      </trkpt>
      <trkpt lat="43.151771" lon="-5.919248">
        <ele>849.0</ele>
        <time>2012-07-05T14:28:29Z</time>
      </trkpt>
      <trkpt lat="43.151702" lon="-5.919222">
        <ele>849.0</ele>
        <time>2012-07-05T14:28:32Z</time>
      </trkpt>
      <trkpt lat="43.151641" lon="-5.919157">
        <ele>849.0</ele>
        <time>2012-07-05T14:28:35Z</time>
      </trkpt>
      <trkpt lat="43.151545" lon="-5.918979">
        <ele>849.0</ele>
        <time>2012-07-05T14:28:41Z</time>
      </trkpt>
      <trkpt lat="43.151496" lon="-5.91889">
        <ele>850.0</ele>
        <time>2012-07-05T14:28:44Z</time>
      </trkpt>
      <trkpt lat="43.151496" lon="-5.91889">
        <time>2012-07-05T14:28:55Z</time>
      </trkpt>
    </trkseg>
    <trkseg>
      <trkpt lat="43.151496" lon="-5.91889">
        <time>2012-07-05T14:28:56Z</time>
      </trkpt>
      <trkpt lat="43.151348" lon="-5.918271">
        <ele>856.0</ele>
        <time>2012-07-05T14:29:02Z</time>
      </trkpt>
      <trkpt lat="43.151381" lon="-5.918155">
        <ele>858.0</ele>
        <time>2012-07-05T14:29:05Z</time>
      </trkpt>
      <trkpt lat="43.151408" lon="-5.918045">
        <ele>861.0</ele>
        <time>2012-07-05T14:29:08Z</time>
      </trkpt>
      <trkpt lat="43.151426" lon="-5.917832">
        <ele>865.0</ele>
        <time>2012-07-05T14:29:14Z</time>
      </trkpt>
      <trkpt lat="43.151412" lon="-5.917726">
        <ele>867.0</ele>
        <time>2012-07-05T14:29:17Z</time>
      </trkpt>
      <trkpt lat="43.151395" lon="-5.917613">
        <ele>868.0</ele>
        <time>2012-07-05T14:29:20Z</time>
      </trkpt>
      <trkpt lat="43.151368" lon="-5.917407">
        <ele>870.0</ele>
        <time>2012-07-05T14:29:25Z</time>
      </trkpt>
      <trkpt lat="43.15136" lon="-5.91732">
        <ele>871.0</ele>
        <time>2012-07-05T14:29:27Z</time>
      </trkpt>
      <trkpt lat="43.151326" lon="-5.917018">
        <ele>873.0</ele>
        <time>2012-07-05T14:29:34Z</time>
      </trkpt>
      <trkpt lat="43.151284" lon="-5.916684">
        <ele>874.0</ele>
        <time>2012-07-05T14:29:42Z</time>
      </trkpt>
      <trkpt lat="43.151258" lon="-5.916568">
        <ele>875.0</ele>
        <time>2012-07-05T14:29:45Z</time>
      </trkpt>
      <trkpt lat="43.15123" lon="-5.916456">
        <ele>875.0</ele>
        <time>2012-07-05T14:29:48Z</time>
      </trkpt>
      <trkpt lat="43.151159" lon="-5.916242">
        <ele>875.0</ele>
        <time>2012-07-05T14:29:54Z</time>
      </trkpt>
      <trkpt lat="43.151115" lon="-5.916143">
        <ele>875.0</ele>
        <time>2012-07-05T14:29:57Z</time>
      </trkpt>
      <trkpt lat="43.150898" lon="-5.916045">
        <ele>880.0</ele>
        <time>2012-07-05T14:30:05Z</time>
      </trkpt>
      <trkpt lat="43.150807" lon="-5.916039">
        <ele>883.0</ele>
        <time>2012-07-05T14:30:08Z</time>
      </trkpt>
      <trkpt lat="43.150724" lon="-5.916019">
        <ele>885.0</ele>
        <time>2012-07-05T14:30:11Z</time>
      </trkpt>
      <trkpt lat="43.150585" lon="-5.915949">
        <ele>888.0</ele>
        <time>2012-07-05T14:30:17Z</time>
      </trkpt>
      <trkpt lat="43.150538" lon="-5.915854">
        <ele>890.0</ele>
        <time>2012-07-05T14:30:21Z</time>
      </trkpt>
      <trkpt lat="43.150469" lon="-5.9157">
        <ele>893.0</ele>
        <time>2012-07-05T14:30:27Z</time>
      </trkpt>
      <trkpt lat="43.150368" lon="-5.915548">
        <ele>895.0</ele>
        <time>2012-07-05T14:30:34Z</time>
      </trkpt>
      <trkpt lat="43.150271" lon="-5.915414">
        <ele>896.0</ele>
        <time>2012-07-05T14:30:40Z</time>
      </trkpt>
      <trkpt lat="43.150064" lon="-5.915522">
        <ele>902.0</ele>
        <time>2012-07-05T14:30:50Z</time>
      </trkpt>
      <trkpt lat="43.149978" lon="-5.915799">
        <ele>906.0</ele>
        <time>2012-07-05T14:30:53Z</time>
      </trkpt>
      <trkpt lat="43.149891" lon="-5.916045">
        <ele>911.0</ele>
        <time>2012-07-05T14:30:57Z</time>
      </trkpt>
      <trkpt lat="43.14981" lon="-5.91624">
        <ele>916.0</ele>
        <time>2012-07-05T14:31:01Z</time>
      </trkpt>
      <trkpt lat="43.149706" lon="-5.916416">
        <ele>921.0</ele>
        <time>2012-07-05T14:31:06Z</time>
      </trkpt>
      <trkpt lat="43.149644" lon="-5.916496">
        <ele>924.0</ele>
        <time>2012-07-05T14:31:09Z</time>
      </trkpt>
      <trkpt lat="43.149587" lon="-5.916588">
        <ele>927.0</ele>
        <time>2012-07-05T14:31:12Z</time>
      </trkpt>
      <trkpt lat="43.149468" lon="-5.916738">
        <ele>931.0</ele>
        <time>2012-07-05T14:31:18Z</time>
      </trkpt>
      <trkpt lat="43.149404" lon="-5.916788">
        <ele>933.0</ele>
        <time>2012-07-05T14:31:21Z</time>
      </trkpt>
      <trkpt lat="43.14934" lon="-5.916827">
        <ele>935.0</ele>
        <time>2012-07-05T14:31:24Z</time>
      </trkpt>
      <trkpt lat="43.149194" lon="-5.916859">
        <ele>938.0</ele>
        <time>2012-07-05T14:31:30Z</time>
      </trkpt>
      <trkpt lat="43.14913" lon="-5.916913">
        <ele>940.0</ele>
        <time>2012-07-05T14:31:33Z</time>
      </trkpt>
      <trkpt lat="43.149036" lon="-5.917107">
        <ele>943.0</ele>
        <time>2012-07-05T14:31:38Z</time>
      </trkpt>
      <trkpt lat="43.148955" lon="-5.917281">
        <ele>946.0</ele>
        <time>2012-07-05T14:31:42Z</time>
      </trkpt>
      <trkpt lat="43.148881" lon="-5.917447">
        <ele>949.0</ele>
        <time>2012-07-05T14:31:46Z</time>
      </trkpt>
      <trkpt lat="43.148818" lon="-5.917602">
        <ele>952.0</ele>
        <time>2012-07-05T14:31:50Z</time>
      </trkpt>
      <trkpt lat="43.148754" lon="-5.917698">
        <ele>954.0</ele>
        <time>2012-07-05T14:31:53Z</time>
      </trkpt>
      <trkpt lat="43.148567" lon="-5.917968">
        <ele>959.0</ele>
        <time>2012-07-05T14:32:02Z</time>
      </trkpt>
      <trkpt lat="43.148514" lon="-5.91806">
        <ele>961.0</ele>
        <time>2012-07-05T14:32:05Z</time>
      </trkpt>
      <trkpt lat="43.148463" lon="-5.918148">
        <ele>962.0</ele>
        <time>2012-07-05T14:32:08Z</time>
      </trkpt>
      <trkpt lat="43.148407" lon="-5.91823">
        <ele>963.0</ele>
        <time>2012-07-05T14:32:11Z</time>
      </trkpt>
      <trkpt lat="43.148297" lon="-5.918388">
        <ele>966.0</ele>
        <time>2012-07-05T14:32:17Z</time>
      </trkpt>
      <trkpt lat="43.148267" lon="-5.918486">
        <ele>967.0</ele>
        <time>2012-07-05T14:32:20Z</time>
      </trkpt>
      <trkpt lat="43.148208" lon="-5.918685">
        <ele>969.0</ele>
        <time>2012-07-05T14:32:26Z</time>
      </trkpt>
      <trkpt lat="43.148171" lon="-5.918777">
        <ele>970.0</ele>
        <time>2012-07-05T14:32:29Z</time>
      </trkpt>
      <trkpt lat="43.148134" lon="-5.918861">
        <ele>972.0</ele>
        <time>2012-07-05T14:32:32Z</time>
      </trkpt>
      <trkpt lat="43.148083" lon="-5.91905">
        <ele>974.0</ele>
        <time>2012-07-05T14:32:38Z</time>
      </trkpt>
      <trkpt lat="43.14807" lon="-5.919155">
        <ele>975.0</ele>
        <time>2012-07-05T14:32:41Z</time>
      </trkpt>
      <trkpt lat="43.148062" lon="-5.919267">
        <ele>976.0</ele>
        <time>2012-07-05T14:32:44Z</time>
      </trkpt>
      <trkpt lat="43.148007" lon="-5.91945">
        <ele>978.0</ele>
        <time>2012-07-05T14:32:50Z</time>
      </trkpt>
      <trkpt lat="43.147961" lon="-5.919513">
        <ele>979.0</ele>
        <time>2012-07-05T14:32:53Z</time>
      </trkpt>
      <trkpt lat="43.147883" lon="-5.919558">
        <ele>981.0</ele>
        <time>2012-07-05T14:32:57Z</time>
      </trkpt>
      <trkpt lat="43.147818" lon="-5.91957">
        <ele>982.0</ele>
        <time>2012-07-05T14:33:00Z</time>
      </trkpt>
      <trkpt lat="43.147693" lon="-5.919457">
        <ele>984.0</ele>
        <time>2012-07-05T14:33:05Z</time>
      </trkpt>
      <trkpt lat="43.14745" lon="-5.918937">
        <ele>987.0</ele>
        <time>2012-07-05T14:33:18Z</time>
      </trkpt>
      <trkpt lat="43.147416" lon="-5.918511">
        <ele>987.0</ele>
        <time>2012-07-05T14:33:22Z</time>
      </trkpt>
      <trkpt lat="43.147418" lon="-5.918058">
        <ele>987.0</ele>
        <time>2012-07-05T14:33:26Z</time>
      </trkpt>
      <trkpt lat="43.147417" lon="-5.917624">
        <ele>988.0</ele>
        <time>2012-07-05T14:33:30Z</time>
      </trkpt>
      <trkpt lat="43.147401" lon="-5.917222">
        <ele>988.0</ele>
        <time>2012-07-05T14:33:34Z</time>
      </trkpt>
      <trkpt lat="43.1474" lon="-5.916965">
        <ele>988.0</ele>
        <time>2012-07-05T14:33:37Z</time>
      </trkpt>
      <trkpt lat="43.147406" lon="-5.916679">
        <ele>989.0</ele>
        <time>2012-07-05T14:33:41Z</time>
      </trkpt>
      <trkpt lat="43.147422" lon="-5.916443">
        <ele>989.0</ele>
        <time>2012-07-05T14:33:45Z</time>
      </trkpt>
      <trkpt lat="43.147429" lon="-5.916338">
        <ele>989.0</ele>
        <time>2012-07-05T14:33:47Z</time>
      </trkpt>
      <trkpt lat="43.147432" lon="-5.916129">
        <ele>989.0</ele>
        <time>2012-07-05T14:33:52Z</time>
      </trkpt>
      <trkpt lat="43.147451" lon="-5.915887">
        <ele>990.0</ele>
        <time>2012-07-05T14:33:58Z</time>
      </trkpt>
      <trkpt lat="43.147465" lon="-5.915767">
        <ele>990.0</ele>
        <time>2012-07-05T14:34:01Z</time>
      </trkpt>
      <trkpt lat="43.14748" lon="-5.915647">
        <ele>990.0</ele>
        <time>2012-07-05T14:34:04Z</time>
      </trkpt>
      <trkpt lat="43.147495" lon="-5.91541">
        <ele>990.0</ele>
        <time>2012-07-05T14:34:10Z</time>
      </trkpt>
      <trkpt lat="43.147494" lon="-5.915293">
        <ele>990.0</ele>
        <time>2012-07-05T14:34:13Z</time>
      </trkpt>
      <trkpt lat="43.147453" lon="-5.914954">
        <ele>990.0</ele>
        <time>2012-07-05T14:34:22Z</time>
      </trkpt>
      <trkpt lat="43.147379" lon="-5.914756">
        <ele>991.0</ele>
        <time>2012-07-05T14:34:28Z</time>
      </trkpt>
      <trkpt lat="43.147242" lon="-5.914586">
        <ele>991.0</ele>
        <time>2012-07-05T14:34:34Z</time>
      </trkpt>
      <trkpt lat="43.147106" lon="-5.91448">
        <ele>991.0</ele>
        <time>2012-07-05T14:34:38Z</time>
      </trkpt>
      <trkpt lat="43.146996" lon="-5.914362">
        <ele>991.0</ele>
        <time>2012-07-05T14:34:42Z</time>
      </trkpt>
      <trkpt lat="43.146894" lon="-5.91424">
        <ele>992.0</ele>
        <time>2012-07-05T14:34:46Z</time>
      </trkpt>
      <trkpt lat="43.146766" lon="-5.914133">
        <ele>992.0</ele>
        <time>2012-07-05T14:34:50Z</time>
      </trkpt>
      <trkpt lat="43.146695" lon="-5.914089">
        <ele>992.0</ele>
        <time>2012-07-05T14:34:52Z</time>
      </trkpt>
      <trkpt lat="43.146563" lon="-5.914001">
        <ele>992.0</ele>
        <time>2012-07-05T14:34:56Z</time>
      </trkpt>
      <trkpt lat="43.146416" lon="-5.913831">
        <ele>991.0</ele>
        <time>2012-07-05T14:35:02Z</time>
      </trkpt>
      <trkpt lat="43.146275" lon="-5.913704">
        <ele>991.0</ele>
        <time>2012-07-05T14:35:07Z</time>
      </trkpt>
      <trkpt lat="43.146147" lon="-5.913622">
        <ele>991.0</ele>
        <time>2012-07-05T14:35:11Z</time>
      </trkpt>
      <trkpt lat="43.145936" lon="-5.91352">
        <ele>991.0</ele>
        <time>2012-07-05T14:35:17Z</time>
      </trkpt>
      <trkpt lat="43.145782" lon="-5.913481">
        <ele>991.0</ele>
        <time>2012-07-05T14:35:21Z</time>
      </trkpt>
      <trkpt lat="43.145637" lon="-5.913394">
        <ele>991.0</ele>
        <time>2012-07-05T14:35:26Z</time>
      </trkpt>
      <trkpt lat="43.145432" lon="-5.913251">
        <ele>990.0</ele>
        <time>2012-07-05T14:35:33Z</time>
      </trkpt>
      <trkpt lat="43.14524" lon="-5.913109">
        <ele>990.0</ele>
        <time>2012-07-05T14:35:40Z</time>
      </trkpt>
      <trkpt lat="43.145061" lon="-5.913037">
        <ele>990.0</ele>
        <time>2012-07-05T14:35:46Z</time>
      </trkpt>
      <trkpt lat="43.144909" lon="-5.913054">
        <ele>990.0</ele>
        <time>2012-07-05T14:35:50Z</time>
      </trkpt>
      <trkpt lat="43.144731" lon="-5.913137">
        <ele>990.0</ele>
        <time>2012-07-05T14:35:54Z</time>
      </trkpt>
      <trkpt lat="43.144595" lon="-5.913144">
        <ele>990.0</ele>
        <time>2012-07-05T14:35:58Z</time>
      </trkpt>
      <trkpt lat="43.144463" lon="-5.913267">
        <ele>990.0</ele>
        <time>2012-07-05T14:36:01Z</time>
      </trkpt>
      <trkpt lat="43.144394" lon="-5.913324">
        <ele>991.0</ele>
        <time>2012-07-05T14:36:03Z</time>
      </trkpt>
      <trkpt lat="43.144188" lon="-5.913444">
        <ele>992.0</ele>
        <time>2012-07-05T14:36:10Z</time>
      </trkpt>
      <trkpt lat="43.144104" lon="-5.913494">
        <ele>993.0</ele>
        <time>2012-07-05T14:36:13Z</time>
      </trkpt>
      <trkpt lat="43.144019" lon="-5.913535">
        <ele>993.0</ele>
        <time>2012-07-05T14:36:16Z</time>
      </trkpt>
      <trkpt lat="43.143855" lon="-5.9136">
        <ele>994.0</ele>
        <time>2012-07-05T14:36:22Z</time>
      </trkpt>
      <trkpt lat="43.143781" lon="-5.913641">
        <ele>994.0</ele>
        <time>2012-07-05T14:36:25Z</time>
      </trkpt>
      <trkpt lat="43.143781" lon="-5.913641">
        <time>2012-07-05T14:36:36Z</time>
      </trkpt>
    </trkseg>
    <trkseg>
      <trkpt lat="43.143781" lon="-5.913641">
        <time>2012-07-05T14:36:38Z</time>
      </trkpt>
      <trkpt lat="43.143581" lon="-5.913384">
        <ele>1001.0</ele>
        <time>2012-07-05T14:36:42Z</time>
      </trkpt>
      <trkpt lat="43.143687" lon="-5.91322">
        <ele>1004.0</ele>
        <time>2012-07-05T14:36:47Z</time>
      </trkpt>
      <trkpt lat="43.143842" lon="-5.913095">
        <ele>1006.0</ele>
        <time>2012-07-05T14:36:51Z</time>
      </trkpt>
      <trkpt lat="43.143989" lon="-5.912989">
        <ele>1007.0</ele>
        <time>2012-07-05T14:36:55Z</time>
      </trkpt>
      <trkpt lat="43.144148" lon="-5.912898">
        <ele>1008.0</ele>
        <time>2012-07-05T14:36:59Z</time>
      </trkpt>
      <trkpt lat="43.14423" lon="-5.91286">
        <ele>1008.0</ele>
        <time>2012-07-05T14:37:01Z</time>
      </trkpt>
      <trkpt lat="43.144421" lon="-5.912738">
        <ele>1010.0</ele>
        <time>2012-07-05T14:37:07Z</time>
      </trkpt>
      <trkpt lat="43.144558" lon="-5.912631">
        <ele>1010.0</ele>
        <time>2012-07-05T14:37:12Z</time>
      </trkpt>
      <trkpt lat="43.144616" lon="-5.912597">
        <ele>1010.0</ele>
        <time>2012-07-05T14:37:14Z</time>
      </trkpt>
      <trkpt lat="43.144859" lon="-5.912429">
        <ele>1011.0</ele>
        <time>2012-07-05T14:37:23Z</time>
      </trkpt>
      <trkpt lat="43.144934" lon="-5.912369">
        <ele>1011.0</ele>
        <time>2012-07-05T14:37:26Z</time>
      </trkpt>
      <trkpt lat="43.145078" lon="-5.912244">
        <ele>1011.0</ele>
        <time>2012-07-05T14:37:32Z</time>
      </trkpt>
      <trkpt lat="43.145283" lon="-5.912031">
        <ele>1010.0</ele>
        <time>2012-07-05T14:37:41Z</time>
      </trkpt>
      <trkpt lat="43.145464" lon="-5.911771">
        <ele>1009.0</ele>
        <time>2012-07-05T14:37:50Z</time>
      </trkpt>
      <trkpt lat="43.145567" lon="-5.911574">
        <ele>1009.0</ele>
        <time>2012-07-05T14:37:56Z</time>
      </trkpt>
      <trkpt lat="43.145619" lon="-5.911479">
        <ele>1008.0</ele>
        <time>2012-07-05T14:37:59Z</time>
      </trkpt>
      <trkpt lat="43.14567" lon="-5.91138">
        <ele>1008.0</ele>
        <time>2012-07-05T14:38:02Z</time>
      </trkpt>
      <trkpt lat="43.145778" lon="-5.91119">
        <ele>1008.0</ele>
        <time>2012-07-05T14:38:08Z</time>
      </trkpt>
      <trkpt lat="43.145821" lon="-5.911079">
        <ele>1007.0</ele>
        <time>2012-07-05T14:38:11Z</time>
      </trkpt>
      <trkpt lat="43.145874" lon="-5.910919">
        <ele>1007.0</ele>
        <time>2012-07-05T14:38:15Z</time>
      </trkpt>
      <trkpt lat="43.145928" lon="-5.910758">
        <ele>1006.0</ele>
        <time>2012-07-05T14:38:19Z</time>
      </trkpt>
      <trkpt lat="43.145991" lon="-5.910609">
        <ele>1006.0</ele>
        <time>2012-07-05T14:38:23Z</time>
      </trkpt>
      <trkpt lat="43.146052" lon="-5.910456">
        <ele>1006.0</ele>
        <time>2012-07-05T14:38:27Z</time>
      </trkpt>
      <trkpt lat="43.146095" lon="-5.91029">
        <ele>1005.0</ele>
        <time>2012-07-05T14:38:31Z</time>
      </trkpt>
      <trkpt lat="43.146135" lon="-5.910176">
        <ele>1005.0</ele>
        <time>2012-07-05T14:38:34Z</time>
      </trkpt>
      <trkpt lat="43.146179" lon="-5.909972">
        <ele>1005.0</ele>
        <time>2012-07-05T14:38:39Z</time>
      </trkpt>
      <trkpt lat="43.146199" lon="-5.909801">
        <ele>1004.0</ele>
        <time>2012-07-05T14:38:43Z</time>
      </trkpt>
      <trkpt lat="43.146199" lon="-5.909801">
        <time>2012-07-05T14:38:54Z</time>
      </trkpt>
    </trkseg>
    <trkseg>
      <trkpt lat="43.146199" lon="-5.909801">
        <time>2012-07-05T14:38:57Z</time>
      </trkpt>
      <trkpt lat="43.146244" lon="-5.909241">
        <ele>1011.0</ele>
        <time>2012-07-05T14:39:00Z</time>
      </trkpt>
      <trkpt lat="43.146243" lon="-5.909054">
        <ele>1015.0</ele>
        <time>2012-07-05T14:39:06Z</time>
      </trkpt>
      <trkpt lat="43.146213" lon="-5.908965">
        <ele>1017.0</ele>
        <time>2012-07-05T14:39:09Z</time>
      </trkpt>
      <trkpt lat="43.146199" lon="-5.908874">
        <ele>1019.0</ele>
        <time>2012-07-05T14:39:12Z</time>
      </trkpt>
      <trkpt lat="43.146196" lon="-5.908776">
        <ele>1021.0</ele>
        <time>2012-07-05T14:39:15Z</time>
      </trkpt>
      <trkpt lat="43.146089" lon="-5.908391">
        <ele>1026.0</ele>
        <time>2012-07-05T14:39:27Z</time>
      </trkpt>
      <trkpt lat="43.146031" lon="-5.908333">
        <ele>1029.0</ele>
        <time>2012-07-05T14:39:29Z</time>
      </trkpt>
      <trkpt lat="43.145869" lon="-5.908225">
        <ele>1033.0</ele>
        <time>2012-07-05T14:39:33Z</time>
      </trkpt>
      <trkpt lat="43.145624" lon="-5.908004">
        <ele>1044.0</ele>
        <time>2012-07-05T14:39:43Z</time>
      </trkpt>
      <trkpt lat="43.145553" lon="-5.907931">
        <ele>1047.0</ele>
        <time>2012-07-05T14:39:46Z</time>
      </trkpt>
      <trkpt lat="43.145484" lon="-5.90786">
        <ele>1050.0</ele>
        <time>2012-07-05T14:39:49Z</time>
      </trkpt>
      <trkpt lat="43.145331" lon="-5.907726">
        <ele>1055.0</ele>
        <time>2012-07-05T14:39:55Z</time>
      </trkpt>
      <trkpt lat="43.145258" lon="-5.907655">
        <ele>1058.0</ele>
        <time>2012-07-05T14:39:58Z</time>
      </trkpt>
      <trkpt lat="43.145108" lon="-5.907543">
        <ele>1061.0</ele>
        <time>2012-07-05T14:40:03Z</time>
      </trkpt>
      <trkpt lat="43.14494" lon="-5.907473">
        <ele>1063.0</ele>
        <time>2012-07-05T14:40:07Z</time>
      </trkpt>
      <trkpt lat="43.144801" lon="-5.907389">
        <ele>1065.0</ele>
        <time>2012-07-05T14:40:11Z</time>
      </trkpt>
      <trkpt lat="43.144731" lon="-5.907352">
        <ele>1065.0</ele>
        <time>2012-07-05T14:40:13Z</time>
      </trkpt>
      <trkpt lat="43.144525" lon="-5.907246">
        <ele>1067.0</ele>
        <time>2012-07-05T14:40:19Z</time>
      </trkpt>
      <trkpt lat="43.144399" lon="-5.907162">
        <ele>1067.0</ele>
        <time>2012-07-05T14:40:23Z</time>
      </trkpt>
      <trkpt lat="43.144134" lon="-5.907055">
        <ele>1069.0</ele>
        <time>2012-07-05T14:40:31Z</time>
      </trkpt>
      <trkpt lat="43.144007" lon="-5.907011">
        <ele>1070.0</ele>
        <time>2012-07-05T14:40:35Z</time>
      </trkpt>
      <trkpt lat="43.143882" lon="-5.906967">
        <ele>1071.0</ele>
        <time>2012-07-05T14:40:39Z</time>
      </trkpt>
      <trkpt lat="43.143818" lon="-5.906943">
        <ele>1071.0</ele>
        <time>2012-07-05T14:40:41Z</time>
      </trkpt>
      <trkpt lat="43.143453" lon="-5.906746">
        <ele>1073.0</ele>
        <time>2012-07-05T14:40:55Z</time>
      </trkpt>
      <trkpt lat="43.14338" lon="-5.90669">
        <ele>1073.0</ele>
        <time>2012-07-05T14:40:58Z</time>
      </trkpt>
      <trkpt lat="43.143306" lon="-5.906635">
        <ele>1073.0</ele>
        <time>2012-07-05T14:41:01Z</time>
      </trkpt>
      <trkpt lat="43.143193" lon="-5.906217">
        <ele>1075.0</ele>
        <time>2012-07-05T14:41:10Z</time>
      </trkpt>
      <trkpt lat="43.143146" lon="-5.905995">
        <ele>1075.0</ele>
        <time>2012-07-05T14:41:15Z</time>
      </trkpt>
      <trkpt lat="43.143112" lon="-5.905814">
        <ele>1076.0</ele>
        <time>2012-07-05T14:41:19Z</time>
      </trkpt>
      <trkpt lat="43.143114" lon="-5.905633">
        <ele>1076.0</ele>
        <time>2012-07-05T14:41:23Z</time>
      </trkpt>
      <trkpt lat="43.143137" lon="-5.905493">
        <ele>1076.0</ele>
        <time>2012-07-05T14:41:26Z</time>
      </trkpt>
      <trkpt lat="43.143462" lon="-5.905231">
        <ele>1077.0</ele>
        <time>2012-07-05T14:41:31Z</time>
      </trkpt>
      <trkpt lat="43.143749" lon="-5.90508">
        <ele>1077.0</ele>
        <time>2012-07-05T14:41:35Z</time>
      </trkpt>
      <trkpt lat="43.143911" lon="-5.905012">
        <ele>1078.0</ele>
        <time>2012-07-05T14:41:38Z</time>
      </trkpt>
      <trkpt lat="43.144093" lon="-5.904944">
        <ele>1080.0</ele>
        <time>2012-07-05T14:41:42Z</time>
      </trkpt>
      <trkpt lat="43.144291" lon="-5.904871">
        <ele>1084.0</ele>
        <time>2012-07-05T14:41:46Z</time>
      </trkpt>
      <trkpt lat="43.144405" lon="-5.904825">
        <ele>1086.0</ele>
        <time>2012-07-05T14:41:48Z</time>
      </trkpt>
      <trkpt lat="43.144719" lon="-5.904908">
        <ele>1100.0</ele>
        <time>2012-07-05T14:41:59Z</time>
      </trkpt>
      <trkpt lat="43.144435" lon="-5.905296">
        <ele>1097.0</ele>
        <time>2012-07-05T14:42:03Z</time>
      </trkpt>
      <trkpt lat="43.144029" lon="-5.905723">
        <ele>1092.0</ele>
        <time>2012-07-05T14:42:07Z</time>
      </trkpt>
      <trkpt lat="43.143809" lon="-5.906168">
        <ele>1088.0</ele>
        <time>2012-07-05T14:42:11Z</time>
      </trkpt>
      <trkpt lat="43.143629" lon="-5.906577">
        <ele>1087.0</ele>
        <time>2012-07-05T14:42:15Z</time>
      </trkpt>
      <trkpt lat="43.143465" lon="-5.906974">
        <ele>1085.0</ele>
        <time>2012-07-05T14:42:19Z</time>
      </trkpt>
      <trkpt lat="43.143261" lon="-5.907097">
        <ele>1085.0</ele>
        <time>2012-07-05T14:42:23Z</time>
      </trkpt>
      <trkpt lat="43.142858" lon="-5.90707">
        <ele>1095.0</ele>
        <time>2012-07-05T14:42:31Z</time>
      </trkpt>
      <trkpt lat="43.143073" lon="-5.907182">
        <ele>1098.0</ele>
        <time>2012-07-05T14:42:35Z</time>
      </trkpt>
      <trkpt lat="43.143777" lon="-5.907323">
        <ele>1098.0</ele>
        <time>2012-07-05T14:42:39Z</time>
      </trkpt>
      <trkpt lat="43.144314" lon="-5.907315">
        <ele>1095.0</ele>
        <time>2012-07-05T14:42:43Z</time>
      </trkpt>
      <trkpt lat="43.144728" lon="-5.907392">
        <ele>1092.0</ele>
        <time>2012-07-05T14:42:47Z</time>
      </trkpt>
      <trkpt lat="43.145123" lon="-5.90752">
        <ele>1089.0</ele>
        <time>2012-07-05T14:42:51Z</time>
      </trkpt>
      <trkpt lat="43.145467" lon="-5.907773">
        <ele>1086.0</ele>
        <time>2012-07-05T14:42:55Z</time>
      </trkpt>
      <trkpt lat="43.145682" lon="-5.908224">
        <ele>1085.0</ele>
        <time>2012-07-05T14:42:59Z</time>
      </trkpt>
      <trkpt lat="43.14584" lon="-5.908741">
        <ele>1085.0</ele>
        <time>2012-07-05T14:43:03Z</time>
      </trkpt>
      <trkpt lat="43.145905" lon="-5.909295">
        <ele>1084.0</ele>
        <time>2012-07-05T14:43:07Z</time>
      </trkpt>
      <trkpt lat="43.145886" lon="-5.909842">
        <ele>1083.0</ele>
        <time>2012-07-05T14:43:11Z</time>
      </trkpt>
      <trkpt lat="43.145863" lon="-5.910418">
        <ele>1082.0</ele>
        <time>2012-07-05T14:43:15Z</time>
      </trkpt>
      <trkpt lat="43.145534" lon="-5.911376">
        <ele>1092.0</ele>
        <time>2012-07-05T14:43:19Z</time>
      </trkpt>
      <trkpt lat="43.145232" lon="-5.912117">
        <ele>1110.0</ele>
        <time>2012-07-05T14:43:23Z</time>
      </trkpt>
      <trkpt lat="43.145006" lon="-5.91267">
        <ele>1121.0</ele>
        <time>2012-07-05T14:43:27Z</time>
      </trkpt>
      <trkpt lat="43.144746" lon="-5.913138">
        <ele>1127.0</ele>
        <time>2012-07-05T14:43:31Z</time>
      </trkpt>
      <trkpt lat="43.144408" lon="-5.913489">
        <ele>1130.0</ele>
        <time>2012-07-05T14:43:35Z</time>
      </trkpt>
      <trkpt lat="43.144005" lon="-5.913623">
        <ele>1132.0</ele>
        <time>2012-07-05T14:43:39Z</time>
      </trkpt>
      <trkpt lat="43.143775" lon="-5.913872">
        <ele>1133.0</ele>
        <time>2012-07-05T14:43:43Z</time>
      </trkpt>
      <trkpt lat="43.143688" lon="-5.91419">
        <ele>1133.0</ele>
        <time>2012-07-05T14:43:47Z</time>
      </trkpt>
      <trkpt lat="43.143696" lon="-5.914531">
        <ele>1133.0</ele>
        <time>2012-07-05T14:43:51Z</time>
      </trkpt>
      <trkpt lat="43.143853" lon="-5.914839">
        <ele>1133.0</ele>
        <time>2012-07-05T14:43:55Z</time>
      </trkpt>
      <trkpt lat="43.144063" lon="-5.915111">
        <ele>1133.0</ele>
        <time>2012-07-05T14:44:00Z</time>
      </trkpt>
      <trkpt lat="43.143937" lon="-5.915075">
        <ele>1134.0</ele>
        <time>2012-07-05T14:44:10Z</time>
      </trkpt>
      <trkpt lat="43.143827" lon="-5.914895">
        <ele>1134.0</ele>
        <time>2012-07-05T14:44:14Z</time>
      </trkpt>
      <trkpt lat="43.143717" lon="-5.914706">
        <ele>1135.0</ele>
        <time>2012-07-05T14:44:18Z</time>
      </trkpt>
      <trkpt lat="43.143648" lon="-5.914447">
        <ele>1135.0</ele>
        <time>2012-07-05T14:44:22Z</time>
      </trkpt>
      <trkpt lat="43.14364" lon="-5.914209">
        <ele>1136.0</ele>
        <time>2012-07-05T14:44:26Z</time>
      </trkpt>
      <trkpt lat="43.143649" lon="-5.914009">
        <ele>1136.0</ele>
        <time>2012-07-05T14:44:30Z</time>
      </trkpt>
      <trkpt lat="43.143664" lon="-5.913921">
        <ele>1136.0</ele>
        <time>2012-07-05T14:44:32Z</time>
      </trkpt>
      <trkpt lat="43.143771" lon="-5.913659">
        <ele>1137.0</ele>
        <time>2012-07-05T14:44:39Z</time>
      </trkpt>
      <trkpt lat="43.143883" lon="-5.913531">
        <ele>1137.0</ele>
        <time>2012-07-05T14:44:43Z</time>
      </trkpt>
      <trkpt lat="43.144" lon="-5.913419">
        <ele>1137.0</ele>
        <time>2012-07-05T14:44:47Z</time>
      </trkpt>
      <trkpt lat="43.144118" lon="-5.913338">
        <ele>1137.0</ele>
        <time>2012-07-05T14:44:51Z</time>
      </trkpt>
      <trkpt lat="43.144248" lon="-5.913281">
        <ele>1137.0</ele>
        <time>2012-07-05T14:44:55Z</time>
      </trkpt>
      <trkpt lat="43.144563" lon="-5.913109">
        <ele>1138.0</ele>
        <time>2012-07-05T14:45:07Z</time>
      </trkpt>
      <trkpt lat="43.144641" lon="-5.913065">
        <ele>1138.0</ele>
        <time>2012-07-05T14:45:10Z</time>
      </trkpt>
      <trkpt lat="43.144709" lon="-5.913017">
        <ele>1138.0</ele>
        <time>2012-07-05T14:45:13Z</time>
      </trkpt>
      <trkpt lat="43.144833" lon="-5.912918">
        <ele>1137.0</ele>
        <time>2012-07-05T14:45:19Z</time>
      </trkpt>
      <trkpt lat="43.144896" lon="-5.912868">
        <ele>1137.0</ele>
        <time>2012-07-05T14:45:22Z</time>
      </trkpt>
      <trkpt lat="43.144958" lon="-5.912809">
        <ele>1137.0</ele>
        <time>2012-07-05T14:45:25Z</time>
      </trkpt>
      <trkpt lat="43.145081" lon="-5.912703">
        <ele>1137.0</ele>
        <time>2012-07-05T14:45:31Z</time>
      </trkpt>
      <trkpt lat="43.145135" lon="-5.912646">
        <ele>1137.0</ele>
        <time>2012-07-05T14:45:34Z</time>
      </trkpt>
      <trkpt lat="43.14519" lon="-5.912584">
        <ele>1137.0</ele>
        <time>2012-07-05T14:45:37Z</time>
      </trkpt>
      <trkpt lat="43.14524" lon="-5.912517">
        <ele>1137.0</ele>
        <time>2012-07-05T14:45:40Z</time>
      </trkpt>
      <trkpt lat="43.145303" lon="-5.912404">
        <ele>1137.0</ele>
        <time>2012-07-05T14:45:46Z</time>
      </trkpt>
      <trkpt lat="43.145369" lon="-5.912272">
        <ele>1137.0</ele>
        <time>2012-07-05T14:45:52Z</time>
      </trkpt>
      <trkpt lat="43.145427" lon="-5.912136">
        <ele>1137.0</ele>
        <time>2012-07-05T14:45:58Z</time>
      </trkpt>
      <trkpt lat="43.145427" lon="-5.912136">
        <time>2012-07-05T14:46:09Z</time>
      </trkpt>
    </trkseg>
    <trkseg>
      <trkpt lat="43.145427" lon="-5.912136">
        <time>2012-07-05T14:46:10Z</time>
      </trkpt>
      <trkpt lat="43.1456" lon="-5.911714">
        <ele>1138.0</ele>
        <time>2012-07-05T14:46:15Z</time>
      </trkpt>
      <trkpt lat="43.145633" lon="-5.911634">
        <ele>1138.0</ele>
        <time>2012-07-05T14:46:18Z</time>
      </trkpt>
      <trkpt lat="43.145665" lon="-5.911554">
        <ele>1138.0</ele>
        <time>2012-07-05T14:46:21Z</time>
      </trkpt>
      <trkpt lat="43.145665" lon="-5.911554">
        <time>2012-07-05T14:46:32Z</time>
      </trkpt>
    </trkseg>
    <trkseg>
      <trkpt lat="43.145665" lon="-5.911554">
        <time>2012-07-05T14:46:34Z</time>
      </trkpt>
      <trkpt lat="43.145832" lon="-5.911083">
        <ele>1139.0</ele>
        <time>2012-07-05T14:46:39Z</time>
      </trkpt>
      <trkpt lat="43.145872" lon="-5.910925">
        <ele>1139.0</ele>
        <time>2012-07-05T14:46:45Z</time>
      </trkpt>
      <trkpt lat="43.145899" lon="-5.910797">
        <ele>1140.0</ele>
        <time>2012-07-05T14:46:50Z</time>
      </trkpt>
      <trkpt lat="43.145911" lon="-5.910637">
        <ele>1140.0</ele>
        <time>2012-07-05T14:46:56Z</time>
      </trkpt>
      <trkpt lat="43.145904" lon="-5.910479">
        <ele>1140.0</ele>
        <time>2012-07-05T14:47:02Z</time>
      </trkpt>
      <trkpt lat="43.145874" lon="-5.91029">
        <ele>1140.0</ele>
        <time>2012-07-05T14:47:09Z</time>
      </trkpt>
      <trkpt lat="43.145861" lon="-5.910184">
        <ele>1140.0</ele>
        <time>2012-07-05T14:47:13Z</time>
      </trkpt>
      <trkpt lat="43.145855" lon="-5.910073">
        <ele>1141.0</ele>
        <time>2012-07-05T14:47:17Z</time>
      </trkpt>
      <trkpt lat="43.145849" lon="-5.909876">
        <ele>1141.0</ele>
        <time>2012-07-05T14:47:24Z</time>
      </trkpt>
      <trkpt lat="43.145839" lon="-5.909784">
        <ele>1141.0</ele>
        <time>2012-07-05T14:47:27Z</time>
      </trkpt>
      <trkpt lat="43.145799" lon="-5.909597">
        <ele>1142.0</ele>
        <time>2012-07-05T14:47:33Z</time>
      </trkpt>
      <trkpt lat="43.145779" lon="-5.909514">
        <ele>1142.0</ele>
        <time>2012-07-05T14:47:36Z</time>
      </trkpt>
      <trkpt lat="43.145756" lon="-5.909408">
        <ele>1142.0</ele>
        <time>2012-07-05T14:47:40Z</time>
      </trkpt>
      <trkpt lat="43.145731" lon="-5.909304">
        <ele>1143.0</ele>
        <time>2012-07-05T14:47:44Z</time>
      </trkpt>
      <trkpt lat="43.145697" lon="-5.909199">
        <ele>1143.0</ele>
        <time>2012-07-05T14:47:48Z</time>
      </trkpt>
      <trkpt lat="43.145673" lon="-5.909117">
        <ele>1144.0</ele>
        <time>2012-07-05T14:47:51Z</time>
      </trkpt>
      <trkpt lat="43.145623" lon="-5.908954">
        <ele>1145.0</ele>
        <time>2012-07-05T14:47:57Z</time>
      </trkpt>
      <trkpt lat="43.145597" lon="-5.908874">
        <ele>1145.0</ele>
        <time>2012-07-05T14:48:00Z</time>
      </trkpt>
      <trkpt lat="43.145573" lon="-5.908794">
        <ele>1145.0</ele>
        <time>2012-07-05T14:48:03Z</time>
      </trkpt>
      <trkpt lat="43.145512" lon="-5.908639">
        <ele>1146.0</ele>
        <time>2012-07-05T14:48:09Z</time>
      </trkpt>
      <trkpt lat="43.14548" lon="-5.908562">
        <ele>1146.0</ele>
        <time>2012-07-05T14:48:12Z</time>
      </trkpt>
      <trkpt lat="43.145451" lon="-5.908482">
        <ele>1147.0</ele>
        <time>2012-07-05T14:48:15Z</time>
      </trkpt>
      <trkpt lat="43.145395" lon="-5.908323">
        <ele>1147.0</ele>
        <time>2012-07-05T14:48:21Z</time>
      </trkpt>
      <trkpt lat="43.145368" lon="-5.908243">
        <ele>1147.0</ele>
        <time>2012-07-05T14:48:24Z</time>
      </trkpt>
      <trkpt lat="43.145332" lon="-5.908169">
        <ele>1148.0</ele>
        <time>2012-07-05T14:48:27Z</time>
      </trkpt>
      <trkpt lat="43.145243" lon="-5.908041">
        <ele>1148.0</ele>
        <time>2012-07-05T14:48:33Z</time>
      </trkpt>
      <trkpt lat="43.145193" lon="-5.907976">
        <ele>1148.0</ele>
        <time>2012-07-05T14:48:36Z</time>
      </trkpt>
      <trkpt lat="43.145142" lon="-5.907913">
        <ele>1148.0</ele>
        <time>2012-07-05T14:48:39Z</time>
      </trkpt>
      <trkpt lat="43.14503" lon="-5.907799">
        <ele>1149.0</ele>
        <time>2012-07-05T14:48:45Z</time>
      </trkpt>
      <trkpt lat="43.144851" lon="-5.907639">
        <ele>1149.0</ele>
        <time>2012-07-05T14:48:54Z</time>
      </trkpt>
      <trkpt lat="43.144789" lon="-5.907587">
        <ele>1149.0</ele>
        <time>2012-07-05T14:48:57Z</time>
      </trkpt>
      <trkpt lat="43.144618" lon="-5.907413">
        <ele>1149.0</ele>
        <time>2012-07-05T14:49:06Z</time>
      </trkpt>
      <trkpt lat="43.144554" lon="-5.907365">
        <ele>1149.0</ele>
        <time>2012-07-05T14:49:09Z</time>
      </trkpt>
      <trkpt lat="43.144481" lon="-5.907329">
        <ele>1149.0</ele>
        <time>2012-07-05T14:49:12Z</time>
      </trkpt>
      <trkpt lat="43.144318" lon="-5.907269">
        <ele>1149.0</ele>
        <time>2012-07-05T14:49:18Z</time>
      </trkpt>
      <trkpt lat="43.144236" lon="-5.907241">
        <ele>1149.0</ele>
        <time>2012-07-05T14:49:21Z</time>
      </trkpt>
      <trkpt lat="43.144154" lon="-5.907212">
        <ele>1149.0</ele>
        <time>2012-07-05T14:49:24Z</time>
      </trkpt>
      <trkpt lat="43.143987" lon="-5.907221">
        <ele>1149.0</ele>
        <time>2012-07-05T14:49:30Z</time>
      </trkpt>
      <trkpt lat="43.143862" lon="-5.907257">
        <ele>1150.0</ele>
        <time>2012-07-05T14:49:34Z</time>
      </trkpt>
      <trkpt lat="43.14378" lon="-5.907254">
        <ele>1150.0</ele>
        <time>2012-07-05T14:49:37Z</time>
      </trkpt>
      <trkpt lat="43.143568" lon="-5.90714">
        <ele>1150.0</ele>
        <time>2012-07-05T14:49:46Z</time>
      </trkpt>
      <trkpt lat="43.143568" lon="-5.90714">
        <time>2012-07-05T14:49:57Z</time>
      </trkpt>
    </trkseg>
    <trkseg>
      <trkpt lat="43.143568" lon="-5.90714">
        <time>2012-07-05T14:49:58Z</time>
      </trkpt>
      <trkpt lat="43.143321" lon="-5.906851">
        <ele>1153.0</ele>
        <time>2012-07-05T14:50:01Z</time>
      </trkpt>
      <trkpt lat="43.143286" lon="-5.90666">
        <ele>1154.0</ele>
        <time>2012-07-05T14:50:07Z</time>
      </trkpt>
      <trkpt lat="43.143263" lon="-5.906564">
        <ele>1155.0</ele>
        <time>2012-07-05T14:50:10Z</time>
      </trkpt>
      <trkpt lat="43.143237" lon="-5.906473">
        <ele>1156.0</ele>
        <time>2012-07-05T14:50:13Z</time>
      </trkpt>
      <trkpt lat="43.143201" lon="-5.906278">
        <ele>1158.0</ele>
        <time>2012-07-05T14:50:20Z</time>
      </trkpt>
      <trkpt lat="43.143196" lon="-5.906174">
        <ele>1159.0</ele>
        <time>2012-07-05T14:50:24Z</time>
      </trkpt>
      <trkpt lat="43.143194" lon="-5.906069">
        <ele>1161.0</ele>
        <time>2012-07-05T14:50:28Z</time>
      </trkpt>
      <trkpt lat="43.143207" lon="-5.90596">
        <ele>1162.0</ele>
        <time>2012-07-05T14:50:32Z</time>
      </trkpt>
      <trkpt lat="43.143255" lon="-5.90579">
        <ele>1164.0</ele>
        <time>2012-07-05T14:50:38Z</time>
      </trkpt>
      <trkpt lat="43.143302" lon="-5.905711">
        <ele>1165.0</ele>
        <time>2012-07-05T14:50:41Z</time>
      </trkpt>
      <trkpt lat="43.143457" lon="-5.905573">
        <ele>1167.0</ele>
        <time>2012-07-05T14:50:47Z</time>
      </trkpt>
      <trkpt lat="43.143539" lon="-5.90552">
        <ele>1168.0</ele>
        <time>2012-07-05T14:50:50Z</time>
      </trkpt>
      <trkpt lat="43.143621" lon="-5.905471">
        <ele>1169.0</ele>
        <time>2012-07-05T14:50:53Z</time>
      </trkpt>
      <trkpt lat="43.143737" lon="-5.90537">
        <ele>1171.0</ele>
        <time>2012-07-05T14:50:59Z</time>
      </trkpt>
      <trkpt lat="43.1438" lon="-5.905344">
        <ele>1172.0</ele>
        <time>2012-07-05T14:51:02Z</time>
      </trkpt>
      <trkpt lat="43.143872" lon="-5.905342">
        <ele>1172.0</ele>
        <time>2012-07-05T14:51:05Z</time>
      </trkpt>
      <trkpt lat="43.144" lon="-5.905269">
        <ele>1174.0</ele>
        <time>2012-07-05T14:51:11Z</time>
      </trkpt>
      <trkpt lat="43.144074" lon="-5.905232">
        <ele>1174.0</ele>
        <time>2012-07-05T14:51:15Z</time>
      </trkpt>
      <trkpt lat="43.144142" lon="-5.905222">
        <ele>1175.0</ele>
        <time>2012-07-05T14:51:19Z</time>
      </trkpt>
      <trkpt lat="43.144142" lon="-5.905222">
        <time>2012-07-05T14:51:30Z</time>
      </trkpt>
    </trkseg>
    <trkseg>
      <trkpt lat="43.144142" lon="-5.905222">
        <time>2012-07-05T14:51:34Z</time>
      </trkpt>
      <trkpt lat="43.144237" lon="-5.905333">
        <ele>1180.0</ele>
        <time>2012-07-05T14:51:36Z</time>
      </trkpt>
      <trkpt lat="43.144183" lon="-5.905421">
        <ele>1182.0</ele>
        <time>2012-07-05T14:51:39Z</time>
      </trkpt>
      <trkpt lat="43.14414" lon="-5.905509">
        <ele>1182.0</ele>
        <time>2012-07-05T14:51:43Z</time>
      </trkpt>
      <trkpt lat="43.144096" lon="-5.905581">
        <ele>1183.0</ele>
        <time>2012-07-05T14:51:49Z</time>
      </trkpt>
      <trkpt lat="43.144064" lon="-5.90566">
        <ele>1184.0</ele>
        <time>2012-07-05T14:52:00Z</time>
      </trkpt>
      <trkpt lat="43.144064" lon="-5.90566">
        <time>2012-07-05T14:52:11Z</time>
      </trkpt>
    </trkseg>
    <trkseg>
      <trkpt lat="43.144064" lon="-5.90566">
        <time>2012-07-05T14:52:12Z</time>
      </trkpt>
      <trkpt lat="43.144064" lon="-5.90566">
        <time>2012-07-05T14:52:23Z</time>
      </trkpt>
    </trkseg>
    <trkseg>
      <trkpt lat="43.144064" lon="-5.90566">
        <time>2012-07-05T14:52:37Z</time>
      </trkpt>
      <trkpt lat="43.143968" lon="-5.905863">
        <ele>1186.0</ele>
        <time>2012-07-05T14:52:48Z</time>
      </trkpt>
      <trkpt lat="43.143968" lon="-5.905863">
        <time>2012-07-05T14:52:59Z</time>
      </trkpt>
    </trkseg>
    <trkseg>
      <trkpt lat="43.143968" lon="-5.905863">
        <time>2012-07-05T14:55:14Z</time>
      </trkpt>
      <trkpt lat="43.143968" lon="-5.905863">
        <time>2012-07-05T14:55:25Z</time>
      </trkpt>
    </trkseg>
    <trkseg>
      <trkpt lat="43.143968" lon="-5.905863">
        <time>2012-07-05T14:56:12Z</time>
      </trkpt>
      <trkpt lat="43.143968" lon="-5.905863">
        <time>2012-07-05T14:56:23Z</time>
      </trkpt>
    </trkseg>
    <trkseg>
      <trkpt lat="43.143968" lon="-5.905863">
        <time>2012-07-05T14:56:44Z</time>
      </trkpt>
      <trkpt lat="43.143968" lon="-5.905863">
        <time>2012-07-05T14:56:55Z</time>
      </trkpt>
    </trkseg>
    <trkseg>
      <trkpt lat="43.143968" lon="-5.905863">
        <time>2012-07-05T14:57:01Z</time>
      </trkpt>
      <trkpt lat="43.144093" lon="-5.905667">
        <ele>1203.0</ele>
        <time>2012-07-05T14:57:08Z</time>
      </trkpt>
      <trkpt lat="43.144229" lon="-5.905614">
        <ele>1210.0</ele>
        <time>2012-07-05T14:57:15Z</time>
      </trkpt>
      <trkpt lat="43.144406" lon="-5.905531">
        <ele>1216.0</ele>
        <time>2012-07-05T14:57:19Z</time>
      </trkpt>
      <trkpt lat="43.144612" lon="-5.905373">
        <ele>1220.0</ele>
        <time>2012-07-05T14:57:23Z</time>
      </trkpt>
      <trkpt lat="43.144818" lon="-5.905144">
        <ele>1222.0</ele>
        <time>2012-07-05T14:57:27Z</time>
      </trkpt>
      <trkpt lat="43.145005" lon="-5.904889">
        <ele>1223.0</ele>
        <time>2012-07-05T14:57:31Z</time>
      </trkpt>
      <trkpt lat="43.145019" lon="-5.905025">
        <ele>1223.0</ele>
        <time>2012-07-05T14:57:39Z</time>
      </trkpt>
      <trkpt lat="43.144953" lon="-5.905109">
        <ele>1223.0</ele>
        <time>2012-07-05T14:57:41Z</time>
      </trkpt>
      <trkpt lat="43.144753" lon="-5.905364">
        <ele>1228.0</ele>
        <time>2012-07-05T14:57:47Z</time>
      </trkpt>
      <trkpt lat="43.144593" lon="-5.905509">
        <ele>1230.0</ele>
        <time>2012-07-05T14:57:51Z</time>
      </trkpt>
      <trkpt lat="43.144411" lon="-5.905628">
        <ele>1232.0</ele>
        <time>2012-07-05T14:57:55Z</time>
      </trkpt>
      <trkpt lat="43.144229" lon="-5.905712">
        <ele>1233.0</ele>
        <time>2012-07-05T14:57:59Z</time>
      </trkpt>
      <trkpt lat="43.144068" lon="-5.905738">
        <ele>1233.0</ele>
        <time>2012-07-05T14:58:03Z</time>
      </trkpt>
      <trkpt lat="43.144004" lon="-5.905737">
        <ele>1233.0</ele>
        <time>2012-07-05T14:58:05Z</time>
      </trkpt>
      <trkpt lat="43.144004" lon="-5.905737">
        <time>2012-07-05T14:58:16Z</time>
      </trkpt>
    </trkseg>
    <trkseg>
      <trkpt lat="43.144004" lon="-5.905737">
        <time>2012-07-05T14:58:19Z</time>
      </trkpt>
      <trkpt lat="43.143949" lon="-5.90565">
        <ele>1233.0</ele>
        <time>2012-07-05T14:58:25Z</time>
      </trkpt>
      <trkpt lat="43.144102" lon="-5.905614">
        <ele>1233.0</ele>
        <time>2012-07-05T14:58:29Z</time>
      </trkpt>
      <trkpt lat="43.144171" lon="-5.905617">
        <ele>1233.0</ele>
        <time>2012-07-05T14:58:31Z</time>
      </trkpt>
      <trkpt lat="43.144171" lon="-5.905617">
        <time>2012-07-05T14:58:43Z</time>
      </trkpt>
    </trkseg>
    <trkseg>
      <trkpt lat="43.144171" lon="-5.905617">
        <time>2012-07-05T14:58:45Z</time>
      </trkpt>
      <trkpt lat="43.143996" lon="-5.9056">
        <ele>1234.0</ele>
        <time>2012-07-05T14:58:47Z</time>
      </trkpt>
      <trkpt lat="43.143724" lon="-5.905724">
        <ele>1237.0</ele>
        <time>2012-07-05T14:58:52Z</time>
      </trkpt>
      <trkpt lat="43.143577" lon="-5.905875">
        <ele>1237.0</ele>
        <time>2012-07-05T14:58:55Z</time>
      </trkpt>
      <trkpt lat="43.143456" lon="-5.906287">
        <ele>1237.0</ele>
        <time>2012-07-05T14:59:00Z</time>
      </trkpt>
      <trkpt lat="43.143477" lon="-5.906689">
        <ele>1238.0</ele>
        <time>2012-07-05T14:59:04Z</time>
      </trkpt>
      <trkpt lat="43.14359" lon="-5.907163">
        <ele>1238.0</ele>
        <time>2012-07-05T14:59:08Z</time>
      </trkpt>
      <trkpt lat="43.143838" lon="-5.907648">
        <ele>1237.0</ele>
        <time>2012-07-05T14:59:12Z</time>
      </trkpt>
      <trkpt lat="43.144306" lon="-5.907895">
        <ele>1237.0</ele>
        <time>2012-07-05T14:59:16Z</time>
      </trkpt>
      <trkpt lat="43.144825" lon="-5.908096">
        <ele>1237.0</ele>
        <time>2012-07-05T14:59:20Z</time>
      </trkpt>
      <trkpt lat="43.145067" lon="-5.908264">
        <ele>1237.0</ele>
        <time>2012-07-05T14:59:22Z</time>
      </trkpt>
      <trkpt lat="43.145622" lon="-5.909194">
        <ele>1238.0</ele>
        <time>2012-07-05T14:59:28Z</time>
      </trkpt>
      <trkpt lat="43.145761" lon="-5.910008">
        <ele>1240.0</ele>
        <time>2012-07-05T14:59:32Z</time>
      </trkpt>
      <trkpt lat="43.14577" lon="-5.910769">
        <ele>1243.0</ele>
        <time>2012-07-05T14:59:36Z</time>
      </trkpt>
      <trkpt lat="43.145686" lon="-5.911528">
        <ele>1244.0</ele>
        <time>2012-07-05T14:59:40Z</time>
      </trkpt>
      <trkpt lat="43.145292" lon="-5.912186">
        <ele>1240.0</ele>
        <time>2012-07-05T14:59:44Z</time>
      </trkpt>
      <trkpt lat="43.144793" lon="-5.9128">
        <ele>1229.0</ele>
        <time>2012-07-05T14:59:48Z</time>
      </trkpt>
      <trkpt lat="43.144196" lon="-5.913286">
        <ele>1225.0</ele>
        <time>2012-07-05T14:59:52Z</time>
      </trkpt>
      <trkpt lat="43.143783" lon="-5.9137">
        <ele>1222.0</ele>
        <time>2012-07-05T14:59:56Z</time>
      </trkpt>
      <trkpt lat="43.143817" lon="-5.914543">
        <ele>1215.0</ele>
        <time>2012-07-05T15:00:00Z</time>
      </trkpt>
      <trkpt lat="43.144462" lon="-5.915251">
        <ele>1211.0</ele>
        <time>2012-07-05T15:00:04Z</time>
      </trkpt>
      <trkpt lat="43.145117" lon="-5.915379">
        <ele>1211.0</ele>
        <time>2012-07-05T15:00:08Z</time>
      </trkpt>
      <trkpt lat="43.145694" lon="-5.915499">
        <ele>1210.0</ele>
        <time>2012-07-05T15:00:12Z</time>
      </trkpt>
      <trkpt lat="43.146316" lon="-5.915537">
        <ele>1210.0</ele>
        <time>2012-07-05T15:00:16Z</time>
      </trkpt>
      <trkpt lat="43.146962" lon="-5.915558">
        <ele>1210.0</ele>
        <time>2012-07-05T15:00:20Z</time>
      </trkpt>
      <trkpt lat="43.147659" lon="-5.915684">
        <ele>1210.0</ele>
        <time>2012-07-05T15:00:24Z</time>
      </trkpt>
      <trkpt lat="43.148156" lon="-5.916278">
        <ele>1208.0</ele>
        <time>2012-07-05T15:00:28Z</time>
      </trkpt>
      <trkpt lat="43.147993" lon="-5.917267">
        <ele>1207.0</ele>
        <time>2012-07-05T15:00:31Z</time>
      </trkpt>
      <trkpt lat="43.147846" lon="-5.918685">
        <ele>1206.0</ele>
        <time>2012-07-05T15:00:36Z</time>
      </trkpt>
      <trkpt lat="43.148039" lon="-5.91921">
        <ele>1205.0</ele>
        <time>2012-07-05T15:00:40Z</time>
      </trkpt>
      <trkpt lat="43.148109" lon="-5.919265">
        <ele>1204.0</ele>
        <time>2012-07-05T15:00:42Z</time>
      </trkpt>
      <trkpt lat="43.148014" lon="-5.918865">
        <ele>1199.0</ele>
        <time>2012-07-05T15:00:56Z</time>
      </trkpt>
      <trkpt lat="43.148014" lon="-5.918865">
        <time>2012-07-05T15:01:07Z</time>
      </trkpt>
    </trkseg>
    <trkseg>
      <trkpt lat="43.148014" lon="-5.918865">
        <time>2012-07-05T15:01:13Z</time>
      </trkpt>
      <trkpt lat="43.148135" lon="-5.918949">
        <ele>1179.0</ele>
        <time>2012-07-05T15:01:14Z</time>
      </trkpt>
      <trkpt lat="43.148453" lon="-5.918878">
        <ele>1163.0</ele>
        <time>2012-07-05T15:01:18Z</time>
      </trkpt>
      <trkpt lat="43.148628" lon="-5.918594">
        <ele>1152.0</ele>
        <time>2012-07-05T15:01:22Z</time>
      </trkpt>
      <trkpt lat="43.148727" lon="-5.918254">
        <ele>1140.0</ele>
        <time>2012-07-05T15:01:26Z</time>
      </trkpt>
      <trkpt lat="43.148853" lon="-5.917888">
        <ele>1134.0</ele>
        <time>2012-07-05T15:01:30Z</time>
      </trkpt>
      <trkpt lat="43.148986" lon="-5.917498">
        <ele>1129.0</ele>
        <time>2012-07-05T15:01:34Z</time>
      </trkpt>
      <trkpt lat="43.149103" lon="-5.91721">
        <ele>1128.0</ele>
        <time>2012-07-05T15:01:37Z</time>
      </trkpt>
      <trkpt lat="43.149353" lon="-5.916745">
        <ele>1129.0</ele>
        <time>2012-07-05T15:01:42Z</time>
      </trkpt>
      <trkpt lat="43.14976" lon="-5.916496">
        <ele>1132.0</ele>
        <time>2012-07-05T15:01:46Z</time>
      </trkpt>
      <trkpt lat="43.150238" lon="-5.916467">
        <ele>1134.0</ele>
        <time>2012-07-05T15:01:50Z</time>
      </trkpt>
      <trkpt lat="43.150713" lon="-5.916649">
        <ele>1137.0</ele>
        <time>2012-07-05T15:01:54Z</time>
      </trkpt>
      <trkpt lat="43.151174" lon="-5.916956">
        <ele>1139.0</ele>
        <time>2012-07-05T15:01:58Z</time>
      </trkpt>
      <trkpt lat="43.151526" lon="-5.917614">
        <ele>1142.0</ele>
        <time>2012-07-05T15:02:02Z</time>
      </trkpt>
      <trkpt lat="43.151715" lon="-5.918437">
        <ele>1144.0</ele>
        <time>2012-07-05T15:02:06Z</time>
      </trkpt>
      <trkpt lat="43.151846" lon="-5.919316">
        <ele>1139.0</ele>
        <time>2012-07-05T15:02:10Z</time>
      </trkpt>
      <trkpt lat="43.151973" lon="-5.920176">
        <ele>1138.0</ele>
        <time>2012-07-05T15:02:14Z</time>
      </trkpt>
      <trkpt lat="43.152302" lon="-5.920904">
        <ele>1137.0</ele>
        <time>2012-07-05T15:02:18Z</time>
      </trkpt>
      <trkpt lat="43.152545" lon="-5.92139">
        <ele>1137.0</ele>
        <time>2012-07-05T15:02:21Z</time>
      </trkpt>
      <trkpt lat="43.153177" lon="-5.921112">
        <ele>1131.0</ele>
        <time>2012-07-05T15:02:26Z</time>
      </trkpt>
      <trkpt lat="43.153549" lon="-5.92079">
        <ele>1127.0</ele>
        <time>2012-07-05T15:02:30Z</time>
      </trkpt>
      <trkpt lat="43.154052" lon="-5.920593">
        <ele>1126.0</ele>
        <time>2012-07-05T15:02:34Z</time>
      </trkpt>
      <trkpt lat="43.154665" lon="-5.920723">
        <ele>1128.0</ele>
        <time>2012-07-05T15:02:38Z</time>
      </trkpt>
      <trkpt lat="43.155072" lon="-5.920704">
        <ele>1127.0</ele>
        <time>2012-07-05T15:02:41Z</time>
      </trkpt>
      <trkpt lat="43.155709" lon="-5.920793">
        <ele>1128.0</ele>
        <time>2012-07-05T15:02:46Z</time>
      </trkpt>
      <trkpt lat="43.156227" lon="-5.920964">
        <ele>1128.0</ele>
        <time>2012-07-05T15:02:50Z</time>
      </trkpt>
      <trkpt lat="43.1567" lon="-5.9209">
        <ele>1125.0</ele>
        <time>2012-07-05T15:02:54Z</time>
      </trkpt>
      <trkpt lat="43.156951" lon="-5.920884">
        <ele>1125.0</ele>
        <time>2012-07-05T15:02:56Z</time>
      </trkpt>
      <trkpt lat="43.157554" lon="-5.921565">
        <ele>1124.0</ele>
        <time>2012-07-05T15:03:02Z</time>
      </trkpt>
      <trkpt lat="43.157173" lon="-5.92311">
        <ele>1125.0</ele>
        <time>2012-07-05T15:03:06Z</time>
      </trkpt>
      <trkpt lat="43.156644" lon="-5.923925">
        <ele>1124.0</ele>
        <time>2012-07-05T15:03:10Z</time>
      </trkpt>
      <trkpt lat="43.156249" lon="-5.924382">
        <ele>1112.0</ele>
        <time>2012-07-05T15:03:14Z</time>
      </trkpt>
      <trkpt lat="43.155483" lon="-5.924425">
        <ele>1097.0</ele>
        <time>2012-07-05T15:03:18Z</time>
      </trkpt>
      <trkpt lat="43.15495" lon="-5.924649">
        <ele>1091.0</ele>
        <time>2012-07-05T15:03:22Z</time>
      </trkpt>
      <trkpt lat="43.154933" lon="-5.925333">
        <ele>1089.0</ele>
        <time>2012-07-05T15:03:26Z</time>
      </trkpt>
      <trkpt lat="43.155159" lon="-5.92601">
        <ele>1088.0</ele>
        <time>2012-07-05T15:03:30Z</time>
      </trkpt>
      <trkpt lat="43.155315" lon="-5.926643">
        <ele>1089.0</ele>
        <time>2012-07-05T15:03:34Z</time>
      </trkpt>
      <trkpt lat="43.15546" lon="-5.927292">
        <ele>1089.0</ele>
        <time>2012-07-05T15:03:38Z</time>
      </trkpt>
      <trkpt lat="43.155812" lon="-5.927659">
        <ele>1082.0</ele>
        <time>2012-07-05T15:03:42Z</time>
      </trkpt>
      <trkpt lat="43.156284" lon="-5.927732">
        <ele>1071.0</ele>
        <time>2012-07-05T15:03:46Z</time>
      </trkpt>
      <trkpt lat="43.156642" lon="-5.927981">
        <ele>1063.0</ele>
        <time>2012-07-05T15:03:50Z</time>
      </trkpt>
      <trkpt lat="43.156976" lon="-5.928484">
        <ele>1063.0</ele>
        <time>2012-07-05T15:03:54Z</time>
      </trkpt>
      <trkpt lat="43.157123" lon="-5.929193">
        <ele>1065.0</ele>
        <time>2012-07-05T15:03:58Z</time>
      </trkpt>
      <trkpt lat="43.157214" lon="-5.929956">
        <ele>1065.0</ele>
        <time>2012-07-05T15:04:02Z</time>
      </trkpt>
      <trkpt lat="43.157107" lon="-5.930526">
        <ele>1053.0</ele>
        <time>2012-07-05T15:04:05Z</time>
      </trkpt>
      <trkpt lat="43.156423" lon="-5.930471">
        <ele>980.0</ele>
        <time>2012-07-05T15:04:10Z</time>
      </trkpt>
      <trkpt lat="43.155762" lon="-5.930664">
        <ele>958.0</ele>
        <time>2012-07-05T15:04:14Z</time>
      </trkpt>
      <trkpt lat="43.155214" lon="-5.930963">
        <ele>950.0</ele>
        <time>2012-07-05T15:04:18Z</time>
      </trkpt>
      <trkpt lat="43.154679" lon="-5.931263">
        <ele>946.0</ele>
        <time>2012-07-05T15:04:22Z</time>
      </trkpt>
      <trkpt lat="43.154064" lon="-5.931473">
        <ele>948.0</ele>
        <time>2012-07-05T15:04:26Z</time>
      </trkpt>
      <trkpt lat="43.153602" lon="-5.931653">
        <ele>951.0</ele>
        <time>2012-07-05T15:04:30Z</time>
      </trkpt>
      <trkpt lat="43.153094" lon="-5.931873">
        <ele>951.0</ele>
        <time>2012-07-05T15:04:34Z</time>
      </trkpt>
      <trkpt lat="43.152512" lon="-5.932128">
        <ele>948.0</ele>
        <time>2012-07-05T15:04:38Z</time>
      </trkpt>
      <trkpt lat="43.152091" lon="-5.932473">
        <ele>928.0</ele>
        <time>2012-07-05T15:04:42Z</time>
      </trkpt>
      <trkpt lat="43.151761" lon="-5.932867">
        <ele>922.0</ele>
        <time>2012-07-05T15:04:46Z</time>
      </trkpt>
      <trkpt lat="43.151821" lon="-5.933621">
        <ele>922.0</ele>
        <time>2012-07-05T15:04:50Z</time>
      </trkpt>
      <trkpt lat="43.151943" lon="-5.934402">
        <ele>922.0</ele>
        <time>2012-07-05T15:04:54Z</time>
      </trkpt>
      <trkpt lat="43.152019" lon="-5.935167">
        <ele>919.0</ele>
        <time>2012-07-05T15:04:58Z</time>
      </trkpt>
      <trkpt lat="43.152033" lon="-5.935924">
        <ele>915.0</ele>
        <time>2012-07-05T15:05:02Z</time>
      </trkpt>
      <trkpt lat="43.151924" lon="-5.93668">
        <ele>912.0</ele>
        <time>2012-07-05T15:05:06Z</time>
      </trkpt>
      <trkpt lat="43.151618" lon="-5.937113">
        <ele>910.0</ele>
        <time>2012-07-05T15:05:09Z</time>
      </trkpt>
      <trkpt lat="43.151089" lon="-5.937518">
        <ele>890.0</ele>
        <time>2012-07-05T15:05:13Z</time>
      </trkpt>
      <trkpt lat="43.150496" lon="-5.937723">
        <ele>869.0</ele>
        <time>2012-07-05T15:05:17Z</time>
      </trkpt>
      <trkpt lat="43.149867" lon="-5.938055">
        <ele>839.0</ele>
        <time>2012-07-05T15:05:22Z</time>
      </trkpt>
      <trkpt lat="43.150023" lon="-5.93884">
        <ele>827.0</ele>
        <time>2012-07-05T15:05:26Z</time>
      </trkpt>
      <trkpt lat="43.150431" lon="-5.939442">
        <ele>812.0</ele>
        <time>2012-07-05T15:05:30Z</time>
      </trkpt>
      <trkpt lat="43.150678" lon="-5.940121">
        <ele>807.0</ele>
        <time>2012-07-05T15:05:34Z</time>
      </trkpt>
      <trkpt lat="43.150798" lon="-5.940867">
        <ele>802.0</ele>
        <time>2012-07-05T15:05:38Z</time>
      </trkpt>
      <trkpt lat="43.150589" lon="-5.94158">
        <ele>795.0</ele>
        <time>2012-07-05T15:05:42Z</time>
      </trkpt>
      <trkpt lat="43.150655" lon="-5.942154">
        <ele>791.0</ele>
        <time>2012-07-05T15:05:45Z</time>
      </trkpt>
      <trkpt lat="43.150841" lon="-5.942959">
        <ele>787.0</ele>
        <time>2012-07-05T15:05:50Z</time>
      </trkpt>
      <trkpt lat="43.151458" lon="-5.943015">
        <ele>787.0</ele>
        <time>2012-07-05T15:05:54Z</time>
      </trkpt>
      <trkpt lat="43.151984" lon="-5.943288">
        <ele>789.0</ele>
        <time>2012-07-05T15:05:58Z</time>
      </trkpt>
      <trkpt lat="43.152194" lon="-5.943509">
        <ele>791.0</ele>
        <time>2012-07-05T15:06:00Z</time>
      </trkpt>
      <trkpt lat="43.152411" lon="-5.944633">
        <ele>790.0</ele>
        <time>2012-07-05T15:06:05Z</time>
      </trkpt>
      <trkpt lat="43.151933" lon="-5.945111">
        <ele>778.0</ele>
        <time>2012-07-05T15:06:10Z</time>
      </trkpt>
      <trkpt lat="43.151833" lon="-5.945144">
        <ele>771.0</ele>
        <time>2012-07-05T15:06:12Z</time>
      </trkpt>
      <trkpt lat="43.15196" lon="-5.945798">
        <ele>767.0</ele>
        <time>2012-07-05T15:06:18Z</time>
      </trkpt>
      <trkpt lat="43.151949" lon="-5.94648">
        <ele>769.0</ele>
        <time>2012-07-05T15:06:22Z</time>
      </trkpt>
      <trkpt lat="43.15206" lon="-5.946959">
        <ele>768.0</ele>
        <time>2012-07-05T15:06:25Z</time>
      </trkpt>
      <trkpt lat="43.152322" lon="-5.947746">
        <ele>766.0</ele>
        <time>2012-07-05T15:06:30Z</time>
      </trkpt>
      <trkpt lat="43.152524" lon="-5.948321">
        <ele>767.0</ele>
        <time>2012-07-05T15:06:34Z</time>
      </trkpt>
      <trkpt lat="43.15274" lon="-5.948893">
        <ele>768.0</ele>
        <time>2012-07-05T15:06:38Z</time>
      </trkpt>
      <trkpt lat="43.152913" lon="-5.949531">
        <ele>770.0</ele>
        <time>2012-07-05T15:06:42Z</time>
      </trkpt>
      <trkpt lat="43.153048" lon="-5.950252">
        <ele>772.0</ele>
        <time>2012-07-05T15:06:46Z</time>
      </trkpt>
      <trkpt lat="43.153232" lon="-5.950948">
        <ele>772.0</ele>
        <time>2012-07-05T15:06:50Z</time>
      </trkpt>
      <trkpt lat="43.153336" lon="-5.951284">
        <ele>772.0</ele>
        <time>2012-07-05T15:06:52Z</time>
      </trkpt>
      <trkpt lat="43.151742" lon="-5.950696">
        <ele>768.0</ele>
        <time>2012-07-05T15:06:58Z</time>
      </trkpt>
      <trkpt lat="43.150819" lon="-5.949039">
        <ele>764.0</ele>
        <time>2012-07-05T15:07:02Z</time>
      </trkpt>
      <trkpt lat="43.15036" lon="-5.948391">
        <ele>763.0</ele>
        <time>2012-07-05T15:07:06Z</time>
      </trkpt>
      <trkpt lat="43.149802" lon="-5.948107">
        <ele>762.0</ele>
        <time>2012-07-05T15:07:10Z</time>
      </trkpt>
      <trkpt lat="43.14955" lon="-5.94878">
        <ele>751.0</ele>
        <time>2012-07-05T15:07:14Z</time>
      </trkpt>
      <trkpt lat="43.149381" lon="-5.949285">
        <ele>745.0</ele>
        <time>2012-07-05T15:07:18Z</time>
      </trkpt>
      <trkpt lat="43.149237" lon="-5.949885">
        <ele>744.0</ele>
        <time>2012-07-05T15:07:22Z</time>
      </trkpt>
      <trkpt lat="43.149168" lon="-5.950382">
        <ele>744.0</ele>
        <time>2012-07-05T15:07:25Z</time>
      </trkpt>
      <trkpt lat="43.149076" lon="-5.951268">
        <ele>744.0</ele>
        <time>2012-07-05T15:07:30Z</time>
      </trkpt>
      <trkpt lat="43.148949" lon="-5.951967">
        <ele>746.0</ele>
        <time>2012-07-05T15:07:34Z</time>
      </trkpt>
      <trkpt lat="43.148633" lon="-5.952601">
        <ele>746.0</ele>
        <time>2012-07-05T15:07:38Z</time>
      </trkpt>
      <trkpt lat="43.148723" lon="-5.954731">
        <ele>697.0</ele>
        <time>2012-07-05T15:07:46Z</time>
      </trkpt>
      <trkpt lat="43.148986" lon="-5.955863">
        <ele>656.0</ele>
        <time>2012-07-05T15:07:50Z</time>
      </trkpt>
      <trkpt lat="43.149121" lon="-5.956754">
        <ele>637.0</ele>
        <time>2012-07-05T15:07:54Z</time>
      </trkpt>
      <trkpt lat="43.149339" lon="-5.957512">
        <ele>627.0</ele>
        <time>2012-07-05T15:07:58Z</time>
      </trkpt>
      <trkpt lat="43.149518" lon="-5.958277">
        <ele>623.0</ele>
        <time>2012-07-05T15:08:02Z</time>
      </trkpt>
      <trkpt lat="43.149598" lon="-5.959114">
        <ele>623.0</ele>
        <time>2012-07-05T15:08:06Z</time>
      </trkpt>
      <trkpt lat="43.149513" lon="-5.959655">
        <ele>620.0</ele>
        <time>2012-07-05T15:08:10Z</time>
      </trkpt>
      <trkpt lat="43.149239" lon="-5.959924">
        <ele>613.0</ele>
        <time>2012-07-05T15:08:13Z</time>
      </trkpt>
      <trkpt lat="43.149339" lon="-5.960186">
        <ele>605.0</ele>
        <time>2012-07-05T15:08:17Z</time>
      </trkpt>
      <trkpt lat="43.149594" lon="-5.960488">
        <ele>600.0</ele>
        <time>2012-07-05T15:08:22Z</time>
      </trkpt>
      <trkpt lat="43.149895" lon="-5.96068">
        <ele>600.0</ele>
        <time>2012-07-05T15:08:26Z</time>
      </trkpt>
      <trkpt lat="43.150055" lon="-5.960833">
        <ele>599.0</ele>
        <time>2012-07-05T15:08:29Z</time>
      </trkpt>
      <trkpt lat="43.150381" lon="-5.961127">
        <ele>598.0</ele>
        <time>2012-07-05T15:08:34Z</time>
      </trkpt>
      <trkpt lat="43.150634" lon="-5.961406">
        <ele>597.0</ele>
        <time>2012-07-05T15:08:38Z</time>
      </trkpt>
      <trkpt lat="43.15083" lon="-5.961786">
        <ele>597.0</ele>
        <time>2012-07-05T15:08:42Z</time>
      </trkpt>
      <trkpt lat="43.151036" lon="-5.962147">
        <ele>597.0</ele>
        <time>2012-07-05T15:08:46Z</time>
      </trkpt>
      <trkpt lat="43.151153" lon="-5.962412">
        <ele>598.0</ele>
        <time>2012-07-05T15:08:49Z</time>
      </trkpt>
      <trkpt lat="43.15123" lon="-5.96266">
        <ele>599.0</ele>
        <time>2012-07-05T15:08:53Z</time>
      </trkpt>
      <trkpt lat="43.151283" lon="-5.962854">
        <ele>599.0</ele>
        <time>2012-07-05T15:08:57Z</time>
      </trkpt>
      <trkpt lat="43.151379" lon="-5.963035">
        <ele>598.0</ele>
        <time>2012-07-05T15:09:02Z</time>
      </trkpt>
      <trkpt lat="43.151521" lon="-5.963174">
        <ele>596.0</ele>
        <time>2012-07-05T15:09:06Z</time>
      </trkpt>
      <trkpt lat="43.151685" lon="-5.963319">
        <ele>595.0</ele>
        <time>2012-07-05T15:09:10Z</time>
      </trkpt>
      <trkpt lat="43.151863" lon="-5.963468">
        <ele>595.0</ele>
        <time>2012-07-05T15:09:14Z</time>
      </trkpt>
      <trkpt lat="43.152039" lon="-5.963621">
        <ele>596.0</ele>
        <time>2012-07-05T15:09:18Z</time>
      </trkpt>
      <trkpt lat="43.152226" lon="-5.963757">
        <ele>597.0</ele>
        <time>2012-07-05T15:09:22Z</time>
      </trkpt>
      <trkpt lat="43.152427" lon="-5.96389">
        <ele>597.0</ele>
        <time>2012-07-05T15:09:26Z</time>
      </trkpt>
      <trkpt lat="43.15263" lon="-5.964019">
        <ele>597.0</ele>
        <time>2012-07-05T15:09:30Z</time>
      </trkpt>
      <trkpt lat="43.152725" lon="-5.964086">
        <ele>597.0</ele>
        <time>2012-07-05T15:09:32Z</time>
      </trkpt>
      <trkpt lat="43.152977" lon="-5.964337">
        <ele>597.0</ele>
        <time>2012-07-05T15:09:38Z</time>
      </trkpt>
      <trkpt lat="43.153077" lon="-5.964528">
        <ele>598.0</ele>
        <time>2012-07-05T15:09:42Z</time>
      </trkpt>
      <trkpt lat="43.153124" lon="-5.96473">
        <ele>599.0</ele>
        <time>2012-07-05T15:09:48Z</time>
      </trkpt>
      <trkpt lat="43.15315" lon="-5.964842">
        <ele>599.0</ele>
        <time>2012-07-05T15:09:51Z</time>
      </trkpt>
      <trkpt lat="43.153232" lon="-5.965311">
        <ele>600.0</ele>
        <time>2012-07-05T15:09:58Z</time>
      </trkpt>
      <trkpt lat="43.153308" lon="-5.965714">
        <ele>599.0</ele>
        <time>2012-07-05T15:10:02Z</time>
      </trkpt>
      <trkpt lat="43.153422" lon="-5.96622">
        <ele>590.0</ele>
        <time>2012-07-05T15:10:06Z</time>
      </trkpt>
      <trkpt lat="43.1536" lon="-5.966844">
        <ele>584.0</ele>
        <time>2012-07-05T15:10:10Z</time>
      </trkpt>
      <trkpt lat="43.153818" lon="-5.967477">
        <ele>580.0</ele>
        <time>2012-07-05T15:10:14Z</time>
      </trkpt>
      <trkpt lat="43.154097" lon="-5.96803">
        <ele>577.0</ele>
        <time>2012-07-05T15:10:18Z</time>
      </trkpt>
      <trkpt lat="43.154488" lon="-5.96828">
        <ele>576.0</ele>
        <time>2012-07-05T15:10:22Z</time>
      </trkpt>
      <trkpt lat="43.154822" lon="-5.968441">
        <ele>576.0</ele>
        <time>2012-07-05T15:10:26Z</time>
      </trkpt>
      <trkpt lat="43.155068" lon="-5.968626">
        <ele>575.0</ele>
        <time>2012-07-05T15:10:30Z</time>
      </trkpt>
      <trkpt lat="43.155239" lon="-5.968841">
        <ele>574.0</ele>
        <time>2012-07-05T15:10:33Z</time>
      </trkpt>
      <trkpt lat="43.155503" lon="-5.969251">
        <ele>574.0</ele>
        <time>2012-07-05T15:10:38Z</time>
      </trkpt>
      <trkpt lat="43.155679" lon="-5.969622">
        <ele>574.0</ele>
        <time>2012-07-05T15:10:42Z</time>
      </trkpt>
      <trkpt lat="43.155859" lon="-5.970017">
        <ele>574.0</ele>
        <time>2012-07-05T15:10:46Z</time>
      </trkpt>
      <trkpt lat="43.156058" lon="-5.970467">
        <ele>575.0</ele>
        <time>2012-07-05T15:10:50Z</time>
      </trkpt>
      <trkpt lat="43.156224" lon="-5.970979">
        <ele>576.0</ele>
        <time>2012-07-05T15:10:54Z</time>
      </trkpt>
      <trkpt lat="43.156264" lon="-5.9715">
        <ele>576.0</ele>
        <time>2012-07-05T15:10:58Z</time>
      </trkpt>
      <trkpt lat="43.156372" lon="-5.971882">
        <ele>571.0</ele>
        <time>2012-07-05T15:11:02Z</time>
      </trkpt>
      <trkpt lat="43.156516" lon="-5.972333">
        <ele>568.0</ele>
        <time>2012-07-05T15:11:06Z</time>
      </trkpt>
      <trkpt lat="43.156882" lon="-5.972708">
        <ele>568.0</ele>
        <time>2012-07-05T15:11:10Z</time>
      </trkpt>
      <trkpt lat="43.157223" lon="-5.973102">
        <ele>568.0</ele>
        <time>2012-07-05T15:11:14Z</time>
      </trkpt>
      <trkpt lat="43.157587" lon="-5.97353">
        <ele>569.0</ele>
        <time>2012-07-05T15:11:18Z</time>
      </trkpt>
      <trkpt lat="43.157916" lon="-5.973768">
        <ele>569.0</ele>
        <time>2012-07-05T15:11:22Z</time>
      </trkpt>
      <trkpt lat="43.158062" lon="-5.973837">
        <ele>569.0</ele>
        <time>2012-07-05T15:11:25Z</time>
      </trkpt>
      <trkpt lat="43.158199" lon="-5.973746">
        <ele>569.0</ele>
        <time>2012-07-05T15:11:30Z</time>
      </trkpt>
      <trkpt lat="43.158238" lon="-5.973581">
        <ele>568.0</ele>
        <time>2012-07-05T15:11:34Z</time>
      </trkpt>
      <trkpt lat="43.158245" lon="-5.973451">
        <ele>568.0</ele>
        <time>2012-07-05T15:11:39Z</time>
      </trkpt>
      <trkpt lat="43.158245" lon="-5.973451">
        <time>2012-07-05T15:11:50Z</time>
      </trkpt>
    </trkseg>
    <trkseg>
      <trkpt lat="43.158245" lon="-5.973451">
        <time>2012-07-05T15:15:00Z</time>
      </trkpt>
      <trkpt lat="43.158365" lon="-5.973387">
        <ele>555.0</ele>
        <time>2012-07-05T15:15:06Z</time>
      </trkpt>
      <trkpt lat="43.158581" lon="-5.973367">
        <ele>548.0</ele>
        <time>2012-07-05T15:15:10Z</time>
      </trkpt>
      <trkpt lat="43.15881" lon="-5.973316">
        <ele>541.0</ele>
        <time>2012-07-05T15:15:14Z</time>
      </trkpt>
      <trkpt lat="43.159139" lon="-5.973278">
        <ele>539.0</ele>
        <time>2012-07-05T15:15:20Z</time>
      </trkpt>
      <trkpt lat="43.159243" lon="-5.97335">
        <ele>539.0</ele>
        <time>2012-07-05T15:15:22Z</time>
      </trkpt>
      <trkpt lat="43.159447" lon="-5.973477">
        <ele>539.0</ele>
        <time>2012-07-05T15:15:26Z</time>
      </trkpt>
      <trkpt lat="43.159544" lon="-5.97353">
        <ele>539.0</ele>
        <time>2012-07-05T15:15:28Z</time>
      </trkpt>
      <trkpt lat="43.159822" lon="-5.973729">
        <ele>541.0</ele>
        <time>2012-07-05T15:15:34Z</time>
      </trkpt>
      <trkpt lat="43.160262" lon="-5.974183">
        <ele>544.0</ele>
        <time>2012-07-05T15:15:44Z</time>
      </trkpt>
      <trkpt lat="43.160551" lon="-5.974436">
        <ele>543.0</ele>
        <time>2012-07-05T15:15:50Z</time>
      </trkpt>
      <trkpt lat="43.160654" lon="-5.97451">
        <ele>542.0</ele>
        <time>2012-07-05T15:15:52Z</time>
      </trkpt>
      <trkpt lat="43.161082" lon="-5.974826">
        <ele>542.0</ele>
        <time>2012-07-05T15:16:00Z</time>
      </trkpt>
      <trkpt lat="43.161302" lon="-5.974992">
        <ele>543.0</ele>
        <time>2012-07-05T15:16:04Z</time>
      </trkpt>
      <trkpt lat="43.161511" lon="-5.975183">
        <ele>543.0</ele>
        <time>2012-07-05T15:16:08Z</time>
      </trkpt>
      <trkpt lat="43.161711" lon="-5.975575">
        <ele>545.0</ele>
        <time>2012-07-05T15:16:12Z</time>
      </trkpt>
      <trkpt lat="43.162069" lon="-5.975851">
        <ele>546.0</ele>
        <time>2012-07-05T15:16:16Z</time>
      </trkpt>
      <trkpt lat="43.162459" lon="-5.976079">
        <ele>547.0</ele>
        <time>2012-07-05T15:16:20Z</time>
      </trkpt>
      <trkpt lat="43.162862" lon="-5.976316">
        <ele>548.0</ele>
        <time>2012-07-05T15:16:24Z</time>
      </trkpt>
      <trkpt lat="43.163241" lon="-5.97661">
        <ele>548.0</ele>
        <time>2012-07-05T15:16:28Z</time>
      </trkpt>
      <trkpt lat="43.163615" lon="-5.976935">
        <ele>548.0</ele>
        <time>2012-07-05T15:16:32Z</time>
      </trkpt>
      <trkpt lat="43.163838" lon="-5.977226">
        <ele>547.0</ele>
        <time>2012-07-05T15:16:35Z</time>
      </trkpt>
      <trkpt lat="43.164042" lon="-5.978053">
        <ele>545.0</ele>
        <time>2012-07-05T15:16:40Z</time>
      </trkpt>
      <trkpt lat="43.164144" lon="-5.978682">
        <ele>543.0</ele>
        <time>2012-07-05T15:16:44Z</time>
      </trkpt>
      <trkpt lat="43.164257" lon="-5.979314">
        <ele>542.0</ele>
        <time>2012-07-05T15:16:48Z</time>
      </trkpt>
      <trkpt lat="43.164365" lon="-5.97994">
        <ele>540.0</ele>
        <time>2012-07-05T15:16:52Z</time>
      </trkpt>
      <trkpt lat="43.164481" lon="-5.980553">
        <ele>537.0</ele>
        <time>2012-07-05T15:16:56Z</time>
      </trkpt>
      <trkpt lat="43.16459" lon="-5.98115">
        <ele>536.0</ele>
        <time>2012-07-05T15:17:00Z</time>
      </trkpt>
      <trkpt lat="43.164679" lon="-5.981739">
        <ele>535.0</ele>
        <time>2012-07-05T15:17:04Z</time>
      </trkpt>
      <trkpt lat="43.16478" lon="-5.982312">
        <ele>535.0</ele>
        <time>2012-07-05T15:17:08Z</time>
      </trkpt>
      <trkpt lat="43.164869" lon="-5.982611">
        <ele>536.0</ele>
        <time>2012-07-05T15:17:12Z</time>
      </trkpt>
      <trkpt lat="43.165097" lon="-5.982994">
        <ele>533.0</ele>
        <time>2012-07-05T15:17:16Z</time>
      </trkpt>
      <trkpt lat="43.165363" lon="-5.983394">
        <ele>532.0</ele>
        <time>2012-07-05T15:17:20Z</time>
      </trkpt>
      <trkpt lat="43.165643" lon="-5.98377">
        <ele>532.0</ele>
        <time>2012-07-05T15:17:24Z</time>
      </trkpt>
      <trkpt lat="43.165944" lon="-5.984136">
        <ele>533.0</ele>
        <time>2012-07-05T15:17:28Z</time>
      </trkpt>
      <trkpt lat="43.166218" lon="-5.984481">
        <ele>533.0</ele>
        <time>2012-07-05T15:17:32Z</time>
      </trkpt>
      <trkpt lat="43.166479" lon="-5.984823">
        <ele>533.0</ele>
        <time>2012-07-05T15:17:36Z</time>
      </trkpt>
      <trkpt lat="43.166707" lon="-5.985143">
        <ele>533.0</ele>
        <time>2012-07-05T15:17:40Z</time>
      </trkpt>
      <trkpt lat="43.166815" lon="-5.98535">
        <ele>533.0</ele>
        <time>2012-07-05T15:17:43Z</time>
      </trkpt>
      <trkpt lat="43.167104" lon="-5.985687">
        <ele>532.0</ele>
        <time>2012-07-05T15:17:48Z</time>
      </trkpt>
      <trkpt lat="43.167269" lon="-5.98584">
        <ele>532.0</ele>
        <time>2012-07-05T15:17:51Z</time>
      </trkpt>
      <trkpt lat="43.167463" lon="-5.98595">
        <ele>533.0</ele>
        <time>2012-07-05T15:17:55Z</time>
      </trkpt>
      <trkpt lat="43.16769" lon="-5.985935">
        <ele>533.0</ele>
        <time>2012-07-05T15:17:59Z</time>
      </trkpt>
      <trkpt lat="43.167894" lon="-5.985964">
        <ele>532.0</ele>
        <time>2012-07-05T15:18:03Z</time>
      </trkpt>
      <trkpt lat="43.16806" lon="-5.986028">
        <ele>531.0</ele>
        <time>2012-07-05T15:18:07Z</time>
      </trkpt>
      <trkpt lat="43.168211" lon="-5.986112">
        <ele>530.0</ele>
        <time>2012-07-05T15:18:11Z</time>
      </trkpt>
      <trkpt lat="43.168338" lon="-5.986228">
        <ele>530.0</ele>
        <time>2012-07-05T15:18:15Z</time>
      </trkpt>
      <trkpt lat="43.16847" lon="-5.986609">
        <ele>530.0</ele>
        <time>2012-07-05T15:18:24Z</time>
      </trkpt>
      <trkpt lat="43.168521" lon="-5.986715">
        <ele>530.0</ele>
        <time>2012-07-05T15:18:27Z</time>
      </trkpt>
      <trkpt lat="43.168574" lon="-5.986884">
        <ele>530.0</ele>
        <time>2012-07-05T15:18:31Z</time>
      </trkpt>
      <trkpt lat="43.16861" lon="-5.986992">
        <ele>529.0</ele>
        <time>2012-07-05T15:18:34Z</time>
      </trkpt>
      <trkpt lat="43.168684" lon="-5.987171">
        <ele>526.0</ele>
        <time>2012-07-05T15:18:39Z</time>
      </trkpt>
      <trkpt lat="43.168784" lon="-5.987342">
        <ele>523.0</ele>
        <time>2012-07-05T15:18:43Z</time>
      </trkpt>
      <trkpt lat="43.168912" lon="-5.987522">
        <ele>522.0</ele>
        <time>2012-07-05T15:18:47Z</time>
      </trkpt>
      <trkpt lat="43.16904" lon="-5.987714">
        <ele>521.0</ele>
        <time>2012-07-05T15:18:51Z</time>
      </trkpt>
      <trkpt lat="43.169175" lon="-5.987907">
        <ele>521.0</ele>
        <time>2012-07-05T15:18:55Z</time>
      </trkpt>
      <trkpt lat="43.169324" lon="-5.988098">
        <ele>521.0</ele>
        <time>2012-07-05T15:18:59Z</time>
      </trkpt>
      <trkpt lat="43.169662" lon="-5.988524">
        <ele>522.0</ele>
        <time>2012-07-05T15:19:07Z</time>
      </trkpt>
      <trkpt lat="43.169853" lon="-5.988732">
        <ele>522.0</ele>
        <time>2012-07-05T15:19:11Z</time>
      </trkpt>
      <trkpt lat="43.170042" lon="-5.988917">
        <ele>522.0</ele>
        <time>2012-07-05T15:19:15Z</time>
      </trkpt>
      <trkpt lat="43.170235" lon="-5.989102">
        <ele>522.0</ele>
        <time>2012-07-05T15:19:19Z</time>
      </trkpt>
      <trkpt lat="43.170497" lon="-5.989411">
        <ele>522.0</ele>
        <time>2012-07-05T15:19:24Z</time>
      </trkpt>
      <trkpt lat="43.170739" lon="-5.989731">
        <ele>523.0</ele>
        <time>2012-07-05T15:19:28Z</time>
      </trkpt>
      <trkpt lat="43.171045" lon="-5.990137">
        <ele>525.0</ele>
        <time>2012-07-05T15:19:32Z</time>
      </trkpt>
      <trkpt lat="43.171399" lon="-5.990372">
        <ele>526.0</ele>
        <time>2012-07-05T15:19:36Z</time>
      </trkpt>
      <trkpt lat="43.171755" lon="-5.99056">
        <ele>527.0</ele>
        <time>2012-07-05T15:19:40Z</time>
      </trkpt>
      <trkpt lat="43.172094" lon="-5.990796">
        <ele>527.0</ele>
        <time>2012-07-05T15:19:44Z</time>
      </trkpt>
      <trkpt lat="43.172413" lon="-5.99118">
        <ele>527.0</ele>
        <time>2012-07-05T15:19:48Z</time>
      </trkpt>
      <trkpt lat="43.172801" lon="-5.99147">
        <ele>526.0</ele>
        <time>2012-07-05T15:19:52Z</time>
      </trkpt>
      <trkpt lat="43.173278" lon="-5.991468">
        <ele>526.0</ele>
        <time>2012-07-05T15:19:56Z</time>
      </trkpt>
      <trkpt lat="43.173753" lon="-5.99144">
        <ele>525.0</ele>
        <time>2012-07-05T15:20:00Z</time>
      </trkpt>
      <trkpt lat="43.174203" lon="-5.991486">
        <ele>526.0</ele>
        <time>2012-07-05T15:20:04Z</time>
      </trkpt>
      <trkpt lat="43.174632" lon="-5.991628">
        <ele>526.0</ele>
        <time>2012-07-05T15:20:08Z</time>
      </trkpt>
      <trkpt lat="43.175004" lon="-5.991853">
        <ele>525.0</ele>
        <time>2012-07-05T15:20:12Z</time>
      </trkpt>
      <trkpt lat="43.175226" lon="-5.992295">
        <ele>526.0</ele>
        <time>2012-07-05T15:20:16Z</time>
      </trkpt>
      <trkpt lat="43.175415" lon="-5.99272">
        <ele>526.0</ele>
        <time>2012-07-05T15:20:20Z</time>
      </trkpt>
      <trkpt lat="43.1756" lon="-5.993097">
        <ele>526.0</ele>
        <time>2012-07-05T15:20:24Z</time>
      </trkpt>
      <trkpt lat="43.175838" lon="-5.993406">
        <ele>524.0</ele>
        <time>2012-07-05T15:20:28Z</time>
      </trkpt>
      <trkpt lat="43.176106" lon="-5.99358">
        <ele>524.0</ele>
        <time>2012-07-05T15:20:32Z</time>
      </trkpt>
      <trkpt lat="43.17637" lon="-5.99371">
        <ele>524.0</ele>
        <time>2012-07-05T15:20:36Z</time>
      </trkpt>
      <trkpt lat="43.176864" lon="-5.993824">
        <ele>525.0</ele>
        <time>2012-07-05T15:20:44Z</time>
      </trkpt>
      <trkpt lat="43.177125" lon="-5.993805">
        <ele>525.0</ele>
        <time>2012-07-05T15:20:48Z</time>
      </trkpt>
      <trkpt lat="43.177387" lon="-5.993725">
        <ele>525.0</ele>
        <time>2012-07-05T15:20:52Z</time>
      </trkpt>
      <trkpt lat="43.177657" lon="-5.993687">
        <ele>526.0</ele>
        <time>2012-07-05T15:20:56Z</time>
      </trkpt>
      <trkpt lat="43.177952" lon="-5.993709">
        <ele>526.0</ele>
        <time>2012-07-05T15:21:00Z</time>
      </trkpt>
      <trkpt lat="43.178267" lon="-5.993852">
        <ele>526.0</ele>
        <time>2012-07-05T15:21:04Z</time>
      </trkpt>
      <trkpt lat="43.178571" lon="-5.994031">
        <ele>527.0</ele>
        <time>2012-07-05T15:21:08Z</time>
      </trkpt>
      <trkpt lat="43.178877" lon="-5.994172">
        <ele>528.0</ele>
        <time>2012-07-05T15:21:12Z</time>
      </trkpt>
      <trkpt lat="43.179197" lon="-5.994219">
        <ele>529.0</ele>
        <time>2012-07-05T15:21:16Z</time>
      </trkpt>
      <trkpt lat="43.179546" lon="-5.994167">
        <ele>529.0</ele>
        <time>2012-07-05T15:21:20Z</time>
      </trkpt>
      <trkpt lat="43.179936" lon="-5.994143">
        <ele>529.0</ele>
        <time>2012-07-05T15:21:24Z</time>
      </trkpt>
      <trkpt lat="43.180345" lon="-5.99411">
        <ele>529.0</ele>
        <time>2012-07-05T15:21:28Z</time>
      </trkpt>
      <trkpt lat="43.18056" lon="-5.994059">
        <ele>529.0</ele>
        <time>2012-07-05T15:21:30Z</time>
      </trkpt>
      <trkpt lat="43.181189" lon="-5.99365">
        <ele>529.0</ele>
        <time>2012-07-05T15:21:36Z</time>
      </trkpt>
      <trkpt lat="43.181594" lon="-5.993244">
        <ele>528.0</ele>
        <time>2012-07-05T15:21:40Z</time>
      </trkpt>
      <trkpt lat="43.181805" lon="-5.993044">
        <ele>528.0</ele>
        <time>2012-07-05T15:21:42Z</time>
      </trkpt>
      <trkpt lat="43.182535" lon="-5.992633">
        <ele>528.0</ele>
        <time>2012-07-05T15:21:48Z</time>
      </trkpt>
      <trkpt lat="43.183103" lon="-5.992697">
        <ele>527.0</ele>
        <time>2012-07-05T15:21:52Z</time>
      </trkpt>
      <trkpt lat="43.183642" lon="-5.993015">
        <ele>527.0</ele>
        <time>2012-07-05T15:21:56Z</time>
      </trkpt>
      <trkpt lat="43.184073" lon="-5.99353">
        <ele>527.0</ele>
        <time>2012-07-05T15:22:00Z</time>
      </trkpt>
      <trkpt lat="43.184593" lon="-5.993598">
        <ele>525.0</ele>
        <time>2012-07-05T15:22:04Z</time>
      </trkpt>
      <trkpt lat="43.185127" lon="-5.993516">
        <ele>524.0</ele>
        <time>2012-07-05T15:22:08Z</time>
      </trkpt>
      <trkpt lat="43.185538" lon="-5.993443">
        <ele>524.0</ele>
        <time>2012-07-05T15:22:11Z</time>
      </trkpt>
      <trkpt lat="43.186196" lon="-5.99348">
        <ele>524.0</ele>
        <time>2012-07-05T15:22:16Z</time>
      </trkpt>
      <trkpt lat="43.186692" lon="-5.99371">
        <ele>523.0</ele>
        <time>2012-07-05T15:22:20Z</time>
      </trkpt>
      <trkpt lat="43.187114" lon="-5.993982">
        <ele>524.0</ele>
        <time>2012-07-05T15:22:24Z</time>
      </trkpt>
      <trkpt lat="43.187513" lon="-5.994219">
        <ele>524.0</ele>
        <time>2012-07-05T15:22:28Z</time>
      </trkpt>
      <trkpt lat="43.187906" lon="-5.994404">
        <ele>524.0</ele>
        <time>2012-07-05T15:22:32Z</time>
      </trkpt>
      <trkpt lat="43.188276" lon="-5.994476">
        <ele>524.0</ele>
        <time>2012-07-05T15:22:36Z</time>
      </trkpt>
      <trkpt lat="43.188618" lon="-5.994492">
        <ele>524.0</ele>
        <time>2012-07-05T15:22:40Z</time>
      </trkpt>
      <trkpt lat="43.188925" lon="-5.994468">
        <ele>524.0</ele>
        <time>2012-07-05T15:22:44Z</time>
      </trkpt>
      <trkpt lat="43.189247" lon="-5.994485">
        <ele>524.0</ele>
        <time>2012-07-05T15:22:48Z</time>
      </trkpt>
      <trkpt lat="43.189583" lon="-5.994509">
        <ele>523.0</ele>
        <time>2012-07-05T15:22:52Z</time>
      </trkpt>
      <trkpt lat="43.18994" lon="-5.994594">
        <ele>522.0</ele>
        <time>2012-07-05T15:22:56Z</time>
      </trkpt>
      <trkpt lat="43.190199" lon="-5.994661">
        <ele>521.0</ele>
        <time>2012-07-05T15:22:59Z</time>
      </trkpt>
      <trkpt lat="43.190544" lon="-5.994731">
        <ele>520.0</ele>
        <time>2012-07-05T15:23:03Z</time>
      </trkpt>
      <trkpt lat="43.19098" lon="-5.99482">
        <ele>517.0</ele>
        <time>2012-07-05T15:23:08Z</time>
      </trkpt>
      <trkpt lat="43.191339" lon="-5.994913">
        <ele>515.0</ele>
        <time>2012-07-05T15:23:12Z</time>
      </trkpt>
      <trkpt lat="43.191685" lon="-5.99505">
        <ele>513.0</ele>
        <time>2012-07-05T15:23:16Z</time>
      </trkpt>
      <trkpt lat="43.191986" lon="-5.995208">
        <ele>512.0</ele>
        <time>2012-07-05T15:23:20Z</time>
      </trkpt>
      <trkpt lat="43.192202" lon="-5.995365">
        <ele>512.0</ele>
        <time>2012-07-05T15:23:23Z</time>
      </trkpt>
      <trkpt lat="43.192496" lon="-5.995579">
        <ele>512.0</ele>
        <time>2012-07-05T15:23:27Z</time>
      </trkpt>
      <trkpt lat="43.192849" lon="-5.995884">
        <ele>512.0</ele>
        <time>2012-07-05T15:23:32Z</time>
      </trkpt>
      <trkpt lat="43.193118" lon="-5.996156">
        <ele>511.0</ele>
        <time>2012-07-05T15:23:36Z</time>
      </trkpt>
      <trkpt lat="43.193307" lon="-5.996525">
        <ele>512.0</ele>
        <time>2012-07-05T15:23:40Z</time>
      </trkpt>
      <trkpt lat="43.193339" lon="-5.997157">
        <ele>514.0</ele>
        <time>2012-07-05T15:23:44Z</time>
      </trkpt>
      <trkpt lat="43.193299" lon="-5.997831">
        <ele>515.0</ele>
        <time>2012-07-05T15:23:48Z</time>
      </trkpt>
      <trkpt lat="43.193322" lon="-5.998376">
        <ele>516.0</ele>
        <time>2012-07-05T15:23:52Z</time>
      </trkpt>
      <trkpt lat="43.193401" lon="-5.998856">
        <ele>517.0</ele>
        <time>2012-07-05T15:23:56Z</time>
      </trkpt>
      <trkpt lat="43.193509" lon="-5.999335">
        <ele>518.0</ele>
        <time>2012-07-05T15:24:00Z</time>
      </trkpt>
      <trkpt lat="43.193745" lon="-5.999833">
        <ele>517.0</ele>
        <time>2012-07-05T15:24:04Z</time>
      </trkpt>
      <trkpt lat="43.193997" lon="-6.000288">
        <ele>516.0</ele>
        <time>2012-07-05T15:24:08Z</time>
      </trkpt>
      <trkpt lat="43.194245" lon="-6.00071">
        <ele>515.0</ele>
        <time>2012-07-05T15:24:12Z</time>
      </trkpt>
      <trkpt lat="43.194478" lon="-6.001124">
        <ele>515.0</ele>
        <time>2012-07-05T15:24:16Z</time>
      </trkpt>
      <trkpt lat="43.194693" lon="-6.001524">
        <ele>515.0</ele>
        <time>2012-07-05T15:24:20Z</time>
      </trkpt>
      <trkpt lat="43.194885" lon="-6.001857">
        <ele>515.0</ele>
        <time>2012-07-05T15:24:24Z</time>
      </trkpt>
      <trkpt lat="43.195087" lon="-6.002162">
        <ele>515.0</ele>
        <time>2012-07-05T15:24:28Z</time>
      </trkpt>
      <trkpt lat="43.195251" lon="-6.002505">
        <ele>515.0</ele>
        <time>2012-07-05T15:24:32Z</time>
      </trkpt>
      <trkpt lat="43.195377" lon="-6.002965">
        <ele>515.0</ele>
        <time>2012-07-05T15:24:36Z</time>
      </trkpt>
      <trkpt lat="43.195608" lon="-6.003398">
        <ele>515.0</ele>
        <time>2012-07-05T15:24:40Z</time>
      </trkpt>
      <trkpt lat="43.195949" lon="-6.003702">
        <ele>515.0</ele>
        <time>2012-07-05T15:24:44Z</time>
      </trkpt>
      <trkpt lat="43.196203" lon="-6.003902">
        <ele>515.0</ele>
        <time>2012-07-05T15:24:47Z</time>
      </trkpt>
      <trkpt lat="43.196623" lon="-6.004198">
        <ele>514.0</ele>
        <time>2012-07-05T15:24:52Z</time>
      </trkpt>
      <trkpt lat="43.196916" lon="-6.004462">
        <ele>514.0</ele>
        <time>2012-07-05T15:24:56Z</time>
      </trkpt>
      <trkpt lat="43.197166" lon="-6.004803">
        <ele>515.0</ele>
        <time>2012-07-05T15:25:00Z</time>
      </trkpt>
      <trkpt lat="43.197364" lon="-6.005212">
        <ele>515.0</ele>
        <time>2012-07-05T15:25:04Z</time>
      </trkpt>
      <trkpt lat="43.19751" lon="-6.005613">
        <ele>515.0</ele>
        <time>2012-07-05T15:25:08Z</time>
      </trkpt>
      <trkpt lat="43.197713" lon="-6.005921">
        <ele>514.0</ele>
        <time>2012-07-05T15:25:12Z</time>
      </trkpt>
      <trkpt lat="43.197914" lon="-6.006235">
        <ele>512.0</ele>
        <time>2012-07-05T15:25:16Z</time>
      </trkpt>
      <trkpt lat="43.198118" lon="-6.006551">
        <ele>511.0</ele>
        <time>2012-07-05T15:25:20Z</time>
      </trkpt>
      <trkpt lat="43.198322" lon="-6.006861">
        <ele>510.0</ele>
        <time>2012-07-05T15:25:24Z</time>
      </trkpt>
      <trkpt lat="43.198519" lon="-6.007164">
        <ele>509.0</ele>
        <time>2012-07-05T15:25:28Z</time>
      </trkpt>
      <trkpt lat="43.198657" lon="-6.007402">
        <ele>509.0</ele>
        <time>2012-07-05T15:25:31Z</time>
      </trkpt>
      <trkpt lat="43.198785" lon="-6.007836">
        <ele>510.0</ele>
        <time>2012-07-05T15:25:36Z</time>
      </trkpt>
      <trkpt lat="43.198812" lon="-6.008083">
        <ele>512.0</ele>
        <time>2012-07-05T15:25:39Z</time>
      </trkpt>
      <trkpt lat="43.198858" lon="-6.008368">
        <ele>514.0</ele>
        <time>2012-07-05T15:25:43Z</time>
      </trkpt>
      <trkpt lat="43.199004" lon="-6.008596">
        <ele>506.0</ele>
        <time>2012-07-05T15:25:48Z</time>
      </trkpt>
      <trkpt lat="43.199244" lon="-6.008413">
        <ele>493.0</ele>
        <time>2012-07-05T15:25:51Z</time>
      </trkpt>
      <trkpt lat="43.199392" lon="-6.00848">
        <ele>484.0</ele>
        <time>2012-07-05T15:25:55Z</time>
      </trkpt>
      <trkpt lat="43.199422" lon="-6.008904">
        <ele>482.0</ele>
        <time>2012-07-05T15:26:00Z</time>
      </trkpt>
      <trkpt lat="43.19951" lon="-6.009375">
        <ele>476.0</ele>
        <time>2012-07-05T15:26:04Z</time>
      </trkpt>
      <trkpt lat="43.199859" lon="-6.009931">
        <ele>470.0</ele>
        <time>2012-07-05T15:26:08Z</time>
      </trkpt>
      <trkpt lat="43.200201" lon="-6.010298">
        <ele>468.0</ele>
        <time>2012-07-05T15:26:12Z</time>
      </trkpt>
      <trkpt lat="43.200466" lon="-6.01066">
        <ele>468.0</ele>
        <time>2012-07-05T15:26:16Z</time>
      </trkpt>
      <trkpt lat="43.200727" lon="-6.010975">
        <ele>469.0</ele>
        <time>2012-07-05T15:26:20Z</time>
      </trkpt>
      <trkpt lat="43.200991" lon="-6.011288">
        <ele>470.0</ele>
        <time>2012-07-05T15:26:24Z</time>
      </trkpt>
      <trkpt lat="43.201235" lon="-6.011711">
        <ele>469.0</ele>
        <time>2012-07-05T15:26:28Z</time>
      </trkpt>
      <trkpt lat="43.201327" lon="-6.012272">
        <ele>468.0</ele>
        <time>2012-07-05T15:26:32Z</time>
      </trkpt>
      <trkpt lat="43.20131" lon="-6.012842">
        <ele>468.0</ele>
        <time>2012-07-05T15:26:36Z</time>
      </trkpt>
      <trkpt lat="43.20127" lon="-6.013358">
        <ele>466.0</ele>
        <time>2012-07-05T15:26:40Z</time>
      </trkpt>
      <trkpt lat="43.201144" lon="-6.013833">
        <ele>464.0</ele>
        <time>2012-07-05T15:26:44Z</time>
      </trkpt>
      <trkpt lat="43.200879" lon="-6.014256">
        <ele>461.0</ele>
        <time>2012-07-05T15:26:48Z</time>
      </trkpt>
      <trkpt lat="43.200563" lon="-6.014639">
        <ele>459.0</ele>
        <time>2012-07-05T15:26:52Z</time>
      </trkpt>
      <trkpt lat="43.200259" lon="-6.014999">
        <ele>460.0</ele>
        <time>2012-07-05T15:26:56Z</time>
      </trkpt>
      <trkpt lat="43.200049" lon="-6.015457">
        <ele>460.0</ele>
        <time>2012-07-05T15:27:00Z</time>
      </trkpt>
      <trkpt lat="43.199852" lon="-6.015971">
        <ele>462.0</ele>
        <time>2012-07-05T15:27:04Z</time>
      </trkpt>
      <trkpt lat="43.199714" lon="-6.01636">
        <ele>463.0</ele>
        <time>2012-07-05T15:27:07Z</time>
      </trkpt>
      <trkpt lat="43.199821" lon="-6.016958">
        <ele>464.0</ele>
        <time>2012-07-05T15:27:12Z</time>
      </trkpt>
      <trkpt lat="43.199928" lon="-6.017431">
        <ele>465.0</ele>
        <time>2012-07-05T15:27:16Z</time>
      </trkpt>
      <trkpt lat="43.200001" lon="-6.017904">
        <ele>465.0</ele>
        <time>2012-07-05T15:27:20Z</time>
      </trkpt>
      <trkpt lat="43.200049" lon="-6.018263">
        <ele>465.0</ele>
        <time>2012-07-05T15:27:23Z</time>
      </trkpt>
      <trkpt lat="43.200104" lon="-6.01893">
        <ele>466.0</ele>
        <time>2012-07-05T15:27:28Z</time>
      </trkpt>
      <trkpt lat="43.20016" lon="-6.019573">
        <ele>466.0</ele>
        <time>2012-07-05T15:27:32Z</time>
      </trkpt>
      <trkpt lat="43.200228" lon="-6.020242">
        <ele>465.0</ele>
        <time>2012-07-05T15:27:36Z</time>
      </trkpt>
      <trkpt lat="43.200299" lon="-6.020929">
        <ele>462.0</ele>
        <time>2012-07-05T15:27:40Z</time>
      </trkpt>
      <trkpt lat="43.200338" lon="-6.021276">
        <ele>461.0</ele>
        <time>2012-07-05T15:27:42Z</time>
      </trkpt>
      <trkpt lat="43.20045" lon="-6.022259">
        <ele>460.0</ele>
        <time>2012-07-05T15:27:48Z</time>
      </trkpt>
      <trkpt lat="43.200487" lon="-6.02258">
        <ele>460.0</ele>
        <time>2012-07-05T15:27:50Z</time>
      </trkpt>
      <trkpt lat="43.200487" lon="-6.02258">
        <time>2012-07-05T15:28:01Z</time>
      </trkpt>
    </trkseg>
    <trkseg>
      <trkpt lat="43.200487" lon="-6.02258">
        <time>2012-07-05T15:28:06Z</time>
      </trkpt>
      <trkpt lat="43.200487" lon="-6.02258">
        <time>2012-07-05T15:28:30Z</time>
      </trkpt>
    </trkseg>
    <trkseg>
      <trkpt lat="43.200487" lon="-6.02258">
        <time>2012-07-05T15:28:33Z</time>
      </trkpt>
      <trkpt lat="43.202271" lon="-6.030195">
        <ele>437.0</ele>
        <time>2012-07-05T15:28:36Z</time>
      </trkpt>
      <trkpt lat="43.202369" lon="-6.03066">
        <ele>434.0</ele>
        <time>2012-07-05T15:28:39Z</time>
      </trkpt>
      <trkpt lat="43.202475" lon="-6.03126">
        <ele>435.0</ele>
        <time>2012-07-05T15:28:43Z</time>
      </trkpt>
      <trkpt lat="43.202606" lon="-6.031822">
        <ele>436.0</ele>
        <time>2012-07-05T15:28:47Z</time>
      </trkpt>
      <trkpt lat="43.202782" lon="-6.03222">
        <ele>438.0</ele>
        <time>2012-07-05T15:28:51Z</time>
      </trkpt>
      <trkpt lat="43.203237" lon="-6.032459">
        <ele>437.0</ele>
        <time>2012-07-05T15:28:55Z</time>
      </trkpt>
      <trkpt lat="43.203745" lon="-6.032705">
        <ele>437.0</ele>
        <time>2012-07-05T15:28:59Z</time>
      </trkpt>
      <trkpt lat="43.204262" lon="-6.033067">
        <ele>436.0</ele>
        <time>2012-07-05T15:29:04Z</time>
      </trkpt>
      <trkpt lat="43.204547" lon="-6.033288">
        <ele>435.0</ele>
        <time>2012-07-05T15:29:07Z</time>
      </trkpt>
      <trkpt lat="43.204898" lon="-6.033598">
        <ele>435.0</ele>
        <time>2012-07-05T15:29:11Z</time>
      </trkpt>
      <trkpt lat="43.205329" lon="-6.033963">
        <ele>434.0</ele>
        <time>2012-07-05T15:29:16Z</time>
      </trkpt>
      <trkpt lat="43.205582" lon="-6.034186">
        <ele>433.0</ele>
        <time>2012-07-05T15:29:19Z</time>
      </trkpt>
      <trkpt lat="43.20595" lon="-6.034325">
        <ele>430.0</ele>
        <time>2012-07-05T15:29:23Z</time>
      </trkpt>
      <trkpt lat="43.206451" lon="-6.034307">
        <ele>426.0</ele>
        <time>2012-07-05T15:29:28Z</time>
      </trkpt>
      <trkpt lat="43.206837" lon="-6.034341">
        <ele>425.0</ele>
        <time>2012-07-05T15:29:32Z</time>
      </trkpt>
      <trkpt lat="43.20712" lon="-6.034372">
        <ele>424.0</ele>
        <time>2012-07-05T15:29:35Z</time>
      </trkpt>
      <trkpt lat="43.207408" lon="-6.034387">
        <ele>424.0</ele>
        <time>2012-07-05T15:29:38Z</time>
      </trkpt>
      <trkpt lat="43.208001" lon="-6.034376">
        <ele>423.0</ele>
        <time>2012-07-05T15:29:44Z</time>
      </trkpt>
      <trkpt lat="43.208398" lon="-6.034353">
        <ele>422.0</ele>
        <time>2012-07-05T15:29:48Z</time>
      </trkpt>
      <trkpt lat="43.208794" lon="-6.034349">
        <ele>421.0</ele>
        <time>2012-07-05T15:29:52Z</time>
      </trkpt>
      <trkpt lat="43.209166" lon="-6.034411">
        <ele>420.0</ele>
        <time>2012-07-05T15:29:56Z</time>
      </trkpt>
      <trkpt lat="43.209543" lon="-6.034522">
        <ele>420.0</ele>
        <time>2012-07-05T15:30:00Z</time>
      </trkpt>
      <trkpt lat="43.209898" lon="-6.034782">
        <ele>420.0</ele>
        <time>2012-07-05T15:30:04Z</time>
      </trkpt>
      <trkpt lat="43.210254" lon="-6.035068">
        <ele>420.0</ele>
        <time>2012-07-05T15:30:08Z</time>
      </trkpt>
      <trkpt lat="43.2106" lon="-6.035378">
        <ele>421.0</ele>
        <time>2012-07-05T15:30:12Z</time>
      </trkpt>
      <trkpt lat="43.21096" lon="-6.035667">
        <ele>421.0</ele>
        <time>2012-07-05T15:30:16Z</time>
      </trkpt>
      <trkpt lat="43.211332" lon="-6.035931">
        <ele>421.0</ele>
        <time>2012-07-05T15:30:20Z</time>
      </trkpt>
      <trkpt lat="43.211728" lon="-6.036133">
        <ele>419.0</ele>
        <time>2012-07-05T15:30:24Z</time>
      </trkpt>
      <trkpt lat="43.212141" lon="-6.03633">
        <ele>419.0</ele>
        <time>2012-07-05T15:30:28Z</time>
      </trkpt>
      <trkpt lat="43.212565" lon="-6.036578">
        <ele>419.0</ele>
        <time>2012-07-05T15:30:32Z</time>
      </trkpt>
      <trkpt lat="43.212898" lon="-6.03704">
        <ele>419.0</ele>
        <time>2012-07-05T15:30:36Z</time>
      </trkpt>
      <trkpt lat="43.213244" lon="-6.037443">
        <ele>416.0</ele>
        <time>2012-07-05T15:30:40Z</time>
      </trkpt>
      <trkpt lat="43.213645" lon="-6.037559">
        <ele>413.0</ele>
        <time>2012-07-05T15:30:44Z</time>
      </trkpt>
      <trkpt lat="43.21408" lon="-6.037497">
        <ele>412.0</ele>
        <time>2012-07-05T15:30:48Z</time>
      </trkpt>
      <trkpt lat="43.214513" lon="-6.037455">
        <ele>411.0</ele>
        <time>2012-07-05T15:30:52Z</time>
      </trkpt>
      <trkpt lat="43.214933" lon="-6.037471">
        <ele>412.0</ele>
        <time>2012-07-05T15:30:56Z</time>
      </trkpt>
      <trkpt lat="43.215348" lon="-6.037539">
        <ele>413.0</ele>
        <time>2012-07-05T15:31:00Z</time>
      </trkpt>
      <trkpt lat="43.215748" lon="-6.037623">
        <ele>412.0</ele>
        <time>2012-07-05T15:31:04Z</time>
      </trkpt>
      <trkpt lat="43.216134" lon="-6.037676">
        <ele>409.0</ele>
        <time>2012-07-05T15:31:08Z</time>
      </trkpt>
      <trkpt lat="43.216522" lon="-6.03776">
        <ele>409.0</ele>
        <time>2012-07-05T15:31:12Z</time>
      </trkpt>
      <trkpt lat="43.216903" lon="-6.037928">
        <ele>408.0</ele>
        <time>2012-07-05T15:31:16Z</time>
      </trkpt>
      <trkpt lat="43.217306" lon="-6.038127">
        <ele>409.0</ele>
        <time>2012-07-05T15:31:20Z</time>
      </trkpt>
      <trkpt lat="43.217713" lon="-6.038333">
        <ele>409.0</ele>
        <time>2012-07-05T15:31:24Z</time>
      </trkpt>
      <trkpt lat="43.218111" lon="-6.038508">
        <ele>409.0</ele>
        <time>2012-07-05T15:31:28Z</time>
      </trkpt>
      <trkpt lat="43.218512" lon="-6.038555">
        <ele>410.0</ele>
        <time>2012-07-05T15:31:32Z</time>
      </trkpt>
      <trkpt lat="43.218925" lon="-6.038442">
        <ele>410.0</ele>
        <time>2012-07-05T15:31:36Z</time>
      </trkpt>
      <trkpt lat="43.219319" lon="-6.038293">
        <ele>410.0</ele>
        <time>2012-07-05T15:31:40Z</time>
      </trkpt>
      <trkpt lat="43.219704" lon="-6.038248">
        <ele>409.0</ele>
        <time>2012-07-05T15:31:44Z</time>
      </trkpt>
      <trkpt lat="43.220079" lon="-6.038235">
        <ele>409.0</ele>
        <time>2012-07-05T15:31:48Z</time>
      </trkpt>
      <trkpt lat="43.220467" lon="-6.038193">
        <ele>407.0</ele>
        <time>2012-07-05T15:31:52Z</time>
      </trkpt>
      <trkpt lat="43.220846" lon="-6.038166">
        <ele>406.0</ele>
        <time>2012-07-05T15:31:56Z</time>
      </trkpt>
      <trkpt lat="43.221234" lon="-6.038176">
        <ele>405.0</ele>
        <time>2012-07-05T15:32:00Z</time>
      </trkpt>
      <trkpt lat="43.221621" lon="-6.038194">
        <ele>403.0</ele>
        <time>2012-07-05T15:32:04Z</time>
      </trkpt>
      <trkpt lat="43.222001" lon="-6.038218">
        <ele>401.0</ele>
        <time>2012-07-05T15:32:08Z</time>
      </trkpt>
      <trkpt lat="43.222393" lon="-6.038254">
        <ele>400.0</ele>
        <time>2012-07-05T15:32:12Z</time>
      </trkpt>
      <trkpt lat="43.222782" lon="-6.038267">
        <ele>398.0</ele>
        <time>2012-07-05T15:32:16Z</time>
      </trkpt>
      <trkpt lat="43.22307" lon="-6.038245">
        <ele>397.0</ele>
        <time>2012-07-05T15:32:19Z</time>
      </trkpt>
      <trkpt lat="43.22356" lon="-6.038212">
        <ele>397.0</ele>
        <time>2012-07-05T15:32:24Z</time>
      </trkpt>
      <trkpt lat="43.223948" lon="-6.03823">
        <ele>397.0</ele>
        <time>2012-07-05T15:32:28Z</time>
      </trkpt>
      <trkpt lat="43.224353" lon="-6.038328">
        <ele>398.0</ele>
        <time>2012-07-05T15:32:32Z</time>
      </trkpt>
      <trkpt lat="43.22477" lon="-6.038505">
        <ele>397.0</ele>
        <time>2012-07-05T15:32:36Z</time>
      </trkpt>
      <trkpt lat="43.225211" lon="-6.03863">
        <ele>395.0</ele>
        <time>2012-07-05T15:32:40Z</time>
      </trkpt>
      <trkpt lat="43.225672" lon="-6.038702">
        <ele>394.0</ele>
        <time>2012-07-05T15:32:44Z</time>
      </trkpt>
      <trkpt lat="43.226015" lon="-6.038743">
        <ele>394.0</ele>
        <time>2012-07-05T15:32:47Z</time>
      </trkpt>
      <trkpt lat="43.226574" lon="-6.0388">
        <ele>394.0</ele>
        <time>2012-07-05T15:32:52Z</time>
      </trkpt>
      <trkpt lat="43.227002" lon="-6.038824">
        <ele>393.0</ele>
        <time>2012-07-05T15:32:56Z</time>
      </trkpt>
      <trkpt lat="43.227435" lon="-6.038726">
        <ele>392.0</ele>
        <time>2012-07-05T15:33:00Z</time>
      </trkpt>
      <trkpt lat="43.227877" lon="-6.03852">
        <ele>391.0</ele>
        <time>2012-07-05T15:33:04Z</time>
      </trkpt>
      <trkpt lat="43.22833" lon="-6.038238">
        <ele>391.0</ele>
        <time>2012-07-05T15:33:08Z</time>
      </trkpt>
      <trkpt lat="43.228675" lon="-6.037796">
        <ele>389.0</ele>
        <time>2012-07-05T15:33:12Z</time>
      </trkpt>
      <trkpt lat="43.228992" lon="-6.037398">
        <ele>389.0</ele>
        <time>2012-07-05T15:33:16Z</time>
      </trkpt>
      <trkpt lat="43.229342" lon="-6.037124">
        <ele>389.0</ele>
        <time>2012-07-05T15:33:20Z</time>
      </trkpt>
      <trkpt lat="43.229684" lon="-6.036836">
        <ele>389.0</ele>
        <time>2012-07-05T15:33:24Z</time>
      </trkpt>
      <trkpt lat="43.22997" lon="-6.036409">
        <ele>389.0</ele>
        <time>2012-07-05T15:33:28Z</time>
      </trkpt>
      <trkpt lat="43.230233" lon="-6.035943">
        <ele>389.0</ele>
        <time>2012-07-05T15:33:32Z</time>
      </trkpt>
      <trkpt lat="43.230527" lon="-6.035541">
        <ele>389.0</ele>
        <time>2012-07-05T15:33:36Z</time>
      </trkpt>
      <trkpt lat="43.230675" lon="-6.03534">
        <ele>389.0</ele>
        <time>2012-07-05T15:33:38Z</time>
      </trkpt>
      <trkpt lat="43.230675" lon="-6.03534">
        <time>2012-07-05T15:33:49Z</time>
      </trkpt>
    </trkseg>
    <trkseg>
      <trkpt lat="43.230675" lon="-6.03534">
        <time>2012-07-05T15:34:17Z</time>
      </trkpt>
      <trkpt lat="43.234122" lon="-6.031675">
        <ele>390.0</ele>
        <time>2012-07-05T15:34:20Z</time>
      </trkpt>
      <trkpt lat="43.234492" lon="-6.031386">
        <ele>392.0</ele>
        <time>2012-07-05T15:34:24Z</time>
      </trkpt>
      <trkpt lat="43.234869" lon="-6.031173">
        <ele>393.0</ele>
        <time>2012-07-05T15:34:28Z</time>
      </trkpt>
      <trkpt lat="43.235259" lon="-6.031026">
        <ele>394.0</ele>
        <time>2012-07-05T15:34:32Z</time>
      </trkpt>
      <trkpt lat="43.23564" lon="-6.030872">
        <ele>395.0</ele>
        <time>2012-07-05T15:34:36Z</time>
      </trkpt>
      <trkpt lat="43.236039" lon="-6.030873">
        <ele>398.0</ele>
        <time>2012-07-05T15:34:40Z</time>
      </trkpt>
      <trkpt lat="43.236441" lon="-6.030882">
        <ele>399.0</ele>
        <time>2012-07-05T15:34:44Z</time>
      </trkpt>
      <trkpt lat="43.236742" lon="-6.03083">
        <ele>399.0</ele>
        <time>2012-07-05T15:34:47Z</time>
      </trkpt>
      <trkpt lat="43.237244" lon="-6.030661">
        <ele>399.0</ele>
        <time>2012-07-05T15:34:52Z</time>
      </trkpt>
      <trkpt lat="43.237644" lon="-6.030514">
        <ele>399.0</ele>
        <time>2012-07-05T15:34:56Z</time>
      </trkpt>
      <trkpt lat="43.237644" lon="-6.030514">
        <time>2012-07-05T15:35:07Z</time>
      </trkpt>
    </trkseg>
    <trkseg>
      <trkpt lat="43.237644" lon="-6.030514">
        <time>2012-07-05T15:35:33Z</time>
      </trkpt>
      <trkpt lat="43.241244" lon="-6.028171">
        <ele>397.0</ele>
        <time>2012-07-05T15:35:34Z</time>
      </trkpt>
      <trkpt lat="43.241248" lon="-6.027668">
        <ele>396.0</ele>
        <time>2012-07-05T15:35:38Z</time>
      </trkpt>
      <trkpt lat="43.241176" lon="-6.027284">
        <ele>396.0</ele>
        <time>2012-07-05T15:35:42Z</time>
      </trkpt>
      <trkpt lat="43.241453" lon="-6.026934">
        <ele>396.0</ele>
        <time>2012-07-05T15:35:46Z</time>
      </trkpt>
      <trkpt lat="43.241742" lon="-6.026534">
        <ele>396.0</ele>
        <time>2012-07-05T15:35:50Z</time>
      </trkpt>
      <trkpt lat="43.242022" lon="-6.026098">
        <ele>395.0</ele>
        <time>2012-07-05T15:35:54Z</time>
      </trkpt>
      <trkpt lat="43.242289" lon="-6.025635">
        <ele>395.0</ele>
        <time>2012-07-05T15:35:58Z</time>
      </trkpt>
      <trkpt lat="43.242607" lon="-6.025273">
        <ele>396.0</ele>
        <time>2012-07-05T15:36:02Z</time>
      </trkpt>
      <trkpt lat="43.242961" lon="-6.024994">
        <ele>397.0</ele>
        <time>2012-07-05T15:36:06Z</time>
      </trkpt>
      <trkpt lat="43.243309" lon="-6.024746">
        <ele>397.0</ele>
        <time>2012-07-05T15:36:10Z</time>
      </trkpt>
      <trkpt lat="43.243661" lon="-6.024531">
        <ele>397.0</ele>
        <time>2012-07-05T15:36:14Z</time>
      </trkpt>
      <trkpt lat="43.24403" lon="-6.024373">
        <ele>397.0</ele>
        <time>2012-07-05T15:36:18Z</time>
      </trkpt>
      <trkpt lat="43.244419" lon="-6.024347">
        <ele>396.0</ele>
        <time>2012-07-05T15:36:22Z</time>
      </trkpt>
      <trkpt lat="43.24481" lon="-6.024417">
        <ele>396.0</ele>
        <time>2012-07-05T15:36:26Z</time>
      </trkpt>
      <trkpt lat="43.2452" lon="-6.024556">
        <ele>397.0</ele>
        <time>2012-07-05T15:36:30Z</time>
      </trkpt>
      <trkpt lat="43.245583" lon="-6.024645">
        <ele>397.0</ele>
        <time>2012-07-05T15:36:34Z</time>
      </trkpt>
      <trkpt lat="43.245775" lon="-6.024664">
        <ele>397.0</ele>
        <time>2012-07-05T15:36:36Z</time>
      </trkpt>
      <trkpt lat="43.246368" lon="-6.024626">
        <ele>397.0</ele>
        <time>2012-07-05T15:36:42Z</time>
      </trkpt>
      <trkpt lat="43.2468" lon="-6.024569">
        <ele>397.0</ele>
        <time>2012-07-05T15:36:46Z</time>
      </trkpt>
      <trkpt lat="43.247202" lon="-6.024618">
        <ele>394.0</ele>
        <time>2012-07-05T15:36:50Z</time>
      </trkpt>
      <trkpt lat="43.247502" lon="-6.024662">
        <ele>394.0</ele>
        <time>2012-07-05T15:36:53Z</time>
      </trkpt>
      <trkpt lat="43.247999" lon="-6.024703">
        <ele>395.0</ele>
        <time>2012-07-05T15:36:58Z</time>
      </trkpt>
      <trkpt lat="43.24843" lon="-6.024631">
        <ele>395.0</ele>
        <time>2012-07-05T15:37:02Z</time>
      </trkpt>
      <trkpt lat="43.248849" lon="-6.024553">
        <ele>396.0</ele>
        <time>2012-07-05T15:37:06Z</time>
      </trkpt>
      <trkpt lat="43.249266" lon="-6.024223">
        <ele>396.0</ele>
        <time>2012-07-05T15:37:10Z</time>
      </trkpt>
      <trkpt lat="43.249711" lon="-6.023746">
        <ele>396.0</ele>
        <time>2012-07-05T15:37:14Z</time>
      </trkpt>
      <trkpt lat="43.250141" lon="-6.023154">
        <ele>396.0</ele>
        <time>2012-07-05T15:37:18Z</time>
      </trkpt>
      <trkpt lat="43.250514" lon="-6.022545">
        <ele>397.0</ele>
        <time>2012-07-05T15:37:22Z</time>
      </trkpt>
      <trkpt lat="43.250676" lon="-6.021979">
        <ele>400.0</ele>
        <time>2012-07-05T15:37:26Z</time>
      </trkpt>
      <trkpt lat="43.250888" lon="-6.0215">
        <ele>395.0</ele>
        <time>2012-07-05T15:37:30Z</time>
      </trkpt>
      <trkpt lat="43.250996" lon="-6.020952">
        <ele>394.0</ele>
        <time>2012-07-05T15:37:34Z</time>
      </trkpt>
      <trkpt lat="43.250976" lon="-6.020384">
        <ele>394.0</ele>
        <time>2012-07-05T15:37:38Z</time>
      </trkpt>
      <trkpt lat="43.250982" lon="-6.019797">
        <ele>394.0</ele>
        <time>2012-07-05T15:37:42Z</time>
      </trkpt>
      <trkpt lat="43.250995" lon="-6.019225">
        <ele>395.0</ele>
        <time>2012-07-05T15:37:46Z</time>
      </trkpt>
      <trkpt lat="43.2511" lon="-6.018702">
        <ele>393.0</ele>
        <time>2012-07-05T15:37:50Z</time>
      </trkpt>
      <trkpt lat="43.251216" lon="-6.018206">
        <ele>390.0</ele>
        <time>2012-07-05T15:37:54Z</time>
      </trkpt>
      <trkpt lat="43.251257" lon="-6.017753">
        <ele>390.0</ele>
        <time>2012-07-05T15:37:58Z</time>
      </trkpt>
      <trkpt lat="43.251121" lon="-6.017534">
        <ele>387.0</ele>
        <time>2012-07-05T15:38:00Z</time>
      </trkpt>
      <trkpt lat="43.250624" lon="-6.016946">
        <ele>376.0</ele>
        <time>2012-07-05T15:38:06Z</time>
      </trkpt>
      <trkpt lat="43.250376" lon="-6.016577">
        <ele>375.0</ele>
        <time>2012-07-05T15:38:10Z</time>
      </trkpt>
      <trkpt lat="43.250208" lon="-6.016248">
        <ele>373.0</ele>
        <time>2012-07-05T15:38:14Z</time>
      </trkpt>
      <trkpt lat="43.250111" lon="-6.015924">
        <ele>373.0</ele>
        <time>2012-07-05T15:38:18Z</time>
      </trkpt>
      <trkpt lat="43.250209" lon="-6.015994">
        <ele>373.0</ele>
        <time>2012-07-05T15:38:20Z</time>
      </trkpt>
      <trkpt lat="43.250413" lon="-6.016076">
        <ele>372.0</ele>
        <time>2012-07-05T15:38:26Z</time>
      </trkpt>
      <trkpt lat="43.250606" lon="-6.016075">
        <ele>370.0</ele>
        <time>2012-07-05T15:38:30Z</time>
      </trkpt>
      <trkpt lat="43.250944" lon="-6.016158">
        <ele>363.0</ele>
        <time>2012-07-05T15:38:34Z</time>
      </trkpt>
      <trkpt lat="43.251233" lon="-6.016149">
        <ele>360.0</ele>
        <time>2012-07-05T15:38:38Z</time>
      </trkpt>
      <trkpt lat="43.251459" lon="-6.016039">
        <ele>358.0</ele>
        <time>2012-07-05T15:38:41Z</time>
      </trkpt>
      <trkpt lat="43.251804" lon="-6.015844">
        <ele>358.0</ele>
        <time>2012-07-05T15:38:46Z</time>
      </trkpt>
      <trkpt lat="43.252083" lon="-6.015695">
        <ele>355.0</ele>
        <time>2012-07-05T15:38:50Z</time>
      </trkpt>
      <trkpt lat="43.252388" lon="-6.015574">
        <ele>348.0</ele>
        <time>2012-07-05T15:38:54Z</time>
      </trkpt>
      <trkpt lat="43.252671" lon="-6.015387">
        <ele>345.0</ele>
        <time>2012-07-05T15:38:58Z</time>
      </trkpt>
      <trkpt lat="43.25294" lon="-6.015164">
        <ele>343.0</ele>
        <time>2012-07-05T15:39:02Z</time>
      </trkpt>
      <trkpt lat="43.25321" lon="-6.014935">
        <ele>342.0</ele>
        <time>2012-07-05T15:39:06Z</time>
      </trkpt>
      <trkpt lat="43.253485" lon="-6.014738">
        <ele>341.0</ele>
        <time>2012-07-05T15:39:10Z</time>
      </trkpt>
      <trkpt lat="43.253772" lon="-6.014544">
        <ele>341.0</ele>
        <time>2012-07-05T15:39:14Z</time>
      </trkpt>
      <trkpt lat="43.254081" lon="-6.014402">
        <ele>341.0</ele>
        <time>2012-07-05T15:39:18Z</time>
      </trkpt>
      <trkpt lat="43.254399" lon="-6.014279">
        <ele>341.0</ele>
        <time>2012-07-05T15:39:22Z</time>
      </trkpt>
      <trkpt lat="43.254711" lon="-6.014129">
        <ele>341.0</ele>
        <time>2012-07-05T15:39:26Z</time>
      </trkpt>
      <trkpt lat="43.255003" lon="-6.013922">
        <ele>342.0</ele>
        <time>2012-07-05T15:39:30Z</time>
      </trkpt>
      <trkpt lat="43.255269" lon="-6.013682">
        <ele>342.0</ele>
        <time>2012-07-05T15:39:34Z</time>
      </trkpt>
      <trkpt lat="43.255553" lon="-6.013412">
        <ele>340.0</ele>
        <time>2012-07-05T15:39:38Z</time>
      </trkpt>
      <trkpt lat="43.255837" lon="-6.012973">
        <ele>335.0</ele>
        <time>2012-07-05T15:39:42Z</time>
      </trkpt>
      <trkpt lat="43.256118" lon="-6.012441">
        <ele>326.0</ele>
        <time>2012-07-05T15:39:46Z</time>
      </trkpt>
      <trkpt lat="43.25644" lon="-6.01198">
        <ele>321.0</ele>
        <time>2012-07-05T15:39:50Z</time>
      </trkpt>
      <trkpt lat="43.256864" lon="-6.011817">
        <ele>319.0</ele>
        <time>2012-07-05T15:39:54Z</time>
      </trkpt>
      <trkpt lat="43.257215" lon="-6.01154">
        <ele>317.0</ele>
        <time>2012-07-05T15:39:58Z</time>
      </trkpt>
      <trkpt lat="43.257515" lon="-6.011168">
        <ele>315.0</ele>
        <time>2012-07-05T15:40:02Z</time>
      </trkpt>
      <trkpt lat="43.257798" lon="-6.010789">
        <ele>313.0</ele>
        <time>2012-07-05T15:40:06Z</time>
      </trkpt>
      <trkpt lat="43.258073" lon="-6.010455">
        <ele>313.0</ele>
        <time>2012-07-05T15:40:10Z</time>
      </trkpt>
      <trkpt lat="43.258364" lon="-6.01018">
        <ele>312.0</ele>
        <time>2012-07-05T15:40:14Z</time>
      </trkpt>
      <trkpt lat="43.258681" lon="-6.00993">
        <ele>312.0</ele>
        <time>2012-07-05T15:40:18Z</time>
      </trkpt>
      <trkpt lat="43.259009" lon="-6.009683">
        <ele>311.0</ele>
        <time>2012-07-05T15:40:22Z</time>
      </trkpt>
      <trkpt lat="43.259219" lon="-6.00943">
        <ele>311.0</ele>
        <time>2012-07-05T15:40:25Z</time>
      </trkpt>
      <trkpt lat="43.259514" lon="-6.008909">
        <ele>310.0</ele>
        <time>2012-07-05T15:40:30Z</time>
      </trkpt>
      <trkpt lat="43.259769" lon="-6.008462">
        <ele>309.0</ele>
        <time>2012-07-05T15:40:34Z</time>
      </trkpt>
      <trkpt lat="43.260079" lon="-6.008005">
        <ele>309.0</ele>
        <time>2012-07-05T15:40:38Z</time>
      </trkpt>
      <trkpt lat="43.260434" lon="-6.007581">
        <ele>310.0</ele>
        <time>2012-07-05T15:40:42Z</time>
      </trkpt>
      <trkpt lat="43.260842" lon="-6.007253">
        <ele>310.0</ele>
        <time>2012-07-05T15:40:46Z</time>
      </trkpt>
      <trkpt lat="43.261302" lon="-6.007089">
        <ele>309.0</ele>
        <time>2012-07-05T15:40:50Z</time>
      </trkpt>
      <trkpt lat="43.26157" lon="-6.006861">
        <ele>309.0</ele>
        <time>2012-07-05T15:40:53Z</time>
      </trkpt>
      <trkpt lat="43.261782" lon="-6.00626">
        <ele>304.0</ele>
        <time>2012-07-05T15:40:58Z</time>
      </trkpt>
      <trkpt lat="43.261895" lon="-6.005824">
        <ele>294.0</ele>
        <time>2012-07-05T15:41:02Z</time>
      </trkpt>
      <trkpt lat="43.262127" lon="-6.00538">
        <ele>286.0</ele>
        <time>2012-07-05T15:41:06Z</time>
      </trkpt>
      <trkpt lat="43.262399" lon="-6.005186">
        <ele>282.0</ele>
        <time>2012-07-05T15:41:09Z</time>
      </trkpt>
      <trkpt lat="43.262875" lon="-6.005041">
        <ele>280.0</ele>
        <time>2012-07-05T15:41:14Z</time>
      </trkpt>
      <trkpt lat="43.26325" lon="-6.00493">
        <ele>280.0</ele>
        <time>2012-07-05T15:41:18Z</time>
      </trkpt>
      <trkpt lat="43.26361" lon="-6.004793">
        <ele>279.0</ele>
        <time>2012-07-05T15:41:22Z</time>
      </trkpt>
      <trkpt lat="43.263957" lon="-6.004665">
        <ele>279.0</ele>
        <time>2012-07-05T15:41:26Z</time>
      </trkpt>
      <trkpt lat="43.264305" lon="-6.004542">
        <ele>277.0</ele>
        <time>2012-07-05T15:41:30Z</time>
      </trkpt>
      <trkpt lat="43.264647" lon="-6.004424">
        <ele>277.0</ele>
        <time>2012-07-05T15:41:34Z</time>
      </trkpt>
      <trkpt lat="43.264992" lon="-6.004345">
        <ele>274.0</ele>
        <time>2012-07-05T15:41:38Z</time>
      </trkpt>
      <trkpt lat="43.265343" lon="-6.004291">
        <ele>272.0</ele>
        <time>2012-07-05T15:41:42Z</time>
      </trkpt>
      <trkpt lat="43.265696" lon="-6.00425">
        <ele>271.0</ele>
        <time>2012-07-05T15:41:46Z</time>
      </trkpt>
      <trkpt lat="43.266045" lon="-6.00414">
        <ele>270.0</ele>
        <time>2012-07-05T15:41:50Z</time>
      </trkpt>
      <trkpt lat="43.266393" lon="-6.004004">
        <ele>269.0</ele>
        <time>2012-07-05T15:41:54Z</time>
      </trkpt>
      <trkpt lat="43.266737" lon="-6.003846">
        <ele>269.0</ele>
        <time>2012-07-05T15:41:58Z</time>
      </trkpt>
      <trkpt lat="43.267085" lon="-6.003705">
        <ele>269.0</ele>
        <time>2012-07-05T15:42:02Z</time>
      </trkpt>
      <trkpt lat="43.267434" lon="-6.003574">
        <ele>268.0</ele>
        <time>2012-07-05T15:42:06Z</time>
      </trkpt>
      <trkpt lat="43.267777" lon="-6.003425">
        <ele>268.0</ele>
        <time>2012-07-05T15:42:10Z</time>
      </trkpt>
      <trkpt lat="43.268079" lon="-6.003175">
        <ele>268.0</ele>
        <time>2012-07-05T15:42:14Z</time>
      </trkpt>
      <trkpt lat="43.268342" lon="-6.002869">
        <ele>267.0</ele>
        <time>2012-07-05T15:42:18Z</time>
      </trkpt>
      <trkpt lat="43.268609" lon="-6.002552">
        <ele>266.0</ele>
        <time>2012-07-05T15:42:22Z</time>
      </trkpt>
      <trkpt lat="43.268874" lon="-6.002247">
        <ele>265.0</ele>
        <time>2012-07-05T15:42:26Z</time>
      </trkpt>
      <trkpt lat="43.269146" lon="-6.001975">
        <ele>264.0</ele>
        <time>2012-07-05T15:42:30Z</time>
      </trkpt>
      <trkpt lat="43.269422" lon="-6.001709">
        <ele>264.0</ele>
        <time>2012-07-05T15:42:34Z</time>
      </trkpt>
      <trkpt lat="43.269693" lon="-6.00144">
        <ele>264.0</ele>
        <time>2012-07-05T15:42:38Z</time>
      </trkpt>
      <trkpt lat="43.269964" lon="-6.0012">
        <ele>264.0</ele>
        <time>2012-07-05T15:42:42Z</time>
      </trkpt>
      <trkpt lat="43.270259" lon="-6.001029">
        <ele>264.0</ele>
        <time>2012-07-05T15:42:46Z</time>
      </trkpt>
      <trkpt lat="43.270559" lon="-6.000889">
        <ele>264.0</ele>
        <time>2012-07-05T15:42:50Z</time>
      </trkpt>
      <trkpt lat="43.270866" lon="-6.00076">
        <ele>264.0</ele>
        <time>2012-07-05T15:42:54Z</time>
      </trkpt>
      <trkpt lat="43.271176" lon="-6.000636">
        <ele>264.0</ele>
        <time>2012-07-05T15:42:58Z</time>
      </trkpt>
      <trkpt lat="43.271497" lon="-6.000526">
        <ele>264.0</ele>
        <time>2012-07-05T15:43:02Z</time>
      </trkpt>
      <trkpt lat="43.271813" lon="-6.000392">
        <ele>265.0</ele>
        <time>2012-07-05T15:43:06Z</time>
      </trkpt>
      <trkpt lat="43.272089" lon="-6.000115">
        <ele>264.0</ele>
        <time>2012-07-05T15:43:10Z</time>
      </trkpt>
      <trkpt lat="43.272317" lon="-5.999653">
        <ele>264.0</ele>
        <time>2012-07-05T15:43:14Z</time>
      </trkpt>
      <trkpt lat="43.272497" lon="-5.999197">
        <ele>264.0</ele>
        <time>2012-07-05T15:43:18Z</time>
      </trkpt>
      <trkpt lat="43.272713" lon="-5.998839">
        <ele>265.0</ele>
        <time>2012-07-05T15:43:22Z</time>
      </trkpt>
      <trkpt lat="43.272957" lon="-5.998523">
        <ele>265.0</ele>
        <time>2012-07-05T15:43:26Z</time>
      </trkpt>
      <trkpt lat="43.273223" lon="-5.998228">
        <ele>264.0</ele>
        <time>2012-07-05T15:43:30Z</time>
      </trkpt>
      <trkpt lat="43.273521" lon="-5.997996">
        <ele>264.0</ele>
        <time>2012-07-05T15:43:34Z</time>
      </trkpt>
      <trkpt lat="43.27384" lon="-5.997804">
        <ele>264.0</ele>
        <time>2012-07-05T15:43:38Z</time>
      </trkpt>
      <trkpt lat="43.274128" lon="-5.997545">
        <ele>264.0</ele>
        <time>2012-07-05T15:43:42Z</time>
      </trkpt>
      <trkpt lat="43.274377" lon="-5.997228">
        <ele>263.0</ele>
        <time>2012-07-05T15:43:46Z</time>
      </trkpt>
      <trkpt lat="43.274574" lon="-5.996792">
        <ele>263.0</ele>
        <time>2012-07-05T15:43:50Z</time>
      </trkpt>
      <trkpt lat="43.274693" lon="-5.996309">
        <ele>262.0</ele>
        <time>2012-07-05T15:43:54Z</time>
      </trkpt>
      <trkpt lat="43.274707" lon="-5.995828">
        <ele>262.0</ele>
        <time>2012-07-05T15:43:58Z</time>
      </trkpt>
      <trkpt lat="43.274694" lon="-5.995374">
        <ele>262.0</ele>
        <time>2012-07-05T15:44:02Z</time>
      </trkpt>
      <trkpt lat="43.274725" lon="-5.994949">
        <ele>262.0</ele>
        <time>2012-07-05T15:44:06Z</time>
      </trkpt>
      <trkpt lat="43.274874" lon="-5.994567">
        <ele>263.0</ele>
        <time>2012-07-05T15:44:10Z</time>
      </trkpt>
      <trkpt lat="43.275043" lon="-5.994199">
        <ele>263.0</ele>
        <time>2012-07-05T15:44:14Z</time>
      </trkpt>
      <trkpt lat="43.275227" lon="-5.993855">
        <ele>263.0</ele>
        <time>2012-07-05T15:44:18Z</time>
      </trkpt>
      <trkpt lat="43.275414" lon="-5.99353">
        <ele>263.0</ele>
        <time>2012-07-05T15:44:22Z</time>
      </trkpt>
      <trkpt lat="43.275573" lon="-5.993195">
        <ele>263.0</ele>
        <time>2012-07-05T15:44:26Z</time>
      </trkpt>
      <trkpt lat="43.275747" lon="-5.992881">
        <ele>263.0</ele>
        <time>2012-07-05T15:44:30Z</time>
      </trkpt>
      <trkpt lat="43.275929" lon="-5.992583">
        <ele>263.0</ele>
        <time>2012-07-05T15:44:34Z</time>
      </trkpt>
      <trkpt lat="43.276127" lon="-5.992307">
        <ele>263.0</ele>
        <time>2012-07-05T15:44:38Z</time>
      </trkpt>
      <trkpt lat="43.276345" lon="-5.992048">
        <ele>263.0</ele>
        <time>2012-07-05T15:44:42Z</time>
      </trkpt>
      <trkpt lat="43.276576" lon="-5.991804">
        <ele>263.0</ele>
        <time>2012-07-05T15:44:46Z</time>
      </trkpt>
      <trkpt lat="43.27684" lon="-5.991591">
        <ele>263.0</ele>
        <time>2012-07-05T15:44:50Z</time>
      </trkpt>
      <trkpt lat="43.277076" lon="-5.991317">
        <ele>263.0</ele>
        <time>2012-07-05T15:44:54Z</time>
      </trkpt>
      <trkpt lat="43.277329" lon="-5.991018">
        <ele>264.0</ele>
        <time>2012-07-05T15:44:58Z</time>
      </trkpt>
      <trkpt lat="43.277603" lon="-5.990731">
        <ele>264.0</ele>
        <time>2012-07-05T15:45:02Z</time>
      </trkpt>
      <trkpt lat="43.277887" lon="-5.990442">
        <ele>265.0</ele>
        <time>2012-07-05T15:45:06Z</time>
      </trkpt>
      <trkpt lat="43.278191" lon="-5.990163">
        <ele>266.0</ele>
        <time>2012-07-05T15:45:10Z</time>
      </trkpt>
      <trkpt lat="43.278607" lon="-5.990001">
        <ele>267.0</ele>
        <time>2012-07-05T15:45:14Z</time>
      </trkpt>
      <trkpt lat="43.279036" lon="-5.989956">
        <ele>267.0</ele>
        <time>2012-07-05T15:45:18Z</time>
      </trkpt>
      <trkpt lat="43.279409" lon="-5.989889">
        <ele>267.0</ele>
        <time>2012-07-05T15:45:22Z</time>
      </trkpt>
      <trkpt lat="43.27976" lon="-5.989821">
        <ele>266.0</ele>
        <time>2012-07-05T15:45:26Z</time>
      </trkpt>
      <trkpt lat="43.280175" lon="-5.990186">
        <ele>265.0</ele>
        <time>2012-07-05T15:45:30Z</time>
      </trkpt>
      <trkpt lat="43.280596" lon="-5.990145">
        <ele>265.0</ele>
        <time>2012-07-05T15:45:34Z</time>
      </trkpt>
      <trkpt lat="43.280919" lon="-5.989972">
        <ele>264.0</ele>
        <time>2012-07-05T15:45:37Z</time>
      </trkpt>
      <trkpt lat="43.281414" lon="-5.989413">
        <ele>263.0</ele>
        <time>2012-07-05T15:45:42Z</time>
      </trkpt>
      <trkpt lat="43.281827" lon="-5.988893">
        <ele>263.0</ele>
        <time>2012-07-05T15:45:46Z</time>
      </trkpt>
      <trkpt lat="43.282254" lon="-5.98834">
        <ele>264.0</ele>
        <time>2012-07-05T15:45:50Z</time>
      </trkpt>
      <trkpt lat="43.282705" lon="-5.987886">
        <ele>264.0</ele>
        <time>2012-07-05T15:45:54Z</time>
      </trkpt>
      <trkpt lat="43.283166" lon="-5.987481">
        <ele>265.0</ele>
        <time>2012-07-05T15:45:58Z</time>
      </trkpt>
      <trkpt lat="43.28361" lon="-5.987009">
        <ele>264.0</ele>
        <time>2012-07-05T15:46:02Z</time>
      </trkpt>
      <trkpt lat="43.284052" lon="-5.986541">
        <ele>263.0</ele>
        <time>2012-07-05T15:46:06Z</time>
      </trkpt>
      <trkpt lat="43.284501" lon="-5.986079">
        <ele>263.0</ele>
        <time>2012-07-05T15:46:10Z</time>
      </trkpt>
      <trkpt lat="43.284943" lon="-5.985575">
        <ele>263.0</ele>
        <time>2012-07-05T15:46:14Z</time>
      </trkpt>
      <trkpt lat="43.285159" lon="-5.985312">
        <ele>263.0</ele>
        <time>2012-07-05T15:46:16Z</time>
      </trkpt>
      <trkpt lat="43.285807" lon="-5.984616">
        <ele>263.0</ele>
        <time>2012-07-05T15:46:22Z</time>
      </trkpt>
      <trkpt lat="43.286196" lon="-5.984239">
        <ele>264.0</ele>
        <time>2012-07-05T15:46:26Z</time>
      </trkpt>
      <trkpt lat="43.28645" lon="-5.98396">
        <ele>265.0</ele>
        <time>2012-07-05T15:46:30Z</time>
      </trkpt>
      <trkpt lat="43.286685" lon="-5.983707">
        <ele>266.0</ele>
        <time>2012-07-05T15:46:34Z</time>
      </trkpt>
      <trkpt lat="43.286957" lon="-5.983473">
        <ele>266.0</ele>
        <time>2012-07-05T15:46:38Z</time>
      </trkpt>
      <trkpt lat="43.287187" lon="-5.983317">
        <ele>266.0</ele>
        <time>2012-07-05T15:46:41Z</time>
      </trkpt>
      <trkpt lat="43.287391" lon="-5.983251">
        <ele>263.0</ele>
        <time>2012-07-05T15:46:45Z</time>
      </trkpt>
      <trkpt lat="43.287584" lon="-5.983262">
        <ele>262.0</ele>
        <time>2012-07-05T15:46:49Z</time>
      </trkpt>
      <trkpt lat="43.287899" lon="-5.98329">
        <ele>261.0</ele>
        <time>2012-07-05T15:46:54Z</time>
      </trkpt>
      <trkpt lat="43.288195" lon="-5.983295">
        <ele>260.0</ele>
        <time>2012-07-05T15:46:58Z</time>
      </trkpt>
      <trkpt lat="43.288506" lon="-5.983229">
        <ele>258.0</ele>
        <time>2012-07-05T15:47:02Z</time>
      </trkpt>
      <trkpt lat="43.28882" lon="-5.98313">
        <ele>256.0</ele>
        <time>2012-07-05T15:47:06Z</time>
      </trkpt>
      <trkpt lat="43.28906" lon="-5.983057">
        <ele>256.0</ele>
        <time>2012-07-05T15:47:09Z</time>
      </trkpt>
      <trkpt lat="43.289453" lon="-5.982877">
        <ele>254.0</ele>
        <time>2012-07-05T15:47:14Z</time>
      </trkpt>
      <trkpt lat="43.289762" lon="-5.982731">
        <ele>254.0</ele>
        <time>2012-07-05T15:47:18Z</time>
      </trkpt>
      <trkpt lat="43.290071" lon="-5.982601">
        <ele>253.0</ele>
        <time>2012-07-05T15:47:22Z</time>
      </trkpt>
      <trkpt lat="43.290391" lon="-5.982498">
        <ele>251.0</ele>
        <time>2012-07-05T15:47:26Z</time>
      </trkpt>
      <trkpt lat="43.290725" lon="-5.982451">
        <ele>251.0</ele>
        <time>2012-07-05T15:47:30Z</time>
      </trkpt>
      <trkpt lat="43.291064" lon="-5.982445">
        <ele>250.0</ele>
        <time>2012-07-05T15:47:34Z</time>
      </trkpt>
      <trkpt lat="43.291397" lon="-5.982431">
        <ele>250.0</ele>
        <time>2012-07-05T15:47:38Z</time>
      </trkpt>
      <trkpt lat="43.291729" lon="-5.98238">
        <ele>249.0</ele>
        <time>2012-07-05T15:47:42Z</time>
      </trkpt>
      <trkpt lat="43.292036" lon="-5.982205">
        <ele>249.0</ele>
        <time>2012-07-05T15:47:46Z</time>
      </trkpt>
      <trkpt lat="43.292344" lon="-5.982029">
        <ele>248.0</ele>
        <time>2012-07-05T15:47:50Z</time>
      </trkpt>
      <trkpt lat="43.292664" lon="-5.981872">
        <ele>248.0</ele>
        <time>2012-07-05T15:47:54Z</time>
      </trkpt>
      <trkpt lat="43.293045" lon="-5.981899">
        <ele>248.0</ele>
        <time>2012-07-05T15:47:58Z</time>
      </trkpt>
      <trkpt lat="43.293452" lon="-5.981994">
        <ele>250.0</ele>
        <time>2012-07-05T15:48:02Z</time>
      </trkpt>
      <trkpt lat="43.293737" lon="-5.982087">
        <ele>252.0</ele>
        <time>2012-07-05T15:48:05Z</time>
      </trkpt>
      <trkpt lat="43.294183" lon="-5.982277">
        <ele>251.0</ele>
        <time>2012-07-05T15:48:10Z</time>
      </trkpt>
      <trkpt lat="43.294456" lon="-5.982553">
        <ele>252.0</ele>
        <time>2012-07-05T15:48:14Z</time>
      </trkpt>
      <trkpt lat="43.294673" lon="-5.982952">
        <ele>252.0</ele>
        <time>2012-07-05T15:48:18Z</time>
      </trkpt>
      <trkpt lat="43.294884" lon="-5.983348">
        <ele>253.0</ele>
        <time>2012-07-05T15:48:22Z</time>
      </trkpt>
      <trkpt lat="43.295074" lon="-5.983769">
        <ele>253.0</ele>
        <time>2012-07-05T15:48:26Z</time>
      </trkpt>
      <trkpt lat="43.295246" lon="-5.984199">
        <ele>252.0</ele>
        <time>2012-07-05T15:48:30Z</time>
      </trkpt>
      <trkpt lat="43.295403" lon="-5.984619">
        <ele>252.0</ele>
        <time>2012-07-05T15:48:34Z</time>
      </trkpt>
      <trkpt lat="43.29556" lon="-5.98498">
        <ele>251.0</ele>
        <time>2012-07-05T15:48:38Z</time>
      </trkpt>
      <trkpt lat="43.295732" lon="-5.985267">
        <ele>250.0</ele>
        <time>2012-07-05T15:48:42Z</time>
      </trkpt>
      <trkpt lat="43.295954" lon="-5.985482">
        <ele>249.0</ele>
        <time>2012-07-05T15:48:46Z</time>
      </trkpt>
      <trkpt lat="43.29622" lon="-5.98564">
        <ele>249.0</ele>
        <time>2012-07-05T15:48:50Z</time>
      </trkpt>
      <trkpt lat="43.296501" lon="-5.985785">
        <ele>248.0</ele>
        <time>2012-07-05T15:48:54Z</time>
      </trkpt>
      <trkpt lat="43.296778" lon="-5.985927">
        <ele>248.0</ele>
        <time>2012-07-05T15:48:58Z</time>
      </trkpt>
      <trkpt lat="43.297053" lon="-5.986062">
        <ele>248.0</ele>
        <time>2012-07-05T15:49:02Z</time>
      </trkpt>
      <trkpt lat="43.297307" lon="-5.986231">
        <ele>248.0</ele>
        <time>2012-07-05T15:49:06Z</time>
      </trkpt>
      <trkpt lat="43.297542" lon="-5.986433">
        <ele>249.0</ele>
        <time>2012-07-05T15:49:10Z</time>
      </trkpt>
      <trkpt lat="43.297756" lon="-5.986622">
        <ele>249.0</ele>
        <time>2012-07-05T15:49:14Z</time>
      </trkpt>
      <trkpt lat="43.312593" lon="-5.98825">
        <ele>238.0</ele>
        <time>2012-07-05T15:52:40Z</time>
      </trkpt>
      <trkpt lat="43.312942" lon="-5.988448">
        <ele>237.0</ele>
        <time>2012-07-05T15:52:44Z</time>
      </trkpt>
      <trkpt lat="43.313248" lon="-5.988739">
        <ele>236.0</ele>
        <time>2012-07-05T15:52:48Z</time>
      </trkpt>
      <trkpt lat="43.313513" lon="-5.98907">
        <ele>237.0</ele>
        <time>2012-07-05T15:52:52Z</time>
      </trkpt>
      <trkpt lat="43.313728" lon="-5.989437">
        <ele>237.0</ele>
        <time>2012-07-05T15:52:56Z</time>
      </trkpt>
      <trkpt lat="43.313874" lon="-5.989909">
        <ele>237.0</ele>
        <time>2012-07-05T15:53:00Z</time>
      </trkpt>
      <trkpt lat="43.314002" lon="-5.990399">
        <ele>236.0</ele>
        <time>2012-07-05T15:53:04Z</time>
      </trkpt>
      <trkpt lat="43.314188" lon="-5.990831">
        <ele>236.0</ele>
        <time>2012-07-05T15:53:08Z</time>
      </trkpt>
      <trkpt lat="43.314441" lon="-5.991188">
        <ele>236.0</ele>
        <time>2012-07-05T15:53:12Z</time>
      </trkpt>
      <trkpt lat="43.31473" lon="-5.991468">
        <ele>236.0</ele>
        <time>2012-07-05T15:53:16Z</time>
      </trkpt>
      <trkpt lat="43.315039" lon="-5.991702">
        <ele>236.0</ele>
        <time>2012-07-05T15:53:20Z</time>
      </trkpt>
      <trkpt lat="43.315353" lon="-5.991924">
        <ele>236.0</ele>
        <time>2012-07-05T15:53:24Z</time>
      </trkpt>
      <trkpt lat="43.315552" lon="-5.992059">
        <ele>236.0</ele>
        <time>2012-07-05T15:53:27Z</time>
      </trkpt>
      <trkpt lat="43.315905" lon="-5.992233">
        <ele>237.0</ele>
        <time>2012-07-05T15:53:32Z</time>
      </trkpt>
      <trkpt lat="43.316242" lon="-5.992262">
        <ele>236.0</ele>
        <time>2012-07-05T15:53:36Z</time>
      </trkpt>
      <trkpt lat="43.316612" lon="-5.992248">
        <ele>236.0</ele>
        <time>2012-07-05T15:53:40Z</time>
      </trkpt>
      <trkpt lat="43.316885" lon="-5.992248">
        <ele>236.0</ele>
        <time>2012-07-05T15:53:43Z</time>
      </trkpt>
      <trkpt lat="43.317348" lon="-5.992277">
        <ele>235.0</ele>
        <time>2012-07-05T15:53:48Z</time>
      </trkpt>
      <trkpt lat="43.317759" lon="-5.992315">
        <ele>234.0</ele>
        <time>2012-07-05T15:53:52Z</time>
      </trkpt>
      <trkpt lat="43.318197" lon="-5.992363">
        <ele>233.0</ele>
        <time>2012-07-05T15:53:56Z</time>
      </trkpt>
      <trkpt lat="43.318641" lon="-5.992392">
        <ele>232.0</ele>
        <time>2012-07-05T15:54:00Z</time>
      </trkpt>
      <trkpt lat="43.31896" lon="-5.992412">
        <ele>231.0</ele>
        <time>2012-07-05T15:54:03Z</time>
      </trkpt>
      <trkpt lat="43.31947" lon="-5.992519">
        <ele>229.0</ele>
        <time>2012-07-05T15:54:08Z</time>
      </trkpt>
      <trkpt lat="43.319847" lon="-5.992664">
        <ele>229.0</ele>
        <time>2012-07-05T15:54:12Z</time>
      </trkpt>
      <trkpt lat="43.320205" lon="-5.99283">
        <ele>229.0</ele>
        <time>2012-07-05T15:54:16Z</time>
      </trkpt>
      <trkpt lat="43.32054" lon="-5.992955">
        <ele>228.0</ele>
        <time>2012-07-05T15:54:20Z</time>
      </trkpt>
      <trkpt lat="43.32078" lon="-5.993009">
        <ele>227.0</ele>
        <time>2012-07-05T15:54:23Z</time>
      </trkpt>
      <trkpt lat="43.321186" lon="-5.99308">
        <ele>224.0</ele>
        <time>2012-07-05T15:54:28Z</time>
      </trkpt>
      <trkpt lat="43.321539" lon="-5.993083">
        <ele>221.0</ele>
        <time>2012-07-05T15:54:32Z</time>
      </trkpt>
      <trkpt lat="43.32192" lon="-5.993084">
        <ele>218.0</ele>
        <time>2012-07-05T15:54:36Z</time>
      </trkpt>
      <trkpt lat="43.322332" lon="-5.993076">
        <ele>216.0</ele>
        <time>2012-07-05T15:54:40Z</time>
      </trkpt>
      <trkpt lat="43.322759" lon="-5.993075">
        <ele>215.0</ele>
        <time>2012-07-05T15:54:44Z</time>
      </trkpt>
      <trkpt lat="43.323186" lon="-5.993066">
        <ele>214.0</ele>
        <time>2012-07-05T15:54:48Z</time>
      </trkpt>
      <trkpt lat="43.323605" lon="-5.99301">
        <ele>213.0</ele>
        <time>2012-07-05T15:54:52Z</time>
      </trkpt>
      <trkpt lat="43.324022" lon="-5.992818">
        <ele>212.0</ele>
        <time>2012-07-05T15:54:56Z</time>
      </trkpt>
      <trkpt lat="43.32445" lon="-5.992543">
        <ele>211.0</ele>
        <time>2012-07-05T15:55:00Z</time>
      </trkpt>
      <trkpt lat="43.324875" lon="-5.992274">
        <ele>211.0</ele>
        <time>2012-07-05T15:55:04Z</time>
      </trkpt>
      <trkpt lat="43.325262" lon="-5.991994">
        <ele>211.0</ele>
        <time>2012-07-05T15:55:08Z</time>
      </trkpt>
      <trkpt lat="43.325624" lon="-5.991671">
        <ele>212.0</ele>
        <time>2012-07-05T15:55:12Z</time>
      </trkpt>
      <trkpt lat="43.325968" lon="-5.991338">
        <ele>212.0</ele>
        <time>2012-07-05T15:55:16Z</time>
      </trkpt>
      <trkpt lat="43.32627" lon="-5.990975">
        <ele>213.0</ele>
        <time>2012-07-05T15:55:20Z</time>
      </trkpt>
      <trkpt lat="43.326558" lon="-5.990623">
        <ele>214.0</ele>
        <time>2012-07-05T15:55:24Z</time>
      </trkpt>
      <trkpt lat="43.326844" lon="-5.990281">
        <ele>214.0</ele>
        <time>2012-07-05T15:55:28Z</time>
      </trkpt>
      <trkpt lat="43.327124" lon="-5.989942">
        <ele>215.0</ele>
        <time>2012-07-05T15:55:32Z</time>
      </trkpt>
      <trkpt lat="43.327399" lon="-5.989594">
        <ele>215.0</ele>
        <time>2012-07-05T15:55:36Z</time>
      </trkpt>
      <trkpt lat="43.327681" lon="-5.989236">
        <ele>214.0</ele>
        <time>2012-07-05T15:55:40Z</time>
      </trkpt>
      <trkpt lat="43.327953" lon="-5.988849">
        <ele>214.0</ele>
        <time>2012-07-05T15:55:44Z</time>
      </trkpt>
      <trkpt lat="43.32823" lon="-5.988457">
        <ele>215.0</ele>
        <time>2012-07-05T15:55:48Z</time>
      </trkpt>
      <trkpt lat="43.328549" lon="-5.988056">
        <ele>215.0</ele>
        <time>2012-07-05T15:55:52Z</time>
      </trkpt>
      <trkpt lat="43.328903" lon="-5.987728">
        <ele>216.0</ele>
        <time>2012-07-05T15:55:56Z</time>
      </trkpt>
      <trkpt lat="43.329384" lon="-5.987708">
        <ele>216.0</ele>
        <time>2012-07-05T15:56:00Z</time>
      </trkpt>
      <trkpt lat="43.329828" lon="-5.987769">
        <ele>216.0</ele>
        <time>2012-07-05T15:56:04Z</time>
      </trkpt>
      <trkpt lat="43.330233" lon="-5.987822">
        <ele>215.0</ele>
        <time>2012-07-05T15:56:08Z</time>
      </trkpt>
      <trkpt lat="43.330618" lon="-5.987877">
        <ele>215.0</ele>
        <time>2012-07-05T15:56:12Z</time>
      </trkpt>
      <trkpt lat="43.330982" lon="-5.987976">
        <ele>215.0</ele>
        <time>2012-07-05T15:56:16Z</time>
      </trkpt>
      <trkpt lat="43.331331" lon="-5.988026">
        <ele>214.0</ele>
        <time>2012-07-05T15:56:20Z</time>
      </trkpt>
      <trkpt lat="43.331678" lon="-5.988041">
        <ele>214.0</ele>
        <time>2012-07-05T15:56:24Z</time>
      </trkpt>
      <trkpt lat="43.332023" lon="-5.988027">
        <ele>215.0</ele>
        <time>2012-07-05T15:56:28Z</time>
      </trkpt>
      <trkpt lat="43.332361" lon="-5.988002">
        <ele>216.0</ele>
        <time>2012-07-05T15:56:32Z</time>
      </trkpt>
      <trkpt lat="43.332621" lon="-5.987965">
        <ele>217.0</ele>
        <time>2012-07-05T15:56:35Z</time>
      </trkpt>
      <trkpt lat="43.333074" lon="-5.987874">
        <ele>217.0</ele>
        <time>2012-07-05T15:56:40Z</time>
      </trkpt>
      <trkpt lat="43.333452" lon="-5.987765">
        <ele>217.0</ele>
        <time>2012-07-05T15:56:44Z</time>
      </trkpt>
      <trkpt lat="43.333838" lon="-5.987587">
        <ele>218.0</ele>
        <time>2012-07-05T15:56:48Z</time>
      </trkpt>
      <trkpt lat="43.334225" lon="-5.987387">
        <ele>219.0</ele>
        <time>2012-07-05T15:56:52Z</time>
      </trkpt>
      <trkpt lat="43.334589" lon="-5.987161">
        <ele>219.0</ele>
        <time>2012-07-05T15:56:56Z</time>
      </trkpt>
      <trkpt lat="43.334962" lon="-5.986884">
        <ele>215.0</ele>
        <time>2012-07-05T15:57:00Z</time>
      </trkpt>
      <trkpt lat="43.335334" lon="-5.986633">
        <ele>214.0</ele>
        <time>2012-07-05T15:57:04Z</time>
      </trkpt>
      <trkpt lat="43.335726" lon="-5.986484">
        <ele>214.0</ele>
        <time>2012-07-05T15:57:08Z</time>
      </trkpt>
      <trkpt lat="43.33602" lon="-5.986426">
        <ele>214.0</ele>
        <time>2012-07-05T15:57:11Z</time>
      </trkpt>
      <trkpt lat="43.33647" lon="-5.986166">
        <ele>213.0</ele>
        <time>2012-07-05T15:57:16Z</time>
      </trkpt>
      <trkpt lat="43.336808" lon="-5.985875">
        <ele>213.0</ele>
        <time>2012-07-05T15:57:20Z</time>
      </trkpt>
      <trkpt lat="43.33715" lon="-5.985586">
        <ele>213.0</ele>
        <time>2012-07-05T15:57:24Z</time>
      </trkpt>
      <trkpt lat="43.337545" lon="-5.985417">
        <ele>213.0</ele>
        <time>2012-07-05T15:57:28Z</time>
      </trkpt>
      <trkpt lat="43.337906" lon="-5.985339">
        <ele>214.0</ele>
        <time>2012-07-05T15:57:32Z</time>
      </trkpt>
      <trkpt lat="43.338248" lon="-5.985312">
        <ele>213.0</ele>
        <time>2012-07-05T15:57:36Z</time>
      </trkpt>
      <trkpt lat="43.338577" lon="-5.985304">
        <ele>213.0</ele>
        <time>2012-07-05T15:57:40Z</time>
      </trkpt>
      <trkpt lat="43.338911" lon="-5.98527">
        <ele>213.0</ele>
        <time>2012-07-05T15:57:44Z</time>
      </trkpt>
      <trkpt lat="43.339268" lon="-5.985175">
        <ele>214.0</ele>
        <time>2012-07-05T15:57:48Z</time>
      </trkpt>
      <trkpt lat="43.339655" lon="-5.984957">
        <ele>214.0</ele>
        <time>2012-07-05T15:57:52Z</time>
      </trkpt>
      <trkpt lat="43.340041" lon="-5.984659">
        <ele>214.0</ele>
        <time>2012-07-05T15:57:56Z</time>
      </trkpt>
      <trkpt lat="43.34036" lon="-5.984324">
        <ele>214.0</ele>
        <time>2012-07-05T15:58:00Z</time>
      </trkpt>
      <trkpt lat="43.340668" lon="-5.983979">
        <ele>215.0</ele>
        <time>2012-07-05T15:58:04Z</time>
      </trkpt>
      <trkpt lat="43.34096" lon="-5.983608">
        <ele>215.0</ele>
        <time>2012-07-05T15:58:08Z</time>
      </trkpt>
      <trkpt lat="43.341217" lon="-5.983165">
        <ele>214.0</ele>
        <time>2012-07-05T15:58:12Z</time>
      </trkpt>
      <trkpt lat="43.341477" lon="-5.98271">
        <ele>213.0</ele>
        <time>2012-07-05T15:58:16Z</time>
      </trkpt>
      <trkpt lat="43.341765" lon="-5.982306">
        <ele>213.0</ele>
        <time>2012-07-05T15:58:20Z</time>
      </trkpt>
      <trkpt lat="43.34205" lon="-5.981907">
        <ele>214.0</ele>
        <time>2012-07-05T15:58:24Z</time>
      </trkpt>
      <trkpt lat="43.342332" lon="-5.981478">
        <ele>215.0</ele>
        <time>2012-07-05T15:58:28Z</time>
      </trkpt>
      <trkpt lat="43.342626" lon="-5.981048">
        <ele>216.0</ele>
        <time>2012-07-05T15:58:32Z</time>
      </trkpt>
      <trkpt lat="43.342909" lon="-5.980603">
        <ele>216.0</ele>
        <time>2012-07-05T15:58:36Z</time>
      </trkpt>
      <trkpt lat="43.343068" lon="-5.980066">
        <ele>217.0</ele>
        <time>2012-07-05T15:58:40Z</time>
      </trkpt>
      <trkpt lat="43.343107" lon="-5.979503">
        <ele>217.0</ele>
        <time>2012-07-05T15:58:44Z</time>
      </trkpt>
      <trkpt lat="43.343201" lon="-5.979047">
        <ele>218.0</ele>
        <time>2012-07-05T15:58:48Z</time>
      </trkpt>
      <trkpt lat="43.343213" lon="-5.978581">
        <ele>218.0</ele>
        <time>2012-07-05T15:58:52Z</time>
      </trkpt>
      <trkpt lat="43.343264" lon="-5.97799">
        <ele>219.0</ele>
        <time>2012-07-05T15:58:56Z</time>
      </trkpt>
      <trkpt lat="43.343364" lon="-5.977373">
        <ele>218.0</ele>
        <time>2012-07-05T15:59:00Z</time>
      </trkpt>
      <trkpt lat="43.343497" lon="-5.976764">
        <ele>217.0</ele>
        <time>2012-07-05T15:59:04Z</time>
      </trkpt>
      <trkpt lat="43.343719" lon="-5.976188">
        <ele>217.0</ele>
        <time>2012-07-05T15:59:08Z</time>
      </trkpt>
      <trkpt lat="43.343942" lon="-5.97566">
        <ele>216.0</ele>
        <time>2012-07-05T15:59:12Z</time>
      </trkpt>
      <trkpt lat="43.344131" lon="-5.975337">
        <ele>216.0</ele>
        <time>2012-07-05T15:59:15Z</time>
      </trkpt>
      <trkpt lat="43.344448" lon="-5.974782">
        <ele>215.0</ele>
        <time>2012-07-05T15:59:20Z</time>
      </trkpt>
      <trkpt lat="43.344711" lon="-5.974365">
        <ele>214.0</ele>
        <time>2012-07-05T15:59:24Z</time>
      </trkpt>
      <trkpt lat="43.344965" lon="-5.973967">
        <ele>214.0</ele>
        <time>2012-07-05T15:59:28Z</time>
      </trkpt>
      <trkpt lat="43.345219" lon="-5.973588">
        <ele>214.0</ele>
        <time>2012-07-05T15:59:32Z</time>
      </trkpt>
      <trkpt lat="43.345433" lon="-5.973191">
        <ele>216.0</ele>
        <time>2012-07-05T15:59:36Z</time>
      </trkpt>
      <trkpt lat="43.345577" lon="-5.97274">
        <ele>217.0</ele>
        <time>2012-07-05T15:59:40Z</time>
      </trkpt>
      <trkpt lat="43.345732" lon="-5.972336">
        <ele>218.0</ele>
        <time>2012-07-05T15:59:44Z</time>
      </trkpt>
      <trkpt lat="43.345889" lon="-5.97195">
        <ele>218.0</ele>
        <time>2012-07-05T15:59:48Z</time>
      </trkpt>
      <trkpt lat="43.346102" lon="-5.971645">
        <ele>219.0</ele>
        <time>2012-07-05T15:59:52Z</time>
      </trkpt>
      <trkpt lat="43.346441" lon="-5.97149">
        <ele>221.0</ele>
        <time>2012-07-05T15:59:56Z</time>
      </trkpt>
      <trkpt lat="43.34674" lon="-5.971275">
        <ele>221.0</ele>
        <time>2012-07-05T16:00:00Z</time>
      </trkpt>
      <trkpt lat="43.347053" lon="-5.971054">
        <ele>220.0</ele>
        <time>2012-07-05T16:00:04Z</time>
      </trkpt>
      <trkpt lat="43.347361" lon="-5.970842">
        <ele>219.0</ele>
        <time>2012-07-05T16:00:08Z</time>
      </trkpt>
      <trkpt lat="43.347654" lon="-5.970621">
        <ele>218.0</ele>
        <time>2012-07-05T16:00:12Z</time>
      </trkpt>
      <trkpt lat="43.347968" lon="-5.970422">
        <ele>218.0</ele>
        <time>2012-07-05T16:00:16Z</time>
      </trkpt>
      <trkpt lat="43.348277" lon="-5.970205">
        <ele>217.0</ele>
        <time>2012-07-05T16:00:20Z</time>
      </trkpt>
      <trkpt lat="43.348605" lon="-5.970049">
        <ele>216.0</ele>
        <time>2012-07-05T16:00:24Z</time>
      </trkpt>
      <trkpt lat="43.348964" lon="-5.969899">
        <ele>214.0</ele>
        <time>2012-07-05T16:00:28Z</time>
      </trkpt>
      <trkpt lat="43.349323" lon="-5.969716">
        <ele>212.0</ele>
        <time>2012-07-05T16:00:32Z</time>
      </trkpt>
      <trkpt lat="43.349676" lon="-5.969545">
        <ele>210.0</ele>
        <time>2012-07-05T16:00:36Z</time>
      </trkpt>
      <trkpt lat="43.350023" lon="-5.96938">
        <ele>209.0</ele>
        <time>2012-07-05T16:00:40Z</time>
      </trkpt>
      <trkpt lat="43.350359" lon="-5.969227">
        <ele>209.0</ele>
        <time>2012-07-05T16:00:44Z</time>
      </trkpt>
      <trkpt lat="43.350678" lon="-5.969043">
        <ele>209.0</ele>
        <time>2012-07-05T16:00:48Z</time>
      </trkpt>
      <trkpt lat="43.350957" lon="-5.968772">
        <ele>208.0</ele>
        <time>2012-07-05T16:00:52Z</time>
      </trkpt>
      <trkpt lat="43.351276" lon="-5.968608">
        <ele>207.0</ele>
        <time>2012-07-05T16:00:56Z</time>
      </trkpt>
      <trkpt lat="43.3516" lon="-5.96851">
        <ele>204.0</ele>
        <time>2012-07-05T16:01:00Z</time>
      </trkpt>
      <trkpt lat="43.35188" lon="-5.968378">
        <ele>200.0</ele>
        <time>2012-07-05T16:01:04Z</time>
      </trkpt>
      <trkpt lat="43.352067" lon="-5.968282">
        <ele>198.0</ele>
        <time>2012-07-05T16:01:07Z</time>
      </trkpt>
      <trkpt lat="43.352294" lon="-5.968159">
        <ele>195.0</ele>
        <time>2012-07-05T16:01:11Z</time>
      </trkpt>
      <trkpt lat="43.352506" lon="-5.968043">
        <ele>193.0</ele>
        <time>2012-07-05T16:01:15Z</time>
      </trkpt>
      <trkpt lat="43.352704" lon="-5.967885">
        <ele>191.0</ele>
        <time>2012-07-05T16:01:19Z</time>
      </trkpt>
      <trkpt lat="43.352864" lon="-5.967647">
        <ele>190.0</ele>
        <time>2012-07-05T16:01:23Z</time>
      </trkpt>
      <trkpt lat="43.353043" lon="-5.967431">
        <ele>190.0</ele>
        <time>2012-07-05T16:01:27Z</time>
      </trkpt>
      <trkpt lat="43.353341" lon="-5.967232">
        <ele>190.0</ele>
        <time>2012-07-05T16:01:32Z</time>
      </trkpt>
      <trkpt lat="43.353646" lon="-5.967076">
        <ele>187.0</ele>
        <time>2012-07-05T16:01:36Z</time>
      </trkpt>
      <trkpt lat="43.353949" lon="-5.96687">
        <ele>185.0</ele>
        <time>2012-07-05T16:01:40Z</time>
      </trkpt>
      <trkpt lat="43.354154" lon="-5.966692">
        <ele>184.0</ele>
        <time>2012-07-05T16:01:43Z</time>
      </trkpt>
      <trkpt lat="43.354348" lon="-5.966509">
        <ele>184.0</ele>
        <time>2012-07-05T16:01:47Z</time>
      </trkpt>
      <trkpt lat="43.35453" lon="-5.966356">
        <ele>184.0</ele>
        <time>2012-07-05T16:01:51Z</time>
      </trkpt>
      <trkpt lat="43.354698" lon="-5.966311">
        <ele>185.0</ele>
        <time>2012-07-05T16:01:55Z</time>
      </trkpt>
      <trkpt lat="43.354846" lon="-5.966255">
        <ele>181.0</ele>
        <time>2012-07-05T16:02:00Z</time>
      </trkpt>
      <trkpt lat="43.354926" lon="-5.966219">
        <ele>178.0</ele>
        <time>2012-07-05T16:02:03Z</time>
      </trkpt>
      <trkpt lat="43.355014" lon="-5.966221">
        <ele>177.0</ele>
        <time>2012-07-05T16:02:06Z</time>
      </trkpt>
      <trkpt lat="43.355183" lon="-5.966228">
        <ele>176.0</ele>
        <time>2012-07-05T16:02:12Z</time>
      </trkpt>
      <trkpt lat="43.355266" lon="-5.966228">
        <ele>176.0</ele>
        <time>2012-07-05T16:02:15Z</time>
      </trkpt>
      <trkpt lat="43.355347" lon="-5.966222">
        <ele>176.0</ele>
        <time>2012-07-05T16:02:18Z</time>
      </trkpt>
      <trkpt lat="43.355524" lon="-5.966204">
        <ele>176.0</ele>
        <time>2012-07-05T16:02:24Z</time>
      </trkpt>
      <trkpt lat="43.355617" lon="-5.966199">
        <ele>176.0</ele>
        <time>2012-07-05T16:02:27Z</time>
      </trkpt>
      <trkpt lat="43.35571" lon="-5.966199">
        <ele>176.0</ele>
        <time>2012-07-05T16:02:30Z</time>
      </trkpt>
      <trkpt lat="43.355892" lon="-5.966193">
        <ele>176.0</ele>
        <time>2012-07-05T16:02:36Z</time>
      </trkpt>
      <trkpt lat="43.355983" lon="-5.966184">
        <ele>176.0</ele>
        <time>2012-07-05T16:02:39Z</time>
      </trkpt>
      <trkpt lat="43.356076" lon="-5.966175">
        <ele>177.0</ele>
        <time>2012-07-05T16:02:42Z</time>
      </trkpt>
      <trkpt lat="43.356233" lon="-5.966156">
        <ele>177.0</ele>
        <time>2012-07-05T16:02:47Z</time>
      </trkpt>
      <trkpt lat="43.356326" lon="-5.96614">
        <ele>177.0</ele>
        <time>2012-07-05T16:02:50Z</time>
      </trkpt>
      <trkpt lat="43.356508" lon="-5.966092">
        <ele>177.0</ele>
        <time>2012-07-05T16:02:56Z</time>
      </trkpt>
      <trkpt lat="43.356634" lon="-5.966036">
        <ele>177.0</ele>
        <time>2012-07-05T16:03:00Z</time>
      </trkpt>
      <trkpt lat="43.356766" lon="-5.965967">
        <ele>178.0</ele>
        <time>2012-07-05T16:03:04Z</time>
      </trkpt>
      <trkpt lat="43.356897" lon="-5.965899">
        <ele>178.0</ele>
        <time>2012-07-05T16:03:08Z</time>
      </trkpt>
      <trkpt lat="43.357028" lon="-5.965831">
        <ele>178.0</ele>
        <time>2012-07-05T16:03:12Z</time>
      </trkpt>
      <trkpt lat="43.357162" lon="-5.965767">
        <ele>178.0</ele>
        <time>2012-07-05T16:03:16Z</time>
      </trkpt>
      <trkpt lat="43.357293" lon="-5.9657">
        <ele>178.0</ele>
        <time>2012-07-05T16:03:20Z</time>
      </trkpt>
      <trkpt lat="43.357422" lon="-5.965631">
        <ele>178.0</ele>
        <time>2012-07-05T16:03:24Z</time>
      </trkpt>
      <trkpt lat="43.357554" lon="-5.965569">
        <ele>178.0</ele>
        <time>2012-07-05T16:03:28Z</time>
      </trkpt>
      <trkpt lat="43.357696" lon="-5.965525">
        <ele>179.0</ele>
        <time>2012-07-05T16:03:32Z</time>
      </trkpt>
      <trkpt lat="43.357839" lon="-5.9655">
        <ele>179.0</ele>
        <time>2012-07-05T16:03:36Z</time>
      </trkpt>
      <trkpt lat="43.357979" lon="-5.965474">
        <ele>179.0</ele>
        <time>2012-07-05T16:03:40Z</time>
      </trkpt>
      <trkpt lat="43.358114" lon="-5.965462">
        <ele>179.0</ele>
        <time>2012-07-05T16:03:44Z</time>
      </trkpt>
      <trkpt lat="43.358248" lon="-5.965459">
        <ele>179.0</ele>
        <time>2012-07-05T16:03:48Z</time>
      </trkpt>
      <trkpt lat="43.358381" lon="-5.965473">
        <ele>179.0</ele>
        <time>2012-07-05T16:03:52Z</time>
      </trkpt>
      <trkpt lat="43.358513" lon="-5.965481">
        <ele>179.0</ele>
        <time>2012-07-05T16:03:56Z</time>
      </trkpt>
      <trkpt lat="43.358608" lon="-5.965476">
        <ele>180.0</ele>
        <time>2012-07-05T16:03:59Z</time>
      </trkpt>
      <trkpt lat="43.358699" lon="-5.965468">
        <ele>180.0</ele>
        <time>2012-07-05T16:04:02Z</time>
      </trkpt>
      <trkpt lat="43.35886" lon="-5.965464">
        <ele>180.0</ele>
        <time>2012-07-05T16:04:07Z</time>
      </trkpt>
      <trkpt lat="43.358985" lon="-5.965506">
        <ele>180.0</ele>
        <time>2012-07-05T16:04:11Z</time>
      </trkpt>
      <trkpt lat="43.359102" lon="-5.965584">
        <ele>180.0</ele>
        <time>2012-07-05T16:04:15Z</time>
      </trkpt>
      <trkpt lat="43.359218" lon="-5.965682">
        <ele>180.0</ele>
        <time>2012-07-05T16:04:19Z</time>
      </trkpt>
      <trkpt lat="43.359311" lon="-5.965807">
        <ele>180.0</ele>
        <time>2012-07-05T16:04:23Z</time>
      </trkpt>
      <trkpt lat="43.359414" lon="-5.965971">
        <ele>180.0</ele>
        <time>2012-07-05T16:04:28Z</time>
      </trkpt>
      <trkpt lat="43.359467" lon="-5.966068">
        <ele>180.0</ele>
        <time>2012-07-05T16:04:31Z</time>
      </trkpt>
      <trkpt lat="43.359519" lon="-5.966283">
        <ele>181.0</ele>
        <time>2012-07-05T16:04:36Z</time>
      </trkpt>
      <trkpt lat="43.359537" lon="-5.966522">
        <ele>181.0</ele>
        <time>2012-07-05T16:04:40Z</time>
      </trkpt>
      <trkpt lat="43.359536" lon="-5.966658">
        <ele>181.0</ele>
        <time>2012-07-05T16:04:42Z</time>
      </trkpt>
      <trkpt lat="43.359477" lon="-5.967062">
        <ele>181.0</ele>
        <time>2012-07-05T16:04:48Z</time>
      </trkpt>
      <trkpt lat="43.359462" lon="-5.967295">
        <ele>181.0</ele>
        <time>2012-07-05T16:04:52Z</time>
      </trkpt>
      <trkpt lat="43.359469" lon="-5.967513">
        <ele>182.0</ele>
        <time>2012-07-05T16:04:56Z</time>
      </trkpt>
      <trkpt lat="43.359452" lon="-5.967715">
        <ele>182.0</ele>
        <time>2012-07-05T16:05:00Z</time>
      </trkpt>
      <trkpt lat="43.359428" lon="-5.967906">
        <ele>182.0</ele>
        <time>2012-07-05T16:05:04Z</time>
      </trkpt>
      <trkpt lat="43.359367" lon="-5.968091">
        <ele>182.0</ele>
        <time>2012-07-05T16:05:08Z</time>
      </trkpt>
      <trkpt lat="43.35933" lon="-5.968281">
        <ele>182.0</ele>
        <time>2012-07-05T16:05:12Z</time>
      </trkpt>
      <trkpt lat="43.359267" lon="-5.968468">
        <ele>182.0</ele>
        <time>2012-07-05T16:05:16Z</time>
      </trkpt>
      <trkpt lat="43.359189" lon="-5.968656">
        <ele>183.0</ele>
        <time>2012-07-05T16:05:20Z</time>
      </trkpt>
      <trkpt lat="43.359123" lon="-5.968848">
        <ele>183.0</ele>
        <time>2012-07-05T16:05:24Z</time>
      </trkpt>
      <trkpt lat="43.35907" lon="-5.96904">
        <ele>183.0</ele>
        <time>2012-07-05T16:05:28Z</time>
      </trkpt>
      <trkpt lat="43.359024" lon="-5.969246">
        <ele>184.0</ele>
        <time>2012-07-05T16:05:32Z</time>
      </trkpt>
      <trkpt lat="43.358984" lon="-5.96946">
        <ele>184.0</ele>
        <time>2012-07-05T16:05:36Z</time>
      </trkpt>
      <trkpt lat="43.35895" lon="-5.969687">
        <ele>187.0</ele>
        <time>2012-07-05T16:05:40Z</time>
      </trkpt>
      <trkpt lat="43.358929" lon="-5.969925">
        <ele>189.0</ele>
        <time>2012-07-05T16:05:44Z</time>
      </trkpt>
      <trkpt lat="43.358934" lon="-5.97018">
        <ele>189.0</ele>
        <time>2012-07-05T16:05:48Z</time>
      </trkpt>
      <trkpt lat="43.358947" lon="-5.970436">
        <ele>189.0</ele>
        <time>2012-07-05T16:05:52Z</time>
      </trkpt>
      <trkpt lat="43.35896" lon="-5.970687">
        <ele>190.0</ele>
        <time>2012-07-05T16:05:56Z</time>
      </trkpt>
      <trkpt lat="43.358972" lon="-5.970947">
        <ele>191.0</ele>
        <time>2012-07-05T16:06:00Z</time>
      </trkpt>
      <trkpt lat="43.358987" lon="-5.971236">
        <ele>192.0</ele>
        <time>2012-07-05T16:06:04Z</time>
      </trkpt>
      <trkpt lat="43.359002" lon="-5.971563">
        <ele>192.0</ele>
        <time>2012-07-05T16:06:08Z</time>
      </trkpt>
      <trkpt lat="43.359009" lon="-5.971914">
        <ele>192.0</ele>
        <time>2012-07-05T16:06:12Z</time>
      </trkpt>
      <trkpt lat="43.359016" lon="-5.972239">
        <ele>192.0</ele>
        <time>2012-07-05T16:06:16Z</time>
      </trkpt>
      <trkpt lat="43.359017" lon="-5.972391">
        <ele>192.0</ele>
        <time>2012-07-05T16:06:18Z</time>
      </trkpt>
      <trkpt lat="43.359045" lon="-5.972826">
        <ele>194.0</ele>
        <time>2012-07-05T16:06:24Z</time>
      </trkpt>
      <trkpt lat="43.359061" lon="-5.973103">
        <ele>195.0</ele>
        <time>2012-07-05T16:06:28Z</time>
      </trkpt>
      <trkpt lat="43.359074" lon="-5.973373">
        <ele>196.0</ele>
        <time>2012-07-05T16:06:32Z</time>
      </trkpt>
      <trkpt lat="43.35909" lon="-5.973629">
        <ele>197.0</ele>
        <time>2012-07-05T16:06:36Z</time>
      </trkpt>
      <trkpt lat="43.359071" lon="-5.973867">
        <ele>197.0</ele>
        <time>2012-07-05T16:06:40Z</time>
      </trkpt>
      <trkpt lat="43.358992" lon="-5.974094">
        <ele>198.0</ele>
        <time>2012-07-05T16:06:44Z</time>
      </trkpt>
      <trkpt lat="43.358965" lon="-5.974333">
        <ele>200.0</ele>
        <time>2012-07-05T16:06:48Z</time>
      </trkpt>
      <trkpt lat="43.358992" lon="-5.974578">
        <ele>201.0</ele>
        <time>2012-07-05T16:06:52Z</time>
      </trkpt>
      <trkpt lat="43.359017" lon="-5.974813">
        <ele>202.0</ele>
        <time>2012-07-05T16:06:56Z</time>
      </trkpt>
      <trkpt lat="43.359054" lon="-5.975046">
        <ele>202.0</ele>
        <time>2012-07-05T16:07:00Z</time>
      </trkpt>
      <trkpt lat="43.359116" lon="-5.975287">
        <ele>202.0</ele>
        <time>2012-07-05T16:07:04Z</time>
      </trkpt>
      <trkpt lat="43.35918" lon="-5.975525">
        <ele>202.0</ele>
        <time>2012-07-05T16:07:08Z</time>
      </trkpt>
      <trkpt lat="43.359249" lon="-5.97576">
        <ele>203.0</ele>
        <time>2012-07-05T16:07:12Z</time>
      </trkpt>
      <trkpt lat="43.359323" lon="-5.975993">
        <ele>203.0</ele>
        <time>2012-07-05T16:07:16Z</time>
      </trkpt>
      <trkpt lat="43.359406" lon="-5.976222">
        <ele>203.0</ele>
        <time>2012-07-05T16:07:20Z</time>
      </trkpt>
      <trkpt lat="43.359497" lon="-5.976438">
        <ele>203.0</ele>
        <time>2012-07-05T16:07:24Z</time>
      </trkpt>
      <trkpt lat="43.359617" lon="-5.97665">
        <ele>203.0</ele>
        <time>2012-07-05T16:07:28Z</time>
      </trkpt>
      <trkpt lat="43.359785" lon="-5.976846">
        <ele>203.0</ele>
        <time>2012-07-05T16:07:32Z</time>
      </trkpt>
      <trkpt lat="43.359984" lon="-5.977002">
        <ele>204.0</ele>
        <time>2012-07-05T16:07:36Z</time>
      </trkpt>
      <trkpt lat="43.360201" lon="-5.977159">
        <ele>204.0</ele>
        <time>2012-07-05T16:07:40Z</time>
      </trkpt>
      <trkpt lat="43.360518" lon="-5.97737">
        <ele>205.0</ele>
        <time>2012-07-05T16:07:44Z</time>
      </trkpt>
      <trkpt lat="43.360769" lon="-5.977604">
        <ele>206.0</ele>
        <time>2012-07-05T16:07:48Z</time>
      </trkpt>
      <trkpt lat="43.360953" lon="-5.97785">
        <ele>208.0</ele>
        <time>2012-07-05T16:07:52Z</time>
      </trkpt>
      <trkpt lat="43.3611" lon="-5.97809">
        <ele>208.0</ele>
        <time>2012-07-05T16:07:56Z</time>
      </trkpt>
      <trkpt lat="43.361267" lon="-5.978322">
        <ele>208.0</ele>
        <time>2012-07-05T16:08:00Z</time>
      </trkpt>
      <trkpt lat="43.361424" lon="-5.978513">
        <ele>208.0</ele>
        <time>2012-07-05T16:08:04Z</time>
      </trkpt>
      <trkpt lat="43.361567" lon="-5.978671">
        <ele>208.0</ele>
        <time>2012-07-05T16:08:08Z</time>
      </trkpt>
      <trkpt lat="43.3617" lon="-5.978821">
        <ele>208.0</ele>
        <time>2012-07-05T16:08:12Z</time>
      </trkpt>
      <trkpt lat="43.361837" lon="-5.978973">
        <ele>209.0</ele>
        <time>2012-07-05T16:08:16Z</time>
      </trkpt>
      <trkpt lat="43.361969" lon="-5.979132">
        <ele>209.0</ele>
        <time>2012-07-05T16:08:20Z</time>
      </trkpt>
      <trkpt lat="43.362093" lon="-5.979296">
        <ele>209.0</ele>
        <time>2012-07-05T16:08:24Z</time>
      </trkpt>
      <trkpt lat="43.362222" lon="-5.979447">
        <ele>209.0</ele>
        <time>2012-07-05T16:08:28Z</time>
      </trkpt>
      <trkpt lat="43.362351" lon="-5.979588">
        <ele>209.0</ele>
        <time>2012-07-05T16:08:32Z</time>
      </trkpt>
      <trkpt lat="43.362482" lon="-5.979724">
        <ele>209.0</ele>
        <time>2012-07-05T16:08:36Z</time>
      </trkpt>
      <trkpt lat="43.362609" lon="-5.979859">
        <ele>209.0</ele>
        <time>2012-07-05T16:08:40Z</time>
      </trkpt>
      <trkpt lat="43.362738" lon="-5.979998">
        <ele>210.0</ele>
        <time>2012-07-05T16:08:44Z</time>
      </trkpt>
      <trkpt lat="43.362867" lon="-5.980135">
        <ele>211.0</ele>
        <time>2012-07-05T16:08:48Z</time>
      </trkpt>
      <trkpt lat="43.362994" lon="-5.980265">
        <ele>212.0</ele>
        <time>2012-07-05T16:08:52Z</time>
      </trkpt>
      <trkpt lat="43.363129" lon="-5.980371">
        <ele>212.0</ele>
        <time>2012-07-05T16:08:56Z</time>
      </trkpt>
      <trkpt lat="43.363265" lon="-5.980473">
        <ele>212.0</ele>
        <time>2012-07-05T16:09:00Z</time>
      </trkpt>
      <trkpt lat="43.363399" lon="-5.980566">
        <ele>212.0</ele>
        <time>2012-07-05T16:09:04Z</time>
      </trkpt>
      <trkpt lat="43.36351" lon="-5.980685">
        <ele>211.0</ele>
        <time>2012-07-05T16:09:08Z</time>
      </trkpt>
      <trkpt lat="43.363613" lon="-5.980791">
        <ele>211.0</ele>
        <time>2012-07-05T16:09:12Z</time>
      </trkpt>
      <trkpt lat="43.363725" lon="-5.980879">
        <ele>211.0</ele>
        <time>2012-07-05T16:09:16Z</time>
      </trkpt>
      <trkpt lat="43.363841" lon="-5.980958">
        <ele>211.0</ele>
        <time>2012-07-05T16:09:20Z</time>
      </trkpt>
      <trkpt lat="43.363965" lon="-5.981027">
        <ele>211.0</ele>
        <time>2012-07-05T16:09:24Z</time>
      </trkpt>
      <trkpt lat="43.364089" lon="-5.9811">
        <ele>211.0</ele>
        <time>2012-07-05T16:09:28Z</time>
      </trkpt>
      <trkpt lat="43.364215" lon="-5.981161">
        <ele>211.0</ele>
        <time>2012-07-05T16:09:32Z</time>
      </trkpt>
      <trkpt lat="43.364344" lon="-5.981223">
        <ele>211.0</ele>
        <time>2012-07-05T16:09:36Z</time>
      </trkpt>
      <trkpt lat="43.364466" lon="-5.981285">
        <ele>211.0</ele>
        <time>2012-07-05T16:09:40Z</time>
      </trkpt>
      <trkpt lat="43.364526" lon="-5.981313">
        <ele>211.0</ele>
        <time>2012-07-05T16:09:42Z</time>
      </trkpt>
      <trkpt lat="43.364677" lon="-5.981387">
        <ele>211.0</ele>
        <time>2012-07-05T16:09:47Z</time>
      </trkpt>
      <trkpt lat="43.364788" lon="-5.98148">
        <ele>212.0</ele>
        <time>2012-07-05T16:09:51Z</time>
      </trkpt>
      <trkpt lat="43.364908" lon="-5.981622">
        <ele>213.0</ele>
        <time>2012-07-05T16:09:56Z</time>
      </trkpt>
      <trkpt lat="43.364993" lon="-5.981762">
        <ele>214.0</ele>
        <time>2012-07-05T16:10:00Z</time>
      </trkpt>
      <trkpt lat="43.365096" lon="-5.981886">
        <ele>216.0</ele>
        <time>2012-07-05T16:10:04Z</time>
      </trkpt>
      <trkpt lat="43.365185" lon="-5.982033">
        <ele>217.0</ele>
        <time>2012-07-05T16:10:08Z</time>
      </trkpt>
      <trkpt lat="43.365249" lon="-5.982221">
        <ele>219.0</ele>
        <time>2012-07-05T16:10:12Z</time>
      </trkpt>
      <trkpt lat="43.365373" lon="-5.982664">
        <ele>220.0</ele>
        <time>2012-07-05T16:10:20Z</time>
      </trkpt>
      <trkpt lat="43.365467" lon="-5.982872">
        <ele>221.0</ele>
        <time>2012-07-05T16:10:24Z</time>
      </trkpt>
      <trkpt lat="43.365581" lon="-5.983099">
        <ele>221.0</ele>
        <time>2012-07-05T16:10:28Z</time>
      </trkpt>
      <trkpt lat="43.365853" lon="-5.983596">
        <ele>220.0</ele>
        <time>2012-07-05T16:10:36Z</time>
      </trkpt>
      <trkpt lat="43.365964" lon="-5.983837">
        <ele>221.0</ele>
        <time>2012-07-05T16:10:40Z</time>
      </trkpt>
      <trkpt lat="43.366057" lon="-5.984085">
        <ele>221.0</ele>
        <time>2012-07-05T16:10:44Z</time>
      </trkpt>
      <trkpt lat="43.366123" lon="-5.984353">
        <ele>222.0</ele>
        <time>2012-07-05T16:10:48Z</time>
      </trkpt>
      <trkpt lat="43.36614" lon="-5.984648">
        <ele>223.0</ele>
        <time>2012-07-05T16:10:52Z</time>
      </trkpt>
      <trkpt lat="43.366142" lon="-5.984922">
        <ele>223.0</ele>
        <time>2012-07-05T16:10:56Z</time>
      </trkpt>
      <trkpt lat="43.366165" lon="-5.985195">
        <ele>224.0</ele>
        <time>2012-07-05T16:11:00Z</time>
      </trkpt>
      <trkpt lat="43.3662" lon="-5.985468">
        <ele>226.0</ele>
        <time>2012-07-05T16:11:04Z</time>
      </trkpt>
      <trkpt lat="43.366231" lon="-5.985739">
        <ele>227.0</ele>
        <time>2012-07-05T16:11:08Z</time>
      </trkpt>
      <trkpt lat="43.366221" lon="-5.986004">
        <ele>228.0</ele>
        <time>2012-07-05T16:11:12Z</time>
      </trkpt>
      <trkpt lat="43.366152" lon="-5.986521">
        <ele>228.0</ele>
        <time>2012-07-05T16:11:20Z</time>
      </trkpt>
      <trkpt lat="43.365977" lon="-5.987001">
        <ele>228.0</ele>
        <time>2012-07-05T16:11:28Z</time>
      </trkpt>
      <trkpt lat="43.365819" lon="-5.98717">
        <ele>228.0</ele>
        <time>2012-07-05T16:11:32Z</time>
      </trkpt>
      <trkpt lat="43.365609" lon="-5.987273">
        <ele>228.0</ele>
        <time>2012-07-05T16:11:36Z</time>
      </trkpt>
      <trkpt lat="43.365397" lon="-5.987372">
        <ele>229.0</ele>
        <time>2012-07-05T16:11:40Z</time>
      </trkpt>
      <trkpt lat="43.365215" lon="-5.987526">
        <ele>229.0</ele>
        <time>2012-07-05T16:11:44Z</time>
      </trkpt>
      <trkpt lat="43.365082" lon="-5.98778">
        <ele>229.0</ele>
        <time>2012-07-05T16:11:48Z</time>
      </trkpt>
      <trkpt lat="43.364983" lon="-5.988083">
        <ele>230.0</ele>
        <time>2012-07-05T16:11:52Z</time>
      </trkpt>
      <trkpt lat="43.364953" lon="-5.988411">
        <ele>231.0</ele>
        <time>2012-07-05T16:11:56Z</time>
      </trkpt>
      <trkpt lat="43.364957" lon="-5.988723">
        <ele>231.0</ele>
        <time>2012-07-05T16:12:00Z</time>
      </trkpt>
      <trkpt lat="43.364987" lon="-5.989035">
        <ele>231.0</ele>
        <time>2012-07-05T16:12:04Z</time>
      </trkpt>
      <trkpt lat="43.365029" lon="-5.989362">
        <ele>231.0</ele>
        <time>2012-07-05T16:12:08Z</time>
      </trkpt>
      <trkpt lat="43.365081" lon="-5.989671">
        <ele>232.0</ele>
        <time>2012-07-05T16:12:12Z</time>
      </trkpt>
      <trkpt lat="43.36514" lon="-5.989971">
        <ele>233.0</ele>
        <time>2012-07-05T16:12:16Z</time>
      </trkpt>
      <trkpt lat="43.365196" lon="-5.990269">
        <ele>233.0</ele>
        <time>2012-07-05T16:12:20Z</time>
      </trkpt>
      <trkpt lat="43.365269" lon="-5.990551">
        <ele>233.0</ele>
        <time>2012-07-05T16:12:24Z</time>
      </trkpt>
      <trkpt lat="43.36536" lon="-5.990831">
        <ele>233.0</ele>
        <time>2012-07-05T16:12:28Z</time>
      </trkpt>
      <trkpt lat="43.365477" lon="-5.99112">
        <ele>233.0</ele>
        <time>2012-07-05T16:12:32Z</time>
      </trkpt>
      <trkpt lat="43.365612" lon="-5.991397">
        <ele>233.0</ele>
        <time>2012-07-05T16:12:36Z</time>
      </trkpt>
      <trkpt lat="43.365748" lon="-5.991667">
        <ele>233.0</ele>
        <time>2012-07-05T16:12:40Z</time>
      </trkpt>
      <trkpt lat="43.365817" lon="-5.991802">
        <ele>233.0</ele>
        <time>2012-07-05T16:12:42Z</time>
      </trkpt>
      <trkpt lat="43.366038" lon="-5.992172">
        <ele>233.0</ele>
        <time>2012-07-05T16:12:48Z</time>
      </trkpt>
      <trkpt lat="43.366211" lon="-5.992404">
        <ele>232.0</ele>
        <time>2012-07-05T16:12:52Z</time>
      </trkpt>
      <trkpt lat="43.366427" lon="-5.992627">
        <ele>231.0</ele>
        <time>2012-07-05T16:12:56Z</time>
      </trkpt>
      <trkpt lat="43.366666" lon="-5.992828">
        <ele>230.0</ele>
        <time>2012-07-05T16:13:00Z</time>
      </trkpt>
      <trkpt lat="43.366901" lon="-5.993047">
        <ele>230.0</ele>
        <time>2012-07-05T16:13:04Z</time>
      </trkpt>
      <trkpt lat="43.367047" lon="-5.993375">
        <ele>231.0</ele>
        <time>2012-07-05T16:13:08Z</time>
      </trkpt>
      <trkpt lat="43.367158" lon="-5.993736">
        <ele>232.0</ele>
        <time>2012-07-05T16:13:12Z</time>
      </trkpt>
      <trkpt lat="43.367164" lon="-5.994127">
        <ele>232.0</ele>
        <time>2012-07-05T16:13:16Z</time>
      </trkpt>
      <trkpt lat="43.367083" lon="-5.994557">
        <ele>234.0</ele>
        <time>2012-07-05T16:13:20Z</time>
      </trkpt>
      <trkpt lat="43.367087" lon="-5.994969">
        <ele>235.0</ele>
        <time>2012-07-05T16:13:24Z</time>
      </trkpt>
      <trkpt lat="43.367233" lon="-5.995349">
        <ele>234.0</ele>
        <time>2012-07-05T16:13:28Z</time>
      </trkpt>
      <trkpt lat="43.367629" lon="-5.995533">
        <ele>231.0</ele>
        <time>2012-07-05T16:13:39Z</time>
      </trkpt>
      <trkpt lat="43.367869" lon="-5.995434">
        <ele>232.0</ele>
        <time>2012-07-05T16:13:43Z</time>
      </trkpt>
      <trkpt lat="43.368379" lon="-5.995342">
        <ele>232.0</ele>
        <time>2012-07-05T16:13:48Z</time>
      </trkpt>
      <trkpt lat="43.368737" lon="-5.995311">
        <ele>234.0</ele>
        <time>2012-07-05T16:13:52Z</time>
      </trkpt>
      <trkpt lat="43.36889" lon="-5.99563">
        <ele>236.0</ele>
        <time>2012-07-05T16:13:56Z</time>
      </trkpt>
      <trkpt lat="43.368554" lon="-5.996173">
        <ele>237.0</ele>
        <time>2012-07-05T16:14:00Z</time>
      </trkpt>
      <trkpt lat="43.368329" lon="-5.996567">
        <ele>236.0</ele>
        <time>2012-07-05T16:14:04Z</time>
      </trkpt>
      <trkpt lat="43.368272" lon="-5.996904">
        <ele>235.0</ele>
        <time>2012-07-05T16:14:07Z</time>
      </trkpt>
      <trkpt lat="43.368279" lon="-5.997372">
        <ele>234.0</ele>
        <time>2012-07-05T16:14:11Z</time>
      </trkpt>
      <trkpt lat="43.368572" lon="-5.997765">
        <ele>233.0</ele>
        <time>2012-07-05T16:14:16Z</time>
      </trkpt>
      <trkpt lat="43.368906" lon="-5.997912">
        <ele>232.0</ele>
        <time>2012-07-05T16:14:20Z</time>
      </trkpt>
      <trkpt lat="43.369231" lon="-5.998082">
        <ele>232.0</ele>
        <time>2012-07-05T16:14:24Z</time>
      </trkpt>
      <trkpt lat="43.369834" lon="-5.998448">
        <ele>231.0</ele>
        <time>2012-07-05T16:14:32Z</time>
      </trkpt>
      <trkpt lat="43.370135" lon="-5.9985">
        <ele>231.0</ele>
        <time>2012-07-05T16:14:36Z</time>
      </trkpt>
      <trkpt lat="43.370451" lon="-5.998488">
        <ele>230.0</ele>
        <time>2012-07-05T16:14:40Z</time>
      </trkpt>
      <trkpt lat="43.37076" lon="-5.998455">
        <ele>231.0</ele>
        <time>2012-07-05T16:14:44Z</time>
      </trkpt>
      <trkpt lat="43.370993" lon="-5.998428">
        <ele>231.0</ele>
        <time>2012-07-05T16:14:47Z</time>
      </trkpt>
      <trkpt lat="43.371381" lon="-5.998256">
        <ele>232.0</ele>
        <time>2012-07-05T16:14:52Z</time>
      </trkpt>
      <trkpt lat="43.371675" lon="-5.997918">
        <ele>231.0</ele>
        <time>2012-07-05T16:14:56Z</time>
      </trkpt>
      <trkpt lat="43.371953" lon="-5.997336">
        <ele>231.0</ele>
        <time>2012-07-05T16:15:00Z</time>
      </trkpt>
      <trkpt lat="43.372255" lon="-5.996931">
        <ele>231.0</ele>
        <time>2012-07-05T16:15:04Z</time>
      </trkpt>
      <trkpt lat="43.372647" lon="-5.996674">
        <ele>232.0</ele>
        <time>2012-07-05T16:15:08Z</time>
      </trkpt>
      <trkpt lat="43.373109" lon="-5.996465">
        <ele>232.0</ele>
        <time>2012-07-05T16:15:12Z</time>
      </trkpt>
      <trkpt lat="43.373457" lon="-5.996382">
        <ele>232.0</ele>
        <time>2012-07-05T16:15:15Z</time>
      </trkpt>
      <trkpt lat="43.373857" lon="-5.996892">
        <ele>233.0</ele>
        <time>2012-07-05T16:15:20Z</time>
      </trkpt>
      <trkpt lat="43.373941" lon="-5.997465">
        <ele>233.0</ele>
        <time>2012-07-05T16:15:24Z</time>
      </trkpt>
      <trkpt lat="43.374095" lon="-5.997885">
        <ele>233.0</ele>
        <time>2012-07-05T16:15:28Z</time>
      </trkpt>
      <trkpt lat="43.374372" lon="-5.998075">
        <ele>231.0</ele>
        <time>2012-07-05T16:15:32Z</time>
      </trkpt>
      <trkpt lat="43.37451" lon="-5.998158">
        <ele>231.0</ele>
        <time>2012-07-05T16:15:34Z</time>
      </trkpt>
      <trkpt lat="43.374774" lon="-5.998204">
        <ele>231.0</ele>
        <time>2012-07-05T16:15:39Z</time>
      </trkpt>
      <trkpt lat="43.375045" lon="-5.998013">
        <ele>232.0</ele>
        <time>2012-07-05T16:15:43Z</time>
      </trkpt>
      <trkpt lat="43.375587" lon="-5.997935">
        <ele>231.0</ele>
        <time>2012-07-05T16:15:49Z</time>
      </trkpt>
      <trkpt lat="43.375777" lon="-5.99802">
        <ele>229.0</ele>
        <time>2012-07-05T16:15:52Z</time>
      </trkpt>
      <trkpt lat="43.376125" lon="-5.998254">
        <ele>226.0</ele>
        <time>2012-07-05T16:15:57Z</time>
      </trkpt>
      <trkpt lat="43.376322" lon="-5.998422">
        <ele>225.0</ele>
        <time>2012-07-05T16:16:00Z</time>
      </trkpt>
      <trkpt lat="43.376589" lon="-5.99868">
        <ele>223.0</ele>
        <time>2012-07-05T16:16:04Z</time>
      </trkpt>
      <trkpt lat="43.376867" lon="-5.998954">
        <ele>223.0</ele>
        <time>2012-07-05T16:16:08Z</time>
      </trkpt>
      <trkpt lat="43.377145" lon="-5.999238">
        <ele>222.0</ele>
        <time>2012-07-05T16:16:12Z</time>
      </trkpt>
      <trkpt lat="43.377417" lon="-5.999529">
        <ele>222.0</ele>
        <time>2012-07-05T16:16:16Z</time>
      </trkpt>
      <trkpt lat="43.377675" lon="-5.999801">
        <ele>223.0</ele>
        <time>2012-07-05T16:16:20Z</time>
      </trkpt>
      <trkpt lat="43.377736" lon="-6.000169">
        <ele>223.0</ele>
        <time>2012-07-05T16:16:24Z</time>
      </trkpt>
      <trkpt lat="43.377855" lon="-6.000254">
        <ele>224.0</ele>
        <time>2012-07-05T16:16:28Z</time>
      </trkpt>
      <trkpt lat="43.378132" lon="-5.999817">
        <ele>232.0</ele>
        <time>2012-07-05T16:16:32Z</time>
      </trkpt>
      <trkpt lat="43.37866" lon="-5.998383">
        <ele>237.0</ele>
        <time>2012-07-05T16:16:36Z</time>
      </trkpt>
      <trkpt lat="43.378877" lon="-5.997425">
        <ele>239.0</ele>
        <time>2012-07-05T16:16:40Z</time>
      </trkpt>
      <trkpt lat="43.379179" lon="-5.996931">
        <ele>240.0</ele>
        <time>2012-07-05T16:16:44Z</time>
      </trkpt>
      <trkpt lat="43.379519" lon="-5.997126">
        <ele>240.0</ele>
        <time>2012-07-05T16:16:48Z</time>
      </trkpt>
      <trkpt lat="43.379508" lon="-5.997422">
        <ele>236.0</ele>
        <time>2012-07-05T16:16:52Z</time>
      </trkpt>
      <trkpt lat="43.379509" lon="-5.997838">
        <ele>234.0</ele>
        <time>2012-07-05T16:16:56Z</time>
      </trkpt>
      <trkpt lat="43.379652" lon="-5.998213">
        <ele>233.0</ele>
        <time>2012-07-05T16:17:00Z</time>
      </trkpt>
      <trkpt lat="43.379879" lon="-5.998527">
        <ele>231.0</ele>
        <time>2012-07-05T16:17:04Z</time>
      </trkpt>
      <trkpt lat="43.380203" lon="-5.998744">
        <ele>230.0</ele>
        <time>2012-07-05T16:17:08Z</time>
      </trkpt>
      <trkpt lat="43.380551" lon="-5.998876">
        <ele>230.0</ele>
        <time>2012-07-05T16:17:12Z</time>
      </trkpt>
      <trkpt lat="43.380915" lon="-5.998941">
        <ele>231.0</ele>
        <time>2012-07-05T16:17:16Z</time>
      </trkpt>
      <trkpt lat="43.381285" lon="-5.998954">
        <ele>231.0</ele>
        <time>2012-07-05T16:17:20Z</time>
      </trkpt>
      <trkpt lat="43.381611" lon="-5.999014">
        <ele>232.0</ele>
        <time>2012-07-05T16:17:23Z</time>
      </trkpt>
      <trkpt lat="43.382135" lon="-5.998961">
        <ele>231.0</ele>
        <time>2012-07-05T16:17:28Z</time>
      </trkpt>
      <trkpt lat="43.382523" lon="-5.999087">
        <ele>230.0</ele>
        <time>2012-07-05T16:17:32Z</time>
      </trkpt>
      <trkpt lat="43.382901" lon="-5.9993">
        <ele>229.0</ele>
        <time>2012-07-05T16:17:36Z</time>
      </trkpt>
      <trkpt lat="43.383246" lon="-5.999549">
        <ele>229.0</ele>
        <time>2012-07-05T16:17:40Z</time>
      </trkpt>
      <trkpt lat="43.383539" lon="-5.999851">
        <ele>228.0</ele>
        <time>2012-07-05T16:17:44Z</time>
      </trkpt>
      <trkpt lat="43.383798" lon="-6.000229">
        <ele>228.0</ele>
        <time>2012-07-05T16:17:48Z</time>
      </trkpt>
      <trkpt lat="43.38405" lon="-6.000598">
        <ele>228.0</ele>
        <time>2012-07-05T16:17:52Z</time>
      </trkpt>
      <trkpt lat="43.384215" lon="-6.000804">
        <ele>228.0</ele>
        <time>2012-07-05T16:17:55Z</time>
      </trkpt>
      <trkpt lat="43.384527" lon="-6.000899">
        <ele>227.0</ele>
        <time>2012-07-05T16:18:00Z</time>
      </trkpt>
      <trkpt lat="43.384798" lon="-6.001038">
        <ele>227.0</ele>
        <time>2012-07-05T16:18:04Z</time>
      </trkpt>
      <trkpt lat="43.385081" lon="-6.001227">
        <ele>227.0</ele>
        <time>2012-07-05T16:18:08Z</time>
      </trkpt>
      <trkpt lat="43.385297" lon="-6.001377">
        <ele>226.0</ele>
        <time>2012-07-05T16:18:11Z</time>
      </trkpt>
      <trkpt lat="43.385625" lon="-6.001554">
        <ele>224.0</ele>
        <time>2012-07-05T16:18:16Z</time>
      </trkpt>
      <trkpt lat="43.385736" lon="-6.001585">
        <ele>224.0</ele>
        <time>2012-07-05T16:18:18Z</time>
      </trkpt>
      <trkpt lat="43.386151" lon="-6.001521">
        <ele>226.0</ele>
        <time>2012-07-05T16:18:24Z</time>
      </trkpt>
      <trkpt lat="43.386589" lon="-6.001323">
        <ele>224.0</ele>
        <time>2012-07-05T16:18:28Z</time>
      </trkpt>
      <trkpt lat="43.387032" lon="-6.001188">
        <ele>222.0</ele>
        <time>2012-07-05T16:18:32Z</time>
      </trkpt>
      <trkpt lat="43.387452" lon="-6.001126">
        <ele>221.0</ele>
        <time>2012-07-05T16:18:36Z</time>
      </trkpt>
      <trkpt lat="43.387829" lon="-6.001153">
        <ele>220.0</ele>
        <time>2012-07-05T16:18:40Z</time>
      </trkpt>
      <trkpt lat="43.388091" lon="-6.001372">
        <ele>219.0</ele>
        <time>2012-07-05T16:18:44Z</time>
      </trkpt>
      <trkpt lat="43.388144" lon="-6.00158">
        <ele>219.0</ele>
        <time>2012-07-05T16:18:48Z</time>
      </trkpt>
      <trkpt lat="43.388101" lon="-6.001878">
        <ele>217.0</ele>
        <time>2012-07-05T16:18:52Z</time>
      </trkpt>
      <trkpt lat="43.388121" lon="-6.002198">
        <ele>216.0</ele>
        <time>2012-07-05T16:18:56Z</time>
      </trkpt>
      <trkpt lat="43.388169" lon="-6.002482">
        <ele>217.0</ele>
        <time>2012-07-05T16:19:00Z</time>
      </trkpt>
      <trkpt lat="43.388245" lon="-6.002745">
        <ele>217.0</ele>
        <time>2012-07-05T16:19:04Z</time>
      </trkpt>
      <trkpt lat="43.388327" lon="-6.002969">
        <ele>217.0</ele>
        <time>2012-07-05T16:19:08Z</time>
      </trkpt>
      <trkpt lat="43.388382" lon="-6.003162">
        <ele>217.0</ele>
        <time>2012-07-05T16:19:12Z</time>
      </trkpt>
      <trkpt lat="43.388425" lon="-6.003364">
        <ele>217.0</ele>
        <time>2012-07-05T16:19:16Z</time>
      </trkpt>
      <trkpt lat="43.388463" lon="-6.003577">
        <ele>218.0</ele>
        <time>2012-07-05T16:19:20Z</time>
      </trkpt>
      <trkpt lat="43.388496" lon="-6.003803">
        <ele>218.0</ele>
        <time>2012-07-05T16:19:24Z</time>
      </trkpt>
      <trkpt lat="43.388506" lon="-6.004031">
        <ele>219.0</ele>
        <time>2012-07-05T16:19:28Z</time>
      </trkpt>
      <trkpt lat="43.388492" lon="-6.004257">
        <ele>220.0</ele>
        <time>2012-07-05T16:19:32Z</time>
      </trkpt>
      <trkpt lat="43.388427" lon="-6.004682">
        <ele>220.0</ele>
        <time>2012-07-05T16:19:40Z</time>
      </trkpt>
      <trkpt lat="43.388418" lon="-6.004781">
        <ele>220.0</ele>
        <time>2012-07-05T16:19:42Z</time>
      </trkpt>
      <trkpt lat="43.388311" lon="-6.005083">
        <ele>221.0</ele>
        <time>2012-07-05T16:19:48Z</time>
      </trkpt>
      <trkpt lat="43.388214" lon="-6.005328">
        <ele>221.0</ele>
        <time>2012-07-05T16:19:52Z</time>
      </trkpt>
      <trkpt lat="43.388144" lon="-6.005665">
        <ele>221.0</ele>
        <time>2012-07-05T16:19:56Z</time>
      </trkpt>
      <trkpt lat="43.388185" lon="-6.006016">
        <ele>222.0</ele>
        <time>2012-07-05T16:20:00Z</time>
      </trkpt>
      <trkpt lat="43.388265" lon="-6.006383">
        <ele>223.0</ele>
        <time>2012-07-05T16:20:04Z</time>
      </trkpt>
      <trkpt lat="43.388344" lon="-6.006775">
        <ele>224.0</ele>
        <time>2012-07-05T16:20:08Z</time>
      </trkpt>
      <trkpt lat="43.388456" lon="-6.007188">
        <ele>224.0</ele>
        <time>2012-07-05T16:20:12Z</time>
      </trkpt>
      <trkpt lat="43.388592" lon="-6.007574">
        <ele>224.0</ele>
        <time>2012-07-05T16:20:16Z</time>
      </trkpt>
      <trkpt lat="43.388771" lon="-6.007968">
        <ele>224.0</ele>
        <time>2012-07-05T16:20:20Z</time>
      </trkpt>
      <trkpt lat="43.388993" lon="-6.008353">
        <ele>224.0</ele>
        <time>2012-07-05T16:20:24Z</time>
      </trkpt>
      <trkpt lat="43.389205" lon="-6.008756">
        <ele>223.0</ele>
        <time>2012-07-05T16:20:28Z</time>
      </trkpt>
      <trkpt lat="43.389386" lon="-6.009166">
        <ele>222.0</ele>
        <time>2012-07-05T16:20:32Z</time>
      </trkpt>
      <trkpt lat="43.389584" lon="-6.009548">
        <ele>222.0</ele>
        <time>2012-07-05T16:20:36Z</time>
      </trkpt>
      <trkpt lat="43.389773" lon="-6.009926">
        <ele>221.0</ele>
        <time>2012-07-05T16:20:40Z</time>
      </trkpt>
      <trkpt lat="43.389934" lon="-6.010297">
        <ele>220.0</ele>
        <time>2012-07-05T16:20:44Z</time>
      </trkpt>
      <trkpt lat="43.390072" lon="-6.010658">
        <ele>219.0</ele>
        <time>2012-07-05T16:20:48Z</time>
      </trkpt>
      <trkpt lat="43.390229" lon="-6.010981">
        <ele>219.0</ele>
        <time>2012-07-05T16:20:52Z</time>
      </trkpt>
      <trkpt lat="43.390404" lon="-6.011278">
        <ele>219.0</ele>
        <time>2012-07-05T16:20:56Z</time>
      </trkpt>
      <trkpt lat="43.390568" lon="-6.0116">
        <ele>219.0</ele>
        <time>2012-07-05T16:21:00Z</time>
      </trkpt>
      <trkpt lat="43.390727" lon="-6.011937">
        <ele>220.0</ele>
        <time>2012-07-05T16:21:04Z</time>
      </trkpt>
      <trkpt lat="43.390898" lon="-6.012269">
        <ele>220.0</ele>
        <time>2012-07-05T16:21:08Z</time>
      </trkpt>
      <trkpt lat="43.391102" lon="-6.012574">
        <ele>220.0</ele>
        <time>2012-07-05T16:21:12Z</time>
      </trkpt>
      <trkpt lat="43.391331" lon="-6.012852">
        <ele>219.0</ele>
        <time>2012-07-05T16:21:16Z</time>
      </trkpt>
      <trkpt lat="43.391576" lon="-6.013107">
        <ele>218.0</ele>
        <time>2012-07-05T16:21:20Z</time>
      </trkpt>
      <trkpt lat="43.391837" lon="-6.013333">
        <ele>218.0</ele>
        <time>2012-07-05T16:21:24Z</time>
      </trkpt>
      <trkpt lat="43.39209" lon="-6.013551">
        <ele>218.0</ele>
        <time>2012-07-05T16:21:28Z</time>
      </trkpt>
      <trkpt lat="43.392325" lon="-6.013778">
        <ele>218.0</ele>
        <time>2012-07-05T16:21:32Z</time>
      </trkpt>
      <trkpt lat="43.392512" lon="-6.014116">
        <ele>218.0</ele>
        <time>2012-07-05T16:21:36Z</time>
      </trkpt>
      <trkpt lat="43.392636" lon="-6.014496">
        <ele>219.0</ele>
        <time>2012-07-05T16:21:40Z</time>
      </trkpt>
      <trkpt lat="43.392627" lon="-6.01493">
        <ele>220.0</ele>
        <time>2012-07-05T16:21:44Z</time>
      </trkpt>
      <trkpt lat="43.392586" lon="-6.015353">
        <ele>220.0</ele>
        <time>2012-07-05T16:21:48Z</time>
      </trkpt>
      <trkpt lat="43.392533" lon="-6.015787">
        <ele>219.0</ele>
        <time>2012-07-05T16:21:52Z</time>
      </trkpt>
      <trkpt lat="43.392478" lon="-6.016202">
        <ele>218.0</ele>
        <time>2012-07-05T16:21:56Z</time>
      </trkpt>
      <trkpt lat="43.392445" lon="-6.016615">
        <ele>217.0</ele>
        <time>2012-07-05T16:22:00Z</time>
      </trkpt>
      <trkpt lat="43.392432" lon="-6.017034">
        <ele>217.0</ele>
        <time>2012-07-05T16:22:04Z</time>
      </trkpt>
      <trkpt lat="43.39243" lon="-6.017459">
        <ele>217.0</ele>
        <time>2012-07-05T16:22:08Z</time>
      </trkpt>
      <trkpt lat="43.392452" lon="-6.017914">
        <ele>217.0</ele>
        <time>2012-07-05T16:22:12Z</time>
      </trkpt>
      <trkpt lat="43.392541" lon="-6.018346">
        <ele>218.0</ele>
        <time>2012-07-05T16:22:16Z</time>
      </trkpt>
      <trkpt lat="43.392664" lon="-6.018757">
        <ele>218.0</ele>
        <time>2012-07-05T16:22:20Z</time>
      </trkpt>
      <trkpt lat="43.392774" lon="-6.01918">
        <ele>217.0</ele>
        <time>2012-07-05T16:22:24Z</time>
      </trkpt>
      <trkpt lat="43.392847" lon="-6.019496">
        <ele>215.0</ele>
        <time>2012-07-05T16:22:27Z</time>
      </trkpt>
      <trkpt lat="43.392961" lon="-6.019995">
        <ele>211.0</ele>
        <time>2012-07-05T16:22:32Z</time>
      </trkpt>
      <trkpt lat="43.393079" lon="-6.020322">
        <ele>209.0</ele>
        <time>2012-07-05T16:22:36Z</time>
      </trkpt>
      <trkpt lat="43.393288" lon="-6.020546">
        <ele>211.0</ele>
        <time>2012-07-05T16:22:40Z</time>
      </trkpt>
      <trkpt lat="43.393426" lon="-6.020815">
        <ele>212.0</ele>
        <time>2012-07-05T16:22:44Z</time>
      </trkpt>
      <trkpt lat="43.393478" lon="-6.020964">
        <ele>212.0</ele>
        <time>2012-07-05T16:22:46Z</time>
      </trkpt>
      <trkpt lat="43.393585" lon="-6.021426">
        <ele>215.0</ele>
        <time>2012-07-05T16:22:52Z</time>
      </trkpt>
      <trkpt lat="43.393567" lon="-6.021752">
        <ele>216.0</ele>
        <time>2012-07-05T16:22:56Z</time>
      </trkpt>
      <trkpt lat="43.393373" lon="-6.022262">
        <ele>220.0</ele>
        <time>2012-07-05T16:23:04Z</time>
      </trkpt>
      <trkpt lat="43.39323" lon="-6.022381">
        <ele>220.0</ele>
        <time>2012-07-05T16:23:08Z</time>
      </trkpt>
      <trkpt lat="43.393176" lon="-6.022487">
        <ele>220.0</ele>
        <time>2012-07-05T16:23:11Z</time>
      </trkpt>
      <trkpt lat="43.393255" lon="-6.022667">
        <ele>220.0</ele>
        <time>2012-07-05T16:23:15Z</time>
      </trkpt>
      <trkpt lat="43.393325" lon="-6.022901">
        <ele>219.0</ele>
        <time>2012-07-05T16:23:19Z</time>
      </trkpt>
      <trkpt lat="43.393379" lon="-6.023163">
        <ele>218.0</ele>
        <time>2012-07-05T16:23:23Z</time>
      </trkpt>
      <trkpt lat="43.393432" lon="-6.023429">
        <ele>217.0</ele>
        <time>2012-07-05T16:23:27Z</time>
      </trkpt>
      <trkpt lat="43.393452" lon="-6.023559">
        <ele>217.0</ele>
        <time>2012-07-05T16:23:29Z</time>
      </trkpt>
      <trkpt lat="43.393483" lon="-6.023994">
        <ele>216.0</ele>
        <time>2012-07-05T16:23:35Z</time>
      </trkpt>
      <trkpt lat="43.3935" lon="-6.024301">
        <ele>217.0</ele>
        <time>2012-07-05T16:23:39Z</time>
      </trkpt>
      <trkpt lat="43.393541" lon="-6.024623">
        <ele>218.0</ele>
        <time>2012-07-05T16:23:43Z</time>
      </trkpt>
      <trkpt lat="43.393685" lon="-6.025016">
        <ele>218.0</ele>
        <time>2012-07-05T16:23:48Z</time>
      </trkpt>
      <trkpt lat="43.393863" lon="-6.0253">
        <ele>218.0</ele>
        <time>2012-07-05T16:23:52Z</time>
      </trkpt>
      <trkpt lat="43.394089" lon="-6.02552">
        <ele>218.0</ele>
        <time>2012-07-05T16:23:56Z</time>
      </trkpt>
      <trkpt lat="43.394352" lon="-6.025699">
        <ele>218.0</ele>
        <time>2012-07-05T16:24:00Z</time>
      </trkpt>
      <trkpt lat="43.394633" lon="-6.025845">
        <ele>217.0</ele>
        <time>2012-07-05T16:24:04Z</time>
      </trkpt>
      <trkpt lat="43.394932" lon="-6.025948">
        <ele>217.0</ele>
        <time>2012-07-05T16:24:08Z</time>
      </trkpt>
      <trkpt lat="43.395214" lon="-6.026036">
        <ele>217.0</ele>
        <time>2012-07-05T16:24:12Z</time>
      </trkpt>
      <trkpt lat="43.395494" lon="-6.026116">
        <ele>217.0</ele>
        <time>2012-07-05T16:24:16Z</time>
      </trkpt>
      <trkpt lat="43.395756" lon="-6.026214">
        <ele>216.0</ele>
        <time>2012-07-05T16:24:20Z</time>
      </trkpt>
      <trkpt lat="43.395958" lon="-6.026383">
        <ele>215.0</ele>
        <time>2012-07-05T16:24:24Z</time>
      </trkpt>
      <trkpt lat="43.396051" lon="-6.026641">
        <ele>214.0</ele>
        <time>2012-07-05T16:24:28Z</time>
      </trkpt>
      <trkpt lat="43.396194" lon="-6.026808">
        <ele>215.0</ele>
        <time>2012-07-05T16:24:32Z</time>
      </trkpt>
      <trkpt lat="43.396298" lon="-6.027049">
        <ele>215.0</ele>
        <time>2012-07-05T16:24:36Z</time>
      </trkpt>
      <trkpt lat="43.396385" lon="-6.027326">
        <ele>216.0</ele>
        <time>2012-07-05T16:24:40Z</time>
      </trkpt>
      <trkpt lat="43.396445" lon="-6.027636">
        <ele>216.0</ele>
        <time>2012-07-05T16:24:44Z</time>
      </trkpt>
      <trkpt lat="43.39651" lon="-6.027962">
        <ele>216.0</ele>
        <time>2012-07-05T16:24:48Z</time>
      </trkpt>
      <trkpt lat="43.396595" lon="-6.028299">
        <ele>215.0</ele>
        <time>2012-07-05T16:24:52Z</time>
      </trkpt>
      <trkpt lat="43.39671" lon="-6.028625">
        <ele>215.0</ele>
        <time>2012-07-05T16:24:56Z</time>
      </trkpt>
      <trkpt lat="43.396844" lon="-6.028931">
        <ele>216.0</ele>
        <time>2012-07-05T16:25:00Z</time>
      </trkpt>
      <trkpt lat="43.396991" lon="-6.029213">
        <ele>216.0</ele>
        <time>2012-07-05T16:25:04Z</time>
      </trkpt>
      <trkpt lat="43.397062" lon="-6.029352">
        <ele>216.0</ele>
        <time>2012-07-05T16:25:06Z</time>
      </trkpt>
      <trkpt lat="43.397328" lon="-6.029767">
        <ele>217.0</ele>
        <time>2012-07-05T16:25:12Z</time>
      </trkpt>
      <trkpt lat="43.397535" lon="-6.030019">
        <ele>217.0</ele>
        <time>2012-07-05T16:25:16Z</time>
      </trkpt>
      <trkpt lat="43.397734" lon="-6.030239">
        <ele>218.0</ele>
        <time>2012-07-05T16:25:20Z</time>
      </trkpt>
      <trkpt lat="43.397969" lon="-6.030436">
        <ele>218.0</ele>
        <time>2012-07-05T16:25:24Z</time>
      </trkpt>
      <trkpt lat="43.398241" lon="-6.030616">
        <ele>217.0</ele>
        <time>2012-07-05T16:25:28Z</time>
      </trkpt>
      <trkpt lat="43.398493" lon="-6.030805">
        <ele>216.0</ele>
        <time>2012-07-05T16:25:32Z</time>
      </trkpt>
      <trkpt lat="43.398725" lon="-6.031069">
        <ele>215.0</ele>
        <time>2012-07-05T16:25:36Z</time>
      </trkpt>
      <trkpt lat="43.398956" lon="-6.031344">
        <ele>215.0</ele>
        <time>2012-07-05T16:25:40Z</time>
      </trkpt>
      <trkpt lat="43.399185" lon="-6.031612">
        <ele>215.0</ele>
        <time>2012-07-05T16:25:44Z</time>
      </trkpt>
      <trkpt lat="43.399406" lon="-6.031894">
        <ele>214.0</ele>
        <time>2012-07-05T16:25:48Z</time>
      </trkpt>
      <trkpt lat="43.399681" lon="-6.032125">
        <ele>215.0</ele>
        <time>2012-07-05T16:25:52Z</time>
      </trkpt>
      <trkpt lat="43.399947" lon="-6.032365">
        <ele>214.0</ele>
        <time>2012-07-05T16:25:56Z</time>
      </trkpt>
      <trkpt lat="43.400193" lon="-6.032646">
        <ele>213.0</ele>
        <time>2012-07-05T16:26:00Z</time>
      </trkpt>
      <trkpt lat="43.400434" lon="-6.032926">
        <ele>211.0</ele>
        <time>2012-07-05T16:26:04Z</time>
      </trkpt>
      <trkpt lat="43.400666" lon="-6.033189">
        <ele>210.0</ele>
        <time>2012-07-05T16:26:08Z</time>
      </trkpt>
      <trkpt lat="43.400868" lon="-6.033458">
        <ele>208.0</ele>
        <time>2012-07-05T16:26:12Z</time>
      </trkpt>
      <trkpt lat="43.40107" lon="-6.033713">
        <ele>208.0</ele>
        <time>2012-07-05T16:26:16Z</time>
      </trkpt>
      <trkpt lat="43.401266" lon="-6.033984">
        <ele>208.0</ele>
        <time>2012-07-05T16:26:20Z</time>
      </trkpt>
      <trkpt lat="43.401438" lon="-6.034283">
        <ele>209.0</ele>
        <time>2012-07-05T16:26:24Z</time>
      </trkpt>
      <trkpt lat="43.401581" lon="-6.034639">
        <ele>209.0</ele>
        <time>2012-07-05T16:26:28Z</time>
      </trkpt>
      <trkpt lat="43.4017" lon="-6.03503">
        <ele>209.0</ele>
        <time>2012-07-05T16:26:32Z</time>
      </trkpt>
      <trkpt lat="43.401814" lon="-6.035417">
        <ele>208.0</ele>
        <time>2012-07-05T16:26:36Z</time>
      </trkpt>
      <trkpt lat="43.401893" lon="-6.035827">
        <ele>208.0</ele>
        <time>2012-07-05T16:26:40Z</time>
      </trkpt>
      <trkpt lat="43.401959" lon="-6.036247">
        <ele>208.0</ele>
        <time>2012-07-05T16:26:44Z</time>
      </trkpt>
      <trkpt lat="43.402016" lon="-6.036661">
        <ele>208.0</ele>
        <time>2012-07-05T16:26:48Z</time>
      </trkpt>
      <trkpt lat="43.402088" lon="-6.037056">
        <ele>208.0</ele>
        <time>2012-07-05T16:26:52Z</time>
      </trkpt>
      <trkpt lat="43.402194" lon="-6.037412">
        <ele>208.0</ele>
        <time>2012-07-05T16:26:56Z</time>
      </trkpt>
      <trkpt lat="43.402306" lon="-6.037763">
        <ele>208.0</ele>
        <time>2012-07-05T16:27:00Z</time>
      </trkpt>
      <trkpt lat="43.402417" lon="-6.038117">
        <ele>208.0</ele>
        <time>2012-07-05T16:27:04Z</time>
      </trkpt>
      <trkpt lat="43.402515" lon="-6.038354">
        <ele>209.0</ele>
        <time>2012-07-05T16:27:07Z</time>
      </trkpt>
      <trkpt lat="43.402644" lon="-6.038654">
        <ele>210.0</ele>
        <time>2012-07-05T16:27:11Z</time>
      </trkpt>
      <trkpt lat="43.402768" lon="-6.038954">
        <ele>210.0</ele>
        <time>2012-07-05T16:27:15Z</time>
      </trkpt>
      <trkpt lat="43.40293" lon="-6.039323">
        <ele>211.0</ele>
        <time>2012-07-05T16:27:20Z</time>
      </trkpt>
      <trkpt lat="43.403021" lon="-6.039638">
        <ele>211.0</ele>
        <time>2012-07-05T16:27:24Z</time>
      </trkpt>
      <trkpt lat="43.403092" lon="-6.039951">
        <ele>211.0</ele>
        <time>2012-07-05T16:27:28Z</time>
      </trkpt>
      <trkpt lat="43.403138" lon="-6.040269">
        <ele>211.0</ele>
        <time>2012-07-05T16:27:32Z</time>
      </trkpt>
      <trkpt lat="43.403143" lon="-6.040599">
        <ele>211.0</ele>
        <time>2012-07-05T16:27:36Z</time>
      </trkpt>
      <trkpt lat="43.403155" lon="-6.040938">
        <ele>211.0</ele>
        <time>2012-07-05T16:27:40Z</time>
      </trkpt>
      <trkpt lat="43.403184" lon="-6.041305">
        <ele>212.0</ele>
        <time>2012-07-05T16:27:44Z</time>
      </trkpt>
      <trkpt lat="43.403226" lon="-6.041734">
        <ele>212.0</ele>
        <time>2012-07-05T16:27:48Z</time>
      </trkpt>
      <trkpt lat="43.403268" lon="-6.042167">
        <ele>212.0</ele>
        <time>2012-07-05T16:27:52Z</time>
      </trkpt>
      <trkpt lat="43.403273" lon="-6.042639">
        <ele>212.0</ele>
        <time>2012-07-05T16:27:56Z</time>
      </trkpt>
      <trkpt lat="43.403235" lon="-6.043119">
        <ele>211.0</ele>
        <time>2012-07-05T16:28:00Z</time>
      </trkpt>
      <trkpt lat="43.403199" lon="-6.043605">
        <ele>210.0</ele>
        <time>2012-07-05T16:28:04Z</time>
      </trkpt>
      <trkpt lat="43.403153" lon="-6.044079">
        <ele>210.0</ele>
        <time>2012-07-05T16:28:08Z</time>
      </trkpt>
      <trkpt lat="43.403054" lon="-6.044484">
        <ele>210.0</ele>
        <time>2012-07-05T16:28:12Z</time>
      </trkpt>
      <trkpt lat="43.402945" lon="-6.044877">
        <ele>209.0</ele>
        <time>2012-07-05T16:28:16Z</time>
      </trkpt>
      <trkpt lat="43.402796" lon="-6.045159">
        <ele>207.0</ele>
        <time>2012-07-05T16:28:20Z</time>
      </trkpt>
      <trkpt lat="43.402506" lon="-6.04536">
        <ele>206.0</ele>
        <time>2012-07-05T16:28:24Z</time>
      </trkpt>
      <trkpt lat="43.402147" lon="-6.045527">
        <ele>207.0</ele>
        <time>2012-07-05T16:28:28Z</time>
      </trkpt>
      <trkpt lat="43.40181" lon="-6.045653">
        <ele>207.0</ele>
        <time>2012-07-05T16:28:32Z</time>
      </trkpt>
      <trkpt lat="43.401491" lon="-6.045782">
        <ele>206.0</ele>
        <time>2012-07-05T16:28:36Z</time>
      </trkpt>
      <trkpt lat="43.401212" lon="-6.045955">
        <ele>206.0</ele>
        <time>2012-07-05T16:28:40Z</time>
      </trkpt>
      <trkpt lat="43.40096" lon="-6.046156">
        <ele>206.0</ele>
        <time>2012-07-05T16:28:44Z</time>
      </trkpt>
      <trkpt lat="43.400756" lon="-6.046374">
        <ele>206.0</ele>
        <time>2012-07-05T16:28:48Z</time>
      </trkpt>
      <trkpt lat="43.400585" lon="-6.046577">
        <ele>205.0</ele>
        <time>2012-07-05T16:28:52Z</time>
      </trkpt>
      <trkpt lat="43.400422" lon="-6.046761">
        <ele>205.0</ele>
        <time>2012-07-05T16:28:56Z</time>
      </trkpt>
      <trkpt lat="43.400238" lon="-6.046951">
        <ele>205.0</ele>
        <time>2012-07-05T16:29:00Z</time>
      </trkpt>
      <trkpt lat="43.40014" lon="-6.047047">
        <ele>205.0</ele>
        <time>2012-07-05T16:29:02Z</time>
      </trkpt>
      <trkpt lat="43.399832" lon="-6.047345">
        <ele>206.0</ele>
        <time>2012-07-05T16:29:08Z</time>
      </trkpt>
      <trkpt lat="43.399601" lon="-6.047579">
        <ele>206.0</ele>
        <time>2012-07-05T16:29:12Z</time>
      </trkpt>
      <trkpt lat="43.399388" lon="-6.047828">
        <ele>206.0</ele>
        <time>2012-07-05T16:29:16Z</time>
      </trkpt>
      <trkpt lat="43.399223" lon="-6.048097">
        <ele>205.0</ele>
        <time>2012-07-05T16:29:20Z</time>
      </trkpt>
      <trkpt lat="43.399123" lon="-6.04833">
        <ele>204.0</ele>
        <time>2012-07-05T16:29:23Z</time>
      </trkpt>
      <trkpt lat="43.398952" lon="-6.04872">
        <ele>203.0</ele>
        <time>2012-07-05T16:29:28Z</time>
      </trkpt>
      <trkpt lat="43.398814" lon="-6.049053">
        <ele>203.0</ele>
        <time>2012-07-05T16:29:32Z</time>
      </trkpt>
      <trkpt lat="43.398681" lon="-6.049391">
        <ele>202.0</ele>
        <time>2012-07-05T16:29:36Z</time>
      </trkpt>
      <trkpt lat="43.398539" lon="-6.04971">
        <ele>202.0</ele>
        <time>2012-07-05T16:29:40Z</time>
      </trkpt>
      <trkpt lat="43.398391" lon="-6.05001">
        <ele>202.0</ele>
        <time>2012-07-05T16:29:44Z</time>
      </trkpt>
      <trkpt lat="43.398238" lon="-6.050289">
        <ele>202.0</ele>
        <time>2012-07-05T16:29:48Z</time>
      </trkpt>
      <trkpt lat="43.398147" lon="-6.050625">
        <ele>201.0</ele>
        <time>2012-07-05T16:29:52Z</time>
      </trkpt>
      <trkpt lat="43.397955" lon="-6.050881">
        <ele>201.0</ele>
        <time>2012-07-05T16:29:56Z</time>
      </trkpt>
      <trkpt lat="43.39782" lon="-6.051176">
        <ele>201.0</ele>
        <time>2012-07-05T16:30:00Z</time>
      </trkpt>
      <trkpt lat="43.397701" lon="-6.051497">
        <ele>201.0</ele>
        <time>2012-07-05T16:30:04Z</time>
      </trkpt>
      <trkpt lat="43.397582" lon="-6.051819">
        <ele>202.0</ele>
        <time>2012-07-05T16:30:08Z</time>
      </trkpt>
      <trkpt lat="43.397459" lon="-6.052141">
        <ele>202.0</ele>
        <time>2012-07-05T16:30:12Z</time>
      </trkpt>
      <trkpt lat="43.397333" lon="-6.052469">
        <ele>202.0</ele>
        <time>2012-07-05T16:30:16Z</time>
      </trkpt>
      <trkpt lat="43.397196" lon="-6.052795">
        <ele>202.0</ele>
        <time>2012-07-05T16:30:20Z</time>
      </trkpt>
      <trkpt lat="43.397049" lon="-6.053109">
        <ele>203.0</ele>
        <time>2012-07-05T16:30:24Z</time>
      </trkpt>
      <trkpt lat="43.396917" lon="-6.053429">
        <ele>203.0</ele>
        <time>2012-07-05T16:30:28Z</time>
      </trkpt>
      <trkpt lat="43.396783" lon="-6.053742">
        <ele>203.0</ele>
        <time>2012-07-05T16:30:32Z</time>
      </trkpt>
      <trkpt lat="43.396639" lon="-6.054003">
        <ele>202.0</ele>
        <time>2012-07-05T16:30:36Z</time>
      </trkpt>
      <trkpt lat="43.396489" lon="-6.054246">
        <ele>201.0</ele>
        <time>2012-07-05T16:30:40Z</time>
      </trkpt>
      <trkpt lat="43.396428" lon="-6.054384">
        <ele>201.0</ele>
        <time>2012-07-05T16:30:42Z</time>
      </trkpt>
      <trkpt lat="43.396344" lon="-6.054868">
        <ele>200.0</ele>
        <time>2012-07-05T16:30:48Z</time>
      </trkpt>
      <trkpt lat="43.396237" lon="-6.055175">
        <ele>200.0</ele>
        <time>2012-07-05T16:30:52Z</time>
      </trkpt>
      <trkpt lat="43.396081" lon="-6.055472">
        <ele>200.0</ele>
        <time>2012-07-05T16:30:56Z</time>
      </trkpt>
      <trkpt lat="43.395903" lon="-6.055727">
        <ele>201.0</ele>
        <time>2012-07-05T16:31:00Z</time>
      </trkpt>
      <trkpt lat="43.395725" lon="-6.055964">
        <ele>202.0</ele>
        <time>2012-07-05T16:31:04Z</time>
      </trkpt>
      <trkpt lat="43.395545" lon="-6.056213">
        <ele>202.0</ele>
        <time>2012-07-05T16:31:08Z</time>
      </trkpt>
      <trkpt lat="43.395368" lon="-6.056482">
        <ele>204.0</ele>
        <time>2012-07-05T16:31:12Z</time>
      </trkpt>
      <trkpt lat="43.395204" lon="-6.056769">
        <ele>204.0</ele>
        <time>2012-07-05T16:31:16Z</time>
      </trkpt>
      <trkpt lat="43.395033" lon="-6.057047">
        <ele>204.0</ele>
        <time>2012-07-05T16:31:20Z</time>
      </trkpt>
      <trkpt lat="43.394875" lon="-6.057348">
        <ele>205.0</ele>
        <time>2012-07-05T16:31:24Z</time>
      </trkpt>
      <trkpt lat="43.394769" lon="-6.057566">
        <ele>205.0</ele>
        <time>2012-07-05T16:31:27Z</time>
      </trkpt>
      <trkpt lat="43.3947" lon="-6.057895">
        <ele>204.0</ele>
        <time>2012-07-05T16:31:31Z</time>
      </trkpt>
      <trkpt lat="43.394525" lon="-6.058238">
        <ele>204.0</ele>
        <time>2012-07-05T16:31:36Z</time>
      </trkpt>
      <trkpt lat="43.394336" lon="-6.058477">
        <ele>204.0</ele>
        <time>2012-07-05T16:31:40Z</time>
      </trkpt>
      <trkpt lat="43.394188" lon="-6.05877">
        <ele>203.0</ele>
        <time>2012-07-05T16:31:44Z</time>
      </trkpt>
      <trkpt lat="43.394048" lon="-6.059067">
        <ele>203.0</ele>
        <time>2012-07-05T16:31:48Z</time>
      </trkpt>
      <trkpt lat="43.3939" lon="-6.059382">
        <ele>202.0</ele>
        <time>2012-07-05T16:31:52Z</time>
      </trkpt>
      <trkpt lat="43.393748" lon="-6.059711">
        <ele>201.0</ele>
        <time>2012-07-05T16:31:56Z</time>
      </trkpt>
      <trkpt lat="43.393596" lon="-6.060047">
        <ele>200.0</ele>
        <time>2012-07-05T16:32:00Z</time>
      </trkpt>
      <trkpt lat="43.393462" lon="-6.060388">
        <ele>200.0</ele>
        <time>2012-07-05T16:32:04Z</time>
      </trkpt>
      <trkpt lat="43.393347" lon="-6.060735">
        <ele>201.0</ele>
        <time>2012-07-05T16:32:08Z</time>
      </trkpt>
      <trkpt lat="43.393264" lon="-6.061086">
        <ele>201.0</ele>
        <time>2012-07-05T16:32:12Z</time>
      </trkpt>
      <trkpt lat="43.393224" lon="-6.061433">
        <ele>201.0</ele>
        <time>2012-07-05T16:32:16Z</time>
      </trkpt>
      <trkpt lat="43.393255" lon="-6.061803">
        <ele>200.0</ele>
        <time>2012-07-05T16:32:20Z</time>
      </trkpt>
      <trkpt lat="43.393268" lon="-6.061994">
        <ele>199.0</ele>
        <time>2012-07-05T16:32:22Z</time>
      </trkpt>
      <trkpt lat="43.393317" lon="-6.062556">
        <ele>197.0</ele>
        <time>2012-07-05T16:32:28Z</time>
      </trkpt>
      <trkpt lat="43.393343" lon="-6.062948">
        <ele>196.0</ele>
        <time>2012-07-05T16:32:32Z</time>
      </trkpt>
      <trkpt lat="43.393368" lon="-6.063348">
        <ele>195.0</ele>
        <time>2012-07-05T16:32:36Z</time>
      </trkpt>
      <trkpt lat="43.393393" lon="-6.063745">
        <ele>195.0</ele>
        <time>2012-07-05T16:32:40Z</time>
      </trkpt>
      <trkpt lat="43.393405" lon="-6.064119">
        <ele>195.0</ele>
        <time>2012-07-05T16:32:44Z</time>
      </trkpt>
      <trkpt lat="43.393436" lon="-6.064464">
        <ele>194.0</ele>
        <time>2012-07-05T16:32:48Z</time>
      </trkpt>
      <trkpt lat="43.393454" lon="-6.065099">
        <ele>192.0</ele>
        <time>2012-07-05T16:32:56Z</time>
      </trkpt>
      <trkpt lat="43.393454" lon="-6.065237">
        <ele>192.0</ele>
        <time>2012-07-05T16:32:58Z</time>
      </trkpt>
      <trkpt lat="43.393486" lon="-6.065601">
        <ele>192.0</ele>
        <time>2012-07-05T16:33:04Z</time>
      </trkpt>
      <trkpt lat="43.393516" lon="-6.066136">
        <ele>195.0</ele>
        <time>2012-07-05T16:33:12Z</time>
      </trkpt>
      <trkpt lat="43.393339" lon="-6.066582">
        <ele>194.0</ele>
        <time>2012-07-05T16:33:20Z</time>
      </trkpt>
      <trkpt lat="43.393194" lon="-6.06674">
        <ele>194.0</ele>
        <time>2012-07-05T16:33:24Z</time>
      </trkpt>
      <trkpt lat="43.393121" lon="-6.066817">
        <ele>194.0</ele>
        <time>2012-07-05T16:33:26Z</time>
      </trkpt>
      <trkpt lat="43.392964" lon="-6.0671">
        <ele>194.0</ele>
        <time>2012-07-05T16:33:32Z</time>
      </trkpt>
      <trkpt lat="43.392902" lon="-6.067182">
        <ele>195.0</ele>
        <time>2012-07-05T16:33:34Z</time>
      </trkpt>
      <trkpt lat="43.392669" lon="-6.06736">
        <ele>195.0</ele>
        <time>2012-07-05T16:33:40Z</time>
      </trkpt>
      <trkpt lat="43.392527" lon="-6.067482">
        <ele>194.0</ele>
        <time>2012-07-05T16:33:44Z</time>
      </trkpt>
      <trkpt lat="43.392389" lon="-6.067609">
        <ele>194.0</ele>
        <time>2012-07-05T16:33:48Z</time>
      </trkpt>
      <trkpt lat="43.39232" lon="-6.067667">
        <ele>194.0</ele>
        <time>2012-07-05T16:33:50Z</time>
      </trkpt>
      <trkpt lat="43.392109" lon="-6.067816">
        <ele>194.0</ele>
        <time>2012-07-05T16:33:56Z</time>
      </trkpt>
      <trkpt lat="43.391964" lon="-6.067893">
        <ele>194.0</ele>
        <time>2012-07-05T16:34:00Z</time>
      </trkpt>
      <trkpt lat="43.391816" lon="-6.067957">
        <ele>194.0</ele>
        <time>2012-07-05T16:34:04Z</time>
      </trkpt>
      <trkpt lat="43.391669" lon="-6.06803">
        <ele>194.0</ele>
        <time>2012-07-05T16:34:08Z</time>
      </trkpt>
      <trkpt lat="43.391589" lon="-6.068044">
        <ele>194.0</ele>
        <time>2012-07-05T16:34:10Z</time>
      </trkpt>
      <trkpt lat="43.391328" lon="-6.068099">
        <ele>195.0</ele>
        <time>2012-07-05T16:34:16Z</time>
      </trkpt>
      <trkpt lat="43.391141" lon="-6.068105">
        <ele>195.0</ele>
        <time>2012-07-05T16:34:20Z</time>
      </trkpt>
      <trkpt lat="43.390974" lon="-6.068179">
        <ele>196.0</ele>
        <time>2012-07-05T16:34:24Z</time>
      </trkpt>
      <trkpt lat="43.390839" lon="-6.068337">
        <ele>196.0</ele>
        <time>2012-07-05T16:34:28Z</time>
      </trkpt>
      <trkpt lat="43.390698" lon="-6.068496">
        <ele>196.0</ele>
        <time>2012-07-05T16:34:32Z</time>
      </trkpt>
      <trkpt lat="43.390633" lon="-6.068576">
        <ele>196.0</ele>
        <time>2012-07-05T16:34:34Z</time>
      </trkpt>
      <trkpt lat="43.390515" lon="-6.068739">
        <ele>196.0</ele>
        <time>2012-07-05T16:34:38Z</time>
      </trkpt>
      <trkpt lat="43.390357" lon="-6.068951">
        <ele>196.0</ele>
        <time>2012-07-05T16:34:46Z</time>
      </trkpt>
      <trkpt lat="43.390262" lon="-6.069078">
        <ele>197.0</ele>
        <time>2012-07-05T16:34:52Z</time>
      </trkpt>
      <trkpt lat="43.390205" lon="-6.06915">
        <ele>197.0</ele>
        <time>2012-07-05T16:34:55Z</time>
      </trkpt>
      <trkpt lat="43.390086" lon="-6.069325">
        <ele>197.0</ele>
        <time>2012-07-05T16:35:00Z</time>
      </trkpt>
      <trkpt lat="43.389982" lon="-6.069509">
        <ele>197.0</ele>
        <time>2012-07-05T16:35:04Z</time>
      </trkpt>
      <trkpt lat="43.38987" lon="-6.069684">
        <ele>198.0</ele>
        <time>2012-07-05T16:35:08Z</time>
      </trkpt>
      <trkpt lat="43.38975" lon="-6.069859">
        <ele>198.0</ele>
        <time>2012-07-05T16:35:12Z</time>
      </trkpt>
      <trkpt lat="43.389628" lon="-6.070035">
        <ele>199.0</ele>
        <time>2012-07-05T16:35:16Z</time>
      </trkpt>
      <trkpt lat="43.389502" lon="-6.070213">
        <ele>199.0</ele>
        <time>2012-07-05T16:35:20Z</time>
      </trkpt>
      <trkpt lat="43.38936" lon="-6.070382">
        <ele>199.0</ele>
        <time>2012-07-05T16:35:24Z</time>
      </trkpt>
      <trkpt lat="43.389216" lon="-6.070545">
        <ele>198.0</ele>
        <time>2012-07-05T16:35:28Z</time>
      </trkpt>
      <trkpt lat="43.38915" lon="-6.070623">
        <ele>198.0</ele>
        <time>2012-07-05T16:35:30Z</time>
      </trkpt>
      <trkpt lat="43.389031" lon="-6.070764">
        <ele>198.0</ele>
        <time>2012-07-05T16:35:34Z</time>
      </trkpt>
      <trkpt lat="43.388935" lon="-6.070919">
        <ele>198.0</ele>
        <time>2012-07-05T16:35:40Z</time>
      </trkpt>
      <trkpt lat="43.388898" lon="-6.071006">
        <ele>198.0</ele>
        <time>2012-07-05T16:35:43Z</time>
      </trkpt>
      <trkpt lat="43.388805" lon="-6.071176">
        <ele>198.0</ele>
        <time>2012-07-05T16:35:48Z</time>
      </trkpt>
      <trkpt lat="43.388733" lon="-6.071359">
        <ele>198.0</ele>
        <time>2012-07-05T16:35:52Z</time>
      </trkpt>
      <trkpt lat="43.388679" lon="-6.071558">
        <ele>198.0</ele>
        <time>2012-07-05T16:35:56Z</time>
      </trkpt>
      <trkpt lat="43.3886" lon="-6.071966">
        <ele>198.0</ele>
        <time>2012-07-05T16:36:04Z</time>
      </trkpt>
      <trkpt lat="43.388586" lon="-6.072078">
        <ele>198.0</ele>
        <time>2012-07-05T16:36:06Z</time>
      </trkpt>
      <trkpt lat="43.388567" lon="-6.072194">
        <ele>197.0</ele>
        <time>2012-07-05T16:36:08Z</time>
      </trkpt>
      <trkpt lat="43.388547" lon="-6.072319">
        <ele>197.0</ele>
        <time>2012-07-05T16:36:10Z</time>
      </trkpt>
      <trkpt lat="43.388485" lon="-6.072707">
        <ele>196.0</ele>
        <time>2012-07-05T16:36:16Z</time>
      </trkpt>
      <trkpt lat="43.388413" lon="-6.072962">
        <ele>196.0</ele>
        <time>2012-07-05T16:36:20Z</time>
      </trkpt>
      <trkpt lat="43.388372" lon="-6.073088">
        <ele>196.0</ele>
        <time>2012-07-05T16:36:22Z</time>
      </trkpt>
      <trkpt lat="43.388194" lon="-6.073479">
        <ele>198.0</ele>
        <time>2012-07-05T16:36:28Z</time>
      </trkpt>
      <trkpt lat="43.387976" lon="-6.073723">
        <ele>199.0</ele>
        <time>2012-07-05T16:36:32Z</time>
      </trkpt>
      <trkpt lat="43.387769" lon="-6.073952">
        <ele>200.0</ele>
        <time>2012-07-05T16:36:36Z</time>
      </trkpt>
      <trkpt lat="43.387563" lon="-6.074165">
        <ele>200.0</ele>
        <time>2012-07-05T16:36:40Z</time>
      </trkpt>
      <trkpt lat="43.387347" lon="-6.074368">
        <ele>201.0</ele>
        <time>2012-07-05T16:36:44Z</time>
      </trkpt>
      <trkpt lat="43.387125" lon="-6.07452">
        <ele>202.0</ele>
        <time>2012-07-05T16:36:48Z</time>
      </trkpt>
      <trkpt lat="43.386836" lon="-6.074269">
        <ele>203.0</ele>
        <time>2012-07-05T16:36:52Z</time>
      </trkpt>
      <trkpt lat="43.386594" lon="-6.073954">
        <ele>204.0</ele>
        <time>2012-07-05T16:36:56Z</time>
      </trkpt>
      <trkpt lat="43.38636" lon="-6.073746">
        <ele>205.0</ele>
        <time>2012-07-05T16:37:00Z</time>
      </trkpt>
      <trkpt lat="43.386054" lon="-6.073492">
        <ele>205.0</ele>
        <time>2012-07-05T16:37:05Z</time>
      </trkpt>
      <trkpt lat="43.385875" lon="-6.073336">
        <ele>206.0</ele>
        <time>2012-07-05T16:37:08Z</time>
      </trkpt>
      <trkpt lat="43.385645" lon="-6.073141">
        <ele>206.0</ele>
        <time>2012-07-05T16:37:12Z</time>
      </trkpt>
      <trkpt lat="43.385419" lon="-6.072957">
        <ele>206.0</ele>
        <time>2012-07-05T16:37:16Z</time>
      </trkpt>
      <trkpt lat="43.38519" lon="-6.072779">
        <ele>206.0</ele>
        <time>2012-07-05T16:37:20Z</time>
      </trkpt>
      <trkpt lat="43.384958" lon="-6.072629">
        <ele>207.0</ele>
        <time>2012-07-05T16:37:24Z</time>
      </trkpt>
      <trkpt lat="43.384726" lon="-6.072477">
        <ele>207.0</ele>
        <time>2012-07-05T16:37:28Z</time>
      </trkpt>
      <trkpt lat="43.384487" lon="-6.072319">
        <ele>208.0</ele>
        <time>2012-07-05T16:37:32Z</time>
      </trkpt>
      <trkpt lat="43.384189" lon="-6.072131">
        <ele>208.0</ele>
        <time>2012-07-05T16:37:37Z</time>
      </trkpt>
      <trkpt lat="43.384017" lon="-6.07203">
        <ele>209.0</ele>
        <time>2012-07-05T16:37:40Z</time>
      </trkpt>
      <trkpt lat="43.383801" lon="-6.071882">
        <ele>208.0</ele>
        <time>2012-07-05T16:37:44Z</time>
      </trkpt>
      <trkpt lat="43.383593" lon="-6.071729">
        <ele>208.0</ele>
        <time>2012-07-05T16:37:48Z</time>
      </trkpt>
      <trkpt lat="43.383379" lon="-6.071591">
        <ele>209.0</ele>
        <time>2012-07-05T16:37:52Z</time>
      </trkpt>
      <trkpt lat="43.383146" lon="-6.071468">
        <ele>209.0</ele>
        <time>2012-07-05T16:37:56Z</time>
      </trkpt>
      <trkpt lat="43.382904" lon="-6.071369">
        <ele>210.0</ele>
        <time>2012-07-05T16:38:00Z</time>
      </trkpt>
      <trkpt lat="43.382595" lon="-6.07127">
        <ele>210.0</ele>
        <time>2012-07-05T16:38:05Z</time>
      </trkpt>
      <trkpt lat="43.382102" lon="-6.07156">
        <ele>212.0</ele>
        <time>2012-07-05T16:38:12Z</time>
      </trkpt>
      <trkpt lat="43.382036" lon="-6.07186">
        <ele>212.0</ele>
        <time>2012-07-05T16:38:16Z</time>
      </trkpt>
      <trkpt lat="43.382109" lon="-6.072184">
        <ele>211.0</ele>
        <time>2012-07-05T16:38:20Z</time>
      </trkpt>
      <trkpt lat="43.382161" lon="-6.0725">
        <ele>210.0</ele>
        <time>2012-07-05T16:38:24Z</time>
      </trkpt>
      <trkpt lat="43.382224" lon="-6.072784">
        <ele>209.0</ele>
        <time>2012-07-05T16:38:28Z</time>
      </trkpt>
      <trkpt lat="43.382291" lon="-6.073011">
        <ele>208.0</ele>
        <time>2012-07-05T16:38:32Z</time>
      </trkpt>
      <trkpt lat="43.382375" lon="-6.073197">
        <ele>208.0</ele>
        <time>2012-07-05T16:38:36Z</time>
      </trkpt>
      <trkpt lat="43.382481" lon="-6.073354">
        <ele>207.0</ele>
        <time>2012-07-05T16:38:40Z</time>
      </trkpt>
      <trkpt lat="43.382574" lon="-6.07351">
        <ele>207.0</ele>
        <time>2012-07-05T16:38:44Z</time>
      </trkpt>
      <trkpt lat="43.382621" lon="-6.073594">
        <ele>207.0</ele>
        <time>2012-07-05T16:38:46Z</time>
      </trkpt>
      <trkpt lat="43.382722" lon="-6.073782">
        <ele>206.0</ele>
        <time>2012-07-05T16:38:50Z</time>
      </trkpt>
      <trkpt lat="43.382815" lon="-6.073962">
        <ele>206.0</ele>
        <time>2012-07-05T16:38:54Z</time>
      </trkpt>
      <trkpt lat="43.383044" lon="-6.074336">
        <ele>206.0</ele>
        <time>2012-07-05T16:39:04Z</time>
      </trkpt>
      <trkpt lat="43.383131" lon="-6.074469">
        <ele>207.0</ele>
        <time>2012-07-05T16:39:08Z</time>
      </trkpt>
      <trkpt lat="43.383197" lon="-6.074509">
        <ele>207.0</ele>
        <time>2012-07-05T16:39:16Z</time>
      </trkpt>
      <trkpt lat="43.383263" lon="-6.074516">
        <ele>207.0</ele>
        <time>2012-07-05T16:39:19Z</time>
      </trkpt>
      <trkpt lat="43.383426" lon="-6.074511">
        <ele>208.0</ele>
        <time>2012-07-05T16:39:24Z</time>
      </trkpt>
      <trkpt lat="43.383607" lon="-6.074504">
        <ele>209.0</ele>
        <time>2012-07-05T16:39:28Z</time>
      </trkpt>
      <trkpt lat="43.383607" lon="-6.074504">
        <time>2012-07-05T16:39:29Z</time>
      </trkpt>
    </trkseg>
  </trk>
</gpx>